# Wetter Temperatur Luftdruck Luftfeuchtigkeit Sichtweite Windgeschwindigkeit Windrichtung Zeit
1 Clouds 1 1027 90 10000 3.32 322 16:59 01.02.2023
2 Clouds 1 1025 83 10000 3.43 325 14:22 01.02.2023
3 Clouds 1 1026 84 10000 3.45 324 13:19 01.02.2023
4 Clouds 0 1026 66 10000 3.62 323 12:26 01.02.2023
5 Clouds 0 1026 62 10000 3.62 323 11:35 01.02.2023
6 Clouds -4 1028 92 7512 3.48 319 08:41 01.02.2023
7 Clouds -4 1032 87 10000 2.33 307 23:41 31.01.2023
8 Snow -2 1031 84 9542 3.25 326 21:20 31.01.2023
9 Snow -2 1030 78 10000 2.86 317 19:24 31.01.2023
10 Snow -2 1030 76 10000 3.45 319 17:41 31.01.2023
11 Clouds 0 1027 70 10000 2.56 298 15:36 31.01.2023
12 Clouds 0 1025 68 10000 3.33 323 15:18 31.01.2023
13 Clouds 0 1025 69 10000 3.42 324 13:43 31.01.2023
14 Clouds -2 1027 73 10000 3.1 328 11:28 31.01.2023
15 Clouds -3 1028 77 10000 2.65 325 10:25 31.01.2023
16 Clouds -3 1028 79 10000 2.65 325 09:44 31.01.2023
17 Clouds -6 1032 53 10000 2.15 319 08:56 31.01.2023
18 Clouds -6 1034 65 10000 1.84 313 07:59 31.01.2023
19 Clouds -5 1031 93 9201 3.67 336 03:39 31.01.2023
20 Clouds -3 1028 89 7860 4.66 332 23:29 30.01.2023
21 Clouds -3 1028 87 7860 4.66 332 22:50 30.01.2023
22 Clouds -3 1028 93 7249 4.77 331 21:48 30.01.2023
23 Clouds -3 1029 92 7596 4.5 328 20:44 30.01.2023
24 Clouds -5 1030 91 9882 3.93 318 18:55 30.01.2023
25 Clear -2 1027 89 10000 4.27 326 17:25 30.01.2023
26 Clear 1 1021 53 10000 4.52 323 14:48 30.01.2023
27 Clear 1 1021 50 10000 4.06 320 13:56 30.01.2023
28 Clouds 0 1023 53 10000 3.54 319 12:18 30.01.2023
29 Clouds -1 1023 58 10000 3.51 325 10:24 30.01.2023
30 Clouds -10 1023 58 10000 3.51 325 09:53 30.01.2023
31 Clouds -6 1027 72 10000 2.18 303 08:30 30.01.2023
32 Clouds -7 1027 70 10000 2.84 318 06:23 30.01.2023
33 Clouds -7 1029 75 10000 1.47 298 00:55 30.01.2023
34 Clouds -7 1030 77 10000 1.63 311 23:32 29.01.2023
35 Clouds -7 1030 79 10000 1.79 313 22:36 29.01.2023
36 Clouds -5 1029 74 10000 1.7 312 20:54 29.01.2023
37 Clouds -5 1028 72 10000 1.64 311 20:22 29.01.2023
38 Clouds -5 1028 73 10000 1.59 311 19:33 29.01.2023
39 Clouds -4 1027 91 10000 1.31 308 17:56 29.01.2023
40 Clouds -2 1025 91 10000 1.3 317 16:48 29.01.2023
41 Clouds -1 1023 61 10000 1.11 339 16:19 29.01.2023
42 Clouds 0 1022 56 10000 1.84 345 14:20 29.01.2023
43 Clear -1 1022 59 10000 0.58 180 13:18 29.01.2023
44 Clear 0 1022 58 10000 0.58 180 12:37 29.01.2023
45 Clear 0 1022 60 10000 0.9 165 12:19 29.01.2023
46 Clear -4 1022 55 10000 0.9 165 11:37 29.01.2023
47 Clear -1 1024 52 10000 0.41 77 10:53 29.01.2023
48 Clear -4 1028 69 10000 0.74 206 08:45 29.01.2023
49 Clear -9 1029 83 10000 0.52 206 04:45 29.01.2023
50 Clouds -7 1030 82 10000 0.26 260 23:51 28.01.2023
51 Clouds -6 1031 95 10000 0.16 332 21:28 28.01.2023
52 Clouds -6 1030 96 9095 0.63 1 19:58 28.01.2023
53 Clouds -6 1029 97 1947 1.76 145 19:24 28.01.2023
54 Clouds -6 1027 97 7752 1.71 6 17:46 28.01.2023
55 Clouds -6 1024 95 7777 2.39 8 16:45 28.01.2023
56 Clouds -3 1021 75 9064 2.36 18 16:19 28.01.2023
57 Clouds -3 1021 73 9064 2.36 18 15:37 28.01.2023
58 Clouds -3 1019 64 10000 2.08 29 13:50 28.01.2023
59 Clouds -4 1019 66 10000 1.71 39 12:31 28.01.2023
60 Clouds -5 1021 72 10000 1.34 44 10:35 28.01.2023
61 Clouds -6 1023 75 10000 0.98 42 09:54 28.01.2023
62 Clouds -6 1026 97 3925 0.78 12 05:50 28.01.2023
63 Clouds -6 1025 96 7178 1.33 345 01:31 28.01.2023
64 Clouds -7 1025 95 7765 1.34 350 00:19 28.01.2023
65 Clouds -6 1024 96 7560 2.15 0 20:35 27.01.2023
66 Clouds -6 1021 96 7324 2.53 7 17:58 27.01.2023
67 Clouds -6 1018 81 7464 2.91 5 17:21 27.01.2023
68 Clouds -6 1018 81 7464 2.91 5 16:58 27.01.2023
69 Clouds -4 1016 80 8698 2.95 10 16:21 27.01.2023
70 Clouds -5 1014 78 10000 3.17 15 14:28 27.01.2023
71 Clouds -5 1014 79 10000 3.17 15 13:44 27.01.2023
72 Clouds -5 1014 81 10000 2.71 21 12:40 27.01.2023
73 Clouds -7 1019 86 10000 1.67 5 08:35 27.01.2023
74 Clear -8 1020 62 10000 1.39 344 02:36 27.01.2023
75 Clouds -7 1021 64 10000 1.24 339 22:48 26.01.2023
76 Clouds -7 1021 69 10000 1.55 333 21:21 26.01.2023
77 Clouds -7 1021 69 10000 1.55 333 20:34 26.01.2023
78 Clouds -7 1022 93 9717 1.57 328 18:20 26.01.2023
79 Clouds -6 1022 93 9717 1.57 328 17:40 26.01.2023
80 Clouds -5 1016 82 10000 2.72 349 16:26 26.01.2023
81 Clouds -3 1016 77 10000 2.72 349 15:48 26.01.2023
82 Clouds -3 1014 77 10000 2.5 353 15:28 26.01.2023
83 Clouds -3 1014 67 10000 2.33 355 13:58 26.01.2023
84 Clouds -3 1014 56 10000 2.08 1 12:43 26.01.2023
85 Clouds -1 1016 62 10000 1.71 359 11:25 26.01.2023
86 Clouds -3 1018 69 10000 1.31 342 10:27 26.01.2023
87 Clouds -7 1018 69 10000 1.31 342 09:43 26.01.2023
88 Clouds -9 1023 81 10000 1.13 321 08:25 26.01.2023
89 Clouds -6 1024 53 10000 1.05 297 23:58 25.01.2023
90 Clouds -6 1024 53 10000 1.05 297 23:37 25.01.2023
91 Clouds -6 1025 59 10000 1.03 246 21:56 25.01.2023
92 Clear -6 1026 64 10000 0.96 235 21:20 25.01.2023
93 Clouds -6 1025 77 10000 0.35 233 18:41 25.01.2023
94 Clouds -2 1025 69 10000 0.16 331 17:30 25.01.2023
95 Clouds 2 1021 54 10000 1.26 41 15:42 25.01.2023
96 Clouds 3 1022 53 10000 0.85 81 12:54 25.01.2023
97 Clouds 1 1024 55 10000 0.44 99 10:51 25.01.2023
98 Clouds -5 1027 75 10000 0.46 183 09:44 25.01.2023
99 Clouds -5 1031 75 10000 0.93 180 07:18 25.01.2023
100 Clouds -8 1034 48 10000 1.05 215 01:29 25.01.2023
101 Clouds -8 1035 49 10000 1.06 217 00:21 25.01.2023
102 Clouds -8 1035 53 10000 1.08 221 21:32 24.01.2023
103 Clouds -8 1035 65 10000 1.31 216 20:19 24.01.2023
104 Clouds -7 1035 74 10000 1.36 214 18:42 24.01.2023
105 Clouds -6 1032 82 10000 1.39 198 17:20 24.01.2023
106 Clouds -5 1032 82 10000 1.39 198 16:52 24.01.2023
107 Clouds 3 1028 53 10000 1.82 175 15:21 24.01.2023
108 Clouds 1 1028 69 10000 2.32 174 13:22 24.01.2023
109 Clouds 0 1029 63 10000 2.27 173 11:20 24.01.2023
110 Clouds -6 1033 79 10000 2.28 195 08:23 24.01.2023
111 Clouds -6 1033 79 10000 2.28 195 07:54 24.01.2023
112 Clouds -7 1033 78 10000 2.3 188 07:25 24.01.2023
113 Clouds -7 1031 81 10000 3.18 178 02:23 24.01.2023
114 Clouds -8 1031 82 10000 3.11 185 00:25 24.01.2023
115 Clouds -8 1029 81 10000 2.93 185 22:27 23.01.2023
116 Clouds -8 1027 80 10000 1.71 177 19:55 23.01.2023
117 Clouds -8 1026 78 10000 1.25 176 18:37 23.01.2023
118 Clouds -4 1021 66 10000 1.53 43 16:21 23.01.2023
119 Clouds -3 1020 68 10000 2.09 43 14:50 23.01.2023
120 Clouds -2 1020 68 10000 2.48 27 13:44 23.01.2023
121 Clouds -4 1021 69 10000 2.54 24 12:55 23.01.2023
122 Clouds -7 1022 64 10000 2.84 15 11:45 23.01.2023
123 Clouds -8 1025 76 10000 2.17 1 10:25 23.01.2023
124 Clouds -9 1029 72 10000 1.7 1 08:22 23.01.2023
125 Clouds -9 1033 95 8401 1.16 345 23:51 22.01.2023
126 Clouds -9 1032 94 8183 1.53 351 21:49 22.01.2023
127 Clouds -9 1031 95 9017 1.94 353 20:58 22.01.2023
128 Clouds -9 1031 95 8705 1.86 349 19:54 22.01.2023
129 Clouds -9 1030 95 7426 2.23 357 19:20 22.01.2023
130 Clouds -9 1030 96 7374 2.16 350 18:23 22.01.2023
131 Clouds -9 1030 96 7374 2.16 350 17:55 22.01.2023
132 Clouds -7 1028 95 7743 2.57 0 17:23 22.01.2023
133 Clouds -5 1023 76 10000 2.63 13 15:23 22.01.2023
134 Clouds -5 1023 75 10000 2.66 14 14:20 22.01.2023
135 Clouds -2 1023 80 10000 2.41 13 13:26 22.01.2023
136 Clouds -6 1024 82 10000 2.2 20 12:28 22.01.2023
137 Clouds -6 1025 86 10000 1.88 29 10:40 22.01.2023
138 Clouds -9 1026 90 10000 1.77 23 09:34 22.01.2023
139 Clouds -8 1028 96 7441 1.92 350 02:58 22.01.2023
140 Clouds -8 1028 97 7349 2.27 356 23:43 21.01.2023
141 Clouds -8 1028 96 7367 2.51 356 22:48 21.01.2023
142 Clouds -8 1027 96 6892 3.09 359 21:28 21.01.2023
143 Snow -8 1024 95 6798 4.04 352 18:52 21.01.2023
144 Snow -7 1020 91 7168 4.05 353 15:37 21.01.2023
145 Clouds -5 1020 62 8160 4.07 4 13:32 21.01.2023
146 Clouds -7 1020 82 8671 4 9 12:52 21.01.2023
147 Clouds -7 1021 79 7653 3.85 11 11:37 21.01.2023
148 Clouds -8 1022 79 7508 3.69 8 10:47 21.01.2023
149 Clouds -12 1026 95 7187 2.57 355 08:31 21.01.2023
150 Clouds -13 1028 96 10000 2.25 327 02:18 21.01.2023
151 Clouds -13 1028 96 10000 2.25 318 22:27 20.01.2023
152 Clouds -16 1028 96 10000 2.25 318 21:36 20.01.2023
153 Clouds -15 1028 97 9181 2.48 322 20:42 20.01.2023
154 Clouds -13 1026 96 7551 2.86 330 18:34 20.01.2023
155 Clouds -6 1020 90 8972 3.9 339 15:47 20.01.2023
156 Clouds -7 1019 81 10000 4.15 337 14:38 20.01.2023
157 Clouds -6 1018 56 10000 4.2 337 12:42 20.01.2023
158 Clouds -14 1022 80 10000 2.27 322 09:24 20.01.2023
159 Clouds -14 1022 78 10000 2.19 320 08:22 20.01.2023
160 Clouds -13 1019 60 10000 1.08 316 02:34 20.01.2023
161 Clouds -13 1018 74 10000 0.51 248 22:54 19.01.2023
162 Clouds -13 1018 74 10000 0.51 248 22:31 19.01.2023
163 Clouds -13 1017 92 10000 0.52 310 20:22 19.01.2023
164 Clouds -13 1016 90 10000 0.6 313 18:57 19.01.2023
165 Clouds -7 1011 84 10000 2.37 345 15:35 19.01.2023
166 Clouds -8 1012 84 10000 3.09 335 10:52 19.01.2023
167 Clouds -11 1014 92 10000 2.65 333 08:59 19.01.2023
168 Snow -6 1009 95 7311 3.85 339 23:30 18.01.2023
169 Clouds -7 1007 95 7990 3.4 340 20:54 18.01.2023
170 Snow -6 1005 94 8438 3.4 341 20:19 18.01.2023
171 Snow -6 1005 94 8438 3.4 341 19:36 18.01.2023
172 Snow -5 1002 94 3319 3.45 343 17:33 18.01.2023
173 Snow -3 997 83 10000 2.76 349 15:18 18.01.2023
174 Clouds -2 996 77 10000 2.45 342 13:18 18.01.2023
175 Clouds -5 996 70 10000 1.1 319 10:29 18.01.2023
176 Clouds -6 998 93 10000 1.6 295 07:57 18.01.2023
177 Clouds -6 993 87 10000 1.51 289 01:26 18.01.2023
178 Clouds -6 994 87 10000 1.38 248 23:22 17.01.2023
179 Clouds -6 993 91 10000 1.89 237 20:31 17.01.2023
180 Snow -4 991 96 3824 1.26 251 19:27 17.01.2023
181 Clouds -5 989 95 10000 1.97 197 17:56 17.01.2023
182 Snow -3 987 89 10000 2.73 174 15:57 17.01.2023
183 Clouds -2 986 71 10000 2.52 170 14:52 17.01.2023
184 Snow -2 986 77 10000 2.83 159 13:46 17.01.2023
185 Clouds -3 988 82 8816 3.5 158 11:51 17.01.2023
186 Snow -4 989 83 10000 3.56 156 10:49 17.01.2023
187 Clouds -4 990 86 10000 1.99 156 09:31 17.01.2023
188 Clouds -8 996 80 10000 1.55 163 07:52 17.01.2023
189 Clouds -6 998 86 10000 1.18 249 03:54 17.01.2023
190 Snow -5 998 87 10000 2.05 275 00:54 17.01.2023
191 Snow -4 998 86 10000 1.74 274 22:59 16.01.2023
192 Clouds -4 997 88 10000 1.39 280 21:47 16.01.2023
193 Snow -4 997 95 5128 1.7 295 20:23 16.01.2023
194 Snow -4 996 92 6262 1.55 269 19:28 16.01.2023
195 Snow -4 996 92 6262 1.55 269 18:52 16.01.2023
196 Clouds -4 996 90 10000 2.26 249 18:20 16.01.2023
197 Snow -4 996 90 10000 2.26 249 17:34 16.01.2023
198 Clouds -2 996 76 10000 2.92 167 14:36 16.01.2023
199 Clouds -2 997 73 10000 2.81 189 13:37 16.01.2023
200 Clouds -5 1001 57 10000 3.81 171 10:27 16.01.2023
201 Clouds -6 1004 48 10000 3.52 182 08:53 16.01.2023
202 Clouds -6 1018 81 10000 1.21 273 23:21 15.01.2023
203 Clouds -6 1019 88 10000 1.38 287 21:32 15.01.2023
204 Clouds -6 1019 94 10000 1.76 299 20:34 15.01.2023
205 Clouds -5 1018 94 10000 2.08 308 19:43 15.01.2023
206 Snow -1 1015 91 4179 3.32 332 17:39 15.01.2023
207 Snow 0 1012 75 128 3.32 338 15:22 15.01.2023
208 Rain 3 1011 96 486 0.92 207 12:30 15.01.2023
209 Rain 3 1011 96 486 0.92 207 12:30 15.01.2023
210 Clouds 4 1012 96 460 2.34 198 11:30 15.01.2023
211 Clouds 3 1014 93 5913 3.65 178 10:28 15.01.2023
212 Clouds 1 1014 93 5913 3.65 178 09:34 15.01.2023
213 Clouds 0 1020 82 10000 3.55 187 01:47 15.01.2023
214 Snow 1 1021 86 10000 3.54 183 22:45 14.01.2023
215 Snow 0 1021 88 9224 3.58 189 21:55 14.01.2023
216 Snow 0 1021 88 9224 3.58 189 21:36 14.01.2023
217 Snow 0 1021 88 9224 3.58 189 21:36 14.01.2023
218 Clouds -1 1022 86 10000 3.59 189 21:18 14.01.2023
219 Clouds -1 1022 86 10000 3.59 189 21:18 14.01.2023
220 Clouds 0 1022 84 10000 3.53 190 20:28 14.01.2023
221 Clouds -1 1022 85 10000 3.13 190 18:38 14.01.2023
222 Clouds 3 1020 82 10000 3.48 177 15:48 14.01.2023
223 Clouds 4 1019 64 10000 3.61 173 15:26 14.01.2023
224 Clouds 4 1019 62 10000 3.42 182 14:25 14.01.2023
225 Clouds 4 1020 69 10000 3.21 182 13:33 14.01.2023
226 Clouds 1 1021 62 10000 2.6 174 10:51 14.01.2023
227 Clouds 0 1023 84 10000 2.1 205 09:59 14.01.2023
228 Clouds -1 1028 91 10000 1.42 258 04:56 14.01.2023
229 Snow 0 1027 92 7723 2.32 311 23:21 13.01.2023
230 Snow 0 1027 92 7723 2.32 311 22:45 13.01.2023
231 Rain 2 1027 93 6277 2.62 313 22:20 13.01.2023
232 Snow 0 1026 93 4762 2.54 317 21:23 13.01.2023
233 Snow 1 1027 91 6530 2.63 317 19:36 13.01.2023
234 Snow 1 1023 94 7822 3.81 326 17:59 13.01.2023
235 Clouds 3 1020 91 6648 3.63 324 16:24 13.01.2023
236 Clouds 3 1017 65 10000 1.46 299 12:51 13.01.2023
237 Clouds 2 1019 74 9496 1.44 277 12:19 13.01.2023
238 Snow 1 1020 76 9143 2.36 289 10:24 13.01.2023
239 Snow 0 1020 75 9143 2.36 289 09:45 13.01.2023
240 Clouds -1 1020 71 10000 1.67 298 08:52 13.01.2023
241 Snow -1 1020 72 10000 1.53 270 08:20 13.01.2023
242 Snow -1 1020 79 10000 1.79 275 06:52 13.01.2023
243 Clouds -1 1022 79 10000 1.78 232 03:56 13.01.2023
244 Clouds -1 1022 79 10000 1.96 219 23:47 12.01.2023
245 Clouds -1 1023 81 10000 1.96 223 22:41 12.01.2023
246 Clouds 0 1022 85 10000 1.83 231 20:55 12.01.2023
247 Clouds 0 1022 86 10000 1.77 219 19:38 12.01.2023
248 Clouds 1 1022 87 3534 1.49 236 17:34 12.01.2023
249 Snow 2 1022 83 2832 1.27 254 16:18 12.01.2023
250 Rain 2 1022 77 7722 1.54 242 14:44 12.01.2023
251 Rain 2 1022 77 8392 1.47 245 14:22 12.01.2023
252 Snow 1 1022 80 10000 1.78 261 12:48 12.01.2023
253 Clouds 0 1023 85 10000 1.72 271 10:38 12.01.2023
254 Clouds -2 1026 60 9412 1.96 276 08:31 12.01.2023
255 Clouds -3 1030 91 10000 1.83 297 03:58 12.01.2023
256 Clouds 0 1027 95 8456 2.88 320 23:59 11.01.2023
257 Clouds 0 1027 94 8456 2.88 320 23:41 11.01.2023
258 Clouds 0 1027 94 7392 3.1 323 23:21 11.01.2023
259 Snow 0 1026 94 6334 3.3 328 21:46 11.01.2023
260 Snow 1 1023 93 5281 3.83 326 20:26 11.01.2023
261 Snow 1 1022 93 522 3.63 327 18:39 11.01.2023
262 Snow 2 1020 88 3433 2.74 326 16:49 11.01.2023
263 Rain 3 1018 85 10000 1.41 306 14:57 11.01.2023
264 Clouds 2 1018 86 10000 1.09 297 13:44 11.01.2023
265 Clouds 3 1019 79 10000 1.01 282 11:55 11.01.2023
266 Clouds 1 1020 82 10000 0.84 289 10:32 11.01.2023
267 Clouds 1 1022 88 10000 1.33 307 08:19 11.01.2023
268 Clouds 0 1021 89 10000 1.59 319 07:25 11.01.2023
269 Clouds -3 1025 87 10000 1.8 297 01:25 11.01.2023
270 Clouds -2 1026 87 10000 1.75 297 22:46 10.01.2023
271 Clouds -2 1028 86 10000 2.01 297 21:34 10.01.2023
272 Clouds -3 1027 86 10000 2.64 300 20:42 10.01.2023
273 Snow -3 1027 84 10000 2.29 298 19:40 10.01.2023
274 Clouds -3 1027 83 10000 1.99 302 18:48 10.01.2023
275 Clouds -3 1029 57 10000 2.11 307 17:59 10.01.2023
276 Clouds -3 1029 83 10000 1.77 309 16:39 10.01.2023
277 Clouds -2 1027 80 10000 1.49 325 15:31 10.01.2023
278 Clouds -2 1027 80 10000 1.49 325 15:31 10.01.2023
279 Clouds -2 1026 73 10000 1.96 328 14:32 10.01.2023
280 Clouds -2 1028 68 10000 2.76 318 12:23 10.01.2023
281 Clouds -4 1030 94 8096 3.26 319 09:26 10.01.2023
282 Snow -5 1028 95 6634 4.07 327 08:29 10.01.2023
283 Snow -4 1026 94 6218 4.55 331 07:27 10.01.2023
284 Snow -3 1022 85 2379 4.74 328 04:55 10.01.2023
285 Snow -2 1016 92 5008 4.16 330 23:29 09.01.2023
286 Snow -2 1015 91 727 4.34 328 21:51 09.01.2023
287 Snow -3 1014 95 312 4.17 331 20:45 09.01.2023
288 Snow -1 1014 81 2229 3.9 330 19:30 09.01.2023
289 Snow -3 1012 95 861 4.95 331 17:55 09.01.2023
290 Snow -2 1010 89 7990 3.53 342 17:26 09.01.2023
291 Snow 0 1010 72 7990 3.53 342 16:32 09.01.2023
292 Snow 0 1008 71 3219 3.58 334 15:28 09.01.2023
293 Snow 1 1008 85 3219 3.58 334 14:46 09.01.2023
294 Snow 1 1008 82 8309 3.56 340 13:38 09.01.2023
295 Clouds 1 1008 85 10000 2.98 338 12:49 09.01.2023
296 Clouds 0 1008 88 10000 3.19 331 11:43 09.01.2023
297 Clouds -1 1010 90 8115 2.56 320 10:26 09.01.2023
298 Snow 0 1007 80 206 4.02 328 06:44 09.01.2023
299 Snow 0 1007 94 10000 2.01 229 02:54 09.01.2023
300 Snow 0 1007 95 6228 3.01 182 23:53 08.01.2023
301 Snow 1 1008 94 7310 4.39 168 21:24 08.01.2023
302 Snow 1 1008 94 7310 4.39 168 20:58 08.01.2023
303 Snow 1 1009 94 7768 4.01 172 20:21 08.01.2023
304 Snow 1 1011 94 8229 3.64 167 17:53 08.01.2023
305 Clouds 1 1010 95 10000 3.72 161 17:20 08.01.2023
306 Clouds 2 1011 93 9578 3.53 161 15:42 08.01.2023
307 Clouds 3 1010 78 10000 3.69 155 15:23 08.01.2023
308 Clouds 3 1011 78 5725 3.26 170 13:57 08.01.2023
309 Clouds 3 1012 79 4231 3.27 169 13:28 08.01.2023
310 Rain 2 1013 82 820 3.13 177 12:19 08.01.2023
311 Snow 2 1015 79 7306 3.79 160 09:38 08.01.2023
312 Snow 1 1016 75 7485 4.12 159 08:45 08.01.2023
313 Snow 1 1017 76 4926 4.18 167 07:21 08.01.2023
314 Clouds 0 1020 78 10000 4.35 167 23:40 07.01.2023
315 Clouds 1 1021 78 10000 4.27 167 22:46 07.01.2023
316 Clouds 1 1021 75 10000 4.29 169 22:20 07.01.2023
317 Clouds 1 1021 75 10000 4.29 169 21:36 07.01.2023
318 Clouds 1 1022 76 10000 3.85 172 20:29 07.01.2023
319 Clouds 1 1022 74 7775 3.8 176 19:28 07.01.2023
320 Clouds 1 1023 72 9583 3.54 176 18:22 07.01.2023
321 Clouds 2 1023 69 9583 3.54 176 17:43 07.01.2023
322 Clouds -1 1022 95 10000 3.5 173 16:54 07.01.2023
323 Clouds -1 1021 92 10000 3.3 174 16:29 07.01.2023
324 Clouds 0 1021 92 10000 3.3 174 15:45 07.01.2023
325 Clouds 3 1020 90 10000 3.27 172 15:22 07.01.2023
326 Clouds 3 1020 90 10000 3.25 174 14:26 07.01.2023
327 Clouds 1 1020 90 10000 3.25 174 13:43 07.01.2023
328 Clouds 1 1020 88 10000 3.19 172 13:22 07.01.2023
329 Clouds 4 1021 59 10000 3.29 174 12:21 07.01.2023
330 Clouds 2 1023 64 10000 3 177 10:29 07.01.2023
331 Clouds 3 1023 63 10000 3 177 09:51 07.01.2023
332 Clouds -2 1025 69 10000 2.66 187 08:18 07.01.2023
333 Clouds -2 1025 69 10000 2.66 187 07:42 07.01.2023
334 Clouds -2 1025 64 10000 2.44 187 06:46 07.01.2023
335 Clouds -1 1028 56 10000 2.18 198 23:53 06.01.2023
336 Clouds -2 1028 51 10000 1.96 200 22:22 06.01.2023
337 Clouds -3 1028 51 10000 1.96 200 21:53 06.01.2023
338 Clouds -3 1028 48 10000 1.81 203 20:38 06.01.2023
339 Clouds -3 1028 45 10000 1.64 208 19:56 06.01.2023
340 Clouds -3 1028 45 10000 1.64 208 19:38 06.01.2023
341 Clouds -3 1028 51 10000 1.43 216 19:20 06.01.2023
342 Clouds -2 1028 55 10000 1.37 218 17:56 06.01.2023
343 Clouds 1 1028 65 10000 1.29 223 16:53 06.01.2023
344 Clouds 4 1025 64 10000 0.97 219 16:23 06.01.2023
345 Clouds 4 1025 76 10000 0.97 219 15:52 06.01.2023
346 Clouds 5 1025 76 10000 0.97 219 15:30 06.01.2023
347 Clouds 7 1023 86 10000 1.16 205 13:46 06.01.2023
348 Clouds 4 1023 59 10000 1.52 198 11:55 06.01.2023
349 Clouds 4 1024 64 10000 1.48 206 10:55 06.01.2023
350 Clouds -1 1028 77 10000 1.34 228 08:50 06.01.2023
351 Clouds -1 1027 88 10000 1.15 261 05:23 06.01.2023
352 Clouds 2 1030 89 10000 0.61 328 23:38 05.01.2023
353 Clouds 3 1030 87 10000 1.17 336 22:44 05.01.2023
354 Clouds 3 1028 90 10000 1.78 343 20:57 05.01.2023
355 Clouds 4 1027 89 8466 2.69 343 17:31 05.01.2023
356 Clouds 5 1026 87 6427 2.54 339 16:50 05.01.2023
357 Clouds 5 1026 86 6396 2.75 336 15:58 05.01.2023
358 Clouds 5 1026 86 6396 2.75 336 15:58 05.01.2023
359 Clouds 5 1026 86 6396 2.75 336 15:34 05.01.2023
360 Clouds 5 1026 89 6388 2.93 333 14:33 05.01.2023
361 Clouds 3 1026 92 67 3.03 325 12:41 05.01.2023
362 Clouds 3 1026 90 54 2.83 324 11:36 05.01.2023
363 Clouds 3 1027 90 1725 2.97 324 09:43 05.01.2023
364 Rain 3 1027 85 2898 3.18 318 08:22 05.01.2023
365 Clouds 2 1027 82 2911 3.06 316 06:50 05.01.2023
366 Clouds 2 1029 79 9754 2.43 307 02:56 05.01.2023
367 Clouds 1 1033 68 10000 2.19 295 22:27 04.01.2023
368 Clouds 1 1033 68 10000 2.19 295 21:31 04.01.2023
369 Clouds 2 1033 66 10000 2.18 288 20:23 04.01.2023
370 Clouds 2 1033 66 10000 2.18 288 19:47 04.01.2023
371 Clouds 2 1033 66 10000 2.08 294 19:29 04.01.2023
372 Clouds 2 1033 68 10000 2.15 297 18:18 04.01.2023
373 Clouds 4 1033 71 10000 2.15 302 16:31 04.01.2023
374 Clouds 5 1029 76 10000 1.8 306 14:52 04.01.2023
375 Clouds 5 1029 75 10000 1.65 303 13:30 04.01.2023
376 Clouds 2 1031 85 10000 1.23 282 11:24 04.01.2023
377 Clouds 4 1031 65 10000 1.23 282 10:58 04.01.2023
378 Clouds 3 1031 65 10000 1.23 282 10:40 04.01.2023
379 Clouds 0 1033 84 10000 1.46 276 10:20 04.01.2023
380 Clear 1 1036 67 10000 1.34 257 05:39 04.01.2023
381 Clear 1 1036 82 10000 1.38 245 01:41 04.01.2023
382 Clouds 2 1035 93 10000 0.85 231 23:43 03.01.2023
383 Clouds 2 1033 93 10000 0.39 229 23:21 03.01.2023
384 Clouds 3 1032 95 10000 0.17 300 21:42 03.01.2023
385 Clouds 3 1031 95 10000 0.21 329 20:50 03.01.2023
386 Clouds 3 1031 94 7532 1.76 339 18:40 03.01.2023
387 Clouds 4 1030 90 6413 1.7 342 16:42 03.01.2023
388 Clouds 5 1029 88 4577 1.49 344 15:40 03.01.2023
389 Clouds 5 1029 85 1482 1.12 338 13:43 03.01.2023
390 Clouds 6 1029 84 320 0.46 341 13:24 03.01.2023
391 Clouds 5 1029 86 320 0.46 341 12:57 03.01.2023
392 Clouds 5 1029 86 1447 0.23 293 12:28 03.01.2023
393 Clouds 3 1030 91 2348 0.37 256 09:51 03.01.2023
394 Clouds 3 1029 87 615 0.63 298 04:29 03.01.2023
395 Clouds 3 1029 86 615 0.63 298 03:53 03.01.2023
396 Clouds 3 1029 85 615 0.63 298 03:33 03.01.2023
397 Clouds 3 1029 81 10000 1.45 179 23:20 02.01.2023
398 Clouds 4 1029 79 10000 1.45 179 22:40 02.01.2023
399 Clouds 4 1029 79 10000 1.68 173 21:26 02.01.2023
400 Clouds 4 1029 76 10000 1.68 173 20:32 02.01.2023
401 Clouds 5 1028 77 9599 1.52 184 19:20 02.01.2023
402 Clouds 5 1028 95 10000 1.99 180 16:54 02.01.2023
403 Clouds 5 1027 99 693 3.18 172 14:27 02.01.2023
404 Clouds 1 1027 99 399 3.56 168 12:57 02.01.2023
405 Clouds 6 1027 99 2467 3.96 167 11:39 02.01.2023
406 Clouds 5 1027 82 2825 4.14 164 09:35 02.01.2023
407 Clouds 4 1026 83 7436 4.31 161 06:59 02.01.2023
408 Clouds 5 1028 81 7495 4.03 163 00:22 02.01.2023
409 Clouds 5 1028 81 8268 3.84 164 21:55 01.01.2023
410 Clouds 5 1028 81 8116 3.77 167 20:50 01.01.2023
411 Clouds 5 1028 81 8116 3.77 167 20:31 01.01.2023
412 Clouds 5 1028 79 6050 3.67 167 18:54 01.01.2023
413 Clouds 6 1028 77 7635 3.59 165 17:39 01.01.2023
414 Clouds 6 1028 76 8653 3.45 166 17:19 01.01.2023
415 Clouds 4 1028 95 10000 3.49 166 15:46 01.01.2023
416 Clouds 9 1028 98 6128 3.21 164 14:18 01.01.2023
417 Clouds 8 1028 99 702 3.16 165 13:18 01.01.2023
418 Clouds 7 1028 76 4864 3.2 166 11:44 01.01.2023
419 Clouds 7 1029 79 10000 3.23 164 11:21 01.01.2023
420 Clouds 6 1029 81 10000 3.36 164 09:38 01.01.2023
421 Clouds 4 1029 82 10000 3.38 163 08:42 01.01.2023
422 Clouds 5 1029 83 10000 3.33 167 08:18 01.01.2023
423 Clouds 5 1029 83 6879 3.16 168 06:50 01.01.2023
424 Clouds -1 1031 96 5297 4.13 170 23:58 31.12.2022
425 Clouds 4 1031 82 5297 4.13 170 23:38 31.12.2022
426 Clouds -1 1031 95 8838 4.34 169 22:29 31.12.2022
427 Clouds 0 1031 94 10000 4.34 171 21:24 31.12.2022
428 Clouds 4 1031 81 10000 4.34 171 20:31 31.12.2022
429 Clouds 5 1029 79 9791 4.36 173 18:57 31.12.2022
430 Clouds 5 1029 79 9791 4.36 173 18:38 31.12.2022
431 Clouds 5 1028 78 10000 4.14 172 17:57 31.12.2022
432 Clouds 5 1028 79 10000 4.14 172 17:32 31.12.2022
433 Clouds 4 1028 96 10000 4.1 174 16:32 31.12.2022
434 Clouds 5 1028 97 4412 4.09 174 15:37 31.12.2022
435 Clouds 6 1027 98 3804 4.1 171 13:59 31.12.2022
436 Clouds 7 1027 98 2306 3.77 171 13:27 31.12.2022
437 Clouds 7 1026 76 7174 3.47 172 12:24 31.12.2022
438 Clouds 7 1026 80 7174 3.47 172 11:55 31.12.2022
439 Clouds 6 1026 83 7174 3.47 172 11:37 31.12.2022
440 Clouds 5 1027 85 10000 2.78 184 09:57 31.12.2022
441 Clouds 5 1027 86 10000 2.78 184 09:39 31.12.2022
442 Clouds 1 1027 86 10000 2.55 193 08:30 31.12.2022
443 Clouds 2 1025 92 10000 1.83 216 04:52 31.12.2022
444 Snow 1 1025 89 10000 1.6 268 00:33 31.12.2022
445 Clouds 4 1025 90 10000 1.69 246 23:20 30.12.2022
446 Clouds 2 1024 89 10000 1.83 208 22:19 30.12.2022
447 Clouds 2 1024 90 10000 1.83 208 21:38 30.12.2022
448 Clouds 2 1024 93 10000 2.26 199 21:19 30.12.2022
449 Clouds 2 1022 89 1109 2.69 195 18:29 30.12.2022
450 Snow 1 1022 96 1109 2.69 195 17:35 30.12.2022
451 Snow 1 1022 96 1109 2.85 190 16:48 30.12.2022
452 Rain 3 1020 91 7133 3.74 177 14:55 30.12.2022
453 Rain 3 1020 91 7133 3.74 177 14:55 30.12.2022
454 Clouds 4 1020 91 10000 3.63 177 12:56 30.12.2022
455 Clouds -1 1024 91 10000 1.53 175 08:24 30.12.2022
456 Snow 0 1022 94 2645 0.61 139 03:58 30.12.2022
457 Snow 1 1022 79 10000 1.48 181 02:27 30.12.2022
458 Clouds 0 1023 80 9185 2.39 195 23:46 29.12.2022
459 Clouds 1 1023 77 10000 3.18 178 21:56 29.12.2022
460 Clouds 1 1023 76 10000 3.21 173 21:25 29.12.2022
461 Clouds 0 1023 79 10000 3.21 173 20:46 29.12.2022
462 Clouds 0 1023 93 10000 3.41 173 19:21 29.12.2022
463 Clouds 1 1022 93 10000 3.48 169 17:53 29.12.2022
464 Clouds 2 1022 93 10000 3.55 168 17:26 29.12.2022
465 Clouds 1 1022 93 10000 3.55 168 16:54 29.12.2022
466 Clouds 3 1022 91 10000 3.36 167 15:55 29.12.2022
467 Clouds 2 1021 87 10000 3.37 173 13:41 29.12.2022
468 Clouds 2 1022 69 10000 3.24 170 11:54 29.12.2022
469 Clouds 0 1024 89 10000 3.2 173 09:53 29.12.2022
470 Clouds -2 1025 77 4137 3.5 179 03:41 29.12.2022
471 Clouds -2 1028 78 9348 3.53 183 23:29 28.12.2022
472 Clouds -2 1028 77 10000 3.51 182 22:20 28.12.2022
473 Clouds -5 1028 92 10000 3.31 186 21:20 28.12.2022
474 Clouds -4 1028 92 10000 3 191 20:19 28.12.2022
475 Clouds -4 1028 94 9964 3.25 184 18:31 28.12.2022
476 Clouds 1 1025 88 10000 2.99 174 16:21 28.12.2022
477 Clouds 4 1024 65 10000 2.67 176 14:26 28.12.2022
478 Clouds 3 1024 67 10000 2.44 176 12:48 28.12.2022
479 Clouds 1 1025 76 10000 2.46 177 11:33 28.12.2022
480 Clouds -4 1030 59 10000 2.35 201 09:34 28.12.2022
481 Clouds -4 1031 54 10000 2.31 204 07:48 28.12.2022
482 Clouds -4 1031 48 10000 2.07 211 06:46 28.12.2022
483 Clouds -4 1033 52 10000 1.64 235 01:18 28.12.2022
484 Clouds -2 1034 76 10000 1.17 238 22:28 27.12.2022
485 Clouds -2 1033 90 10000 0.89 280 19:51 27.12.2022
486 Clouds -2 1033 94 10000 0.83 307 18:41 27.12.2022
487 Clouds 1 1032 93 10000 1.82 323 16:59 27.12.2022
488 Clouds 2 1030 91 10000 2.11 331 15:55 27.12.2022
489 Clouds 3 1028 88 10000 2 332 14:25 27.12.2022
490 Clouds 2 1029 92 10000 2.1 330 12:27 27.12.2022
491 Clouds 1 1030 95 10000 2.2 342 10:30 27.12.2022
492 Clouds 1 1030 95 10000 2.29 343 09:41 27.12.2022
493 Clouds 1 1031 95 8076 2.65 336 08:47 27.12.2022
494 Snow 2 1029 95 5911 3.37 330 04:55 27.12.2022
495 Rain 2 1027 94 6534 2.43 310 23:39 26.12.2022
496 Rain 3 1027 93 5625 2.01 322 21:51 26.12.2022
497 Rain 3 1027 90 116 2.52 325 20:44 26.12.2022
498 Rain 2 1025 98 1781 2.76 337 19:51 26.12.2022
499 Rain 4 1025 86 3175 1.47 309 18:42 26.12.2022
500 Rain 4 1025 96 9585 1.1 310 16:53 26.12.2022
501 Rain 5 1025 96 10000 1.02 285 15:38 26.12.2022
502 Clouds 5 1024 75 10000 1.59 201 12:59 26.12.2022
503 Clouds 3 1025 78 10000 1.1 199 10:49 26.12.2022
504 Clouds 1 1027 83 10000 1.53 201 05:43 26.12.2022
505 Clouds 2 1026 82 10000 2.87 184 23:41 25.12.2022
506 Clouds 2 1026 84 10000 2.94 187 22:50 25.12.2022
507 Clouds 2 1026 85 10000 3.06 182 22:22 25.12.2022
508 Clouds 2 1025 85 10000 3.13 188 19:56 25.12.2022
509 Clouds 2 1025 85 10000 3.13 188 19:56 25.12.2022
510 Clouds 1 1024 89 10000 3.17 186 17:52 25.12.2022
511 Clouds 1 1024 89 10000 3.17 186 17:34 25.12.2022
512 Clouds 5 1023 84 10000 3.47 186 16:40 25.12.2022
513 Clouds 0 1022 98 2326 3.59 174 13:30 25.12.2022
514 Clouds 0 1022 98 2544 3.47 174 13:30 25.12.2022
515 Clouds 0 1022 98 2544 3.47 174 13:30 25.12.2022
516 Clouds 3 1021 90 9697 3.34 173 11:35 25.12.2022
517 Clouds 1 1023 94 10000 1.54 208 03:20 25.12.2022
518 Clouds 2 1023 94 10000 1.28 251 22:47 24.12.2022
519 Clouds 4 1021 94 10000 1.42 308 19:53 24.12.2022
520 Clouds 4 1019 93 7600 1.65 320 16:59 24.12.2022
521 Clouds 5 1018 93 4191 1.79 313 15:28 24.12.2022
522 Clouds 5 1017 93 3089 1.77 308 14:22 24.12.2022
523 Rain 4 1018 95 3006 1.98 311 11:54 24.12.2022
524 Clouds 3 1018 96 5003 1.96 311 10:23 24.12.2022
525 Clouds 3 1018 96 5003 1.96 311 09:37 24.12.2022
526 Clouds 3 1018 96 2119 2.5 318 07:59 24.12.2022
527 Rain 3 1017 95 2312 1.15 324 02:51 24.12.2022
528 Rain 3 1017 94 92 2.62 334 00:29 24.12.2022
529 Rain 4 1016 92 633 3.11 311 22:30 23.12.2022
530 Rain 4 1016 94 663 1.98 282 21:30 23.12.2022
531 Rain 4 1016 94 663 1.98 282 21:30 23.12.2022
532 Rain 4 1016 90 671 1.03 269 19:40 23.12.2022
533 Rain 6 1016 87 510 2.73 299 19:22 23.12.2022
534 Rain 5 1016 87 510 2.73 299 18:53 23.12.2022
535 Rain 5 1015 93 683 1.65 274 18:21 23.12.2022
536 Rain 5 1015 87 1550 1.57 288 16:48 23.12.2022
537 Rain 5 1015 83 452 2.21 284 15:45 23.12.2022
538 Rain 4 1015 95 71 2.21 263 12:31 23.12.2022
539 Rain 2 1015 96 68 1.32 259 09:53 23.12.2022
540 Rain 2 1015 95 68 1.32 259 09:34 23.12.2022
541 Snow 2 1013 95 55 1.99 307 07:23 23.12.2022
542 Rain 2 1014 95 1637 2.34 307 06:49 23.12.2022
543 Rain 2 1015 89 183 2.24 202 23:36 22.12.2022
544 Rain 3 1016 87 1024 2.05 217 23:18 22.12.2022
545 Rain 3 1016 81 4399 2.26 234 21:49 22.12.2022
546 Clouds 2 1016 74 10000 1.62 225 19:47 22.12.2022
547 Clouds 2 1018 75 10000 1.68 283 19:18 22.12.2022
548 Clouds 3 1019 79 10000 1.52 283 17:42 22.12.2022
549 Rain 4 1018 82 10000 1.75 292 16:48 22.12.2022
550 Clouds 4 1017 86 10000 1.73 293 15:38 22.12.2022
551 Clouds 5 1017 88 10000 1.82 297 15:18 22.12.2022
552 Clouds 5 1016 92 10000 1.98 301 14:18 22.12.2022
553 Clouds 6 1016 95 10000 2.04 298 13:19 22.12.2022
554 Clouds 5 1016 93 10000 1.87 297 11:36 22.12.2022
555 Clouds 2 1017 87 10000 2.04 314 10:31 22.12.2022
556 Clouds 0 1019 83 10000 2.05 253 09:22 22.12.2022
557 Clouds -3 1019 83 10000 2.05 253 08:35 22.12.2022
558 Clouds -3 1020 85 10000 2.09 230 07:24 22.12.2022
559 Clouds -2 1019 91 10000 1.5 270 04:18 22.12.2022
560 Clouds 2 1019 84 10000 2.04 213 00:25 22.12.2022
561 Clouds 2 1018 85 10000 1.53 206 22:26 21.12.2022
562 Clouds 2 1018 83 10000 1.53 206 21:35 21.12.2022
563 Clouds 3 1018 81 9699 0.96 220 20:56 21.12.2022
564 Clouds 3 1018 80 9699 0.96 220 20:30 21.12.2022
565 Clouds 3 1018 80 4385 0.58 232 19:44 21.12.2022
566 Clouds 3 1018 80 4426 0.38 183 19:26 21.12.2022
567 Clouds 3 1018 81 4171 0.26 226 18:47 21.12.2022
568 Clouds 3 1018 81 1887 0.4 290 18:21 21.12.2022
569 Clouds 4 1018 98 1808 0.32 280 15:25 21.12.2022
570 Clouds 4 1018 99 2417 0.47 199 13:41 21.12.2022
571 Clouds 5 1020 99 1074 1.14 162 11:48 21.12.2022
572 Rain 3 1021 98 565 1.01 158 11:20 21.12.2022
573 Clouds 4 1022 76 1645 0.91 182 09:50 21.12.2022
574 Clouds 3 1022 78 712 1.16 195 08:48 21.12.2022
575 Snow 2 1022 96 3187 2.14 182 06:24 21.12.2022
576 Clouds -2 1026 88 10000 2.85 175 00:22 21.12.2022
577 Clouds -3 1025 82 10000 3.06 175 21:47 20.12.2022
578 Clouds -3 1026 75 10000 2.49 180 20:26 20.12.2022
579 Clouds -2 1026 79 10000 2.92 177 19:42 20.12.2022
580 Clouds -3 1027 78 10000 2.8 182 18:38 20.12.2022
581 Clouds -2 1027 78 10000 2.79 183 18:19 20.12.2022
582 Clouds -2 1027 78 10000 2.79 183 17:46 20.12.2022
583 Clouds -2 1027 80 10000 2.85 180 16:53 20.12.2022
584 Clouds -1 1025 80 10000 3.24 174 15:48 20.12.2022
585 Clouds -2 1024 78 10000 3.31 168 14:50 20.12.2022
586 Clouds -2 1023 75 10000 3.2 168 14:29 20.12.2022
587 Clouds -3 1024 76 10000 2.96 172 13:00 20.12.2022
588 Clouds -3 1024 76 10000 2.96 172 12:31 20.12.2022
589 Clouds 5 1025 70 10000 2.97 171 11:38 20.12.2022
590 Clouds 1 1028 60 10000 2.05 186 08:51 20.12.2022
591 Clouds -7 1029 60 10000 2.57 193 04:38 20.12.2022
592 Clouds -6 1031 56 10000 2.72 182 22:46 19.12.2022
593 Clouds -6 1031 55 10000 2.89 177 21:56 19.12.2022
594 Clouds -5 1030 54 10000 2.56 179 20:28 19.12.2022
595 Clouds -6 1030 54 10000 2.56 179 19:39 19.12.2022
596 Clouds -6 1031 53 10000 2.14 189 18:42 19.12.2022
597 Clouds -4 1030 57 10000 2.25 191 16:52 19.12.2022
598 Clouds 6 1027 65 10000 2.78 174 13:41 19.12.2022
599 Clouds 6 1028 67 10000 2.99 169 12:21 19.12.2022
600 Clouds 5 1029 61 10000 2.43 168 10:55 19.12.2022
601 Clouds 2 1029 68 10000 0.82 190 07:44 19.12.2022
602 Snow -6 1032 51 10000 2.23 201 03:42 19.12.2022
603 Clouds -9 1034 46 10000 2.62 191 22:40 18.12.2022
604 Clouds -9 1034 44 10000 2.64 188 21:46 18.12.2022
605 Clouds -9 1034 43 10000 2.65 190 21:22 18.12.2022
606 Clouds -9 1034 43 10000 2.65 190 21:22 18.12.2022
607 Clouds -9 1034 43 10000 2.37 196 19:57 18.12.2022
608 Clouds -9 1034 43 10000 2.37 196 19:57 18.12.2022
609 Clouds -9 1034 43 10000 2.37 196 19:39 18.12.2022
610 Clouds -9 1034 49 10000 2.43 196 18:24 18.12.2022
611 Clouds -8 1034 54 10000 2.4 197 16:37 18.12.2022
612 Clouds -8 1032 64 10000 2.32 190 15:40 18.12.2022
613 Clouds -8 1030 67 10000 2.54 180 15:19 18.12.2022
614 Clouds 2 1029 43 10000 2.54 175 14:20 18.12.2022
615 Clear 2 1029 46 10000 2.71 175 12:57 18.12.2022
616 Clear 2 1029 46 10000 2.71 175 12:57 18.12.2022
617 Clear -2 1029 50 10000 2.71 175 12:30 18.12.2022
618 Clear 2 1030 50 10000 2.39 185 10:50 18.12.2022
619 Clear -6 1034 58 10000 1.8 206 08:47 18.12.2022
620 Clear -6 1033 59 10000 1.71 212 08:20 18.12.2022
621 Clear -11 1033 34 10000 1.54 218 06:23 18.12.2022
622 Clear -7 1032 67 10000 1.73 212 03:40 18.12.2022
623 Clear -8 1032 70 10000 1.87 207 01:48 18.12.2022
624 Clouds -9 1031 86 10000 1.72 226 22:21 17.12.2022
625 Clouds -8 1029 85 10000 1.27 229 19:42 17.12.2022
626 Clouds -7 1027 84 10000 0.91 271 17:18 17.12.2022
627 Clear -4 1021 77 10000 1.26 342 14:44 17.12.2022
628 Clouds 1 1020 45 10000 1.47 339 12:28 17.12.2022
629 Clouds -4 1021 83 10000 1.86 334 10:50 17.12.2022
630 Clouds -4 1023 82 10000 1.46 323 09:48 17.12.2022
631 Clouds -7 1025 57 10000 1.28 320 08:34 17.12.2022
632 Clouds -7 1024 76 10000 1.55 322 06:46 17.12.2022
633 Clouds -7 1019 93 10000 2.2 323 23:58 16.12.2022
634 Clouds -7 1018 94 8392 2.46 328 21:38 16.12.2022
635 Clouds -2 1015 94 7920 2.61 332 20:24 16.12.2022
636 Clouds -2 1011 94 8668 2.82 338 17:19 16.12.2022
637 Clouds -1 1007 93 7282 2.63 342 14:50 16.12.2022
638 Clouds 0 1006 92 7129 2.37 342 13:50 16.12.2022
639 Clouds 0 1005 93 6333 2.17 335 12:20 16.12.2022
640 Snow -1 1005 95 7176 2.27 334 10:47 16.12.2022
641 Snow -2 1005 95 2613 2.28 331 09:29 16.12.2022
642 Snow -2 1004 95 4129 2.13 328 08:26 16.12.2022
643 Snow -2 1004 94 4178 2.11 328 07:54 16.12.2022
644 Snow -5 1002 94 10000 2.5 187 23:45 15.12.2022
645 Snow -4 1002 94 10000 3.1 174 22:31 15.12.2022
646 Snow 1 1002 93 7942 3.25 172 20:41 15.12.2022
647 Snow 1 1002 93 7669 3.54 170 19:37 15.12.2022
648 Snow 1 1001 90 2166 3.21 159 18:30 15.12.2022
649 Snow 1 1002 88 8062 3.52 156 17:27 15.12.2022
650 Rain 3 1003 81 2770 3.25 150 15:39 15.12.2022
651 Clouds 3 1002 80 7612 4.18 163 14:37 15.12.2022
652 Clouds 2 1004 79 7607 3.2 157 12:43 15.12.2022
653 Clouds 1 1005 81 10000 3.36 165 10:33 15.12.2022
654 Clouds 0 1006 82 10000 1.96 164 08:54 15.12.2022
655 Clouds -2 1006 83 10000 0.9 277 06:28 15.12.2022
656 Clouds -1 1006 83 10000 1.03 282 05:19 15.12.2022
657 Clouds -6 1004 88 10000 1.7 231 21:45 14.12.2022
658 Clouds -6 1003 92 10000 1.06 245 21:18 14.12.2022
659 Clouds -6 1003 92 10000 1.06 245 20:31 14.12.2022
660 Clouds -6 1003 92 10000 1.06 245 20:31 14.12.2022
661 Clouds 2 1002 90 5683 2.1 311 18:38 14.12.2022
662 Rain 3 1001 88 2264 1.53 322 16:58 14.12.2022
663 Clouds 4 1000 79 5365 1.15 349 15:49 14.12.2022
664 Clouds 4 1000 76 645 1.31 250 14:34 14.12.2022
665 Clouds 4 1000 78 10000 1.37 246 12:21 14.12.2022
666 Clouds 1 1000 81 10000 1.03 204 10:44 14.12.2022
667 Clouds -1 1003 87 10000 1.14 229 09:26 14.12.2022
668 Clouds -5 1009 82 10000 2.48 200 02:47 14.12.2022
669 Clouds -6 1009 79 10000 2.37 188 21:51 13.12.2022
670 Clouds -6 1009 78 10000 2.58 186 21:27 13.12.2022
671 Clouds -6 1009 78 10000 2.58 186 20:46 13.12.2022
672 Snow -8 1011 85 10000 2.47 194 18:42 13.12.2022
673 Clouds -4 1010 73 10000 2.69 181 16:22 13.12.2022
674 Clouds -3 1009 75 10000 3.2 177 14:53 13.12.2022
675 Clouds -3 1010 67 10000 3.61 177 12:44 13.12.2022
676 Clouds -9 1011 65 10000 3.7 177 10:39 13.12.2022
677 Clouds -6 1012 68 10000 3.61 177 09:46 13.12.2022
678 Clouds -8 1012 82 10000 3.02 178 07:52 13.12.2022
679 Clouds -11 1015 76 10000 2.06 174 22:24 12.12.2022
680 Clouds -11 1015 76 10000 2.06 174 21:46 12.12.2022
681 Clouds -13 1017 62 10000 1.58 194 19:33 12.12.2022
682 Clear -11 1016 62 10000 0.59 190 17:39 12.12.2022
683 Clouds -6 1011 69 10000 1.3 6 15:29 12.12.2022
684 Clouds -5 1011 65 10000 1.86 333 12:50 12.12.2022
685 Clouds -12 1015 82 10000 1.46 305 09:20 12.12.2022
686 Clouds -14 1015 84 10000 1.51 298 07:37 12.12.2022
687 Clear -14 1016 82 10000 1.2 282 03:53 12.12.2022
688 Clear -13 1016 82 10000 1.17 282 23:51 11.12.2022
689 Clear -13 1016 50 10000 1.01 275 22:18 11.12.2022
690 Clear -12 1017 65 10000 0.94 304 20:29 11.12.2022
691 Clear -12 1016 59 10000 1.13 317 19:37 11.12.2022
692 Clear -12 1016 75 10000 1.55 313 18:29 11.12.2022
693 Clear -12 1016 75 10000 1.55 313 17:33 11.12.2022
694 Clear -9 1015 81 10000 1.7 319 16:52 11.12.2022
695 Clear -9 1013 74 10000 2.41 331 15:56 11.12.2022
696 Clear -8 1013 81 10000 2.41 331 15:35 11.12.2022
697 Clear -6 1009 76 10000 3.27 340 13:33 11.12.2022
698 Clouds -6 1009 82 10000 3.29 343 12:40 11.12.2022
699 Clouds -8 1014 91 10000 2.55 344 09:47 11.12.2022
700 Clouds -6 1014 96 7346 3.11 336 00:49 11.12.2022
701 Clouds -7 1014 95 7087 3.21 336 00:21 11.12.2022
702 Clouds -6 1014 95 7044 3.35 339 22:34 10.12.2022
703 Clouds -6 1013 95 7062 3.9 337 21:29 10.12.2022
704 Clouds -6 1013 95 7062 3.9 337 20:41 10.12.2022
705 Clouds -6 1013 95 7034 4.01 338 19:55 10.12.2022
706 Snow -6 1010 94 7156 4.4 338 17:44 10.12.2022
707 Snow -4 1009 94 7064 4.37 340 16:37 10.12.2022
708 Snow -3 1007 93 7070 4.31 341 15:40 10.12.2022
709 Snow -2 1005 90 8006 4.24 342 15:20 10.12.2022
710 Snow -2 1003 95 7205 3.96 341 13:33 10.12.2022
711 Snow -1 1003 94 6896 3.29 340 11:57 10.12.2022
712 Snow -1 1003 95 6780 2.97 341 10:49 10.12.2022
713 Snow -1 1003 96 6275 2.75 339 09:41 10.12.2022
714 Snow -1 1003 95 5110 2.39 337 07:22 10.12.2022
715 Snow -1 1003 96 2202 1.61 336 04:57 10.12.2022
716 Clouds -2 1003 95 7054 1.09 325 23:38 09.12.2022
717 Snow -1 1004 95 6491 0.92 314 22:42 09.12.2022
718 Snow -1 1004 95 8551 1 315 21:28 09.12.2022
719 Snow -1 1004 95 8551 1 315 20:58 09.12.2022
720 Clouds -1 1003 95 8941 1.1 313 19:43 09.12.2022
721 Snow -1 1000 93 7344 1.11 327 17:56 09.12.2022
722 Snow 0 1000 89 3578 0.7 296 16:47 09.12.2022
723 Clouds 1 1000 89 4542 0.7 209 16:18 09.12.2022
724 Snow 2 999 86 7574 0.97 182 15:24 09.12.2022
725 Clouds 2 1001 83 10000 2.46 177 12:25 09.12.2022
726 Snow 0 1002 89 10000 2.15 184 10:49 09.12.2022
727 Snow 0 1003 89 10000 2.36 170 10:19 09.12.2022
728 Snow -5 1007 93 4229 2.34 174 05:37 09.12.2022
729 Snow -5 1010 90 10000 2.84 171 03:18 09.12.2022
730 Clouds -5 1013 80 7411 3.03 178 22:41 08.12.2022
731 Clouds -5 1014 81 8335 3.14 177 20:51 08.12.2022
732 Clouds -7 1014 94 10000 2.73 184 18:41 08.12.2022
733 Clouds -3 1011 77 10000 2.53 170 16:23 08.12.2022
734 Clouds -1 1009 71 10000 2.56 175 14:28 08.12.2022
735 Clouds -3 1010 81 10000 2.53 180 11:47 08.12.2022
736 Clouds -5 1013 79 10000 2.2 184 10:23 08.12.2022
737 Clouds -6 1015 82 10000 2.17 202 09:28 08.12.2022
738 Clouds -6 1016 83 10000 2.1 208 06:47 08.12.2022
739 Clouds -4 1018 74 10000 1.84 208 22:36 07.12.2022
740 Clouds -4 1019 74 10000 1.6 217 22:18 07.12.2022
741 Clouds -4 1019 74 10000 1.6 217 21:45 07.12.2022
742 Clouds -4 1020 82 10000 0.8 249 19:48 07.12.2022
743 Clouds -5 1019 91 10000 0.9 290 17:41 07.12.2022
744 Clouds -1 1014 73 10000 1.62 352 14:41 07.12.2022
745 Clouds -3 1014 79 10000 2.29 347 12:39 07.12.2022
746 Clouds 0 1016 82 10000 2.19 346 10:46 07.12.2022
747 Clouds -2 1018 86 10000 2.26 339 09:56 07.12.2022
748 Clouds -6 1020 88 10000 1.62 323 08:54 07.12.2022
749 Clouds -6 1020 89 10000 1.93 320 06:49 07.12.2022
750 Clouds -6 1020 88 10000 1.83 315 05:23 07.12.2022
751 Clouds -5 1020 88 10000 1.53 300 23:44 06.12.2022
752 Clouds -5 1020 88 10000 1.44 297 21:31 06.12.2022
753 Clouds -4 1020 87 10000 1.31 301 18:35 06.12.2022
754 Clouds -4 1019 87 10000 1.28 309 17:18 06.12.2022
755 Clouds -3 1017 84 10000 1.3 326 16:21 06.12.2022
756 Clouds -1 1017 78 10000 1.3 326 15:35 06.12.2022
757 Clouds 1 1015 78 10000 1.37 339 14:34 06.12.2022
758 Clouds 1 1015 77 10000 1.24 335 13:39 06.12.2022
759 Clouds 0 1015 63 10000 0.95 328 12:40 06.12.2022
760 Clear 1 1016 55 10000 0.98 288 10:39 06.12.2022
761 Clear -8 1022 89 10000 1.1 275 07:38 06.12.2022
762 Clear -7 1025 57 10000 1 278 02:22 06.12.2022
763 Clouds -5 1027 82 10000 0.91 269 22:37 05.12.2022
764 Clouds -5 1027 88 10000 0.97 262 21:39 05.12.2022
765 Clouds -4 1027 92 10000 0.92 265 20:48 05.12.2022
766 Clouds -3 1026 94 10000 0.87 276 19:51 05.12.2022
767 Clouds -3 1026 94 10000 0.87 276 19:32 05.12.2022
768 Snow -2 1021 92 585 1.61 29 16:49 05.12.2022
769 Snow -1 1020 93 141 2.18 30 15:28 05.12.2022
770 Snow -1 1020 93 126 2.11 19 13:44 05.12.2022
771 Snow -1 1019 94 111 1.87 8 12:57 05.12.2022
772 Snow -1 1019 94 111 1.87 8 12:37 05.12.2022
773 Snow -1 1019 94 86 1.05 40 11:00 05.12.2022
774 Snow 0 1018 95 81 0.37 117 06:38 05.12.2022
775 Snow 1 1017 94 7652 3.26 161 23:56 04.12.2022
776 Snow 1 1017 95 8091 4.08 159 22:41 04.12.2022
777 Snow -2 1017 94 7801 4.41 163 22:18 04.12.2022
778 Snow 1 1017 94 8297 4.26 159 21:30 04.12.2022
779 Snow -3 1016 95 9254 3.84 161 19:53 04.12.2022
780 Snow -3 1015 94 7923 3.89 166 19:23 04.12.2022
781 Snow -3 1014 94 7944 3.81 164 18:20 04.12.2022
782 Snow -3 1013 95 8115 3.74 165 17:22 04.12.2022
783 Snow -2 1013 95 8115 3.74 165 16:36 04.12.2022
784 Snow 2 1012 94 6022 3.39 159 16:18 04.12.2022
785 Clouds 2 1010 94 3985 3.12 153 15:26 04.12.2022
786 Snow 1 1011 94 260 2.45 164 13:51 04.12.2022
787 Snow 2 1010 94 152 2.23 170 12:46 04.12.2022
788 Snow 2 1010 94 130 1.98 171 12:25 04.12.2022
789 Snow 2 1010 94 165 2.02 174 11:29 04.12.2022
790 Snow 0 1011 94 9695 2.2 173 07:35 04.12.2022
791 Snow 1 1013 89 10000 3.78 167 02:51 04.12.2022
792 Snow 1 1014 89 7653 4.28 166 23:44 03.12.2022
793 Snow 1 1014 90 7814 4.09 166 22:24 03.12.2022
794 Snow 1 1014 91 7814 4.09 166 21:45 03.12.2022
795 Snow 1 1014 92 7914 4.09 166 20:38 03.12.2022
796 Snow 1 1015 91 6636 3.91 168 18:40 03.12.2022
797 Snow 1 1014 91 7565 3.91 169 17:33 03.12.2022
798 Clouds 1 1014 88 7770 3.64 163 15:49 03.12.2022
799 Snow 2 1014 88 9352 3.99 163 13:19 03.12.2022
800 Clouds 3 1014 72 9352 3.99 163 12:41 03.12.2022
801 Clouds 1 1016 81 10000 3.9 170 11:21 03.12.2022
802 Clouds -7 1021 95 10000 3.25 173 07:59 03.12.2022
803 Clouds -8 1022 95 10000 3.4 167 02:48 03.12.2022
804 Clouds -7 1021 95 10000 3.61 167 23:32 02.12.2022
805 Clouds -6 1021 95 10000 3.51 165 21:42 02.12.2022
806 Clouds -2 1019 94 10000 3.16 161 19:45 02.12.2022
807 Snow 0 1016 92 650 1.94 152 16:26 02.12.2022
808 Snow 0 1016 92 650 1.94 152 15:53 02.12.2022
809 Clouds -1 1016 91 6975 1.81 167 14:28 02.12.2022
810 Clouds -1 1016 89 6975 1.81 167 13:42 02.12.2022
811 Clouds -2 1017 82 10000 1.77 190 11:49 02.12.2022
812 Clouds -3 1017 89 10000 1.8 189 10:30 02.12.2022
813 Clouds -5 1020 91 10000 1.82 204 07:48 02.12.2022
814 Clouds -5 1021 91 10000 1.83 211 07:18 02.12.2022
815 Clouds -3 1024 83 10000 1.53 201 22:50 01.12.2022
816 Clouds -3 1024 85 10000 1.29 205 21:41 01.12.2022
817 Clouds -3 1024 86 10000 1.07 208 20:37 01.12.2022
818 Clouds -3 1023 87 10000 0.62 231 18:58 01.12.2022
819 Clouds -3 1021 88 10000 0.52 225 16:57 01.12.2022
820 Clouds 0 1017 90 10000 0.7 144 14:21 01.12.2022
821 Clouds 0 1019 95 10000 0.79 139 11:20 01.12.2022
822 Clouds -1 1020 96 10000 0.39 129 09:54 01.12.2022
823 Clouds -2 1020 79 10000 0.39 129 09:36 01.12.2022
824 Clouds -3 1023 90 10000 1.07 350 06:19 01.12.2022
825 Clouds -2 1022 94 10000 0.84 4 22:41 30.11.2022
826 Clouds -2 1022 94 10000 1.15 13 21:40 30.11.2022
827 Clouds -1 1021 95 10000 1.38 12 21:18 30.11.2022
828 Clouds -2 1021 93 10000 1.4 16 20:23 30.11.2022
829 Clouds -2 1021 93 10000 1.4 16 20:23 30.11.2022
830 Clouds 0 1020 92 10000 1.52 9 18:36 30.11.2022
831 Clouds 0 1020 94 10000 1.55 18 17:40 30.11.2022
832 Clouds 1 1018 93 10000 1.27 36 16:26 30.11.2022
833 Clouds 2 1017 92 10000 1.19 29 14:45 30.11.2022
834 Clouds 2 1017 92 10000 1.22 24 14:25 30.11.2022
835 Clouds 1 1018 93 10000 1.75 6 11:58 30.11.2022
836 Clouds -1 1019 94 10000 2.17 3 09:21 30.11.2022
837 Clouds 0 1019 94 9430 2.16 1 07:59 30.11.2022
838 Clouds 0 1019 92 8463 2.31 356 05:22 30.11.2022
839 Clouds 0 1020 95 6489 1.78 341 23:26 29.11.2022
840 Clouds 0 1021 95 6725 1.8 339 21:50 29.11.2022
841 Clouds 1 1020 95 6966 1.68 337 20:52 29.11.2022
842 Clouds 1 1020 95 7170 1.86 340 19:48 29.11.2022
843 Clouds 1 1018 94 6604 2.2 351 17:53 29.11.2022
844 Clouds 1 1018 92 6553 2.27 352 16:31 29.11.2022
845 Clouds 2 1016 91 5298 2.01 355 15:22 29.11.2022
846 Clouds 2 1015 92 6676 2.07 353 13:50 29.11.2022
847 Clouds 2 1016 92 3988 1.68 359 12:36 29.11.2022
848 Clouds 2 1016 92 3339 1.52 8 11:31 29.11.2022
849 Clouds 1 1017 93 6009 1.43 6 10:26 29.11.2022
850 Clouds 0 1017 93 2490 1.32 358 09:26 29.11.2022
851 Snow 0 1016 91 282 1.47 354 06:46 29.11.2022
852 Snow 1 1016 79 116 0.73 324 00:23 29.11.2022
853 Snow 0 1016 80 129 0.66 308 23:22 28.11.2022
854 Snow 1 1016 76 183 0.54 288 21:56 28.11.2022
855 Snow 0 1016 77 183 0.54 288 21:36 28.11.2022
856 Snow 1 1016 76 234 0.47 236 20:24 28.11.2022
857 Snow 2 1016 77 276 0.59 175 19:24 28.11.2022
858 Clouds 2 1015 75 154 0.86 161 18:28 28.11.2022
859 Clouds 3 1015 72 171 0.88 157 17:22 28.11.2022
860 Clouds 2 1015 87 10000 0.82 164 14:45 28.11.2022
861 Clouds 2 1015 86 10000 1.34 161 13:53 28.11.2022
862 Clouds 3 1015 87 10000 1.52 162 12:52 28.11.2022
863 Clouds 3 1016 88 10000 1.49 163 11:31 28.11.2022
864 Clouds 2 1017 72 10000 1.67 165 07:54 28.11.2022
865 Clouds 2 1018 73 10000 1.35 194 04:54 28.11.2022
866 Snow -2 1018 76 10000 1.35 194 04:36 28.11.2022
867 Clouds -2 1020 71 10000 1.57 196 03:20 28.11.2022
868 Clouds -3 1022 66 10000 2.17 183 23:44 27.11.2022
869 Clouds -2 1023 65 10000 2.21 194 21:54 27.11.2022
870 Clouds -2 1022 66 10000 2.23 183 20:38 27.11.2022
871 Clouds -2 1024 68 10000 1.69 198 18:18 27.11.2022
872 Clouds 3 1023 57 10000 1.73 185 15:40 27.11.2022
873 Clouds 6 1022 66 10000 1.29 186 13:37 27.11.2022
874 Clouds 6 1024 76 10000 1.06 193 11:31 27.11.2022
875 Clouds -2 1029 74 10000 1.15 234 08:57 27.11.2022
876 Clouds -5 1032 79 10000 1.03 252 05:20 27.11.2022
877 Clouds -5 1036 38 10000 1.3 230 22:39 26.11.2022
878 Clouds -5 1036 49 10000 0.97 223 20:56 26.11.2022
879 Clouds -5 1036 59 10000 0.85 233 19:37 26.11.2022
880 Clouds -2 1035 84 10000 0.4 247 18:26 26.11.2022
881 Clouds 0 1032 81 10000 1.16 20 16:25 26.11.2022
882 Clouds 4 1030 84 10000 2.21 4 13:55 26.11.2022
883 Clouds 2 1030 92 10000 2.36 358 12:39 26.11.2022
884 Clouds 1 1031 92 10000 2.08 360 10:52 26.11.2022
885 Clouds -4 1032 84 10000 1.7 359 09:32 26.11.2022
886 Clouds 0 1033 94 10000 2.63 346 07:21 26.11.2022
887 Snow 2 1027 92 7043 3.55 338 21:47 25.11.2022
888 Snow 2 1026 92 5600 3.63 338 21:27 25.11.2022
889 Snow 2 1025 87 6065 3.54 338 19:57 25.11.2022
890 Snow 1 1024 90 10000 2.8 332 16:50 25.11.2022
891 Clouds 5 1019 66 10000 1.71 341 14:45 25.11.2022
892 Clouds 2 1021 61 10000 0.51 250 09:36 25.11.2022
893 Clouds -3 1024 64 10000 1.2 235 08:41 25.11.2022
894 Clouds -1 1023 58 10000 1.32 221 06:55 25.11.2022
895 Clouds -1 1022 56 10000 1.41 222 06:26 25.11.2022
896 Clouds -1 1021 88 10000 1.45 204 23:57 24.11.2022
897 Clouds -1 1021 88 10000 1.65 199 22:51 24.11.2022
898 Clouds -4 1022 47 10000 1.54 202 21:59 24.11.2022
899 Clouds -4 1022 50 10000 1.32 212 20:45 24.11.2022
900 Clouds -3 1024 69 10000 0.97 245 19:20 24.11.2022
901 Clouds -1 1023 85 10000 0.74 273 17:43 24.11.2022
902 Clouds -1 1022 88 10000 0.68 289 17:20 24.11.2022
903 Clouds 3 1018 88 10000 1.87 329 15:23 24.11.2022
904 Clouds 3 1018 90 10000 2.41 329 13:54 24.11.2022
905 Snow 1 1018 88 10000 2.52 324 11:58 24.11.2022
906 Snow 1 1018 89 10000 2.3 321 10:36 24.11.2022
907 Clouds -4 1022 89 10000 1.39 276 07:53 24.11.2022
908 Clouds -1 1019 94 10000 2.05 315 03:22 24.11.2022
909 Clouds -2 1017 95 7428 2.32 316 23:46 23.11.2022
910 Snow -1 1013 94 6312 3.48 326 21:57 23.11.2022
911 Snow -1 1012 94 2186 4.16 327 21:24 23.11.2022
912 Snow -1 1012 93 2186 4.16 327 20:37 23.11.2022
913 Snow -1 1008 92 720 1.99 304 19:27 23.11.2022
914 Snow -1 1008 92 720 1.99 304 19:27 23.11.2022
915 Snow 0 1009 81 528 2.55 298 18:41 23.11.2022
916 Snow 1 1007 81 5635 1.89 249 16:39 23.11.2022
917 Clear 2 1003 72 10000 0.83 291 13:40 23.11.2022
918 Clear 2 1003 73 10000 0.39 240 13:20 23.11.2022
919 Clear 3 1004 47 10000 0.23 191 12:21 23.11.2022
920 Clear 2 1004 47 10000 0.23 191 11:41 23.11.2022
921 Clear 0 1005 51 10000 0.77 294 10:42 23.11.2022
922 Clouds -3 1006 81 10000 1.07 291 09:43 23.11.2022
923 Clouds -3 1009 81 10000 0.83 263 09:25 23.11.2022
924 Clouds -7 1009 69 10000 0.83 263 08:37 23.11.2022
925 Clouds -7 1011 90 10000 1.13 318 05:22 23.11.2022
926 Clouds -2 1010 89 10000 1.66 315 04:23 23.11.2022
927 Clouds -2 1008 95 7746 2.87 321 23:23 22.11.2022
928 Clouds -2 1008 95 7746 2.87 321 22:33 22.11.2022
929 Clouds -1 1007 93 7723 2.98 331 21:34 22.11.2022
930 Snow -1 1006 92 5513 3.82 332 20:45 22.11.2022
931 Snow -1 1006 92 5513 3.82 332 20:45 22.11.2022
932 Snow 0 1006 91 4515 4.12 333 19:54 22.11.2022
933 Snow 0 1004 90 3797 4.09 340 17:56 22.11.2022
934 Snow 0 1003 89 3109 4.34 338 17:21 22.11.2022
935 Snow 0 1003 89 3109 4.34 338 17:21 22.11.2022
936 Snow 0 1003 89 3109 4.34 338 17:21 22.11.2022
937 Snow 1 1002 87 3702 4.32 340 15:51 22.11.2022
938 Clouds 1 1001 88 9712 4.76 337 13:42 22.11.2022
939 Clouds 0 1002 92 7324 4.82 342 11:40 22.11.2022
940 Snow 0 1001 94 2598 3.97 334 09:20 22.11.2022
941 Snow -1 999 94 688 3.35 338 07:20 22.11.2022
942 Snow 1 999 85 128 0.41 160 01:46 22.11.2022
943 Snow 1 1002 82 2720 1.46 176 23:40 21.11.2022
944 Clouds 0 1003 81 7827 2.23 195 22:42 21.11.2022
945 Snow 1 1003 81 10000 2.78 178 21:58 21.11.2022
946 Snow 0 1004 93 10000 3.69 170 20:52 21.11.2022
947 Snow 1 1004 95 8986 3.96 166 19:41 21.11.2022
948 Clouds 1 1004 86 10000 3.77 165 18:54 21.11.2022
949 Clouds 1 1005 92 10000 4.25 165 17:58 21.11.2022
950 Clouds 1 1005 92 10000 4.08 164 16:56 21.11.2022
951 Clouds 1 1005 92 10000 4.08 164 16:37 21.11.2022
952 Clouds 2 1005 90 10000 3.98 162 15:50 21.11.2022
953 Clouds 3 1004 88 10000 3.25 161 14:29 21.11.2022
954 Clouds 3 1004 80 10000 3.25 161 13:43 21.11.2022
955 Clouds 1 1007 93 10000 2.16 185 11:37 21.11.2022
956 Clouds -1 1014 91 10000 1.59 237 09:18 21.11.2022
957 Clouds -2 1016 82 10000 1.68 255 07:39 21.11.2022
958 Snow -1 1016 89 917 3.39 317 22:38 20.11.2022
959 Snow -1 1015 81 968 2.12 297 21:34 20.11.2022
960 Snow -1 1016 80 10000 2.32 288 20:32 20.11.2022
961 Clouds -2 1017 87 10000 1.66 276 18:26 20.11.2022
962 Clouds 0 1017 87 10000 1.77 298 16:32 20.11.2022
963 Clouds 2 1015 81 10000 1.94 317 15:30 20.11.2022
964 Clouds 2 1014 74 10000 1.89 323 14:54 20.11.2022
965 Clouds 0 1015 70 10000 2.5 328 13:34 20.11.2022
966 Clouds 2 1015 87 10000 2.55 331 12:42 20.11.2022
967 Clouds 0 1016 90 10000 2.48 327 11:26 20.11.2022
968 Clouds 0 1016 90 10000 2.48 327 10:49 20.11.2022
969 Clouds -1 1017 91 10000 2.66 324 09:28 20.11.2022
970 Clouds -2 1017 94 10000 2.66 324 08:35 20.11.2022
971 Clouds -2 1017 93 8268 2.89 324 07:30 20.11.2022
972 Clouds -2 1017 93 8268 2.89 324 07:30 20.11.2022
973 Snow -2 1016 90 7446 3.22 330 04:26 20.11.2022
974 Clouds -1 1016 89 7466 3.22 331 01:21 20.11.2022
975 Clouds -1 1016 87 7466 3.22 331 00:42 20.11.2022
976 Clouds -2 1016 93 7275 2.99 331 00:23 20.11.2022
977 Clouds -1 1016 93 7275 2.99 331 23:51 19.11.2022
978 Clouds -1 1016 93 7502 2.8 333 23:24 19.11.2022
979 Clouds -2 1016 93 7502 2.8 333 22:39 19.11.2022
980 Clouds -1 1015 93 8684 2.91 333 21:32 19.11.2022
981 Clouds -1 1015 91 9161 2.85 339 20:57 19.11.2022
982 Clouds -1 1015 91 8739 2.66 336 20:33 19.11.2022
983 Clouds 0 1015 92 8149 2.54 342 18:57 19.11.2022
984 Clouds 1 1014 92 7688 3.13 343 17:41 19.11.2022
985 Clouds 0 1013 92 7208 3.18 343 17:19 19.11.2022
986 Clouds 0 1012 88 8899 3.26 344 15:59 19.11.2022
987 Clouds 1 1010 82 10000 3.1 347 14:38 19.11.2022
988 Clouds 3 1011 76 10000 2.38 359 12:18 19.11.2022
989 Clouds 0 1012 83 10000 2.08 358 10:56 19.11.2022
990 Clouds -3 1014 87 10000 1.72 349 08:40 19.11.2022
991 Clouds -3 1014 95 5396 1.35 342 04:55 19.11.2022
992 Clouds -2 1013 95 7177 1.63 339 02:56 19.11.2022
993 Clouds -2 1014 90 10000 1.22 319 23:46 18.11.2022
994 Clouds -2 1015 90 10000 1.37 318 22:38 18.11.2022
995 Clouds -1 1014 91 10000 1.24 308 21:37 18.11.2022
996 Clouds -1 1013 90 10000 1.32 326 20:59 18.11.2022
997 Clouds -1 1013 90 10000 1.32 326 20:34 18.11.2022
998 Clouds 1 1012 94 10000 1.6 326 19:46 18.11.2022
999 Clouds 0 1011 91 10000 1.41 326 18:38 18.11.2022
1000 Clouds 1 1011 92 10000 1.97 319 17:44 18.11.2022
1001 Clouds 3 1007 89 8240 3.41 332 14:32 18.11.2022
1002 Clouds 3 1006 88 8192 3.48 329 11:31 18.11.2022
1003 Snow 2 1007 95 6488 3.41 324 08:46 18.11.2022
1004 Snow 1 1006 95 9692 3.16 316 07:51 18.11.2022
1005 Snow 1 1006 95 9692 3.16 316 07:51 18.11.2022
1006 Snow 2 1001 92 111 2.65 332 05:24 18.11.2022
1007 Rain 2 1001 99 154 2.24 178 00:51 18.11.2022
1008 Rain 3 1002 98 166 1.33 167 22:20 17.11.2022
1009 Clouds 4 1001 78 7347 1.82 205 20:46 17.11.2022
1010 Clouds 4 1000 74 10000 2.32 160 19:51 17.11.2022
1011 Clouds 4 1000 74 10000 2.2 164 18:47 17.11.2022
1012 Clouds 6 1001 70 10000 1.58 174 17:33 17.11.2022
1013 Clouds 7 1000 66 10000 0.9 169 16:53 17.11.2022
1014 Clouds 9 999 79 10000 0.16 191 14:57 17.11.2022
1015 Clouds 8 1001 65 10000 2.05 205 11:22 17.11.2022
1016 Clouds 3 1002 74 10000 2.54 201 08:39 17.11.2022
1017 Clouds 3 1002 78 10000 2.84 189 05:47 17.11.2022
1018 Clouds 3 1003 87 10000 2.06 191 00:22 17.11.2022
1019 Clouds 2 1004 88 10000 2.1 207 22:30 16.11.2022
1020 Clouds 3 1004 88 10000 1.22 172 21:18 16.11.2022
1021 Clouds 3 1005 84 10000 0.72 232 19:54 16.11.2022
1022 Clouds 3 1005 86 10000 0.52 236 18:46 16.11.2022
1023 Clouds 5 1006 86 10000 0.5 288 17:34 16.11.2022
1024 Clouds 6 1005 78 10000 2.12 344 14:19 16.11.2022
1025 Clouds 4 1006 90 8775 2.41 352 09:56 16.11.2022
1026 Clouds 4 1006 89 4845 1.22 336 06:38 16.11.2022
1027 Clouds 4 1007 98 35 2.87 166 01:29 16.11.2022
1028 Clouds 6 1009 80 65 3.23 166 22:33 15.11.2022
1029 Clouds 6 1010 81 4616 3.79 165 20:45 15.11.2022
1030 Clouds 6 1010 80 4936 3.83 163 19:34 15.11.2022
1031 Clouds 5 1011 96 3129 3.68 162 18:48 15.11.2022
1032 Clouds 6 1011 95 4684 2.96 161 17:22 15.11.2022
1033 Clouds 6 1011 91 8244 2.6 159 16:19 15.11.2022
1034 Clouds 6 1012 87 10000 2.41 163 14:54 15.11.2022
1035 Clouds 8 1012 83 10000 2.05 170 13:38 15.11.2022
1036 Clouds 6 1014 83 10000 3.04 170 11:43 15.11.2022
1037 Clouds 6 1015 83 10000 3.22 167 11:18 15.11.2022
1038 Clouds 4 1017 78 10000 3.57 165 08:35 15.11.2022
1039 Clouds 2 1022 81 10000 2.84 178 00:37 15.11.2022
1040 Clouds 2 1023 81 10000 2.63 175 23:56 14.11.2022
1041 Clouds 2 1023 81 10000 2.73 176 21:32 14.11.2022
1042 Clouds 2 1023 81 10000 2.7 172 20:40 14.11.2022
1043 Clouds 3 1022 78 10000 2.86 173 18:50 14.11.2022
1044 Clouds 4 1022 91 10000 2.99 166 15:51 14.11.2022
1045 Clouds 3 1022 93 2202 2.92 172 12:54 14.11.2022
1046 Rain 4 1023 93 3273 3.04 171 11:42 14.11.2022
1047 Rain 3 1022 91 3844 3.6 169 09:29 14.11.2022
1048 Rain 3 1022 91 5440 4.02 160 07:54 14.11.2022
1049 Rain 2 1021 91 7731 3.75 168 06:37 14.11.2022
1050 Clouds 4 1023 71 10000 4.03 174 00:18 14.11.2022
1051 Clouds 4 1024 67 10000 3.81 173 21:54 13.11.2022
1052 Clouds 4 1024 69 10000 3.93 173 21:27 13.11.2022
1053 Clouds 1 1024 89 10000 3.68 178 19:44 13.11.2022
1054 Clouds 1 1024 90 10000 3.55 176 18:23 13.11.2022
1055 Clouds 1 1023 88 10000 3.67 173 17:22 13.11.2022
1056 Clouds 1 1022 80 10000 3.97 177 14:58 13.11.2022
1057 Clouds 1 1022 79 10000 4.49 169 14:23 13.11.2022
1058 Clouds 0 1022 78 10000 4.74 172 12:38 13.11.2022
1059 Clear 7 1025 59 10000 4.79 173 10:58 13.11.2022
1060 Clouds 4 1025 62 10000 3.98 181 08:55 13.11.2022
1061 Clouds 5 1026 62 10000 2.15 202 01:35 13.11.2022
1062 Clouds 5 1027 65 10000 1.01 239 22:51 12.11.2022
1063 Clouds 6 1028 65 10000 0.62 293 21:24 12.11.2022
1064 Clouds 6 1028 67 10000 0.82 305 20:18 12.11.2022
1065 Clouds 9 1028 65 10000 0.97 275 18:18 12.11.2022
1066 Clouds 11 1029 63 10000 0.73 282 16:26 12.11.2022
1067 Clouds 12 1029 60 10000 0.53 274 15:23 12.11.2022
1068 Clouds 13 1030 55 10000 0.99 238 12:28 12.11.2022
1069 Clouds 9 1032 59 10000 1.41 202 09:20 12.11.2022
1070 Clouds 7 1033 59 10000 1.31 234 05:55 12.11.2022
1071 Clouds 7 1035 65 10000 2.15 195 22:31 11.11.2022
1072 Clouds 6 1035 69 10000 2 187 20:51 11.11.2022
1073 Clouds 6 1035 67 10000 1.88 187 19:44 11.11.2022
1074 Clouds 6 1034 69 10000 1.82 191 19:21 11.11.2022
1075 Clouds 7 1033 72 10000 1.82 182 17:56 11.11.2022
1076 Clouds 10 1032 66 10000 1.66 185 16:28 11.11.2022
1077 Clouds 13 1031 64 10000 1.66 177 14:21 11.11.2022
1078 Clouds 14 1031 52 10000 1.15 174 13:29 11.11.2022
1079 Clouds 12 1032 57 10000 0.4 332 10:18 11.11.2022
1080 Clouds 4 1033 72 10000 1.06 231 08:28 11.11.2022
1081 Clouds 3 1033 71 10000 1.11 241 06:26 11.11.2022
1082 Clouds 3 1033 84 10000 2.15 198 23:58 10.11.2022
1083 Clouds 3 1033 87 10000 1.97 195 22:41 10.11.2022
1084 Clouds 4 1033 88 10000 1.79 193 21:35 10.11.2022
1085 Clouds 4 1033 88 10000 1.79 203 20:59 10.11.2022
1086 Clouds 4 1033 88 10000 1.52 204 20:22 10.11.2022
1087 Clouds 4 1033 89 10000 1.52 204 19:44 10.11.2022
1088 Clouds 4 1032 88 10000 1.37 197 18:33 10.11.2022
1089 Clouds 7 1028 85 10000 0.35 70 16:26 10.11.2022
1090 Clouds 10 1027 82 10000 1.8 25 13:59 10.11.2022
1091 Clouds 10 1027 83 10000 1.69 20 12:51 10.11.2022
1092 Clouds 5 1025 96 10000 1.95 347 08:53 10.11.2022
1093 Clouds 6 1022 96 190 2.6 344 04:39 10.11.2022
1094 Clouds 6 1021 95 63 2.12 333 00:31 10.11.2022
1095 Clouds 6 1021 94 76 1.33 311 22:45 09.11.2022
1096 Clouds 4 1020 100 64 1.3 296 20:49 09.11.2022
1097 Clouds 4 1020 100 68 0.89 282 20:29 09.11.2022
1098 Clouds 6 1020 87 68 0.89 282 19:43 09.11.2022
1099 Clouds 8 1019 87 78 1.32 256 19:24 09.11.2022
1100 Rain 8 1019 99 76 1.61 154 16:50 09.11.2022
1101 Rain 5 1018 98 80 1.77 176 14:48 09.11.2022
1102 Clouds 5 1018 97 180 2.13 171 14:26 09.11.2022
1103 Clouds 5 1018 97 180 2.13 171 13:31 09.11.2022
1104 Clouds 3 1019 97 3017 1.98 165 12:49 09.11.2022
1105 Rain 7 1019 79 10000 2.61 171 08:53 09.11.2022
1106 Clouds 6 1020 79 10000 2.81 167 07:46 09.11.2022
1107 Clouds 4 1020 79 10000 3.7 165 01:45 09.11.2022
1108 Clouds 5 1021 78 10000 3.7 169 21:56 08.11.2022
1109 Clouds 5 1021 76 10000 3.7 169 21:35 08.11.2022
1110 Clouds 5 1022 75 10000 3.78 170 20:41 08.11.2022
1111 Clouds 5 1021 75 10000 3.94 169 19:47 08.11.2022
1112 Clouds 5 1021 74 10000 3.98 166 18:59 08.11.2022
1113 Clouds 4 1021 91 10000 3.75 167 17:32 08.11.2022
1114 Clouds 11 1019 88 10000 3.22 167 14:57 08.11.2022
1115 Clouds 11 1019 85 10000 3.13 170 14:23 08.11.2022
1116 Clouds 10 1019 83 10000 3.15 174 13:26 08.11.2022
1117 Clouds 8 1020 74 10000 3.27 175 10:26 08.11.2022
1118 Clouds 4 1022 65 10000 2.99 178 07:38 08.11.2022
1119 Clouds 4 1023 70 10000 3.05 183 01:50 08.11.2022
1120 Clouds 4 1024 71 10000 2.91 186 22:54 07.11.2022
1121 Clouds 4 1024 72 10000 2.76 191 21:39 07.11.2022
1122 Clouds 4 1023 72 10000 2.66 193 20:45 07.11.2022
1123 Clouds 4 1022 72 10000 2.46 193 19:37 07.11.2022
1124 Clouds 6 1023 70 10000 1.97 205 17:41 07.11.2022
1125 Clouds 5 1021 92 10000 1.42 213 15:38 07.11.2022
1126 Clouds 5 1020 91 2720 1.31 226 14:55 07.11.2022
1127 Clouds 10 1019 84 7962 1.56 213 13:20 07.11.2022
1128 Clouds 9 1019 66 10000 1.35 205 11:50 07.11.2022
1129 Clouds -3 1020 83 10000 0.94 250 09:50 07.11.2022
1130 Clouds 1 1022 80 10000 0.88 259 08:25 07.11.2022
1131 Clear 0 1022 80 10000 1.2 270 06:29 07.11.2022
1132 Clear 2 1022 80 10000 1.4 294 01:43 07.11.2022
1133 Clouds 3 1020 80 10000 1.13 280 23:19 06.11.2022
1134 Clouds 4 1019 77 10000 1.28 303 21:21 06.11.2022
1135 Clouds 1 1019 71 10000 1.28 303 20:36 06.11.2022
1136 Clouds 1 1019 70 10000 1.52 301 19:56 06.11.2022
1137 Clouds 1 1020 70 10000 1.23 276 18:50 06.11.2022
1138 Clouds 1 1019 71 10000 1.41 244 18:20 06.11.2022
1139 Clouds 3 1018 71 10000 1.9 202 17:22 06.11.2022
1140 Clouds 4 1018 71 10000 1.9 202 16:53 06.11.2022
1141 Clouds 4 1016 71 10000 2.38 186 16:18 06.11.2022
1142 Clouds 5 1016 74 10000 2.76 186 14:45 06.11.2022
1143 Clouds 7 1017 73 10000 3.22 182 12:44 06.11.2022
1144 Clouds 7 1017 66 10000 3.39 177 10:52 06.11.2022
1145 Clouds 5 1018 57 10000 3.08 177 09:51 06.11.2022
1146 Clouds -1 1022 89 10000 1.69 216 06:40 06.11.2022
1147 Clouds -2 1026 76 10000 1.01 308 23:22 05.11.2022
1148 Clouds -2 1027 90 10000 0.65 345 20:40 05.11.2022
1149 Clouds 2 1023 91 10000 2.65 341 18:22 05.11.2022
1150 Clouds 4 1021 87 10000 2.94 339 16:23 05.11.2022
1151 Clouds 2 1020 88 10000 2.98 340 14:34 05.11.2022
1152 Clouds 2 1020 89 9048 3.3 343 13:21 05.11.2022
1153 Clouds 1 1020 89 9220 3.48 343 10:43 05.11.2022
1154 Snow 0 1020 94 7932 3.24 335 08:49 05.11.2022
1155 Snow 1 1020 95 6922 3.65 334 07:22 05.11.2022
1156 Snow 1 1020 95 6922 3.65 334 06:54 05.11.2022
1157 Snow 1 1014 94 6538 3.67 332 23:36 04.11.2022
1158 Snow 1 1014 94 6463 3.39 337 22:44 04.11.2022
1159 Snow 2 1012 91 1855 3.41 345 20:31 04.11.2022
1160 Snow 2 1012 91 1855 3.41 345 20:30 04.11.2022
1161 Clouds 3 1011 96 7485 3.3 356 17:56 04.11.2022
1162 Clouds 3 1010 95 9871 3.13 357 17:23 04.11.2022
1163 Clouds 5 1007 82 10000 2.63 14 13:52 04.11.2022
1164 Clouds 4 1008 87 10000 2.43 4 12:27 04.11.2022
1165 Clouds 3 1008 92 10000 2.28 7 10:40 04.11.2022
1166 Snow 2 1011 94 10000 1.88 6 08:45 04.11.2022
1167 Snow 1 1011 95 6625 2.2 26 07:43 04.11.2022
1168 Snow 1 1011 95 6625 2.2 26 07:43 04.11.2022
1169 Rain 2 1011 93 1071 3.14 350 05:20 04.11.2022
1170 Rain 6 1010 90 158 2.62 167 23:26 03.11.2022
1171 Rain 6 1011 91 39 3.72 167 20:51 03.11.2022
1172 Clouds 6 1011 90 54 4 168 20:28 03.11.2022
1173 Rain 6 1012 90 114 4.42 160 19:29 03.11.2022
1174 Rain 7 1013 82 3149 4.19 164 17:49 03.11.2022
1175 Clouds 8 1013 94 8130 4.22 162 16:52 03.11.2022
1176 Clouds 9 1015 85 10000 4.39 162 14:19 03.11.2022
1177 Clouds 9 1016 79 10000 4.22 159 12:39 03.11.2022
1178 Clouds 9 1016 77 10000 4.33 161 11:47 03.11.2022
1179 Clouds 8 1018 80 10000 4.08 167 09:37 03.11.2022
1180 Clouds 5 1020 79 9726 3.77 167 07:43 03.11.2022
1181 Clouds 5 1023 88 10000 2.48 173 21:30 02.11.2022
1182 Clouds 5 1023 88 10000 2.23 181 20:39 02.11.2022
1183 Clouds 6 1023 88 10000 2.31 165 19:59 02.11.2022
1184 Clouds 8 1022 83 10000 0.9 110 17:18 02.11.2022
1185 Clouds 10 1022 77 10000 0.92 104 15:54 02.11.2022
1186 Clouds 10 1022 78 10000 0.88 72 14:47 02.11.2022
1187 Clouds 11 1023 71 10000 0.67 44 12:44 02.11.2022
1188 Clouds 10 1024 70 10000 0.72 28 11:39 02.11.2022
1189 Clouds 5 1025 86 10000 1.07 341 08:52 02.11.2022
1190 Clouds 4 1025 85 10000 0.93 341 05:35 02.11.2022
1191 Clouds 6 1024 85 10000 0.7 216 00:27 02.11.2022
1192 Clouds 7 1024 83 10000 1.14 190 22:19 01.11.2022
1193 Clouds 6 1024 84 10000 1.14 190 21:38 01.11.2022
1194 Clouds 7 1024 82 10000 1.01 175 20:26 01.11.2022
1195 Clouds 8 1024 80 10000 1.01 175 19:43 01.11.2022
1196 Clouds 8 1023 79 10000 0.62 142 18:53 01.11.2022
1197 Clouds 9 1023 75 10000 0.28 139 17:31 01.11.2022
1198 Clouds 11 1022 84 10000 0.98 154 16:20 01.11.2022
1199 Clouds 11 1022 81 10000 1.5 165 14:22 01.11.2022
1200 Clouds 11 1023 77 10000 2.42 168 12:27 01.11.2022
1201 Clouds 8 1023 77 10000 2.61 168 11:24 01.11.2022
1202 Clouds 8 1023 77 10000 2.61 168 10:56 01.11.2022
1203 Clouds 10 1023 65 10000 1.51 173 08:43 01.11.2022
1204 Clouds 9 1022 82 10000 1.05 169 07:30 01.11.2022
1205 Clouds 9 1022 82 10000 1.05 169 07:30 01.11.2022
1206 Clouds 9 1022 82 10000 1.05 169 07:30 01.11.2022
1207 Clouds 9 1022 66 10000 2.03 169 06:47 01.11.2022
1208 Clouds 9 1022 65 10000 2.5 167 05:57 01.11.2022
1209 Clouds 8 1022 70 10000 3.1 164 03:38 01.11.2022
1210 Clouds 9 1023 66 10000 3.53 167 21:55 31.10.2022
1211 Clouds 9 1023 65 10000 3.55 165 20:40 31.10.2022
1212 Clouds 9 1023 64 10000 3.45 166 19:53 31.10.2022
1213 Clouds 6 1022 79 10000 3.46 165 17:51 31.10.2022
1214 Clouds 10 1022 72 10000 3.66 161 16:42 31.10.2022
1215 Clouds 8 1022 51 10000 4.1 158 13:24 31.10.2022
1216 Clouds 15 1023 52 10000 3.85 161 11:52 31.10.2022
1217 Clouds 10 1023 71 10000 3.09 162 08:38 31.10.2022
1218 Clouds 8 1024 69 10000 2.94 164 05:33 31.10.2022
1219 Clouds 9 1025 66 10000 2.46 165 02:23 31.10.2022
1220 Clouds 10 1025 63 10000 2.51 165 23:19 30.10.2022
1221 Clouds 10 1025 63 10000 2.51 165 23:19 30.10.2022
1222 Clouds 11 1025 63 10000 2.38 165 20:51 30.10.2022
1223 Clouds 11 1025 61 10000 2.42 165 20:27 30.10.2022
1224 Clouds 12 1024 57 10000 2.26 165 18:29 30.10.2022
1225 Clouds 16 1024 54 10000 2.46 161 16:18 30.10.2022
1226 Clouds 16 1024 54 10000 2.46 161 16:18 30.10.2022
1227 Clouds 9 1024 46 10000 2.89 162 13:53 30.10.2022
1228 Clouds 17 1024 46 10000 2.98 164 13:18 30.10.2022
1229 Clouds 18 1024 59 10000 3.03 163 11:37 30.10.2022
1230 Clouds 13 1025 62 10000 2.79 166 09:37 30.10.2022
1231 Clouds 12 1025 67 10000 2.72 167 08:38 30.10.2022
1232 Clouds 10 1026 65 10000 2.89 167 02:56 30.10.2022
1233 Clouds 11 1027 63 10000 2.7 169 00:28 30.10.2022
1234 Clouds 11 1027 63 10000 2.7 169 23:44 29.10.2022
1235 Clouds 12 1027 64 10000 2.72 165 21:27 29.10.2022
1236 Clouds 15 1026 62 10000 2.25 161 18:21 29.10.2022
1237 Clouds 17 1026 64 10000 2.32 155 17:20 29.10.2022
1238 Clouds 19 1026 52 10000 2.3 156 15:38 29.10.2022
1239 Clouds 19 1026 48 10000 2.29 158 14:48 29.10.2022
1240 Clouds 18 1027 62 10000 2.15 159 12:35 29.10.2022
1241 Clouds 16 1027 68 10000 2.01 160 11:32 29.10.2022
1242 Clouds 10 1028 70 10000 0.87 167 07:38 29.10.2022
1243 Clouds 10 1028 70 10000 0.87 167 07:38 29.10.2022
1244 Clouds 10 1028 68 10000 0.77 189 05:56 29.10.2022
1245 Clouds 10 1028 70 10000 1.28 197 04:18 29.10.2022
1246 Clouds 11 1029 68 10000 1.43 183 23:42 28.10.2022
1247 Clouds 12 1029 68 10000 1.11 167 20:56 28.10.2022
1248 Clouds 13 1028 67 10000 0.47 144 19:29 28.10.2022
1249 Clouds 14 1028 69 10000 0.47 144 18:31 28.10.2022
1250 Clouds 18 1027 62 10000 0.58 84 15:37 28.10.2022
1251 Clouds 19 1028 65 10000 0.17 278 14:44 28.10.2022
1252 Clouds 18 1029 64 10000 0.61 196 12:58 28.10.2022
1253 Clouds 15 1029 75 10000 0.96 179 11:53 28.10.2022
1254 Clouds 14 1030 80 10000 1.18 176 11:25 28.10.2022
1255 Clouds 12 1030 74 10000 1.34 189 09:49 28.10.2022
1256 Clouds 10 1029 74 10000 1.27 199 08:34 28.10.2022
1257 Clouds 9 1029 77 10000 1.91 189 03:51 28.10.2022
1258 Clouds 9 1029 77 10000 1.91 189 03:51 28.10.2022
1259 Clouds 9 1029 77 10000 1.91 189 03:51 28.10.2022
1260 Clouds 9 1030 75 10000 1.5 191 23:50 27.10.2022
1261 Clouds 10 1030 73 10000 1.44 173 22:58 27.10.2022
1262 Clouds 10 1030 71 10000 1.35 173 21:56 27.10.2022
1263 Clouds 11 1029 72 10000 1.06 189 20:30 27.10.2022
1264 Clouds 11 1029 72 10000 1.06 189 20:30 27.10.2022
1265 Clouds 12 1028 71 10000 1.11 154 18:23 27.10.2022
1266 Clouds 17 1027 64 10000 0.88 143 14:52 27.10.2022
1267 Clouds 14 1028 74 10000 1.23 154 11:33 27.10.2022
1268 Clouds 6 1028 87 10000 0.89 199 07:30 27.10.2022
1269 Clouds 9 1027 90 10000 0.71 169 00:22 27.10.2022
1270 Clouds 9 1027 90 10000 0.71 169 23:49 26.10.2022
1271 Clouds 9 1027 90 10000 0.67 163 22:38 26.10.2022
1272 Clouds 10 1026 90 10000 0.87 133 20:36 26.10.2022
1273 Clouds 14 1024 85 10000 0.64 48 17:36 26.10.2022
1274 Clouds 15 1023 81 10000 0.8 324 14:53 26.10.2022
1275 Clouds 14 1023 87 10000 0.71 241 12:52 26.10.2022
1276 Clouds 10 1023 92 10000 1.09 196 11:35 26.10.2022
1277 Clouds 8 1023 94 10000 1.02 152 09:19 26.10.2022
1278 Rain 8 1023 93 10000 1.02 152 08:51 26.10.2022
1279 Clouds 9 1022 89 10000 2.5 174 00:51 26.10.2022
1280 Clouds 9 1022 89 10000 2.5 174 00:30 26.10.2022
1281 Clouds 9 1021 88 10000 2.58 174 22:23 25.10.2022
1282 Clouds 9 1021 90 10000 2.58 174 21:44 25.10.2022
1283 Clouds 9 1021 88 10000 2.34 176 20:27 25.10.2022
1284 Clouds 9 1021 87 10000 2.28 168 18:52 25.10.2022
1285 Clouds 13 1019 85 10000 1.5 160 16:30 25.10.2022
1286 Clouds 10 1020 89 10000 0.72 170 11:42 25.10.2022
1287 Clouds 10 1020 67 10000 0.18 180 10:47 25.10.2022
1288 Clouds 9 1021 75 10000 0.33 296 10:29 25.10.2022
1289 Clouds 5 1021 94 10000 0.31 348 08:38 25.10.2022
1290 Clouds 5 1021 94 10000 0.71 324 08:18 25.10.2022
1291 Clouds 5 1020 94 10000 0.52 340 07:53 25.10.2022
1292 Clouds 5 1020 94 10000 0.67 356 06:43 25.10.2022
1293 Clouds 6 1020 95 10000 1 354 03:28 25.10.2022
1294 Clouds 7 1021 95 10000 1.05 347 00:32 25.10.2022
1295 Clouds 8 1020 95 10000 0.8 8 22:26 24.10.2022
1296 Clouds 8 1020 95 10000 0.8 8 21:37 24.10.2022
1297 Clouds 8 1020 94 4853 0.75 2 20:49 24.10.2022
1298 Clouds 8 1019 94 9580 1.28 295 20:19 24.10.2022
1299 Clouds 9 1017 94 4593 1.77 236 17:53 24.10.2022
1300 Rain 10 1017 95 2828 1.11 217 16:55 24.10.2022
1301 Rain 10 1017 95 2237 1.7 198 15:24 24.10.2022
1302 Rain 10 1018 92 3631 2.52 193 14:18 24.10.2022
1303 Rain 9 1019 91 8293 2.74 187 12:26 24.10.2022
1304 Rain 10 1018 96 4488 2.82 181 09:22 24.10.2022
1305 Rain 10 1019 95 6399 3.69 167 03:21 24.10.2022
1306 Rain 12 1020 87 2525 4.12 164 22:29 23.10.2022
1307 Clouds 12 1021 81 2238 4.15 166 20:38 23.10.2022
1308 Clouds 10 1021 96 5063 4.35 161 18:41 23.10.2022
1309 Clouds 13 1020 89 8541 4.11 153 17:28 23.10.2022
1310 Clouds 14 1020 85 10000 4.14 157 15:40 23.10.2022
1311 Clouds 15 1020 83 10000 4.16 162 14:52 23.10.2022
1312 Clouds 13 1022 82 10000 3.89 161 11:40 23.10.2022
1313 Clouds 11 1022 90 10000 3.97 166 10:19 23.10.2022
1314 Clouds 8 1022 89 10000 3.14 169 04:41 23.10.2022
1315 Clouds 8 1022 92 10000 2.42 168 22:49 22.10.2022
1316 Clouds 8 1021 92 10000 2.38 164 21:43 22.10.2022
1317 Clouds 8 1021 91 10000 2.09 157 20:57 22.10.2022
1318 Clouds 9 1020 91 10000 1.72 154 19:57 22.10.2022
1319 Clouds 9 1020 91 10000 1.72 154 19:30 22.10.2022
1320 Clouds 12 1019 88 10000 0.25 90 17:39 22.10.2022
1321 Clouds 14 1018 79 10000 1.27 1 15:59 22.10.2022
1322 Clouds 14 1018 77 10000 1.56 346 14:47 22.10.2022
1323 Clouds 13 1018 83 10000 1.67 355 13:57 22.10.2022
1324 Clouds 8 1020 94 10000 0.52 333 10:34 22.10.2022
1325 Clouds 8 1020 94 10000 1.06 349 09:40 22.10.2022
1326 Rain 8 1019 95 6475 0.92 354 08:37 22.10.2022
1327 Rain 9 1015 92 1159 1.63 311 04:21 22.10.2022
1328 Rain 10 1016 96 7497 3.1 171 00:18 22.10.2022
1329 Rain 10 1016 95 7093 2.44 164 21:41 21.10.2022
1330 Rain 10 1016 95 7093 2.44 164 21:41 21.10.2022
1331 Rain 10 1016 95 5558 2.68 164 21:23 21.10.2022
1332 Rain 10 1017 95 5944 2.84 163 19:56 21.10.2022
1333 Rain 11 1017 93 10000 2.61 162 17:21 21.10.2022
1334 Clouds 11 1017 90 10000 2.36 165 14:30 21.10.2022
1335 Rain 11 1018 89 6193 2.09 183 13:22 21.10.2022
1336 Rain 10 1018 91 7977 2.12 191 11:33 21.10.2022
1337 Rain 11 1016 91 6962 3.95 156 10:21 21.10.2022
1338 Rain 11 1016 92 3977 4.45 152 08:39 21.10.2022
1339 Rain 10 1015 91 4063 4.31 153 07:47 21.10.2022
1340 Clouds 12 1019 77 4706 3.74 165 02:30 21.10.2022
1341 Clouds 12 1021 72 9142 3.67 164 22:32 20.10.2022
1342 Clouds 12 1021 94 10000 3.2 169 20:48 20.10.2022
1343 Clouds 12 1021 92 10000 3.27 163 19:40 20.10.2022
1344 Rain 13 1020 87 10000 3.63 166 17:54 20.10.2022
1345 Rain 14 1020 87 10000 3.63 166 17:33 20.10.2022
1346 Clouds 15 1021 69 10000 3.31 169 13:22 20.10.2022
1347 Clouds 14 1021 70 10000 3.66 160 12:28 20.10.2022
1348 Clouds 14 1021 73 10000 3.71 164 11:25 20.10.2022
1349 Clouds 15 1021 66 10000 3.71 164 10:51 20.10.2022
1350 Clouds 10 1023 78 10000 3.21 170 08:27 20.10.2022
1351 Clouds 9 1022 77 10000 3.11 170 05:45 20.10.2022
1352 Clouds 10 1023 77 10000 2.51 178 01:52 20.10.2022
1353 Clouds 9 1023 78 10000 2.3 189 22:46 19.10.2022
1354 Clouds 10 1023 78 10000 2.14 185 21:58 19.10.2022
1355 Clouds 10 1023 77 10000 2.04 185 21:18 19.10.2022
1356 Clouds 13 1022 69 10000 1.82 171 18:51 19.10.2022
1357 Clouds 17 1021 69 10000 1.6 155 17:38 19.10.2022
1358 Clouds 18 1021 63 10000 0.6 184 15:58 19.10.2022
1359 Clouds 18 1022 59 10000 1.48 157 13:53 19.10.2022
1360 Clear 15 1024 56 10000 0.41 77 10:18 19.10.2022
1361 Clear 8 1025 87 10000 0.35 11 08:35 19.10.2022
1362 Clear 8 1025 86 10000 0.43 346 06:30 19.10.2022
1363 Clear 10 1027 85 10000 1.09 341 01:26 19.10.2022
1364 Clear 10 1028 83 10000 1.28 343 23:19 18.10.2022
1365 Clear 11 1028 79 10000 1.22 344 21:45 18.10.2022
1366 Clear 11 1028 77 10000 1.18 354 20:59 18.10.2022
1367 Clear 12 1028 75 10000 1.51 352 20:18 18.10.2022
1368 Clouds 12 1027 78 10000 2.09 354 17:48 18.10.2022
1369 Clouds 17 1027 65 10000 2.17 353 16:52 18.10.2022
1370 Clear 18 1027 58 10000 2.16 350 14:51 18.10.2022
1371 Clear 17 1028 58 10000 1.54 358 12:34 18.10.2022
1372 Clear 14 1028 70 10000 1.62 348 11:22 18.10.2022
1373 Clear 14 1029 66 10000 1.54 339 09:58 18.10.2022
1374 Clouds 9 1029 75 10000 1.31 327 07:57 18.10.2022
1375 Clouds 9 1030 74 10000 0.58 268 03:45 18.10.2022
1376 Clouds 10 1031 75 10000 2.27 177 22:37 17.10.2022
1377 Clouds 11 1031 71 10000 2.19 180 20:55 17.10.2022
1378 Clouds 11 1031 72 10000 2.19 180 20:32 17.10.2022
1379 Clouds 12 1031 69 10000 2.29 176 19:52 17.10.2022
1380 Clouds 10 1030 90 10000 2.55 160 19:18 17.10.2022
1381 Clouds 13 1028 71 10000 2.42 156 16:55 17.10.2022
1382 Clouds 18 1028 63 10000 2.16 163 15:29 17.10.2022
1383 Clouds 18 1028 63 10000 2.16 163 15:29 17.10.2022
1384 Clouds 18 1028 63 10000 2.16 163 15:29 17.10.2022
1385 Clouds 18 1028 65 10000 2.33 168 14:35 17.10.2022
1386 Clouds 14 1028 67 10000 3.01 169 11:52 17.10.2022
1387 Clouds 7 1029 79 10000 3 176 06:41 17.10.2022
1388 Clouds 9 1028 76 10000 3.04 169 23:33 16.10.2022
1389 Clouds 10 1027 75 10000 2.94 170 21:58 16.10.2022
1390 Clouds 10 1026 74 10000 2.9 170 20:47 16.10.2022
1391 Clouds 11 1026 70 10000 3.11 165 19:46 16.10.2022
1392 Clouds 10 1024 76 10000 3.11 163 17:58 16.10.2022
1393 Clouds 11 1024 76 10000 3.11 163 17:33 16.10.2022
1394 Clouds 13 1023 72 10000 3.01 164 15:58 16.10.2022
1395 Clouds 18 1022 71 10000 3.01 163 14:33 16.10.2022
1396 Clouds 15 1022 63 10000 2.74 161 12:23 16.10.2022
1397 Clouds 11 1023 83 10000 2.7 164 10:28 16.10.2022
1398 Clouds 10 1023 82 10000 2.54 166 08:50 16.10.2022
1399 Clouds 9 1020 87 10000 2.7 177 02:24 16.10.2022
1400 Clouds 10 1019 86 10000 2.64 172 23:41 15.10.2022
1401 Clouds 11 1018 86 10000 1.78 192 21:29 15.10.2022
1402 Clouds 11 1018 86 10000 1.78 192 20:56 15.10.2022
1403 Clouds 12 1016 89 10000 0.95 167 18:50 15.10.2022
1404 Clouds 14 1014 62 10000 0.83 268 15:49 15.10.2022
1405 Clouds 14 1014 62 10000 0.83 268 15:31 15.10.2022
1406 Clouds 12 1015 90 10000 1.13 201 11:58 15.10.2022
1407 Rain 11 1016 93 10000 0.96 215 11:24 15.10.2022
1408 Clear 8 1016 95 10000 1.01 227 08:55 15.10.2022
1409 Clouds 8 1015 95 10000 1.53 225 03:40 15.10.2022
1410 Rain 8 1016 95 10000 1.82 198 00:24 15.10.2022
1411 Rain 8 1017 95 10000 1.42 234 22:24 14.10.2022
1412 Rain 8 1017 94 10000 1.42 234 21:36 14.10.2022
1413 Rain 9 1017 94 4981 1.84 239 20:26 14.10.2022
1414 Rain 11 1016 90 10000 0.92 233 17:18 14.10.2022
1415 Clouds 13 1016 82 10000 0.5 230 14:25 14.10.2022
1416 Clouds 9 1017 67 10000 0.7 222 12:44 14.10.2022
1417 Clouds 8 1018 96 10000 0.6 323 09:46 14.10.2022
1418 Clouds 7 1019 95 10000 0.47 321 07:57 14.10.2022
1419 Clouds 7 1019 95 10000 0.82 336 06:18 14.10.2022
1420 Clouds 7 1019 95 10000 0.82 336 05:49 14.10.2022
1421 Clouds 8 1019 95 10000 0.82 336 05:31 14.10.2022
1422 Rain 8 1021 94 10000 1.34 323 00:53 14.10.2022
1423 Rain 9 1021 91 10000 1.54 327 22:32 13.10.2022
1424 Rain 9 1020 88 10000 1.25 351 21:29 13.10.2022
1425 Clouds 9 1020 85 10000 1.49 340 20:19 13.10.2022
1426 Clouds 10 1020 83 10000 1.49 340 19:38 13.10.2022
1427 Clouds 11 1019 78 10000 0.93 350 18:43 13.10.2022
1428 Clouds 13 1019 71 10000 0.51 15 17:24 13.10.2022
1429 Clouds 14 1019 71 10000 0.43 342 15:48 13.10.2022
1430 Clouds 14 1020 69 10000 0.34 338 14:28 13.10.2022
1431 Clouds 12 1020 71 10000 0.21 33 12:51 13.10.2022
1432 Clouds 11 1021 76 10000 0.98 312 11:37 13.10.2022
1433 Clouds 8 1022 87 10000 0.33 210 09:46 13.10.2022
1434 Clouds 6 1022 89 10000 0.49 308 08:32 13.10.2022
1435 Clouds 6 1022 89 10000 0.94 311 07:35 13.10.2022
1436 Clear 7 1023 89 10000 1.62 186 01:56 13.10.2022
1437 Clear 8 1023 89 10000 1.74 183 00:59 13.10.2022
1438 Clouds 9 1023 88 10000 0.6 184 22:57 12.10.2022
1439 Clouds 9 1023 87 10000 0.6 184 22:36 12.10.2022
1440 Clouds 10 1023 90 10000 0.24 303 21:22 12.10.2022
1441 Clouds 10 1023 90 10000 0.24 303 20:52 12.10.2022
1442 Clouds 11 1023 93 10000 0.75 342 19:38 12.10.2022
1443 Clouds 13 1022 68 10000 0.71 350 18:26 12.10.2022
1444 Clouds 13 1022 84 10000 0.71 350 17:47 12.10.2022
1445 Clouds 13 1022 84 10000 0.71 350 17:47 12.10.2022
1446 Clouds 15 1021 71 10000 0.35 323 15:45 12.10.2022
1447 Clouds 14 1021 65 10000 0.32 122 13:57 12.10.2022
1448 Clouds 14 1022 64 10000 0.59 151 13:22 12.10.2022
1449 Clouds 9 1023 91 10000 0.92 191 09:41 12.10.2022
1450 Clouds 8 1023 92 10000 0.81 210 07:59 12.10.2022
1451 Clouds 8 1023 92 10000 0.81 210 07:39 12.10.2022
1452 Rain 8 1023 92 10000 0.76 222 06:43 12.10.2022
1453 Clouds 9 1023 90 10000 1.25 187 00:59 12.10.2022
1454 Clouds 9 1023 87 10000 1.42 180 22:19 11.10.2022
1455 Clouds 10 1023 83 10000 1.31 165 20:40 11.10.2022
1456 Clouds 11 1022 89 10000 0.26 124 19:21 11.10.2022
1457 Clouds 15 1021 64 10000 0.47 118 16:49 11.10.2022
1458 Clouds 15 1021 64 10000 0.47 118 16:49 11.10.2022
1459 Clouds 16 1021 61 10000 0.47 107 14:36 11.10.2022
1460 Clouds 14 1022 71 10000 0.68 92 12:53 11.10.2022
1461 Clouds 11 1023 82 10000 0.65 37 10:29 11.10.2022
1462 Clouds 8 1023 88 10000 0.65 37 09:30 11.10.2022
1463 Clouds 7 1023 90 10000 0.81 19 06:46 11.10.2022
1464 Clouds 7 1023 89 10000 1.27 353 02:26 11.10.2022
1465 Clouds 6 1023 88 10000 1.26 330 00:31 11.10.2022
1466 Clouds 9 1023 87 10000 1.12 331 21:37 10.10.2022
1467 Clouds 11 1022 84 10000 0.83 343 19:56 10.10.2022
1468 Clouds 12 1021 77 10000 0.19 358 18:33 10.10.2022
1469 Clouds 14 1020 68 10000 0.29 161 16:58 10.10.2022
1470 Clouds 11 1020 73 10000 0.77 182 15:24 10.10.2022
1471 Clouds 13 1020 71 10000 1.38 188 12:54 10.10.2022
1472 Clouds 13 1021 75 10000 1.73 183 11:56 10.10.2022
1473 Clouds 9 1020 90 10000 1.82 183 08:58 10.10.2022
1474 Clouds 9 1020 92 9640 2.18 174 05:43 10.10.2022
1475 Clouds 9 1020 92 9660 2.39 170 04:39 10.10.2022
1476 Clouds 9 1021 92 10000 2.89 174 00:33 10.10.2022
1477 Clouds 9 1021 93 8356 3.46 170 22:51 09.10.2022
1478 Clouds 9 1021 93 7174 3.37 169 22:18 09.10.2022
1479 Clouds 9 1021 93 7551 3.44 166 21:22 09.10.2022
1480 Clouds 9 1021 93 7633 3.53 168 20:23 09.10.2022
1481 Clouds 9 1021 93 7557 3.44 166 20:23 09.10.2022
1482 Clouds 9 1021 93 7557 3.44 166 19:45 09.10.2022
1483 Clouds 10 1020 92 7748 3.35 166 18:43 09.10.2022
1484 Clouds 11 1020 88 5432 3.26 161 16:56 09.10.2022
1485 Clouds 11 1020 93 5432 3.26 161 16:37 09.10.2022
1486 Clouds 11 1021 85 3915 3.28 161 15:38 09.10.2022
1487 Rain 11 1021 89 4660 3.19 160 14:31 09.10.2022
1488 Rain 10 1021 91 8088 3.39 166 13:34 09.10.2022
1489 Rain 9 1022 96 10000 3.2 167 12:35 09.10.2022
1490 Rain 9 1022 96 6303 2.84 160 10:49 09.10.2022
1491 Clouds 8 1021 96 10000 2.46 154 08:31 09.10.2022
1492 Clouds 9 1021 94 10000 1.99 142 03:48 09.10.2022
1493 Clouds 9 1021 94 10000 1.74 135 02:53 09.10.2022
1494 Clouds 9 1022 94 10000 1.2 106 00:39 09.10.2022
1495 Clouds 9 1023 94 10000 1.34 61 22:58 08.10.2022
1496 Clouds 9 1023 94 10000 1.4 41 22:22 08.10.2022
1497 Clouds 9 1022 93 10000 1.64 42 20:31 08.10.2022
1498 Clouds 10 1022 91 10000 1.83 357 18:57 08.10.2022
1499 Clouds 11 1021 88 10000 2.16 348 17:33 08.10.2022
1500 Rain 13 1021 74 10000 2.07 343 15:26 08.10.2022
1501 Clouds 14 1020 70 10000 1.14 347 13:32 08.10.2022
1502 Clouds 11 1021 62 10000 1.44 6 10:48 08.10.2022
1503 Clouds 11 1021 71 10000 1.45 7 10:25 08.10.2022
1504 Clouds 8 1021 68 10000 1.49 4 09:19 08.10.2022
1505 Clouds 7 1021 67 10000 0.71 354 05:31 08.10.2022
1506 Clouds 9 1023 72 10000 1.17 212 00:59 08.10.2022
1507 Clouds 9 1023 74 10000 1.36 207 23:39 07.10.2022
1508 Clouds 9 1023 74 10000 1.61 201 23:20 07.10.2022
1509 Clouds 9 1023 76 10000 1.57 192 21:48 07.10.2022
1510 Clouds 11 1023 73 10000 1.79 176 19:51 07.10.2022
1511 Clouds 16 1022 49 10000 1.32 161 17:54 07.10.2022
1512 Clouds 18 1022 60 10000 1.41 164 16:50 07.10.2022
1513 Clouds 18 1023 55 10000 1.57 163 15:26 07.10.2022
1514 Clouds 19 1023 53 10000 1.48 167 13:55 07.10.2022
1515 Clouds 15 1026 56 10000 1.99 178 11:29 07.10.2022
1516 Clouds 9 1027 67 10000 2.32 180 09:25 07.10.2022
1517 Clouds 8 1028 72 10000 2.52 179 08:23 07.10.2022
1518 Clouds 9 1029 75 10000 2.29 181 02:55 07.10.2022
1519 Clouds 9 1030 82 10000 2.35 173 23:21 06.10.2022
1520 Clouds 8 1030 81 10000 2.35 173 22:48 06.10.2022
1521 Clouds 10 1030 79 10000 2.18 170 21:37 06.10.2022
1522 Clouds 11 1030 76 10000 1.67 160 20:39 06.10.2022
1523 Clouds 13 1029 71 10000 0.89 111 18:57 06.10.2022
1524 Clouds 14 1029 65 10000 0.89 111 18:32 06.10.2022
1525 Clouds 18 1027 59 10000 1.45 40 15:38 06.10.2022
1526 Clear 17 1029 54 10000 1.77 25 12:59 06.10.2022
1527 Clear 11 1030 72 10000 1.85 355 09:27 06.10.2022
1528 Clear 8 1029 70 10000 2.32 341 05:19 06.10.2022
1529 Clouds 9 1029 67 10000 2.02 331 01:47 06.10.2022
1530 Clouds 10 1029 65 10000 1.68 205 21:59 05.10.2022
1531 Clear 7 1028 92 10000 2.02 180 19:45 05.10.2022
1532 Clear 12 1025 75 10000 2.06 167 17:37 05.10.2022
1533 Clear 13 1024 64 10000 2.28 166 16:45 05.10.2022
1534 Clear 17 1024 56 10000 2.32 166 15:23 05.10.2022
1535 Clear 12 1024 56 10000 2.32 166 14:38 05.10.2022
1536 Clouds 19 1024 52 10000 2.29 166 13:29 05.10.2022
1537 Clouds 17 1025 48 10000 2.25 171 11:45 05.10.2022
1538 Clouds 8 1025 64 10000 2.01 181 08:28 05.10.2022
1539 Clouds 7 1025 64 10000 2.1 178 07:21 05.10.2022
1540 Clouds 7 1025 64 10000 1.8 189 05:32 05.10.2022
1541 Clear 9 1025 63 10000 1.76 188 02:33 05.10.2022
1542 Clear 9 1025 66 10000 1.51 187 00:29 05.10.2022
1543 Clear 9 1025 66 10000 1.51 187 23:58 04.10.2022
1544 Clear 8 1024 71 10000 0.35 194 21:25 04.10.2022
1545 Clouds 9 1023 67 10000 0.33 308 20:20 04.10.2022
1546 Clouds 12 1022 61 10000 0.62 304 18:56 04.10.2022
1547 Clouds 14 1022 58 10000 0.62 304 18:33 04.10.2022
1548 Clouds 15 1021 40 10000 0.92 331 16:57 04.10.2022
1549 Clouds 17 1021 55 10000 0.7 328 14:31 04.10.2022
1550 Clouds 15 1021 25 10000 0.11 193 10:43 04.10.2022
1551 Clouds 8 1021 36 10000 0.4 194 08:28 04.10.2022
1552 Clouds 4 1021 29 10000 0.21 315 05:56 04.10.2022
1553 Clear 8 1023 91 10000 0.4 339 00:25 04.10.2022
1554 Clear 9 1023 94 10000 0.88 353 22:57 03.10.2022
1555 Clear 9 1024 92 10000 0.77 346 21:41 03.10.2022
1556 Clouds 10 1024 92 10000 1.32 3 20:40 03.10.2022
1557 Clouds 11 1023 85 10000 1.9 8 18:52 03.10.2022
1558 Clouds 15 1022 72 10000 2.25 358 17:35 03.10.2022
1559 Clear 15 1022 74 10000 2.63 353 16:22 03.10.2022
1560 Clear 15 1021 81 10000 2.57 357 14:30 03.10.2022
1561 Clouds 14 1023 82 10000 2.61 3 13:27 03.10.2022
1562 Clouds 12 1024 88 10000 2.87 356 11:37 03.10.2022
1563 Clouds 9 1024 94 10000 2.72 355 09:59 03.10.2022
1564 Clouds 8 1024 95 10000 2.98 344 08:47 03.10.2022
1565 Clouds 8 1024 94 9883 2.74 337 04:45 03.10.2022
1566 Rain 9 1025 91 10000 3.77 327 23:51 02.10.2022
1567 Clouds 9 1024 92 9306 4.02 327 22:19 02.10.2022
1568 Clouds 10 1023 87 10000 4.29 328 20:18 02.10.2022
1569 Clouds 14 1021 83 10000 3.49 329 17:58 02.10.2022
1570 Clouds 15 1020 76 10000 3.41 327 16:57 02.10.2022
1571 Clouds 15 1020 76 10000 3.41 327 16:32 02.10.2022
1572 Clouds 16 1020 70 10000 3.13 325 15:34 02.10.2022
1573 Clouds 15 1020 80 10000 2.74 317 13:46 02.10.2022
1574 Clouds 13 1021 88 10000 2.48 314 12:42 02.10.2022
1575 Clouds 12 1021 85 10000 2.4 315 12:20 02.10.2022
1576 Clouds 11 1021 90 10000 2.4 315 11:34 02.10.2022
1577 Clouds 8 1023 96 10000 2.2 307 10:19 02.10.2022
1578 Clouds 7 1023 95 10000 1.92 294 08:30 02.10.2022
1579 Rain 7 1023 96 6422 2.96 319 05:23 02.10.2022
1580 Rain 7 1022 96 4026 2.99 318 01:29 02.10.2022
1581 Rain 7 1022 96 4026 2.99 318 00:38 02.10.2022
1582 Rain 7 1021 96 1421 3.15 314 23:29 01.10.2022
1583 Rain 7 1020 96 4153 2.9 314 21:58 01.10.2022
1584 Rain 7 1017 95 2873 2.66 289 19:21 01.10.2022
1585 Rain 7 1017 93 2158 2 293 17:46 01.10.2022
1586 Rain 9 1016 95 5065 2.24 266 15:32 01.10.2022
1587 Rain 9 1017 89 8029 1.93 238 14:18 01.10.2022
1588 Rain 9 1017 76 5801 1.78 232 12:35 01.10.2022
1589 Clouds 5 1016 82 10000 2.06 247 11:23 01.10.2022
1590 Rain 5 1016 82 10000 2.06 247 10:53 01.10.2022
1591 Rain 6 1016 95 10000 2.06 247 10:30 01.10.2022
1592 Rain 6 1016 95 10000 2.06 247 10:30 01.10.2022
1593 Rain 5 1016 95 10000 1.91 210 09:26 01.10.2022
1594 Clouds 4 1016 96 10000 1.91 210 08:39 01.10.2022
1595 Clouds 3 1018 91 10000 1.77 233 03:50 01.10.2022
1596 Clouds 3 1018 91 10000 1.89 205 03:22 01.10.2022
1597 Clouds 4 1016 95 10000 1.32 241 23:22 30.09.2022
1598 Clouds 4 1016 95 10000 1.47 222 22:19 30.09.2022
1599 Clouds 4 1014 94 9984 0.99 189 21:22 30.09.2022
1600 Clouds 5 1014 94 9984 0.99 189 20:30 30.09.2022
1601 Clouds 6 1013 92 2535 0.74 159 18:45 30.09.2022
1602 Clouds 6 1012 88 82 0.55 71 16:58 30.09.2022
1603 Rain 5 1012 93 53 0.87 48 14:49 30.09.2022
1604 Rain 4 1010 93 3157 1.43 90 13:24 30.09.2022
1605 Rain 4 1010 93 10000 1.06 53 11:56 30.09.2022
1606 Rain 3 1009 95 10000 1.32 40 09:45 30.09.2022
1607 Rain 3 1010 93 10000 1.31 15 08:19 30.09.2022
1608 Clouds 3 1008 95 551 1.38 22 04:21 30.09.2022
1609 Clouds 4 1007 95 1777 1.93 354 02:22 30.09.2022
1610 Clouds 3 1006 94 104 2.33 355 22:23 29.09.2022
1611 Clouds 3 1005 94 119 2.25 354 21:25 29.09.2022
1612 Clouds 3 1004 93 35 2.24 340 19:58 29.09.2022
1613 Rain 4 1003 94 35 2.14 341 18:30 29.09.2022
1614 Rain 4 1003 94 35 2.14 341 18:30 29.09.2022
1615 Clouds 6 1001 93 252 1.02 333 16:29 29.09.2022
1616 Clouds 6 1001 91 252 1.02 333 15:37 29.09.2022
1617 Clouds 7 1000 86 1182 0.65 12 14:59 29.09.2022
1618 Clouds 6 999 90 2636 0.85 132 12:54 29.09.2022
1619 Clouds 4 1001 96 9936 0.85 346 08:51 29.09.2022
1620 Rain 4 1001 95 10000 0.37 282 05:35 29.09.2022
1621 Rain 4 1001 95 4138 0.68 265 02:37 29.09.2022
1622 Rain 5 1002 94 1652 1.07 306 23:29 28.09.2022
1623 Rain 5 1002 91 93 0.77 274 22:22 28.09.2022
1624 Rain 6 1002 93 1666 0.96 287 21:25 28.09.2022
1625 Rain 6 1001 100 170 0.97 292 19:58 28.09.2022
1626 Rain 6 1000 100 58 1.34 212 17:19 28.09.2022
1627 Rain 7 1000 100 54 1.22 217 14:45 28.09.2022
1628 Rain 4 1001 98 44 2.53 192 12:31 28.09.2022
1629 Rain 3 1002 97 1476 2.73 181 10:22 28.09.2022
1630 Rain 4 1003 93 2069 2.65 184 07:53 28.09.2022
1631 Rain 3 1003 91 1959 2.65 188 06:42 28.09.2022
1632 Clouds 3 1005 93 10000 1.88 243 01:50 28.09.2022
1633 Clouds 3 1006 92 10000 1.77 267 01:25 28.09.2022
1634 Rain 4 1007 91 10000 2.22 301 22:49 27.09.2022
1635 Clouds 5 1006 89 6391 2.12 319 21:24 27.09.2022
1636 Rain 5 1006 86 6391 2.12 319 20:36 27.09.2022
1637 Rain 5 1006 81 7145 2.44 320 19:47 27.09.2022
1638 Clouds 7 1004 85 9353 2.73 323 17:54 27.09.2022
1639 Clouds 8 1004 85 9353 2.73 323 17:32 27.09.2022
1640 Clouds 6 1004 79 10000 3.17 318 15:24 27.09.2022
1641 Clouds 6 1004 84 10000 2.93 317 14:24 27.09.2022
1642 Clouds 3 1005 90 4828 3.22 324 12:39 27.09.2022
1643 Clouds 3 1005 90 4828 3.22 324 12:39 27.09.2022
1644 Rain 4 1006 93 3504 3.71 330 10:49 27.09.2022
1645 Rain 4 1005 93 7384 3.43 323 08:42 27.09.2022
1646 Rain 4 1003 85 76 3.15 323 05:48 27.09.2022
1647 Rain 5 1004 93 2879 1.74 250 01:40 27.09.2022
1648 Clouds 5 1004 92 10000 1.97 190 00:28 27.09.2022
1649 Clouds 6 1005 92 6570 1.87 202 23:24 26.09.2022
1650 Clouds 6 1006 87 6363 1.21 225 21:37 26.09.2022
1651 Clouds 6 1006 86 4163 1.03 312 20:26 26.09.2022
1652 Clouds 7 1006 95 6379 1.42 308 19:21 26.09.2022
1653 Clouds 8 1006 84 4602 1.37 301 17:27 26.09.2022
1654 Clouds 10 1006 74 10000 1.24 309 15:44 26.09.2022
1655 Clouds 10 1007 77 10000 0.63 288 13:25 26.09.2022
1656 Clouds 8 1010 80 10000 0.66 328 11:28 26.09.2022
1657 Clouds 7 1010 89 10000 0.66 328 10:36 26.09.2022
1658 Clouds 7 1011 92 10000 1.13 328 10:18 26.09.2022
1659 Clouds 6 1011 93 10000 1.13 328 09:52 26.09.2022
1660 Clouds 5 1011 95 10000 1.81 331 09:22 26.09.2022
1661 Clouds 5 1013 94 10000 2.01 327 05:49 26.09.2022
1662 Clouds 5 1013 95 10000 2.22 321 02:35 26.09.2022
1663 Clouds 6 1014 95 2706 2.01 327 23:25 25.09.2022
1664 Clouds 6 1014 95 6932 2.08 331 21:48 25.09.2022
1665 Clouds 6 1014 94 6611 2.01 334 21:25 25.09.2022
1666 Clouds 6 1014 94 6611 2.01 334 20:36 25.09.2022
1667 Rain 6 1014 93 313 1.98 336 18:57 25.09.2022
1668 Rain 7 1013 93 119 2.34 319 18:26 25.09.2022
1669 Rain 7 1012 90 365 1.78 311 17:24 25.09.2022
1670 Rain 8 1011 82 1386 1.38 320 16:21 25.09.2022
1671 Rain 9 1011 94 999 0.81 317 14:54 25.09.2022
1672 Clouds 10 1011 97 133 0.3 10 14:19 25.09.2022
1673 Clouds 10 1012 88 9439 0.23 133 11:34 25.09.2022
1674 Clouds 9 1012 77 7636 0.32 164 09:48 25.09.2022
1675 Clouds 6 1012 90 10000 0.72 121 07:43 25.09.2022
1676 Clouds 6 1013 91 9751 1 167 05:25 25.09.2022
1677 Rain 7 1015 91 490 1.86 172 23:37 24.09.2022
1678 Rain 8 1015 88 2637 1.41 154 21:25 24.09.2022
1679 Clouds 8 1015 87 2637 1.41 154 20:32 24.09.2022
1680 Clouds 8 1015 98 213 1.16 155 19:20 24.09.2022
1681 Clouds 9 1015 97 141 1 168 16:56 24.09.2022
1682 Clouds 9 1015 94 1034 1.77 161 15:29 24.09.2022
1683 Clouds 9 1015 94 1034 1.77 161 14:47 24.09.2022
1684 Rain 8 1016 92 354 2.59 163 13:22 24.09.2022
1685 Rain 9 1016 83 3227 2.74 167 12:25 24.09.2022
1686 Clouds 9 1016 84 4616 2.63 164 09:59 24.09.2022
1687 Clouds 8 1016 87 6022 2.56 162 08:58 24.09.2022
1688 Clouds 8 1016 86 7870 2.14 161 07:41 24.09.2022
1689 Clouds 7 1016 86 10000 2 166 04:55 24.09.2022
1690 Clouds 7 1016 85 10000 2.16 173 04:21 24.09.2022
1691 Clouds 8 1018 79 10000 1.88 177 22:58 23.09.2022
1692 Clouds 9 1018 75 10000 1.4 181 21:37 23.09.2022
1693 Clouds 9 1018 75 10000 1.2 194 21:19 23.09.2022
1694 Clouds 9 1018 87 10000 1.2 194 20:43 23.09.2022
1695 Clouds 12 1017 82 10000 0.46 244 19:20 23.09.2022
1696 Clouds 12 1017 82 10000 0.46 244 19:20 23.09.2022
1697 Clouds 16 1016 58 10000 0.36 308 16:48 23.09.2022
1698 Clouds 14 1017 56 10000 0.36 309 12:52 23.09.2022
1699 Clouds 10 1019 74 10000 0.5 252 10:18 23.09.2022
1700 Clouds 3 1019 87 10000 0.81 220 07:29 23.09.2022
1701 Clear 6 1020 84 10000 1.56 195 01:21 23.09.2022
1702 Clear 6 1021 84 10000 1.21 209 23:29 22.09.2022
1703 Clear 7 1020 82 10000 0.9 212 22:27 22.09.2022
1704 Clear 7 1020 79 10000 0.7 223 21:24 22.09.2022
1705 Clear 6 1020 88 10000 0.41 280 20:18 22.09.2022
1706 Clear 14 1019 55 10000 0.9 344 18:30 22.09.2022
1707 Clear 16 1018 53 10000 1.63 339 14:49 22.09.2022
1708 Clear 9 1020 72 10000 0.57 323 10:38 22.09.2022
1709 Clear 9 1020 72 10000 0.57 323 10:38 22.09.2022
1710 Clear 9 1020 76 10000 0.51 306 10:18 22.09.2022
1711 Clouds 2 1021 88 10000 0.96 198 07:48 22.09.2022
1712 Clouds 4 1022 87 10000 1.67 194 04:37 22.09.2022
1713 Clouds 6 1023 82 10000 2.26 182 23:46 21.09.2022
1714 Clouds 6 1022 84 10000 1.8 165 22:28 21.09.2022
1715 Clouds 7 1022 81 10000 1.23 158 20:55 21.09.2022
1716 Clouds 12 1021 59 10000 0.33 328 18:34 21.09.2022
1717 Clouds 14 1019 67 10000 0.52 351 17:39 21.09.2022
1718 Clouds 14 1018 56 10000 0.53 128 15:29 21.09.2022
1719 Clear 13 1019 61 10000 0.78 135 13:39 21.09.2022
1720 Clear 10 1019 70 10000 1.02 144 11:34 21.09.2022
1721 Clear 9 1020 71 10000 1.26 152 10:52 21.09.2022
1722 Clear 5 1021 84 10000 1.41 146 09:38 21.09.2022
1723 Clouds 2 1023 89 10000 0.67 78 08:24 21.09.2022
1724 Clouds 4 1024 91 10000 1.87 16 02:54 21.09.2022
1725 Clouds 5 1024 87 10000 1.87 16 02:34 21.09.2022
1726 Clouds 5 1024 81 10000 2.08 4 01:50 21.09.2022
1727 Clouds 5 1024 83 10000 2.66 351 23:58 20.09.2022
1728 Clouds 6 1024 93 10000 2.79 346 21:40 20.09.2022
1729 Clear 6 1022 90 10000 2.96 341 20:26 20.09.2022
1730 Clear 11 1019 62 10000 3.55 341 17:53 20.09.2022
1731 Clear 13 1018 49 10000 3.38 342 15:18 20.09.2022
1732 Clear 12 1018 64 10000 3.11 343 13:59 20.09.2022
1733 Clear 9 1019 71 10000 2.39 347 11:28 20.09.2022
1734 Clear 1 1020 89 10000 2.12 349 08:30 20.09.2022
1735 Clear 2 1021 88 10000 1.82 343 07:32 20.09.2022
1736 Clear 4 1022 88 10000 1.8 348 04:33 20.09.2022
1737 Clouds 4 1023 90 10000 1.62 341 01:29 20.09.2022
1738 Clouds 5 1024 92 10000 2.06 349 22:33 19.09.2022
1739 Clouds 6 1023 90 10000 2.72 342 21:28 19.09.2022
1740 Clouds 6 1023 90 10000 2.72 342 20:39 19.09.2022
1741 Clouds 9 1020 80 10000 2.98 347 18:43 19.09.2022
1742 Clouds 9 1020 80 10000 2.98 347 18:43 19.09.2022
1743 Clouds 11 1018 51 10000 3.33 349 16:37 19.09.2022
1744 Clouds 11 1018 64 10000 3.31 349 13:45 19.09.2022
1745 Clouds 8 1019 70 10000 3.53 350 11:43 19.09.2022
1746 Clouds 6 1020 72 10000 3.76 348 09:38 19.09.2022
1747 Clouds 3 1021 88 10000 4.01 339 08:20 19.09.2022
1748 Clouds 5 1019 94 5941 4.07 334 03:28 19.09.2022
1749 Clouds 6 1019 87 10000 3.37 323 23:39 18.09.2022
1750 Clouds 6 1019 86 10000 3.2 321 22:29 18.09.2022
1751 Clouds 7 1019 86 10000 3.21 322 20:41 18.09.2022
1752 Clouds 9 1016 70 10000 3.27 325 19:26 18.09.2022
1753 Clouds 11 1016 58 10000 3.73 330 17:49 18.09.2022
1754 Clouds 13 1016 51 10000 3.9 328 16:46 18.09.2022
1755 Clouds 12 1015 72 10000 3.51 327 14:40 18.09.2022
1756 Clouds 10 1016 76 10000 3.08 331 12:58 18.09.2022
1757 Clouds 8 1016 82 10000 2.93 333 11:53 18.09.2022
1758 Clouds 2 1023 89 10000 1.69 332 06:57 18.09.2022
1759 Clouds 3 1021 91 10000 3.5 335 01:37 18.09.2022
1760 Clouds 4 1021 79 10000 3.55 332 01:18 18.09.2022
1761 Clouds 4 1021 86 8617 3.61 331 22:55 17.09.2022
1762 Clouds 5 1020 74 9060 3.71 331 20:51 17.09.2022
1763 Clouds 5 1018 76 6419 3.87 329 19:30 17.09.2022
1764 Clouds 8 1016 87 6280 4.12 329 17:36 17.09.2022
1765 Clouds 7 1016 74 7076 4.73 336 14:22 17.09.2022
1766 Clouds 5 1015 85 7052 4.91 333 12:44 17.09.2022
1767 Clouds 4 1016 81 8063 5.1 330 10:48 17.09.2022
1768 Rain 4 1015 85 2371 4.74 337 06:35 17.09.2022
1769 Rain 4 1014 85 2653 4.55 340 04:35 17.09.2022
1770 Rain 7 1012 94 1675 4.17 341 23:37 16.09.2022
1771 Clouds 8 1011 92 5662 4.23 341 21:47 16.09.2022
1772 Clouds 7 1011 95 4435 4.06 342 20:42 16.09.2022
1773 Clouds 10 1009 88 8583 3.61 330 18:29 16.09.2022
1774 Clouds 13 1009 78 10000 3.45 329 16:21 16.09.2022
1775 Clouds 11 1010 81 10000 3.1 329 14:44 16.09.2022
1776 Clouds 11 1010 88 7225 3.03 333 12:51 16.09.2022
1777 Rain 11 1010 92 8672 2.91 334 09:39 16.09.2022
1778 Clouds 8 1010 94 10000 2.73 332 07:22 16.09.2022
1779 Clouds 9 1010 94 10000 2.73 332 06:48 16.09.2022
1780 Clouds 9 1011 93 10000 2.95 330 05:43 16.09.2022
1781 Clouds 11 1011 95 7021 2.89 331 01:30 16.09.2022
1782 Clouds 13 1012 91 10000 2.43 336 21:31 15.09.2022
1783 Clouds 13 1011 89 10000 2.33 333 20:29 15.09.2022
1784 Clouds 14 1010 84 10000 2.48 335 18:57 15.09.2022
1785 Clouds 15 1010 81 10000 2.78 338 17:38 15.09.2022
1786 Clouds 16 1010 76 10000 3.03 339 17:18 15.09.2022
1787 Clouds 16 1009 76 10000 2.74 330 15:22 15.09.2022
1788 Clouds 17 1010 81 10000 2.55 319 12:49 15.09.2022
1789 Rain 16 1010 86 10000 2.36 319 11:47 15.09.2022
1790 Clouds 12 1011 96 10000 1.34 307 09:43 15.09.2022
1791 Clouds 12 1011 95 10000 1.33 296 05:22 15.09.2022
1792 Clouds 12 1012 94 10000 1.15 316 02:57 15.09.2022
1793 Clouds 12 1012 93 6756 1.51 179 22:51 14.09.2022
1794 Clouds 13 1011 92 10000 2.05 169 20:24 14.09.2022
1795 Clouds 14 1011 91 10000 2.05 169 19:32 14.09.2022
1796 Rain 16 1011 92 5175 1.51 191 17:28 14.09.2022
1797 Rain 17 1011 92 5175 1.51 191 16:36 14.09.2022
1798 Clouds 18 1011 88 5892 2.03 183 14:47 14.09.2022
1799 Clouds 18 1012 69 7155 2.65 161 12:33 14.09.2022
1800 Clouds 17 1013 75 10000 2.5 169 09:50 14.09.2022
1801 Clouds 14 1014 79 10000 2.43 177 07:47 14.09.2022
1802 Clouds 15 1013 76 10000 2.18 176 06:48 14.09.2022
1803 Rain 15 1015 69 10000 1.52 213 05:22 14.09.2022
1804 Clouds 11 1015 87 10000 2.85 180 01:53 14.09.2022
1805 Clouds 15 1015 64 10000 2.85 180 01:30 14.09.2022
1806 Clouds 15 1015 64 10000 3.06 171 00:52 14.09.2022
1807 Clouds 11 1016 86 10000 3.16 180 23:54 13.09.2022
1808 Clouds 12 1016 86 10000 3.16 180 23:36 13.09.2022
1809 Clouds 16 1016 62 10000 3.15 170 23:18 13.09.2022
1810 Clouds 16 1016 70 10000 3.01 173 22:22 13.09.2022
1811 Clouds 13 1015 81 10000 2.68 170 20:29 13.09.2022
1812 Clouds 21 1013 60 10000 1.94 163 18:21 13.09.2022
1813 Clouds 24 1013 52 10000 1.09 139 15:56 13.09.2022
1814 Clouds 24 1013 46 10000 0.62 173 14:47 13.09.2022
1815 Clouds 23 1014 38 10000 0.07 184 13:20 13.09.2022
1816 Clouds 17 1015 47 10000 0.87 319 09:23 13.09.2022
1817 Clouds 9 1016 78 10000 0.9 297 07:21 13.09.2022
1818 Clouds 11 1017 73 10000 1.02 289 00:30 13.09.2022
1819 Clouds 11 1018 70 10000 0.99 294 22:51 12.09.2022
1820 Clouds 11 1018 71 10000 1.04 292 22:22 12.09.2022
1821 Clouds 13 1017 64 10000 1.03 296 20:42 12.09.2022
1822 Clouds 20 1016 64 10000 1.08 319 18:52 12.09.2022
1823 Clear 23 1015 38 10000 1.31 319 17:25 12.09.2022
1824 Clouds 22 1015 58 10000 1.09 328 14:54 12.09.2022
1825 Clouds 17 1016 63 10000 0.7 303 11:51 12.09.2022
1826 Clouds 14 1017 31 10000 0.62 266 09:57 12.09.2022
1827 Clear 7 1018 87 10000 1.73 207 04:57 12.09.2022
1828 Clear 8 1018 87 10000 1.73 207 04:30 12.09.2022
1829 Clear 9 1020 86 10000 0.38 288 23:58 11.09.2022
1830 Clear 9 1020 84 10000 0.5 327 22:43 11.09.2022
1831 Clear 11 1020 80 10000 1.06 343 20:53 11.09.2022
1832 Clear 12 1019 76 10000 1.8 354 20:21 11.09.2022
1833 Clear 14 1018 70 10000 2.27 353 19:26 11.09.2022
1834 Clear 16 1018 61 10000 2.27 353 18:37 11.09.2022
1835 Clear 18 1017 61 10000 2.7 349 16:56 11.09.2022
1836 Clear 18 1018 58 10000 2.47 352 15:22 11.09.2022
1837 Clear 16 1019 72 10000 2.71 353 12:54 11.09.2022
1838 Clear 9 1020 91 10000 2.81 353 09:45 11.09.2022
1839 Clouds 8 1021 95 10000 1.71 338 07:43 11.09.2022
1840 Clouds 9 1020 94 10000 2.49 329 02:55 11.09.2022
1841 Rain 9 1020 90 10000 2.52 336 23:27 10.09.2022
1842 Clouds 10 1020 86 10000 2.33 337 21:35 10.09.2022
1843 Clouds 11 1018 82 10000 2.6 335 19:56 10.09.2022
1844 Clouds 11 1018 79 10000 2.6 335 19:37 10.09.2022
1845 Clouds 11 1018 79 10000 2.86 335 19:19 10.09.2022
1846 Clouds 13 1017 73 10000 2.94 339 16:58 10.09.2022
1847 Clouds 14 1016 64 10000 2.19 341 15:28 10.09.2022
1848 Clouds 14 1017 64 10000 1.59 334 12:55 10.09.2022
1849 Clouds 14 1017 64 10000 1.59 334 12:55 10.09.2022
1850 Clouds 12 1017 90 10000 1.62 342 11:36 10.09.2022
1851 Clouds 10 1018 93 10000 1.93 346 10:25 10.09.2022
1852 Clouds 9 1018 94 10000 1.93 342 08:37 10.09.2022
1853 Clouds 9 1019 94 10000 1.48 331 08:18 10.09.2022
1854 Clouds 9 1019 89 10000 1.8 328 02:54 10.09.2022
1855 Clouds 10 1019 91 10000 2.01 338 23:35 09.09.2022
1856 Clouds 10 1019 94 10000 2.19 326 22:21 09.09.2022
1857 Clouds 12 1018 77 10000 2.61 331 20:49 09.09.2022
1858 Clouds 12 1016 86 10000 2.89 338 19:26 09.09.2022
1859 Clouds 12 1016 86 10000 2.89 338 18:55 09.09.2022
1860 Clouds 12 1016 86 10000 2.89 338 18:55 09.09.2022
1861 Clouds 16 1015 84 10000 2.68 342 16:34 09.09.2022
1862 Clouds 12 1015 75 10000 1.15 325 14:28 09.09.2022
1863 Clouds 15 1014 73 10000 0.94 323 12:59 09.09.2022
1864 Clouds 13 1015 85 10000 1.21 328 10:23 09.09.2022
1865 Clouds 10 1015 89 10000 1.31 357 07:24 09.09.2022
1866 Clouds 10 1015 89 10000 1.31 357 07:24 09.09.2022
1867 Clouds 10 1015 89 10000 1.31 357 07:24 09.09.2022
1868 Clouds 10 1016 91 10000 1.3 358 03:30 09.09.2022
1869 Clouds 12 1017 92 10000 1.24 334 22:19 08.09.2022
1870 Clouds 12 1017 92 10000 1.24 334 21:47 08.09.2022
1871 Clouds 13 1017 91 10000 1.56 343 20:46 08.09.2022
1872 Clouds 13 1016 88 10000 2.05 342 20:24 08.09.2022
1873 Clouds 15 1015 81 10000 2.13 334 18:34 08.09.2022
1874 Clouds 15 1015 73 10000 2.38 345 16:47 08.09.2022
1875 Clouds 17 1014 76 10000 2.04 344 14:42 08.09.2022
1876 Clouds 17 1014 66 10000 1.93 354 13:27 08.09.2022
1877 Clouds 15 1014 66 10000 1.93 354 12:35 08.09.2022
1878 Clouds 12 1016 88 10000 1.64 354 10:58 08.09.2022
1879 Clouds 10 1017 96 2388 1.62 354 09:20 08.09.2022
1880 Rain 11 1014 95 967 2.79 344 06:43 08.09.2022
1881 Clouds 12 1012 95 1151 2.61 137 02:37 08.09.2022
1882 Clouds 12 1013 95 1422 2.85 149 02:19 08.09.2022
1883 Clouds 12 1014 95 1756 2.9 163 01:58 08.09.2022
1884 Clouds 13 1015 93 2486 3.07 173 22:55 07.09.2022
1885 Clouds 14 1016 91 4305 2.98 164 21:43 07.09.2022
1886 Clouds 13 1016 91 7440 3.05 160 21:18 07.09.2022
1887 Clouds 14 1015 91 3804 2.5 157 20:19 07.09.2022
1888 Clouds 16 1015 86 10000 2.52 153 18:40 07.09.2022
1889 Clouds 20 1017 71 10000 1.62 158 15:21 07.09.2022
1890 Clouds 17 1018 74 10000 1.08 103 10:50 07.09.2022
1891 Clouds 16 1019 77 10000 0.68 103 10:24 07.09.2022
1892 Clouds 13 1019 80 10000 0.28 215 07:43 07.09.2022
1893 Clouds 12 1019 80 10000 0.9 209 04:39 07.09.2022
1894 Clouds 12 1020 91 10000 1.99 183 00:26 07.09.2022
1895 Clouds 13 1020 91 10000 2.63 169 21:47 06.09.2022
1896 Rain 14 1020 89 10000 2.62 163 21:27 06.09.2022
1897 Clouds 19 1018 77 10000 2.14 157 18:55 06.09.2022
1898 Clouds 20 1019 64 10000 1.65 156 18:27 06.09.2022
1899 Clouds 22 1019 58 10000 1.71 160 17:23 06.09.2022
1900 Clouds 23 1019 58 10000 1.71 160 16:40 06.09.2022
1901 Clouds 23 1019 50 10000 1.99 154 15:23 06.09.2022
1902 Clouds 22 1020 57 10000 1.63 141 13:46 06.09.2022
1903 Clouds 21 1020 63 10000 1.43 140 13:25 06.09.2022
1904 Clouds 20 1020 66 10000 1.43 140 12:37 06.09.2022
1905 Clouds 19 1022 64 10000 1.34 155 10:46 06.09.2022
1906 Clouds 14 1022 84 10000 0.93 145 08:54 06.09.2022
1907 Clouds 12 1023 84 10000 0.3 176 07:51 06.09.2022
1908 Clouds 12 1023 82 10000 1.44 188 04:48 06.09.2022
1909 Clear 13 1024 79 10000 2 188 23:42 05.09.2022
1910 Clear 14 1024 78 10000 1.9 188 22:31 05.09.2022
1911 Clear 13 1024 86 10000 1.64 161 20:58 05.09.2022
1912 Clouds 16 1023 85 10000 0.44 140 19:50 05.09.2022
1913 Clouds 19 1023 79 10000 0.08 101 18:49 05.09.2022
1914 Clouds 20 1023 70 10000 0.1 307 18:22 05.09.2022
1915 Clouds 21 1023 60 10000 0.1 307 17:30 05.09.2022
1916 Clouds 20 1023 65 10000 0.31 281 15:52 05.09.2022
1917 Clouds 19 1023 58 10000 0.91 170 13:27 05.09.2022
1918 Clouds 20 1024 59 10000 1.13 170 12:28 05.09.2022
1919 Clouds 18 1024 74 10000 1.07 162 10:24 05.09.2022
1920 Clouds 11 1025 85 10000 1.36 191 06:46 05.09.2022
1921 Clouds 11 1025 86 10000 2.07 188 02:49 05.09.2022
1922 Clear 12 1025 86 10000 1.63 165 23:28 04.09.2022
1923 Clear 13 1025 84 10000 1.72 175 22:28 04.09.2022
1924 Clear 14 1025 82 10000 1.72 175 21:34 04.09.2022
1925 Clouds 17 1022 89 10000 0.26 112 19:38 04.09.2022
1926 Clouds 18 1022 74 10000 0.17 20 18:20 04.09.2022
1927 Clouds 19 1021 69 10000 0.35 305 16:56 04.09.2022
1928 Clouds 20 1020 64 10000 0.44 8 14:36 04.09.2022
1929 Clear 20 1020 62 10000 0.41 72 13:52 04.09.2022
1930 Clear 19 1021 64 10000 0.69 83 12:18 04.09.2022
1931 Clear 16 1021 71 10000 0.83 69 10:47 04.09.2022
1932 Clear 9 1021 94 10000 0.42 340 08:21 04.09.2022
1933 Clear 8 1020 94 10000 0.43 328 05:36 04.09.2022
1934 Clouds 11 1020 94 10000 0.97 184 00:53 04.09.2022
1935 Clouds 11 1019 94 10000 1.09 190 22:26 03.09.2022
1936 Clouds 12 1018 94 10000 0.64 182 21:23 03.09.2022
1937 Clouds 13 1017 93 10000 0.46 247 19:56 03.09.2022
1938 Clouds 16 1016 84 10000 0.46 260 17:29 03.09.2022
1939 Clouds 16 1016 80 10000 0.46 260 16:33 03.09.2022
1940 Clouds 14 1016 90 10000 1.01 204 14:46 03.09.2022
1941 Rain 14 1016 90 9715 1.63 186 14:26 03.09.2022
1942 Rain 15 1016 84 9976 1.51 183 13:21 03.09.2022
1943 Clouds 12 1016 89 10000 2.01 175 10:55 03.09.2022
1944 Clouds 11 1016 96 10000 2.44 171 08:41 03.09.2022
1945 Clouds 10 1017 95 10000 3.05 169 06:58 03.09.2022
1946 Clouds 10 1017 95 10000 2.71 171 04:38 03.09.2022
1947 Clouds 12 1017 95 7645 2.47 168 00:32 03.09.2022
1948 Clouds 12 1017 95 9186 2 175 23:20 02.09.2022
1949 Clouds 12 1016 94 10000 1.84 125 21:19 02.09.2022
1950 Rain 12 1016 91 10000 1.84 125 20:39 02.09.2022
1951 Rain 13 1016 89 8357 0.49 281 19:30 02.09.2022
1952 Rain 15 1014 72 6558 0.57 197 18:43 02.09.2022
1953 Rain 16 1014 65 10000 1.19 142 18:24 02.09.2022
1954 Clouds 18 1014 65 10000 0.4 73 16:49 02.09.2022
1955 Clouds 18 1015 63 10000 0.29 308 15:35 02.09.2022
1956 Clouds 19 1015 56 10000 0.09 192 12:43 02.09.2022
1957 Clouds 14 1016 78 10000 1.62 189 10:22 02.09.2022
1958 Clouds 14 1016 78 10000 1.62 189 09:41 02.09.2022
1959 Clouds 10 1017 90 10000 2.22 188 07:54 02.09.2022
1960 Clouds 9 1017 88 10000 2.43 189 06:41 02.09.2022
1961 Clear 9 1018 88 10000 2.35 191 03:52 02.09.2022
1962 Clouds 12 1018 85 10000 0.6 199 22:45 01.09.2022
1963 Clouds 13 1018 91 10000 0.19 278 21:44 01.09.2022
1964 Clouds 14 1018 91 10000 0.8 354 21:25 01.09.2022
1965 Clouds 14 1018 91 10000 0.8 354 20:46 01.09.2022
1966 Clouds 17 1016 80 10000 1.68 346 18:57 01.09.2022
1967 Clouds 18 1016 74 10000 1.89 346 17:33 01.09.2022
1968 Clouds 19 1016 63 10000 2.27 348 15:59 01.09.2022
1969 Clouds 20 1015 55 10000 1.74 343 14:33 01.09.2022
1970 Clouds 19 1015 65 10000 1.34 351 12:58 01.09.2022
1971 Clouds 17 1016 72 10000 1.25 348 11:53 01.09.2022
1972 Clouds 17 1016 78 10000 1.25 348 11:32 01.09.2022
1973 Clouds 15 1016 80 10000 1.23 349 10:38 01.09.2022
1974 Clouds 10 1017 91 10000 1.41 350 08:30 01.09.2022
1975 Clouds 11 1017 88 10000 1.24 345 06:23 01.09.2022
1976 Clouds 12 1019 93 10000 1.89 353 01:33 01.09.2022
1977 Clouds 12 1019 91 10000 2.24 346 00:18 01.09.2022
1978 Clouds 12 1019 89 10000 2.39 348 21:33 31.08.2022
1979 Clouds 13 1018 88 10000 2.4 343 19:50 31.08.2022
1980 Clouds 14 1017 84 10000 2.42 352 18:18 31.08.2022
1981 Clouds 16 1017 81 10000 2.68 355 16:23 31.08.2022
1982 Clouds 17 1017 67 10000 2.94 349 14:32 31.08.2022
1983 Clouds 16 1018 79 10000 2.45 338 12:22 31.08.2022
1984 Clouds 13 1019 91 10000 2.29 336 11:26 31.08.2022
1985 Clouds 12 1019 95 10000 2.08 335 08:37 31.08.2022
1986 Clouds 12 1019 88 10000 2.02 335 05:26 31.08.2022
1987 Clouds 14 1020 77 10000 0.38 324 23:20 30.08.2022
1988 Clouds 15 1020 90 10000 0.73 54 21:41 30.08.2022
1989 Clouds 16 1020 89 10000 1.26 2 20:57 30.08.2022
1990 Rain 17 1019 83 10000 1.1 29 18:32 30.08.2022
1991 Clouds 21 1019 54 10000 0.06 186 15:23 30.08.2022
1992 Clouds 22 1019 59 10000 0.3 191 13:24 30.08.2022
1993 Clouds 20 1020 66 10000 0.47 160 11:21 30.08.2022
1994 Clouds 19 1020 70 10000 0.47 160 10:49 30.08.2022
1995 Clouds 12 1021 88 10000 0.34 273 07:42 30.08.2022
1996 Clear 14 1021 85 10000 0.42 292 02:32 30.08.2022
1997 Clouds 15 1021 90 10000 0.73 347 22:58 29.08.2022
1998 Clouds 13 1022 90 10000 0.93 318 22:24 29.08.2022
1999 Clouds 15 1021 90 10000 1.04 324 21:25 29.08.2022
2000 Clouds 18 1020 88 10000 1.16 336 19:52 29.08.2022
2001 Clouds 20 1019 72 10000 1.38 328 17:52 29.08.2022
2002 Clouds 20 1019 67 10000 1.17 330 17:24 29.08.2022
2003 Clouds 20 1019 70 10000 1.17 328 16:37 29.08.2022
2004 Clouds 19 1019 64 10000 0.47 332 14:45 29.08.2022
2005 Clear 22 1019 53 10000 0.31 318 12:53 29.08.2022
2006 Clear 20 1019 70 10000 0.45 165 11:19 29.08.2022
2007 Clear 16 1019 75 10000 0.57 164 09:45 29.08.2022
2008 Clear 12 1020 89 10000 0.68 232 08:28 29.08.2022
2009 Clear 13 1019 83 10000 0.54 247 04:57 29.08.2022
2010 Clouds 12 1020 92 10000 0.66 352 00:20 29.08.2022
2011 Clouds 14 1020 84 10000 1.12 353 22:37 28.08.2022
2012 Clouds 15 1020 80 10000 1.43 352 21:43 28.08.2022
2013 Clouds 16 1019 73 10000 1.98 344 20:54 28.08.2022
2014 Clouds 19 1017 82 10000 1.76 352 19:23 28.08.2022
2015 Clouds 17 1017 74 10000 1.81 354 18:20 28.08.2022
2016 Clouds 16 1016 69 10000 1.95 348 16:57 28.08.2022
2017 Clouds 16 1016 62 10000 1.6 339 15:55 28.08.2022
2018 Clouds 21 1015 54 10000 1 341 14:21 28.08.2022
2019 Clouds 20 1015 69 10000 0.92 339 12:32 28.08.2022
2020 Clouds 16 1016 80 10000 0.44 7 10:42 28.08.2022
2021 Clouds 15 1016 84 10000 0.31 360 09:41 28.08.2022
2022 Clouds 13 1016 86 10000 0.3 319 08:36 28.08.2022
2023 Clear 12 1017 87 10000 0.23 238 07:41 28.08.2022
2024 Clouds 13 1017 92 10000 0.92 21 01:31 28.08.2022
2025 Clouds 14 1017 91 10000 1.2 15 00:25 28.08.2022
2026 Clouds 14 1017 91 10000 1.2 355 22:32 27.08.2022
2027 Clouds 15 1016 89 10000 2.02 340 21:24 27.08.2022
2028 Clouds 16 1016 84 10000 1.95 340 19:39 27.08.2022
2029 Clouds 18 1014 73 10000 0.89 314 16:48 27.08.2022
2030 Clouds 19 1014 70 10000 0.73 301 15:52 27.08.2022
2031 Clouds 19 1014 73 10000 0.57 310 15:23 27.08.2022
2032 Clouds 18 1014 80 10000 0.26 20 12:23 27.08.2022
2033 Clouds 16 1014 86 10000 0.6 4 11:24 27.08.2022
2034 Clouds 14 1014 89 10000 1.2 4 09:40 27.08.2022
2035 Clouds 12 1015 91 10000 1.26 2 07:31 27.08.2022
2036 Clouds 11 1015 91 10000 1.22 356 02:33 27.08.2022
2037 Clouds 12 1016 88 10000 2.01 345 23:55 26.08.2022
2038 Clouds 14 1016 86 10000 2.01 339 22:31 26.08.2022
2039 Rain 15 1016 71 10000 1.38 340 20:39 26.08.2022
2040 Rain 15 1015 80 10000 2.03 348 19:20 26.08.2022
2041 Clouds 20 1016 60 10000 2 333 16:46 26.08.2022
2042 Clouds 21 1016 59 10000 2.21 341 15:27 26.08.2022
2043 Clouds 19 1016 65 10000 2.31 346 13:46 26.08.2022
2044 Clouds 21 1016 63 10000 1.97 342 12:35 26.08.2022
2045 Clouds 20 1016 67 10000 1.92 353 11:22 26.08.2022
2046 Clouds 18 1016 73 10000 1.99 351 10:25 26.08.2022
2047 Clouds 13 1017 87 10000 1.73 329 06:50 26.08.2022
2048 Clear 15 1018 80 10000 1.13 312 01:22 26.08.2022
2049 Clear 14 1018 81 10000 1.2 318 23:30 25.08.2022
2050 Clear 17 1018 80 10000 1.55 333 21:26 25.08.2022
2051 Clouds 19 1017 66 10000 1.87 339 20:21 25.08.2022
2052 Clouds 21 1016 67 10000 1.79 339 18:48 25.08.2022
2053 Clouds 24 1016 52 10000 1.95 334 17:32 25.08.2022
2054 Clouds 24 1016 47 10000 2.07 338 16:50 25.08.2022
2055 Clouds 24 1016 47 10000 2.07 338 16:50 25.08.2022
2056 Clear 24 1016 49 10000 2.16 340 15:39 25.08.2022
2057 Clear 25 1015 46 10000 1.7 338 14:31 25.08.2022
2058 Clear 22 1016 59 10000 0.82 317 11:49 25.08.2022
2059 Clear 19 1017 62 10000 0.5 311 10:46 25.08.2022
2060 Clear 14 1018 83 10000 0.52 215 08:52 25.08.2022
2061 Clouds 11 1020 82 10000 1.38 219 04:59 25.08.2022
2062 Clouds 12 1020 79 10000 1.85 192 00:30 25.08.2022
2063 Clouds 13 1020 78 10000 1.32 169 23:25 24.08.2022
2064 Clouds 14 1021 74 10000 1 169 22:21 24.08.2022
2065 Clouds 15 1021 72 10000 1 169 21:33 24.08.2022
2066 Clouds 17 1019 65 10000 0.12 347 20:24 24.08.2022
2067 Clouds 22 1018 69 10000 0.46 348 18:39 24.08.2022
2068 Clouds 24 1017 38 10000 1.16 10 16:23 24.08.2022
2069 Clouds 24 1017 44 10000 1.16 10 15:48 24.08.2022
2070 Clouds 22 1017 42 10000 1.2 13 12:53 24.08.2022
2071 Clouds 19 1018 58 10000 0.94 30 11:22 24.08.2022
2072 Clouds 16 1019 69 10000 0.51 55 09:19 24.08.2022
2073 Clouds 10 1020 84 10000 0.18 98 07:33 24.08.2022
2074 Clouds 11 1020 80 10000 0.3 61 01:43 24.08.2022
2075 Clouds 12 1021 77 10000 1.04 17 22:53 23.08.2022
2076 Clouds 14 1021 76 10000 1.35 6 22:24 23.08.2022
2077 Clouds 16 1020 79 10000 1.73 356 21:22 23.08.2022
2078 Clear 19 1019 73 10000 2.14 356 19:43 23.08.2022
2079 Clear 21 1017 50 10000 2.37 360 18:30 23.08.2022
2080 Clear 21 1017 51 10000 2.5 0 17:46 23.08.2022
2081 Clear 19 1017 48 10000 2.57 359 16:33 23.08.2022
2082 Clear 19 1017 47 10000 2.67 2 14:55 23.08.2022
2083 Clear 20 1017 46 10000 2.7 360 13:25 23.08.2022
2084 Clear 18 1018 66 10000 2.91 3 11:21 23.08.2022
2085 Clear 16 1018 71 10000 2.91 3 10:35 23.08.2022
2086 Clear 15 1018 74 10000 2.83 3 09:46 23.08.2022
2087 Clear 12 1018 65 10000 2.68 353 08:48 23.08.2022
2088 Clear 10 1018 88 10000 2.01 348 08:20 23.08.2022
2089 Clear 10 1018 86 10000 2.01 348 07:34 23.08.2022
2090 Clear 9 1018 86 10000 1.99 346 06:26 23.08.2022
2091 Clear 11 1018 84 10000 2.16 343 01:55 23.08.2022
2092 Clear 11 1018 82 10000 2.11 339 00:27 23.08.2022
2093 Clear 12 1018 80 10000 2.11 339 23:33 22.08.2022
2094 Clear 14 1018 88 10000 2.13 332 22:32 22.08.2022
2095 Clouds 14 1017 83 10000 3.02 339 21:22 22.08.2022
2096 Clouds 15 1016 72 10000 2.8 347 19:47 22.08.2022
2097 Clouds 19 1015 57 10000 3.18 347 18:44 22.08.2022
2098 Clouds 20 1014 54 10000 3.43 346 16:31 22.08.2022
2099 Clouds 21 1014 49 10000 3.29 345 15:38 22.08.2022
2100 Clear 19 1014 51 10000 2.96 349 13:44 22.08.2022
2101 Clear 16 1016 71 10000 2.72 352 10:26 22.08.2022
2102 Clouds 10 1016 90 10000 2.23 340 07:41 22.08.2022
2103 Clouds 12 1017 89 10000 2.16 344 03:49 22.08.2022
2104 Clouds 11 1018 87 10000 1.91 342 00:38 22.08.2022
2105 Clouds 12 1017 94 10000 1.92 343 00:18 22.08.2022
2106 Clouds 14 1018 92 10000 2.1 352 22:18 21.08.2022
2107 Clouds 14 1018 88 10000 2.67 343 21:23 21.08.2022
2108 Clouds 15 1016 81 10000 2.79 344 20:27 21.08.2022
2109 Clouds 18 1015 66 10000 3.17 351 19:23 21.08.2022
2110 Clouds 21 1015 53 10000 3.33 350 16:55 21.08.2022
2111 Clouds 21 1015 49 10000 3.12 348 15:53 21.08.2022
2112 Clouds 22 1015 48 10000 2.79 349 15:20 21.08.2022
2113 Clouds 21 1016 47 10000 2.76 349 13:51 21.08.2022
2114 Clouds 19 1016 46 10000 2.72 355 13:24 21.08.2022
2115 Clouds 17 1017 72 10000 2.84 353 11:29 21.08.2022
2116 Clouds 13 1017 86 10000 2.81 352 09:31 21.08.2022
2117 Clouds 12 1018 88 10000 2.37 349 08:56 21.08.2022
2118 Clouds 12 1018 89 10000 2.61 346 08:38 21.08.2022
2119 Clouds 10 1019 78 10000 2.31 337 07:26 21.08.2022
2120 Clouds 9 1020 93 10000 1.55 345 03:39 21.08.2022
2121 Clouds 10 1021 92 10000 2.88 341 23:49 20.08.2022
2122 Clouds 13 1021 92 10000 2.59 345 22:24 20.08.2022
2123 Clouds 13 1021 92 10000 2.97 341 21:26 20.08.2022
2124 Clouds 14 1020 89 10000 2.99 339 19:58 20.08.2022
2125 Clouds 15 1020 89 10000 3.05 341 19:40 20.08.2022
2126 Rain 15 1019 86 10000 3.15 342 18:27 20.08.2022
2127 Rain 16 1019 82 10000 3.15 342 17:40 20.08.2022
2128 Clouds 17 1019 80 10000 3.44 339 16:40 20.08.2022
2129 Clouds 18 1018 76 10000 3.36 338 15:26 20.08.2022
2130 Clouds 15 1018 83 10000 3.28 343 12:52 20.08.2022
2131 Clouds 14 1018 86 10000 3.03 341 11:47 20.08.2022
2132 Clouds 11 1019 95 10000 3.19 336 09:33 20.08.2022
2133 Clouds 10 1020 96 10000 2.86 337 08:29 20.08.2022
2134 Clouds 10 1020 95 10000 2.54 328 05:49 20.08.2022
2135 Clouds 11 1020 95 3908 2.68 332 00:58 20.08.2022
2136 Clouds 11 1020 96 3908 2.68 332 00:30 20.08.2022
2137 Clouds 11 1020 95 4767 3.32 332 22:53 19.08.2022
2138 Clouds 11 1020 95 6409 3.36 330 21:38 19.08.2022
2139 Clouds 12 1019 90 10000 3.09 322 19:43 19.08.2022
2140 Clouds 12 1018 86 10000 3 325 16:40 19.08.2022
2141 Rain 13 1018 89 10000 2.77 318 14:51 19.08.2022
2142 Rain 12 1017 93 3925 2.32 334 12:47 19.08.2022
2143 Rain 12 1015 94 10000 3.21 312 10:43 19.08.2022
2144 Rain 11 1015 96 10000 2.9 320 09:59 19.08.2022
2145 Clouds 11 1014 95 5060 3.35 339 05:30 19.08.2022
2146 Clouds 12 1014 95 10000 0.41 70 00:46 19.08.2022
2147 Clouds 12 1015 95 10000 0.36 242 00:22 19.08.2022
2148 Rain 12 1015 95 10000 0.66 123 22:59 18.08.2022
2149 Clouds 12 1015 95 10000 0.66 123 22:30 18.08.2022
2150 Clouds 12 1014 95 10000 0.83 211 21:53 18.08.2022
2151 Clouds 12 1015 95 10000 0.67 216 21:23 18.08.2022
2152 Clouds 13 1015 94 10000 0.75 177 19:54 18.08.2022
2153 Rain 13 1013 94 10000 0.8 117 19:24 18.08.2022
2154 Rain 14 1013 94 10000 1 110 17:46 18.08.2022
2155 Rain 14 1014 94 10000 1.93 121 16:25 18.08.2022
2156 Clouds 16 1014 86 4155 2.42 134 14:22 18.08.2022
2157 Clouds 16 1014 86 10000 2.28 118 13:45 18.08.2022
2158 Clouds 17 1014 80 10000 1.82 122 12:31 18.08.2022
2159 Clouds 15 1014 90 10000 1.49 113 11:21 18.08.2022
2160 Clouds 13 1014 93 10000 1.84 98 09:43 18.08.2022
2161 Clouds 13 1014 96 10000 1.36 136 08:31 18.08.2022
2162 Clouds 12 1015 95 5790 2.33 147 07:18 18.08.2022
2163 Clouds 12 1016 94 10000 1.82 150 02:59 18.08.2022
2164 Clouds 13 1017 93 10000 2.46 156 22:51 17.08.2022
2165 Rain 13 1016 92 10000 3.47 151 21:26 17.08.2022
2166 Rain 14 1015 83 10000 2.72 141 19:59 17.08.2022
2167 Rain 17 1014 79 10000 3.02 143 18:39 17.08.2022
2168 Rain 20 1015 57 10000 3.26 146 17:27 17.08.2022
2169 Rain 18 1015 69 10000 3.09 143 16:21 17.08.2022
2170 Clouds 21 1015 52 10000 2.56 146 14:48 17.08.2022
2171 Clouds 21 1015 50 10000 3.11 154 12:50 17.08.2022
2172 Clouds 19 1015 74 10000 3.5 158 11:36 17.08.2022
2173 Clouds 16 1015 84 10000 3.07 161 09:30 17.08.2022
2174 Clouds 14 1016 80 10000 2.43 154 07:28 17.08.2022
2175 Clouds 11 1016 87 10000 2.79 167 02:21 17.08.2022
2176 Clouds 14 1016 87 10000 2.68 170 23:45 16.08.2022
2177 Clouds 15 1016 85 10000 2.7 164 21:52 16.08.2022
2178 Clouds 19 1014 75 10000 2.1 154 20:26 16.08.2022
2179 Clouds 21 1014 50 10000 2.1 154 19:40 16.08.2022
2180 Clouds 22 1013 58 10000 1.4 142 18:18 16.08.2022
2181 Clouds 23 1012 46 10000 1.32 138 17:28 16.08.2022
2182 Clear 23 1012 46 10000 1.4 143 15:46 16.08.2022
2183 Clear 23 1012 49 10000 1.37 142 14:55 16.08.2022
2184 Clear 23 1012 47 10000 1.37 142 14:37 16.08.2022
2185 Clear 21 1012 48 10000 1.17 157 12:41 16.08.2022
2186 Clear 17 1013 68 10000 1.34 170 10:35 16.08.2022
2187 Clear 16 1013 82 10000 1.52 176 09:31 16.08.2022
2188 Clouds 11 1013 93 10000 1.43 177 08:26 16.08.2022
2189 Clouds 8 1013 92 10000 1.65 170 07:23 16.08.2022
2190 Clouds 10 1013 93 10000 0.56 318 01:35 16.08.2022
2191 Clouds 11 1013 92 10000 0.5 24 22:29 15.08.2022
2192 Clouds 11 1013 91 10000 0.5 24 21:53 15.08.2022
2193 Rain 14 1012 79 10000 0.62 27 20:47 15.08.2022
2194 Clouds 14 1011 79 10000 0.69 29 20:18 15.08.2022
2195 Clouds 17 1011 63 10000 1.11 352 18:31 15.08.2022
2196 Clouds 19 1010 79 9878 0.33 44 16:47 15.08.2022
2197 Clouds 15 1010 78 5632 0.38 216 16:21 15.08.2022
2198 Clouds 18 1010 74 10000 0.36 235 13:55 15.08.2022
2199 Clouds 19 1010 71 10000 0.38 172 12:29 15.08.2022
2200 Clouds 15 1010 88 10000 0.08 214 09:59 15.08.2022
2201 Clouds 13 1011 92 10000 0.56 122 08:22 15.08.2022
2202 Clouds 12 1011 89 10000 0.35 137 06:20 15.08.2022
2203 Clouds 14 1012 84 10000 1.04 289 02:19 15.08.2022
2204 Clouds 15 1012 88 10000 0.81 181 22:39 14.08.2022
2205 Clouds 16 1012 87 10000 1.07 135 21:39 14.08.2022
2206 Clouds 17 1011 76 10000 0.88 153 20:21 14.08.2022
2207 Clouds 19 1011 57 10000 0.88 153 19:30 14.08.2022
2208 Clouds 19 1011 60 10000 0.95 155 18:19 14.08.2022
2209 Clouds 20 1010 52 10000 1.03 150 16:54 14.08.2022
2210 Clouds 22 1010 49 10000 1.15 125 15:51 14.08.2022
2211 Clouds 21 1011 48 10000 0.67 140 14:36 14.08.2022
2212 Clouds 22 1011 46 10000 0.64 131 13:50 14.08.2022
2213 Clouds 22 1011 44 10000 0.65 132 13:22 14.08.2022
2214 Clouds 23 1011 50 10000 0.65 132 12:34 14.08.2022
2215 Clouds 20 1012 51 10000 0.85 186 10:55 14.08.2022
2216 Clouds 15 1013 73 10000 1.76 193 08:53 14.08.2022
2217 Clouds 10 1014 78 10000 0.7 187 06:22 14.08.2022
2218 Clouds 11 1015 78 10000 1.26 196 03:36 14.08.2022
2219 Clear 13 1017 73 10000 1.8 193 00:39 14.08.2022
2220 Clear 13 1017 70 10000 1.14 196 22:56 13.08.2022
2221 Clear 17 1017 75 10000 0.77 204 21:47 13.08.2022
2222 Clear 18 1016 75 10000 0.28 63 20:47 13.08.2022
2223 Clear 19 1016 65 10000 1.67 356 19:46 13.08.2022
2224 Clear 23 1015 40 10000 2.46 348 18:19 13.08.2022
2225 Clear 20 1015 36 10000 2.67 344 15:40 13.08.2022
2226 Clear 23 1014 32 10000 2.54 344 14:40 13.08.2022
2227 Clear 23 1014 36 10000 2.09 348 13:46 13.08.2022
2228 Clear 21 1015 46 10000 1.5 351 11:59 13.08.2022
2229 Clear 17 1015 58 10000 1.14 342 10:33 13.08.2022
2230 Clear 14 1016 67 10000 0.75 181 09:22 13.08.2022
2231 Clouds 9 1017 81 10000 0.86 199 05:59 13.08.2022
2232 Clear 11 1018 71 10000 0.17 205 00:36 13.08.2022
2233 Clear 16 1018 80 10000 1.08 334 22:26 12.08.2022
2234 Clear 18 1018 79 10000 1.54 347 21:20 12.08.2022
2235 Clear 18 1017 49 10000 1.81 341 19:44 12.08.2022
2236 Clear 19 1016 49 10000 2.17 335 19:21 12.08.2022
2237 Clear 20 1016 55 10000 2.23 337 17:58 12.08.2022
2238 Clear 21 1015 55 10000 2.25 332 16:25 12.08.2022
2239 Clear 21 1015 57 10000 2.31 333 14:50 12.08.2022
2240 Clear 23 1015 49 10000 1.85 327 12:59 12.08.2022
2241 Clear 21 1016 63 10000 1.76 329 11:39 12.08.2022
2242 Clear 14 1017 88 10000 1.32 341 08:49 12.08.2022
2243 Clouds 13 1018 90 10000 1.47 332 07:45 12.08.2022
2244 Clouds 13 1019 84 10000 0.95 314 03:56 12.08.2022
2245 Clouds 14 1020 78 10000 0.72 284 00:31 12.08.2022
2246 Clouds 15 1020 89 10000 0.76 286 23:42 11.08.2022
2247 Clouds 16 1020 90 10000 0.74 301 22:37 11.08.2022
2248 Clouds 18 1021 89 10000 1.15 333 21:47 11.08.2022
2249 Clouds 19 1020 87 10000 1.41 331 21:23 11.08.2022
2250 Clouds 18 1020 87 10000 1.41 331 20:30 11.08.2022
2251 Clouds 20 1019 81 10000 1.47 336 19:33 11.08.2022
2252 Clouds 20 1018 67 10000 1.47 346 18:41 11.08.2022
2253 Clouds 21 1018 55 10000 1.48 344 16:42 11.08.2022
2254 Clouds 24 1018 44 10000 1.61 334 15:42 11.08.2022
2255 Clouds 19 1019 45 10000 1.34 333 14:20 11.08.2022
2256 Clouds 22 1019 47 10000 0.77 317 11:51 11.08.2022
2257 Clouds 15 1021 80 10000 1.61 202 08:34 11.08.2022
2258 Clear 13 1023 85 10000 2.77 190 04:53 11.08.2022
2259 Clear 13 1023 84 10000 2.4 191 02:26 11.08.2022
2260 Clouds 15 1023 80 10000 1.53 185 22:55 10.08.2022
2261 Clouds 18 1022 89 10000 0.81 182 21:45 10.08.2022
2262 Clouds 18 1022 89 10000 0.14 327 20:56 10.08.2022
2263 Clouds 20 1021 83 10000 0.4 311 19:58 10.08.2022
2264 Clouds 21 1021 69 10000 0.6 5 18:45 10.08.2022
2265 Clouds 24 1020 52 10000 1.38 336 17:20 10.08.2022
2266 Clouds 20 1021 59 10000 1.07 349 14:25 10.08.2022
2267 Clouds 17 1021 62 10000 0.3 327 12:54 10.08.2022
2268 Clouds 19 1022 68 10000 0.8 186 10:31 10.08.2022
2269 Clouds 14 1023 89 10000 1.75 176 08:37 10.08.2022
2270 Clouds 12 1023 87 10000 2.14 180 07:22 10.08.2022
2271 Clouds 13 1024 85 10000 2.4 181 04:50 10.08.2022
2272 Clear 14 1024 82 10000 1.8 169 00:50 10.08.2022
2273 Clear 14 1024 80 10000 0.56 89 23:27 09.08.2022
2274 Clear 18 1024 87 10000 0.92 21 21:41 09.08.2022
2275 Clear 17 1024 85 10000 1.55 2 21:22 09.08.2022
2276 Clouds 22 1022 55 10000 1.88 350 18:56 09.08.2022
2277 Clouds 24 1021 47 10000 1.9 352 17:31 09.08.2022
2278 Clear 24 1021 45 10000 1.77 357 16:46 09.08.2022
2279 Clear 24 1021 40 10000 2 4 15:59 09.08.2022
2280 Clear 24 1021 44 10000 2.12 5 14:50 09.08.2022
2281 Clear 21 1022 59 10000 0.85 26 11:29 09.08.2022
2282 Clear 16 1022 78 10000 0.42 157 08:52 09.08.2022
2283 Clear 14 1023 75 10000 0.69 174 07:57 09.08.2022
2284 Clear 11 1023 89 10000 0.83 188 05:24 09.08.2022
2285 Clear 13 1024 86 10000 0.49 144 00:36 09.08.2022
2286 Clear 13 1024 84 10000 0.83 50 23:24 08.08.2022
2287 Clear 14 1024 81 10000 0.83 50 22:40 08.08.2022
2288 Clear 16 1023 89 10000 1.27 31 21:44 08.08.2022
2289 Clear 17 1023 87 10000 1.67 12 20:39 08.08.2022
2290 Clouds 19 1021 65 10000 2.45 358 19:35 08.08.2022
2291 Clouds 22 1020 58 10000 2.89 353 18:18 08.08.2022
2292 Clouds 23 1019 47 10000 2.44 360 15:54 08.08.2022
2293 Clouds 23 1019 50 10000 2.44 360 15:36 08.08.2022
2294 Clear 21 1020 65 10000 1.62 23 12:30 08.08.2022
2295 Clear 18 1020 75 10000 1.44 39 10:33 08.08.2022
2296 Clouds 14 1021 96 10000 0.82 32 07:59 08.08.2022
2297 Clouds 13 1020 78 10000 0.83 15 04:31 08.08.2022
2298 Clouds 13 1021 93 10000 0.81 123 00:33 08.08.2022
2299 Clouds 14 1021 92 10000 0.96 2 21:42 07.08.2022
2300 Clouds 15 1021 92 10000 0.93 330 21:19 07.08.2022
2301 Clouds 15 1021 90 10000 0.52 282 20:23 07.08.2022
2302 Clouds 16 1021 89 10000 0.52 282 19:52 07.08.2022
2303 Clouds 16 1021 89 10000 0.39 247 19:22 07.08.2022
2304 Rain 16 1021 90 10000 1.42 271 17:31 07.08.2022
2305 Rain 17 1020 91 10000 0.81 293 16:52 07.08.2022
2306 Rain 18 1019 80 9067 1.43 315 15:39 07.08.2022
2307 Rain 21 1018 72 10000 0.81 33 13:58 07.08.2022
2308 Clouds 18 1018 69 10000 0.47 108 12:40 07.08.2022
2309 Clouds 18 1019 83 10000 1.02 129 10:51 07.08.2022
2310 Clouds 17 1019 84 10000 1.21 137 10:20 07.08.2022
2311 Clouds 14 1020 95 10000 1.27 189 04:37 07.08.2022
2312 Clouds 14 1021 92 10000 1.45 169 02:18 07.08.2022
2313 Clouds 15 1022 92 10000 1.18 31 22:39 06.08.2022
2314 Clouds 15 1022 88 10000 1.63 25 22:18 06.08.2022
2315 Clouds 17 1020 78 10000 2.55 358 19:46 06.08.2022
2316 Clouds 19 1020 73 10000 2.37 10 18:49 06.08.2022
2317 Clouds 19 1020 76 10000 2.36 7 17:45 06.08.2022
2318 Clouds 19 1020 75 10000 2.78 8 16:24 06.08.2022
2319 Clouds 20 1021 71 10000 2.12 22 13:51 06.08.2022
2320 Clouds 18 1021 73 10000 1.96 24 12:27 06.08.2022
2321 Clouds 19 1021 85 10000 2.16 27 11:21 06.08.2022
2322 Clouds 16 1021 92 10000 2.18 24 09:41 06.08.2022
2323 Clouds 14 1021 94 10000 2.08 350 04:43 06.08.2022
2324 Clouds 14 1022 93 10000 1.52 353 00:49 06.08.2022
2325 Clouds 15 1022 93 10000 0.39 36 22:35 05.08.2022
2326 Clouds 15 1023 94 10000 0.22 258 21:18 05.08.2022
2327 Clouds 17 1022 89 10000 1.29 109 19:18 05.08.2022
2328 Clouds 17 1022 92 10000 1.29 109 18:41 05.08.2022
2329 Rain 19 1020 65 8163 2.08 330 16:53 05.08.2022
2330 Rain 24 1018 63 9312 1.73 9 15:25 05.08.2022
2331 Rain 23 1018 59 9312 1.73 9 14:38 05.08.2022
2332 Clouds 24 1018 58 10000 1.45 328 13:38 05.08.2022
2333 Clouds 25 1018 50 10000 1.4 329 13:18 05.08.2022
2334 Clouds 24 1018 54 10000 1.15 336 11:55 05.08.2022
2335 Clouds 21 1019 76 10000 0.53 291 10:24 05.08.2022
2336 Clouds 16 1019 71 10000 0.92 207 07:57 05.08.2022
2337 Clouds 15 1020 93 10000 1.69 185 04:48 05.08.2022
2338 Clouds 19 1021 74 10000 1.56 218 23:49 04.08.2022
2339 Clouds 21 1021 82 10000 1.16 229 21:37 04.08.2022
2340 Clouds 21 1021 84 10000 0.81 272 21:18 04.08.2022
2341 Clouds 23 1021 84 10000 0.81 272 20:38 04.08.2022
2342 Clouds 26 1020 85 10000 0.65 223 19:00 04.08.2022
2343 Clouds 26 1020 85 10000 0.65 223 18:34 04.08.2022
2344 Clouds 26 1019 66 8732 0.26 126 15:59 04.08.2022
2345 Clouds 24 1019 57 10000 0.45 43 13:32 04.08.2022
2346 Clouds 22 1019 57 10000 0.58 12 11:42 04.08.2022
2347 Clouds 23 1020 67 10000 0.24 294 10:24 04.08.2022
2348 Clouds 17 1020 84 10000 0.87 181 07:49 04.08.2022
2349 Clouds 16 1021 83 10000 1.89 187 03:29 04.08.2022
2350 Clouds 17 1021 80 10000 1.91 183 00:52 04.08.2022
2351 Clouds 18 1021 79 10000 1.73 183 23:41 03.08.2022
2352 Clouds 18 1021 88 10000 1.28 178 21:34 03.08.2022
2353 Clouds 22 1020 83 10000 0.43 178 20:22 03.08.2022
2354 Clouds 22 1020 83 10000 0.43 178 20:21 03.08.2022
2355 Clouds 24 1019 75 8782 0.39 280 19:27 03.08.2022
2356 Clouds 25 1019 68 10000 0.19 222 16:53 03.08.2022
2357 Clouds 25 1019 67 10000 0.35 172 16:23 03.08.2022
2358 Clouds 24 1018 55 10000 0.54 151 14:23 03.08.2022
2359 Clouds 24 1019 58 10000 0.68 177 11:46 03.08.2022
2360 Clouds 15 1021 86 10000 1.77 189 07:45 03.08.2022
2361 Clouds 14 1021 86 10000 2.1 186 04:22 03.08.2022
2362 Clouds 14 1021 85 10000 2.18 183 03:24 03.08.2022
2363 Clouds 15 1021 84 10000 2.03 174 00:58 03.08.2022
2364 Clouds 16 1021 81 10000 0.94 147 22:49 02.08.2022
2365 Clouds 17 1021 78 10000 0.39 65 21:52 02.08.2022
2366 Clouds 20 1020 88 10000 0.75 11 20:37 02.08.2022
2367 Clouds 23 1019 68 10000 1.39 347 18:42 02.08.2022
2368 Clouds 24 1018 57 10000 1.23 357 15:36 02.08.2022
2369 Clouds 19 1020 75 10000 0.91 359 11:32 02.08.2022
2370 Clouds 15 1021 86 10000 0.77 7 09:18 02.08.2022
2371 Clouds 13 1021 73 10000 0.67 4 07:53 02.08.2022
2372 Clouds 12 1021 94 10000 1.15 346 06:43 02.08.2022
2373 Clouds 13 1021 94 10000 1.83 331 04:54 02.08.2022
2374 Clouds 17 1022 83 10000 2.27 323 23:38 01.08.2022
2375 Clouds 19 1022 83 10000 2.14 320 22:24 01.08.2022
2376 Clouds 18 1021 79 10000 2.7 334 20:52 01.08.2022
2377 Clouds 21 1019 58 10000 2.63 340 19:25 01.08.2022
2378 Clouds 22 1019 56 10000 2.63 340 18:31 01.08.2022
2379 Clouds 23 1018 54 10000 2.81 336 16:53 01.08.2022
2380 Clouds 24 1017 47 10000 2.56 336 15:52 01.08.2022
2381 Clouds 24 1017 48 10000 2.56 336 15:30 01.08.2022
2382 Clouds 24 1017 43 10000 2.12 340 14:43 01.08.2022
2383 Clear 22 1019 58 10000 1.31 337 11:59 01.08.2022
2384 Clear 19 1020 69 10000 1.56 345 09:43 01.08.2022
2385 Clear 15 1020 80 10000 1.65 341 08:30 01.08.2022
2386 Clear 12 1021 83 10000 1.57 326 04:54 01.08.2022
2387 Clear 13 1022 83 10000 1.53 323 03:49 01.08.2022
2388 Clear 12 1022 85 10000 1.45 323 00:36 01.08.2022
2389 Clear 14 1022 85 10000 1.77 325 22:40 31.07.2022
2390 Clouds 16 1021 81 10000 2.24 341 21:29 31.07.2022
2391 Clouds 20 1021 59 10000 2.43 346 19:53 31.07.2022
2392 Clouds 22 1020 51 10000 3.19 343 17:57 31.07.2022
2393 Clouds 23 1020 54 10000 3.01 342 15:39 31.07.2022
2394 Clouds 22 1020 56 10000 2.73 341 13:43 31.07.2022
2395 Clear 20 1021 66 10000 2.74 345 11:59 31.07.2022
2396 Clouds 18 1022 61 10000 2.82 351 09:55 31.07.2022
2397 Clouds 12 1022 87 10000 2.01 342 07:59 31.07.2022
2398 Clear 10 1023 81 10000 1.89 335 02:58 31.07.2022
2399 Clear 11 1024 84 10000 1.72 336 23:46 30.07.2022
2400 Clear 12 1024 84 10000 2.26 340 22:19 30.07.2022
2401 Clear 12 1024 84 10000 2.26 340 21:49 30.07.2022
2402 Clear 15 1023 81 10000 2.79 341 20:57 30.07.2022
2403 Clear 15 1023 81 10000 2.79 341 20:57 30.07.2022
2404 Clouds 16 1022 70 10000 3.01 340 19:59 30.07.2022
2405 Clouds 17 1022 54 10000 3.58 341 18:53 30.07.2022
2406 Clouds 18 1021 53 10000 3.91 339 17:44 30.07.2022
2407 Clouds 19 1020 63 10000 3.97 337 15:54 30.07.2022
2408 Clouds 17 1020 54 10000 3.79 340 15:24 30.07.2022
2409 Clouds 18 1021 56 10000 3.39 340 13:18 30.07.2022
2410 Clouds 15 1021 67 10000 3.33 343 12:19 30.07.2022
2411 Clouds 13 1021 70 10000 3.42 344 10:31 30.07.2022
2412 Clouds 13 1021 70 10000 3.42 344 10:31 30.07.2022
2413 Clouds 13 1021 70 10000 3.42 344 10:31 30.07.2022
2414 Clouds 14 1021 70 10000 3.44 343 09:56 30.07.2022
2415 Clouds 12 1021 94 10000 3.25 340 07:55 30.07.2022
2416 Clouds 11 1021 95 10000 2.93 334 03:55 30.07.2022
2417 Clouds 11 1021 95 10000 2.88 331 02:25 30.07.2022
2418 Clouds 12 1021 95 10000 3.02 328 22:44 29.07.2022
2419 Clouds 12 1021 91 10000 2.38 342 21:24 29.07.2022
2420 Clouds 12 1021 91 10000 2.38 342 20:41 29.07.2022
2421 Rain 13 1019 94 5550 2.32 313 18:26 29.07.2022
2422 Rain 14 1018 94 5838 0.89 314 15:38 29.07.2022
2423 Rain 18 1017 69 7884 0.59 10 13:37 29.07.2022
2424 Clouds 19 1017 71 10000 0.17 212 11:30 29.07.2022
2425 Clouds 17 1018 69 10000 0.8 163 08:50 29.07.2022
2426 Clouds 10 1018 71 10000 0.52 161 08:20 29.07.2022
2427 Clouds 10 1019 95 10000 0.69 200 02:29 29.07.2022
2428 Clouds 12 1019 95 10000 0.66 175 23:18 28.07.2022
2429 Rain 13 1018 94 10000 1.06 283 21:29 28.07.2022
2430 Rain 13 1018 93 10000 1.06 283 20:34 28.07.2022
2431 Rain 13 1018 88 8980 1.07 274 19:44 28.07.2022
2432 Rain 14 1017 82 5379 1.85 258 19:25 28.07.2022
2433 Clouds 16 1016 81 8254 0.99 229 17:44 28.07.2022
2434 Clouds 21 1015 74 10000 1.43 176 16:59 28.07.2022
2435 Clouds 21 1015 74 10000 1.43 176 16:36 28.07.2022
2436 Clouds 20 1015 73 10000 1.73 183 13:35 28.07.2022
2437 Clouds 18 1015 71 10000 2.25 170 11:43 28.07.2022
2438 Clouds 12 1016 88 10000 2.66 174 06:59 28.07.2022
2439 Clouds 12 1016 87 10000 2.69 176 05:33 28.07.2022
2440 Clouds 12 1017 87 10000 2.42 175 03:53 28.07.2022
2441 Clouds 15 1018 93 10000 0.96 125 22:56 27.07.2022
2442 Clouds 16 1017 92 10000 1.51 15 21:29 27.07.2022
2443 Clouds 18 1016 83 10000 2.04 2 19:45 27.07.2022
2444 Clouds 18 1016 65 10000 2.36 354 18:41 27.07.2022
2445 Clouds 20 1015 64 10000 2.34 350 16:31 27.07.2022
2446 Clouds 19 1015 65 10000 2.09 352 15:40 27.07.2022
2447 Clouds 16 1016 77 10000 2.08 357 14:41 27.07.2022
2448 Clouds 15 1016 82 10000 1.66 4 12:52 27.07.2022
2449 Clouds 16 1016 85 10000 1.34 18 09:27 27.07.2022
2450 Clouds 14 1016 93 10000 1.04 19 07:33 27.07.2022
2451 Clouds 14 1017 90 10000 1.17 11 02:52 27.07.2022
2452 Clouds 15 1018 85 10000 2.24 353 22:47 26.07.2022
2453 Clouds 16 1017 80 10000 2.37 1 21:25 26.07.2022
2454 Clouds 15 1017 91 10000 2.37 1 20:49 26.07.2022
2455 Clouds 19 1017 84 10000 3.13 355 18:46 26.07.2022
2456 Clouds 19 1017 73 10000 3.24 354 18:28 26.07.2022
2457 Clouds 20 1016 76 10000 3.06 354 16:54 26.07.2022
2458 Clouds 20 1016 73 10000 2.86 351 15:43 26.07.2022
2459 Clouds 19 1017 74 10000 2.64 358 14:00 26.07.2022
2460 Clouds 17 1017 80 10000 2.69 356 11:47 26.07.2022
2461 Clouds 15 1017 92 10000 2.73 352 09:35 26.07.2022
2462 Clouds 14 1018 95 9864 2.59 349 07:56 26.07.2022
2463 Clouds 15 1019 95 10000 2.33 334 01:44 26.07.2022
2464 Clouds 16 1020 93 10000 1.13 27 23:37 25.07.2022
2465 Rain 16 1020 92 8334 1.36 345 22:33 25.07.2022
2466 Clouds 17 1019 89 10000 2.45 328 21:43 25.07.2022
2467 Clouds 18 1018 88 10000 1.83 348 20:42 25.07.2022
2468 Clouds 20 1018 83 10000 2.18 5 19:51 25.07.2022
2469 Rain 23 1017 75 9157 1.54 289 18:23 25.07.2022
2470 Rain 24 1017 69 10000 0.14 118 17:34 25.07.2022
2471 Clouds 27 1017 70 10000 1.4 221 15:37 25.07.2022
2472 Clouds 25 1017 58 10000 0.89 201 12:47 25.07.2022
2473 Clear 25 1018 59 10000 1.56 191 10:42 25.07.2022
2474 Clear 16 1020 85 10000 2.04 184 06:52 25.07.2022
2475 Clear 18 1022 82 10000 2.26 184 23:57 24.07.2022
2476 Clear 18 1021 82 10000 2.07 185 23:22 24.07.2022
2477 Clear 18 1021 80 10000 2.07 185 22:41 24.07.2022
2478 Clear 20 1021 75 10000 1.97 180 21:30 24.07.2022
2479 Clear 21 1020 84 10000 1.81 168 20:56 24.07.2022
2480 Clear 23 1020 66 10000 1.62 163 20:32 24.07.2022
2481 Clouds 24 1019 66 10000 0.47 156 18:59 24.07.2022
2482 Clouds 23 1019 62 10000 0.4 282 16:53 24.07.2022
2483 Clouds 27 1019 57 10000 0.19 319 15:53 24.07.2022
2484 Clouds 26 1019 62 10000 0.26 45 14:40 24.07.2022
2485 Clouds 25 1019 61 10000 0.27 87 13:43 24.07.2022
2486 Clouds 24 1021 65 10000 0.46 76 12:19 24.07.2022
2487 Clouds 22 1021 68 10000 0.42 47 11:28 24.07.2022
2488 Clouds 18 1021 78 10000 0.44 79 09:33 24.07.2022
2489 Clouds 14 1022 94 10000 0.96 33 07:53 24.07.2022
2490 Clouds 12 1023 93 10000 1.2 17 06:38 24.07.2022
2491 Clouds 13 1023 93 10000 1.69 355 02:33 24.07.2022
2492 Clouds 15 1024 93 10000 1.99 352 22:31 23.07.2022
2493 Clouds 17 1022 92 10000 2.41 343 20:47 23.07.2022
2494 Clouds 18 1020 86 10000 2.74 342 18:55 23.07.2022
2495 Clouds 20 1020 77 10000 1.77 338 17:48 23.07.2022
2496 Clouds 21 1020 75 10000 1.52 329 17:24 23.07.2022
2497 Clouds 22 1020 74 10000 1.32 325 15:55 23.07.2022
2498 Clouds 22 1020 69 10000 1.25 316 15:21 23.07.2022
2499 Clouds 22 1020 73 10000 1.25 316 14:47 23.07.2022
2500 Clouds 22 1020 72 9566 0.84 302 13:54 23.07.2022
2501 Clouds 20 1020 81 10000 0.29 172 11:47 23.07.2022
2502 Clouds 18 1020 89 10000 0.63 257 10:28 23.07.2022
2503 Clouds 17 1020 91 10000 0.68 248 09:26 23.07.2022
2504 Rain 14 1020 95 10000 1.77 198 05:58 23.07.2022
2505 Clouds 15 1021 94 10000 1.87 191 03:37 23.07.2022
2506 Clouds 17 1022 85 10000 1.8 167 23:59 22.07.2022
2507 Rain 19 1023 78 10000 0.94 98 21:28 22.07.2022
2508 Rain 24 1021 84 9971 2.04 247 19:58 22.07.2022
2509 Rain 22 1020 75 9220 1.71 244 18:41 22.07.2022
2510 Clouds 23 1019 65 10000 1.99 185 17:38 22.07.2022
2511 Clouds 28 1018 43 10000 1.49 156 15:30 22.07.2022
2512 Clear 25 1019 50 10000 2.26 168 12:33 22.07.2022
2513 Clear 21 1020 73 10000 2.41 169 09:45 22.07.2022
2514 Clear 20 1021 77 10000 2.18 170 09:19 22.07.2022
2515 Clear 15 1022 90 10000 1.78 184 07:23 22.07.2022
2516 Clear 15 1022 89 10000 1.54 185 04:19 22.07.2022
2517 Clouds 18 1023 83 10000 0.73 32 23:27 21.07.2022
2518 Clouds 19 1023 82 10000 1.06 16 21:37 21.07.2022
2519 Clouds 21 1022 73 10000 1.17 355 19:35 21.07.2022
2520 Clouds 22 1022 73 10000 1.24 328 18:29 21.07.2022
2521 Clouds 23 1022 70 10000 0.98 338 17:20 21.07.2022
2522 Clouds 23 1022 68 10000 0.63 1 15:39 21.07.2022
2523 Clouds 24 1022 71 10000 0.32 347 14:44 21.07.2022
2524 Clouds 21 1022 75 10000 0.15 208 12:54 21.07.2022
2525 Clouds 20 1022 83 10000 0.19 138 11:42 21.07.2022
2526 Clouds 16 1023 93 10000 0.28 88 09:44 21.07.2022
2527 Clouds 15 1023 91 10000 0.5 24 08:53 21.07.2022
2528 Clouds 14 1023 93 10000 0.52 19 07:50 21.07.2022
2529 Clouds 14 1023 91 10000 0.63 341 06:25 21.07.2022
2530 Clouds 15 1023 91 10000 1.19 213 01:54 21.07.2022
2531 Rain 15 1023 86 10000 1.53 188 22:23 20.07.2022
2532 Rain 16 1023 86 10000 1.53 188 21:42 20.07.2022
2533 Clouds 20 1023 85 10000 1.2 174 20:39 20.07.2022
2534 Clouds 15 1022 77 10000 0.57 192 19:43 20.07.2022
2535 Clouds 21 1021 61 10000 1.04 183 18:53 20.07.2022
2536 Clouds 22 1021 61 10000 1.04 183 18:30 20.07.2022
2537 Clear 26 1020 48 10000 1.72 167 16:49 20.07.2022
2538 Clear 26 1020 46 10000 2.48 155 15:32 20.07.2022
2539 Clear 24 1021 50 10000 1.6 152 14:32 20.07.2022
2540 Clouds 25 1022 60 10000 1.45 172 12:41 20.07.2022
2541 Clouds 20 1023 72 10000 2.06 160 10:28 20.07.2022
2542 Clouds 17 1023 78 10000 1.97 172 05:44 20.07.2022
2543 Clouds 18 1024 78 10000 2.46 181 00:54 20.07.2022
2544 Clouds 18 1024 77 10000 2.46 181 00:36 20.07.2022
2545 Clouds 19 1024 85 10000 2.35 175 22:35 19.07.2022
2546 Clouds 20 1024 84 10000 2.08 175 21:53 19.07.2022
2547 Clouds 23 1023 80 10000 2.12 174 20:49 19.07.2022
2548 Clouds 25 1021 66 10000 1.51 163 19:22 19.07.2022
2549 Clouds 25 1021 66 10000 1.51 163 18:35 19.07.2022
2550 Clouds 26 1021 59 10000 1.13 163 17:51 19.07.2022
2551 Clear 27 1021 44 10000 1.19 145 15:26 19.07.2022
2552 Clear 26 1022 44 10000 0.83 159 12:44 19.07.2022
2553 Clear 24 1022 47 10000 0.97 177 11:32 19.07.2022
2554 Clear 22 1023 62 10000 1.91 182 09:51 19.07.2022
2555 Clear 19 1024 68 10000 2.3 181 08:42 19.07.2022
2556 Clear 15 1025 74 10000 2.22 182 07:19 19.07.2022
2557 Clear 13 1025 73 10000 2.44 183 05:50 19.07.2022
2558 Clear 14 1025 72 10000 2.41 183 05:18 19.07.2022
2559 Clear 15 1025 70 10000 2.28 179 02:37 19.07.2022
2560 Clear 16 1025 66 10000 2.12 180 23:52 18.07.2022
2561 Clear 17 1025 65 10000 1.89 169 23:19 18.07.2022
2562 Clear 17 1025 77 10000 1.17 136 22:26 18.07.2022
2563 Clear 21 1024 75 10000 0.84 46 21:20 18.07.2022
2564 Clear 24 1023 63 10000 1.13 15 19:54 18.07.2022
2565 Clear 26 1023 36 10000 2.06 357 18:29 18.07.2022
2566 Clear 24 1023 34 10000 2.25 355 16:30 18.07.2022
2567 Clear 27 1023 32 10000 2.36 357 15:26 18.07.2022
2568 Clear 26 1024 42 10000 2.01 3 13:31 18.07.2022
2569 Clear 24 1024 59 10000 1.54 3 11:34 18.07.2022
2570 Clear 20 1025 69 10000 1.02 8 09:55 18.07.2022
2571 Clouds 16 1026 41 10000 0.75 328 07:54 18.07.2022
2572 Clouds 13 1026 82 10000 0.41 299 03:32 18.07.2022
2573 Clouds 16 1027 74 10000 0.25 271 22:57 17.07.2022
2574 Clouds 17 1027 83 10000 0.25 271 22:31 17.07.2022
2575 Clouds 19 1027 83 10000 0.61 340 21:39 17.07.2022
2576 Clear 20 1026 82 10000 1.35 346 20:46 17.07.2022
2577 Clouds 22 1025 54 10000 1.67 343 19:50 17.07.2022
2578 Clouds 23 1024 54 10000 1.68 340 19:21 17.07.2022
2579 Clouds 22 1024 57 10000 1.86 334 17:43 17.07.2022
2580 Clouds 26 1024 42 10000 1.79 328 17:25 17.07.2022
2581 Clouds 26 1024 42 10000 1.79 328 16:32 17.07.2022
2582 Clouds 26 1023 47 10000 1.42 331 15:49 17.07.2022
2583 Clear 25 1023 60 10000 0.56 32 13:51 17.07.2022
2584 Clear 24 1024 59 10000 0.34 56 12:43 17.07.2022
2585 Clear 20 1024 67 10000 1.22 166 10:20 17.07.2022
2586 Clear 11 1024 86 10000 0.69 161 06:59 17.07.2022
2587 Clear 12 1025 83 10000 0.97 9 02:35 17.07.2022
2588 Clear 15 1025 84 10000 1.95 343 23:26 16.07.2022
2589 Clear 16 1025 84 10000 1.95 343 22:33 16.07.2022
2590 Clear 18 1024 78 10000 2.49 345 20:40 16.07.2022
2591 Clouds 21 1022 60 10000 3.3 346 18:58 16.07.2022
2592 Clouds 22 1021 56 10000 3.54 344 17:47 16.07.2022
2593 Clouds 24 1020 47 10000 3.34 345 15:54 16.07.2022
2594 Clear 22 1020 70 10000 2.27 345 12:37 16.07.2022
2595 Clear 19 1021 71 10000 1.71 344 10:28 16.07.2022
2596 Clear 17 1021 75 10000 1.72 341 09:25 16.07.2022
2597 Clear 16 1021 80 10000 1.72 341 08:41 16.07.2022
2598 Clear 11 1022 89 10000 1.69 327 06:59 16.07.2022
2599 Clear 13 1022 86 10000 1.68 319 03:33 16.07.2022
2600 Clouds 14 1023 82 10000 1.88 319 00:45 16.07.2022
2601 Clouds 16 1023 78 10000 2.43 326 22:56 15.07.2022
2602 Clouds 17 1022 74 10000 2.81 336 22:24 15.07.2022
2603 Clouds 18 1021 87 10000 2.97 342 20:40 15.07.2022
2604 Clouds 20 1020 64 10000 3.2 339 19:34 15.07.2022
2605 Clouds 22 1019 58 10000 3.29 341 18:23 15.07.2022
2606 Clouds 22 1018 61 10000 3.11 345 16:53 15.07.2022
2607 Clear 24 1018 52 10000 2.62 334 14:19 15.07.2022
2608 Clear 23 1019 52 10000 2.68 330 12:28 15.07.2022
2609 Clear 21 1019 69 10000 2.4 329 10:52 15.07.2022
2610 Clear 15 1020 75 10000 2.07 319 07:48 15.07.2022
2611 Clear 15 1021 76 10000 2.03 312 02:51 15.07.2022
2612 Clear 14 1022 74 10000 1.82 310 00:40 15.07.2022
2613 Clear 17 1022 74 10000 2.12 312 22:56 14.07.2022
2614 Clear 17 1022 72 10000 2.02 312 22:19 14.07.2022
2615 Clear 19 1022 72 10000 2.02 312 21:39 14.07.2022
2616 Clear 21 1022 71 10000 2.08 315 21:19 14.07.2022
2617 Clear 22 1022 71 10000 2.08 315 20:42 14.07.2022
2618 Clouds 23 1021 67 10000 1.78 310 20:18 14.07.2022
2619 Clouds 26 1020 45 10000 1.61 327 17:59 14.07.2022
2620 Clouds 25 1020 37 10000 0.98 309 16:19 14.07.2022
2621 Clouds 24 1020 36 10000 0.72 298 14:55 14.07.2022
2622 Clouds 25 1021 36 10000 0.51 296 13:51 14.07.2022
2623 Clouds 25 1021 52 10000 0.69 295 12:34 14.07.2022
2624 Clouds 24 1022 57 10000 0.25 278 11:26 14.07.2022
2625 Clouds 23 1022 56 10000 0.25 278 10:51 14.07.2022
2626 Rain 17 1023 82 10000 0.31 313 08:52 14.07.2022
2627 Clouds 15 1024 76 10000 0.7 283 04:44 14.07.2022
2628 Clouds 15 1026 67 10000 0.88 309 01:19 14.07.2022
2629 Clouds 15 1026 67 10000 0.88 309 00:50 14.07.2022
2630 Clouds 17 1026 73 10000 0.73 306 22:30 13.07.2022
2631 Clouds 17 1026 74 10000 0.94 313 21:38 13.07.2022
2632 Clouds 19 1025 73 10000 0.88 315 20:38 13.07.2022
2633 Clouds 24 1023 41 10000 1.18 321 18:36 13.07.2022
2634 Clouds 25 1023 34 10000 1.07 319 17:31 13.07.2022
2635 Clouds 25 1023 34 10000 1.07 319 17:31 13.07.2022
2636 Clouds 25 1023 31 10000 0.66 342 16:19 13.07.2022
2637 Clear 25 1023 33 10000 0.33 36 13:57 13.07.2022
2638 Clear 21 1024 45 10000 0.24 155 11:36 13.07.2022
2639 Clear 21 1024 43 10000 0.96 184 10:44 13.07.2022
2640 Clear 19 1025 51 10000 1.75 175 09:49 13.07.2022
2641 Clear 17 1025 54 10000 2.1 178 09:20 13.07.2022
2642 Clear 9 1026 79 10000 1.39 174 05:21 13.07.2022
2643 Clouds 11 1027 75 10000 0.62 114 00:49 13.07.2022
2644 Clouds 13 1027 68 10000 1.12 14 22:48 12.07.2022
2645 Clouds 17 1027 82 10000 1.61 12 21:49 12.07.2022
2646 Clouds 16 1025 77 10000 2.27 356 20:54 12.07.2022
2647 Clouds 18 1025 51 10000 2.9 354 20:21 12.07.2022
2648 Clouds 20 1024 55 10000 3.43 350 18:51 12.07.2022
2649 Clouds 21 1023 55 10000 3.63 346 17:29 12.07.2022
2650 Clouds 22 1022 52 10000 3.39 346 15:35 12.07.2022
2651 Clouds 21 1022 50 10000 3.07 347 13:43 12.07.2022
2652 Clouds 20 1022 68 10000 2.25 345 11:55 12.07.2022
2653 Clouds 18 1023 71 10000 1.88 346 10:45 12.07.2022
2654 Clouds 16 1023 75 10000 1.24 355 09:18 12.07.2022
2655 Clouds 12 1024 91 10000 1.51 346 07:55 12.07.2022
2656 Clouds 10 1023 90 10000 1.05 331 05:53 12.07.2022
2657 Clouds 10 1023 90 10000 1.05 331 05:34 12.07.2022
2658 Clouds 12 1024 84 10000 1.1 348 01:32 12.07.2022
2659 Clear 14 1024 91 10000 1.36 336 22:48 11.07.2022
2660 Clear 15 1024 90 10000 1.59 344 21:34 11.07.2022
2661 Clear 18 1023 66 10000 2.24 352 20:33 11.07.2022
2662 Clouds 20 1021 62 10000 2.3 345 19:27 11.07.2022
2663 Clouds 21 1021 63 10000 2.3 345 18:30 11.07.2022
2664 Clouds 22 1020 55 10000 2.4 340 16:34 11.07.2022
2665 Clouds 23 1020 58 10000 2.47 333 15:33 11.07.2022
2666 Clear 21 1019 64 10000 1.41 8 13:27 11.07.2022
2667 Clear 18 1019 70 10000 1.18 23 11:24 11.07.2022
2668 Clear 16 1020 74 10000 0.93 28 10:18 11.07.2022
2669 Clouds 16 1020 53 10000 1.32 18 09:40 11.07.2022
2670 Clear 13 1020 88 10000 1.3 18 08:32 11.07.2022
2671 Clouds 11 1022 89 10000 1.5 351 02:59 11.07.2022
2672 Clouds 12 1024 85 10000 2.29 356 00:18 11.07.2022
2673 Clouds 13 1023 94 10000 2.5 353 22:52 10.07.2022
2674 Clouds 15 1022 85 10000 3.1 345 21:20 10.07.2022
2675 Clouds 16 1022 85 10000 3.1 345 20:37 10.07.2022
2676 Clouds 18 1021 63 10000 3.46 348 19:40 10.07.2022
2677 Clouds 19 1021 65 10000 3.77 344 18:43 10.07.2022
2678 Clouds 19 1021 51 10000 4.04 341 17:36 10.07.2022
2679 Clouds 21 1020 50 10000 4.21 339 16:41 10.07.2022
2680 Clouds 20 1020 52 10000 4.33 341 15:24 10.07.2022
2681 Clear 19 1020 60 10000 4.13 341 13:48 10.07.2022
2682 Clear 18 1021 52 10000 3.66 342 12:26 10.07.2022
2683 Clear 16 1021 69 10000 3.23 345 09:57 10.07.2022
2684 Clear 14 1022 75 10000 2.92 346 08:44 10.07.2022
2685 Clouds 12 1023 77 10000 2.78 344 07:30 10.07.2022
2686 Clouds 11 1025 79 10000 2.39 334 01:31 10.07.2022
2687 Clouds 13 1026 88 10000 2.37 331 22:43 09.07.2022
2688 Clouds 14 1026 86 10000 2.51 336 22:19 09.07.2022
2689 Clouds 16 1025 79 10000 2.87 340 20:45 09.07.2022
2690 Clouds 19 1024 53 10000 3.67 343 18:37 09.07.2022
2691 Clouds 20 1024 47 10000 3.93 345 17:45 09.07.2022
2692 Clouds 21 1023 48 10000 3.87 344 16:44 09.07.2022
2693 Clouds 21 1024 43 10000 3.78 344 15:40 09.07.2022
2694 Clouds 20 1024 43 10000 3.75 343 14:28 09.07.2022
2695 Clouds 20 1024 35 10000 3.75 343 13:49 09.07.2022
2696 Clouds 19 1024 48 10000 3.35 345 12:45 09.07.2022
2697 Clear 17 1025 64 10000 2.89 346 11:22 09.07.2022
2698 Clear 16 1025 70 10000 2.68 346 10:22 09.07.2022
2699 Clear 14 1026 49 10000 2.13 340 07:45 09.07.2022
2700 Clear 8 1027 86 10000 1.36 341 04:58 09.07.2022
2701 Clear 9 1028 84 10000 1.53 350 01:50 09.07.2022
2702 Clear 13 1029 83 10000 1.97 355 22:54 08.07.2022
2703 Clear 14 1029 83 10000 2.16 356 21:43 08.07.2022
2704 Clear 14 1028 77 10000 2.76 356 20:40 08.07.2022
2705 Clear 16 1027 60 10000 3.21 356 19:52 08.07.2022
2706 Clear 19 1026 55 10000 3.74 355 18:24 08.07.2022
2707 Clear 19 1026 57 10000 3.88 352 16:40 08.07.2022
2708 Clear 19 1026 61 10000 4.09 351 14:51 08.07.2022
2709 Clouds 18 1025 59 10000 3.97 352 13:29 08.07.2022
2710 Clouds 17 1025 67 10000 3.95 353 11:42 08.07.2022
2711 Clouds 14 1026 64 10000 3.33 358 10:28 08.07.2022
2712 Clouds 11 1027 85 10000 3.41 359 08:33 08.07.2022
2713 Clouds 10 1027 87 10000 3.46 351 06:50 08.07.2022
2714 Clouds 12 1027 73 10000 3.58 343 01:31 08.07.2022
2715 Clouds 13 1026 90 10000 3.84 342 22:59 07.07.2022
2716 Clouds 13 1026 90 10000 3.84 342 22:34 07.07.2022
2717 Clouds 14 1025 89 10000 4.05 342 20:35 07.07.2022
2718 Clouds 16 1023 67 10000 4.6 337 18:20 07.07.2022
2719 Clouds 17 1023 70 10000 4.66 337 16:51 07.07.2022
2720 Clouds 17 1022 69 10000 4.7 337 14:35 07.07.2022
2721 Clouds 17 1021 62 10000 4.35 334 13:18 07.07.2022
2722 Clouds 18 1021 59 10000 4.06 336 12:24 07.07.2022
2723 Clouds 18 1021 59 10000 4.06 336 12:24 07.07.2022
2724 Clouds 18 1021 74 10000 4.06 336 11:45 07.07.2022
2725 Clear 18 1021 73 10000 3.34 333 11:24 07.07.2022
2726 Clear 16 1021 76 10000 3.34 333 10:41 07.07.2022
2727 Clear 16 1021 78 10000 2.77 333 10:23 07.07.2022
2728 Clear 10 1023 90 10000 1.8 320 06:58 07.07.2022
2729 Clouds 11 1024 85 10000 1.35 345 01:51 07.07.2022
2730 Clouds 13 1024 91 10000 1.52 343 23:36 06.07.2022
2731 Clouds 13 1025 91 10000 2.45 341 23:18 06.07.2022
2732 Clouds 14 1025 91 10000 2.45 341 22:52 06.07.2022
2733 Clouds 14 1025 91 10000 2.45 341 22:34 06.07.2022
2734 Clouds 15 1023 87 10000 2.68 346 20:36 06.07.2022
2735 Clouds 17 1023 67 10000 2.86 349 19:35 06.07.2022
2736 Clouds 20 1022 62 10000 3.48 346 17:32 06.07.2022
2737 Clouds 20 1021 58 10000 3.12 345 15:59 06.07.2022
2738 Clear 20 1021 55 10000 2.55 349 13:56 06.07.2022
2739 Clear 20 1022 56 10000 1.98 355 12:31 06.07.2022
2740 Clear 19 1022 60 10000 1.94 358 11:45 06.07.2022
2741 Clear 17 1023 70 10000 1.99 357 10:18 06.07.2022
2742 Clear 12 1023 85 10000 2.2 342 07:44 06.07.2022
2743 Clear 11 1024 87 10000 1.76 333 07:19 06.07.2022
2744 Clouds 12 1025 87 10000 2.46 344 01:20 06.07.2022
2745 Clouds 14 1024 79 10000 2.51 349 22:44 05.07.2022
2746 Clouds 14 1024 83 10000 2.75 347 21:32 05.07.2022
2747 Clouds 14 1024 83 10000 2.75 347 21:32 05.07.2022
2748 Clouds 15 1023 80 10000 2.91 347 20:38 05.07.2022
2749 Clouds 17 1022 67 10000 3.14 343 19:41 05.07.2022
2750 Clouds 19 1021 70 10000 3.35 346 18:26 05.07.2022
2751 Clouds 19 1021 64 10000 3.35 346 17:41 05.07.2022
2752 Clouds 19 1021 63 10000 3.45 348 16:39 05.07.2022
2753 Clouds 20 1021 69 10000 3.25 343 15:23 05.07.2022
2754 Clouds 19 1021 81 10000 3.06 340 13:36 05.07.2022
2755 Clouds 18 1021 84 10000 2.94 339 12:41 05.07.2022
2756 Clouds 14 1021 95 10000 2.77 340 10:46 05.07.2022
2757 Clouds 14 1021 95 10000 2.61 343 10:25 05.07.2022
2758 Rain 12 1021 96 10000 2.65 336 08:24 05.07.2022
2759 Rain 12 1022 96 10000 2.52 331 07:21 05.07.2022
2760 Rain 12 1021 96 10000 2.47 333 04:40 05.07.2022
2761 Clouds 12 1021 94 10000 1.44 342 01:54 05.07.2022
2762 Clouds 13 1021 94 10000 1.97 338 23:40 04.07.2022
2763 Clouds 13 1021 94 10000 0.79 328 22:59 04.07.2022
2764 Clouds 14 1021 93 10000 1.59 5 22:20 04.07.2022
2765 Rain 14 1020 92 10000 1.58 338 20:58 04.07.2022
2766 Rain 14 1020 91 10000 1.58 338 20:38 04.07.2022
2767 Rain 15 1020 90 10000 1.23 353 20:18 04.07.2022
2768 Rain 15 1020 89 10000 1.07 352 19:43 04.07.2022
2769 Rain 16 1019 89 10000 2.29 17 19:24 04.07.2022
2770 Clouds 16 1020 94 9099 0.75 1 17:23 04.07.2022
2771 Rain 17 1020 81 8621 0.13 22 15:41 04.07.2022
2772 Rain 21 1019 68 9175 0.85 295 14:21 04.07.2022
2773 Clouds 18 1020 78 9338 0.52 129 12:56 04.07.2022
2774 Clouds 17 1020 85 10000 1.07 103 11:32 04.07.2022
2775 Clouds 14 1020 69 10000 0.51 147 10:33 04.07.2022
2776 Clouds 12 1021 73 10000 0.67 26 09:23 04.07.2022
2777 Rain 13 1021 94 10000 0.59 177 06:42 04.07.2022
2778 Clouds 11 1022 94 10000 1.35 254 02:59 04.07.2022
2779 Rain 13 1022 88 10000 1.69 182 23:53 03.07.2022
2780 Rain 15 1022 81 10000 1.85 181 22:48 03.07.2022
2781 Clear 19 1021 83 10000 0.36 158 20:46 03.07.2022
2782 Clouds 21 1021 73 10000 0.3 15 19:59 03.07.2022
2783 Rain 23 1021 65 10000 0.77 348 19:25 03.07.2022
2784 Clouds 24 1021 65 10000 0.77 348 18:30 03.07.2022
2785 Clouds 23 1020 61 10000 0.91 325 17:41 03.07.2022
2786 Clouds 26 1020 41 10000 0.66 314 15:28 03.07.2022
2787 Clouds 26 1020 41 10000 0.66 314 14:53 03.07.2022
2788 Clouds 26 1020 55 10000 0.73 345 13:50 03.07.2022
2789 Clouds 24 1021 62 10000 0.76 2 12:49 03.07.2022
2790 Clouds 24 1021 65 10000 0.57 354 12:19 03.07.2022
2791 Clouds 21 1021 62 10000 0.87 351 10:54 03.07.2022
2792 Clouds 21 1021 66 10000 0.87 351 10:35 03.07.2022
2793 Clear 15 1022 64 10000 0.67 332 07:38 03.07.2022
2794 Clear 13 1023 85 10000 0.6 326 06:52 03.07.2022
2795 Clouds 14 1024 81 10000 1.73 188 00:39 03.07.2022
2796 Clouds 15 1024 81 10000 1.97 184 23:37 02.07.2022
2797 Clouds 16 1023 77 10000 2.15 174 22:31 02.07.2022
2798 Clouds 19 1022 82 10000 2.16 166 20:31 02.07.2022
2799 Clouds 20 1022 78 10000 1.49 173 19:49 02.07.2022
2800 Clouds 22 1021 73 10000 1.4 165 18:36 02.07.2022
2801 Clouds 23 1021 54 10000 1.74 163 17:39 02.07.2022
2802 Clouds 24 1020 57 10000 1.77 150 16:30 02.07.2022
2803 Clear 22 1020 68 10000 2.13 159 13:40 02.07.2022
2804 Clear 19 1021 75 10000 2.39 155 11:49 02.07.2022
2805 Clear 17 1021 74 10000 2.41 158 10:51 02.07.2022
2806 Clear 17 1022 77 10000 2.27 159 10:25 02.07.2022
2807 Clear 12 1022 82 10000 2.44 162 08:38 02.07.2022
2808 Clear 12 1022 63 10000 1.88 157 08:19 02.07.2022
2809 Clear 9 1023 95 10000 0.35 75 04:19 02.07.2022
2810 Clouds 10 1023 95 10000 0.93 23 00:28 02.07.2022
2811 Clouds 10 1023 95 10000 1.36 28 23:26 01.07.2022
2812 Clouds 10 1023 94 10000 1.36 28 22:35 01.07.2022
2813 Clouds 11 1023 93 10000 1.71 22 21:38 01.07.2022
2814 Clouds 11 1022 90 10000 2.23 359 20:59 01.07.2022
2815 Clouds 11 1022 90 10000 2.23 359 20:34 01.07.2022
2816 Clouds 11 1022 90 10000 2.62 357 19:38 01.07.2022
2817 Clouds 13 1021 89 10000 2.35 8 17:18 01.07.2022
2818 Clouds 11 1021 92 10000 2.08 12 14:34 01.07.2022
2819 Clouds 11 1021 95 7092 1.99 347 13:51 01.07.2022
2820 Rain 9 1018 91 1977 1.15 326 11:22 01.07.2022
2821 Rain 10 1018 94 1979 0.35 26 10:19 01.07.2022
2822 Rain 11 1016 96 3034 0.04 342 07:38 01.07.2022
2823 Clouds 11 1016 93 6616 1.67 144 02:43 01.07.2022
2824 Rain 14 1017 85 10000 0.59 46 00:21 01.07.2022
2825 Clouds 15 1017 86 10000 0.56 166 22:52 30.06.2022
2826 Clouds 16 1017 92 10000 0.56 166 22:32 30.06.2022
2827 Clouds 16 1017 92 10000 0.56 166 22:32 30.06.2022
2828 Clouds 16 1017 92 10000 0.56 166 22:32 30.06.2022
2829 Clouds 13 1017 90 10000 2.34 148 21:54 30.06.2022
2830 Clouds 17 1015 81 10000 1.97 153 20:53 30.06.2022
2831 Clouds 18 1014 81 10000 2.52 158 20:21 30.06.2022
2832 Clouds 18 1014 76 10000 2.26 146 19:48 30.06.2022
2833 Clouds 20 1014 55 10000 2.58 161 18:56 30.06.2022
2834 Clouds 19 1014 62 10000 2.37 163 18:22 30.06.2022
2835 Clouds 21 1014 57 10000 2.37 163 17:36 30.06.2022
2836 Clouds 20 1014 79 10000 1.94 165 16:22 30.06.2022
2837 Rain 19 1014 78 10000 2.33 169 14:20 30.06.2022
2838 Clouds 20 1014 73 10000 2.81 166 13:29 30.06.2022
2839 Rain 20 1014 83 10000 2.81 166 12:34 30.06.2022
2840 Rain 20 1014 74 10000 2.68 163 11:21 30.06.2022
2841 Clear 19 1014 82 10000 2.54 160 09:52 30.06.2022
2842 Clear 18 1015 77 10000 2.43 160 09:26 30.06.2022
2843 Clouds 14 1015 95 10000 2.16 160 07:41 30.06.2022
2844 Clouds 14 1016 95 10000 1.88 163 05:46 30.06.2022
2845 Clouds 15 1016 92 10000 0.5 130 00:26 30.06.2022
2846 Clouds 15 1016 92 10000 0.66 106 22:54 29.06.2022
2847 Clouds 16 1016 92 10000 0.66 106 22:33 29.06.2022
2848 Clouds 17 1016 92 10000 0.9 78 21:31 29.06.2022
2849 Clouds 19 1015 75 10000 0.79 52 20:33 29.06.2022
2850 Clouds 19 1015 75 10000 0.79 52 20:33 29.06.2022
2851 Clouds 20 1015 71 10000 0.92 34 19:34 29.06.2022
2852 Clouds 19 1015 78 10000 1.1 21 17:40 29.06.2022
2853 Clouds 19 1015 75 10000 1.38 22 16:33 29.06.2022
2854 Clouds 21 1015 69 10000 1.33 352 14:50 29.06.2022
2855 Clouds 20 1015 73 10000 0.68 327 12:39 29.06.2022
2856 Clouds 16 1016 84 10000 1.61 357 10:25 29.06.2022
2857 Clouds 15 1016 92 10000 1.61 357 09:31 29.06.2022
2858 Clouds 10 1016 94 10000 1.41 335 07:30 29.06.2022
2859 Clouds 10 1016 96 7085 1.3 337 04:49 29.06.2022
2860 Clouds 11 1018 95 10000 1.61 181 00:55 29.06.2022
2861 Clouds 11 1018 95 10000 1.61 181 00:35 29.06.2022
2862 Clouds 11 1018 95 10000 1.24 208 22:53 28.06.2022
2863 Clouds 11 1018 94 10000 1.76 151 22:21 28.06.2022
2864 Clouds 12 1018 94 10000 1.76 151 21:50 28.06.2022
2865 Clouds 12 1018 94 10000 1.76 151 21:30 28.06.2022
2866 Clouds 12 1018 79 10000 1.69 218 20:20 28.06.2022
2867 Rain 14 1019 92 10000 1.19 205 19:32 28.06.2022
2868 Rain 14 1019 92 10000 1.19 205 19:32 28.06.2022
2869 Rain 14 1019 94 10000 1.61 112 18:44 28.06.2022
2870 Rain 14 1019 92 10000 1.51 214 17:38 28.06.2022
2871 Rain 12 1016 75 10000 1.69 114 15:56 28.06.2022
2872 Rain 12 1016 75 10000 1.69 114 15:56 28.06.2022
2873 Rain 11 1017 75 10000 2.12 134 14:59 28.06.2022
2874 Rain 14 1018 96 10000 2.96 130 14:20 28.06.2022
2875 Rain 16 1018 77 10000 3.32 141 13:49 28.06.2022
2876 Rain 17 1018 75 9807 3.06 145 12:48 28.06.2022
2877 Rain 10 1018 74 10000 2.45 154 10:46 28.06.2022
2878 Clouds 12 1019 97 10000 1.53 124 09:25 28.06.2022
2879 Clouds 12 1019 97 10000 1.53 124 08:43 28.06.2022
2880 Clouds 12 1020 97 2375 1.35 45 07:26 28.06.2022
2881 Clouds 12 1021 96 3632 1.81 27 04:59 28.06.2022
2882 Clouds 12 1022 95 2922 0.92 17 23:59 27.06.2022
2883 Clouds 12 1023 95 4426 1.09 332 23:36 27.06.2022
2884 Clouds 13 1022 95 8532 0.53 49 22:50 27.06.2022
2885 Clouds 13 1022 90 10000 1.38 15 21:30 27.06.2022
2886 Rain 14 1021 86 9859 0.8 7 20:44 27.06.2022
2887 Rain 17 1019 81 7695 0.83 200 18:58 27.06.2022
2888 Clouds 19 1019 78 10000 1.24 150 17:46 27.06.2022
2889 Clouds 19 1019 77 9567 1.31 172 16:18 27.06.2022
2890 Clouds 22 1018 52 10000 1.33 173 14:44 27.06.2022
2891 Clouds 21 1018 55 10000 2.15 160 13:24 27.06.2022
2892 Clouds 21 1018 58 10000 2.15 160 12:49 27.06.2022
2893 Clouds 20 1018 59 10000 2.9 163 10:22 27.06.2022
2894 Clouds 19 1018 78 10000 3.37 161 08:47 27.06.2022
2895 Clouds 17 1017 80 10000 3.42 158 07:59 27.06.2022
2896 Clouds 15 1018 82 10000 2.92 155 06:38 27.06.2022
2897 Clouds 16 1019 76 10000 3.47 159 01:54 27.06.2022
2898 Clouds 16 1019 94 10000 3.72 168 23:39 26.06.2022
2899 Clouds 16 1018 90 10000 3.75 170 21:51 26.06.2022
2900 Clouds 19 1017 87 10000 4.51 163 20:34 26.06.2022
2901 Clouds 20 1016 56 10000 4.28 153 19:23 26.06.2022
2902 Clouds 21 1016 60 10000 3.96 156 18:24 26.06.2022
2903 Clouds 21 1016 54 10000 3.84 155 15:53 26.06.2022
2904 Clouds 20 1017 59 10000 3.3 147 14:34 26.06.2022
2905 Clouds 19 1016 63 10000 3.31 150 13:30 26.06.2022
2906 Clouds 19 1017 66 10000 3.33 154 12:44 26.06.2022
2907 Clouds 19 1017 54 10000 3.24 159 11:21 26.06.2022
2908 Clouds 17 1017 68 10000 3.42 161 10:23 26.06.2022
2909 Clouds 15 1017 77 10000 3.22 159 08:45 26.06.2022
2910 Clouds 13 1018 86 10000 2.52 162 07:23 26.06.2022
2911 Clouds 12 1018 83 10000 1.9 172 00:48 26.06.2022
2912 Clouds 13 1018 77 10000 2.1 174 00:20 26.06.2022
2913 Clouds 14 1018 83 10000 2.1 174 23:33 25.06.2022
2914 Clouds 14 1017 83 10000 2.27 172 22:51 25.06.2022
2915 Clouds 14 1017 71 10000 2.46 163 22:26 25.06.2022
2916 Clouds 16 1015 69 10000 2.42 155 21:23 25.06.2022
2917 Clouds 16 1015 76 10000 2.42 155 20:59 25.06.2022
2918 Clouds 17 1014 59 10000 2.02 148 20:25 25.06.2022
2919 Clouds 19 1014 53 10000 1.74 146 18:45 25.06.2022
2920 Clouds 20 1013 46 10000 2.1 150 17:28 25.06.2022
2921 Clouds 20 1013 45 10000 2.1 150 16:44 25.06.2022
2922 Clouds 20 1013 49 10000 2.23 157 14:50 25.06.2022
2923 Clear 19 1013 65 10000 2.15 153 12:56 25.06.2022
2924 Clear 19 1013 65 10000 2.15 153 12:37 25.06.2022
2925 Clear 16 1014 75 10000 1.45 128 10:30 25.06.2022
2926 Clear 13 1016 85 10000 1.27 59 08:56 25.06.2022
2927 Clear 11 1016 92 10000 1.26 31 08:29 25.06.2022
2928 Clear 8 1017 95 10000 1.03 14 06:53 25.06.2022
2929 Clear 9 1017 83 10000 1.34 351 03:26 25.06.2022
2930 Clouds 10 1017 95 10000 1.82 333 00:21 25.06.2022
2931 Clouds 10 1017 94 10000 1.87 337 22:31 24.06.2022
2932 Clouds 11 1016 94 10000 0.58 8 21:29 24.06.2022
2933 Clouds 10 1015 90 10000 0.65 17 20:25 24.06.2022
2934 Clouds 11 1015 91 10000 0.71 39 19:43 24.06.2022
2935 Clouds 11 1015 94 10000 1.03 6 19:18 24.06.2022
2936 Rain 11 1015 91 10000 1.03 6 18:47 24.06.2022
2937 Rain 11 1015 89 5961 2.1 323 18:29 24.06.2022
2938 Clouds 12 1014 92 2197 2.65 311 16:52 24.06.2022
2939 Clouds 14 1011 89 10000 2.61 167 15:27 24.06.2022
2940 Rain 14 1012 90 3997 1.91 152 14:25 24.06.2022
2941 Rain 14 1012 91 3997 1.91 152 13:46 24.06.2022
2942 Rain 13 1011 93 3227 1.92 164 11:42 24.06.2022
2943 Clouds 14 1012 93 9880 1.97 153 10:42 24.06.2022
2944 Clouds 14 1013 92 5740 1.86 146 09:42 24.06.2022
2945 Rain 14 1013 89 10000 1.34 131 08:58 24.06.2022
2946 Rain 14 1013 90 10000 1.34 131 08:40 24.06.2022
2947 Clouds 13 1014 91 10000 0.46 82 06:45 24.06.2022
2948 Clouds 13 1014 93 10000 0.12 84 06:26 24.06.2022
2949 Clouds 13 1014 90 10000 0.2 143 04:50 24.06.2022
2950 Clouds 13 1016 87 10000 0.96 183 23:43 23.06.2022
2951 Clouds 15 1015 80 10000 1.84 178 22:43 23.06.2022
2952 Clouds 16 1015 74 10000 1.49 175 21:40 23.06.2022
2953 Clouds 17 1015 72 10000 1.35 200 20:42 23.06.2022
2954 Clouds 17 1013 66 10000 2.15 179 19:55 23.06.2022
2955 Clouds 19 1013 77 10000 2.97 172 18:38 23.06.2022
2956 Clouds 20 1014 60 10000 2.28 161 17:35 23.06.2022
2957 Rain 21 1014 44 10000 3.52 158 16:32 23.06.2022
2958 Clouds 22 1013 44 10000 3.32 153 15:26 23.06.2022
2959 Clouds 23 1013 50 10000 3.32 153 14:36 23.06.2022
2960 Clouds 20 1014 69 10000 2.21 145 11:42 23.06.2022
2961 Clear 18 1015 81 10000 2.03 141 10:41 23.06.2022
2962 Clear 16 1016 81 10000 1.28 96 09:19 23.06.2022
2963 Clear 16 1016 81 10000 1.28 96 09:19 23.06.2022
2964 Clouds 10 1016 95 10000 1.21 18 05:37 23.06.2022
2965 Rain 12 1016 94 10000 0.65 98 00:28 23.06.2022
2966 Rain 12 1016 94 10000 0.65 98 23:59 22.06.2022
2967 Clouds 13 1017 94 10000 0.73 25 23:18 22.06.2022
2968 Rain 13 1016 84 10000 0.96 344 21:44 22.06.2022
2969 Rain 15 1015 89 10000 1.1 192 20:52 22.06.2022
2970 Rain 16 1014 87 10000 1.91 177 20:19 22.06.2022
2971 Clouds 17 1013 83 10000 2.1 169 19:30 22.06.2022
2972 Clouds 20 1013 75 10000 1.54 160 17:40 22.06.2022
2973 Clouds 19 1013 82 10000 2.3 154 16:41 22.06.2022
2974 Clouds 17 1015 92 9077 2.16 159 15:29 22.06.2022
2975 Rain 17 1015 92 9077 2.16 159 14:47 22.06.2022
2976 Clouds 16 1015 88 5857 1.66 145 13:47 22.06.2022
2977 Clouds 16 1015 86 6200 1.51 154 13:24 22.06.2022
2978 Clouds 15 1015 93 4923 1.69 158 11:54 22.06.2022
2979 Clouds 15 1015 94 8883 2.26 141 11:29 22.06.2022
2980 Clouds 14 1015 95 8883 2.26 141 10:43 22.06.2022
2981 Rain 15 1015 91 10000 1.93 155 09:18 22.06.2022
2982 Rain 13 1015 93 10000 1.34 139 06:55 22.06.2022
2983 Clouds 12 1017 93 10000 0.93 175 01:59 22.06.2022
2984 Clouds 13 1017 93 10000 1.61 184 00:57 22.06.2022
2985 Clouds 15 1018 93 10000 1.29 177 22:49 21.06.2022
2986 Clouds 16 1017 90 10000 2.27 158 20:47 21.06.2022
2987 Rain 19 1014 83 5371 2.3 172 19:23 21.06.2022
2988 Clouds 21 1014 75 8706 1.86 154 17:54 21.06.2022
2989 Rain 23 1015 80 10000 2.16 130 16:38 21.06.2022
2990 Rain 22 1014 72 10000 0.89 166 11:57 21.06.2022
2991 Clouds 20 1014 66 10000 1.09 171 10:38 21.06.2022
2992 Clouds 18 1015 73 10000 2.07 212 09:20 21.06.2022
2993 Clouds 15 1015 82 10000 1.86 186 07:44 21.06.2022
2994 Clouds 13 1015 84 10000 0.95 189 04:43 21.06.2022
2995 Clear 16 1017 75 10000 0.9 314 00:21 21.06.2022
2996 Clear 20 1017 83 10000 1.67 339 22:21 20.06.2022
2997 Clear 21 1017 83 10000 1.67 339 21:36 20.06.2022
2998 Clouds 22 1016 76 10000 2.14 326 20:28 20.06.2022
2999 Clouds 23 1016 74 10000 1.92 323 19:35 20.06.2022
3000 Clouds 23 1016 67 10000 2.11 332 18:25 20.06.2022
3001 Clouds 24 1016 67 10000 2.11 332 17:49 20.06.2022
3002 Clouds 24 1015 68 10000 1.24 323 16:26 20.06.2022
3003 Clouds 23 1016 69 10000 1.07 314 15:20 20.06.2022
3004 Clouds 22 1016 67 10000 0.78 329 12:18 20.06.2022
3005 Clouds 19 1016 72 10000 0.59 235 10:21 20.06.2022
3006 Clouds 19 1016 72 10000 0.59 235 10:21 20.06.2022
3007 Clear 20 1016 68 10000 1.34 203 08:54 20.06.2022
3008 Clouds 17 1016 77 10000 2.36 190 07:51 20.06.2022
3009 Clear 15 1017 80 10000 2.88 176 05:18 20.06.2022
3010 Clouds 17 1018 75 10000 3.29 172 01:33 20.06.2022
3011 Clouds 18 1018 72 10000 3.15 173 23:57 19.06.2022
3012 Clouds 19 1018 81 10000 2.99 174 22:40 19.06.2022
3013 Clouds 19 1019 81 10000 2.53 207 21:45 19.06.2022
3014 Clouds 20 1017 72 10000 2.8 166 21:26 19.06.2022
3015 Clouds 22 1016 56 10000 3.01 162 20:25 19.06.2022
3016 Clouds 21 1016 64 10000 3.01 162 19:46 19.06.2022
3017 Clouds 23 1015 55 10000 3.31 149 18:41 19.06.2022
3018 Clouds 24 1015 49 10000 3.33 158 17:48 19.06.2022
3019 Clear 25 1015 45 10000 3.39 155 17:21 19.06.2022
3020 Clear 25 1015 44 10000 3.4 155 16:34 19.06.2022
3021 Clear 24 1016 44 10000 3.4 156 15:37 19.06.2022
3022 Clear 25 1016 44 10000 3.19 164 14:51 19.06.2022
3023 Clouds 23 1016 46 10000 3.3 166 13:54 19.06.2022
3024 Clouds 24 1016 49 10000 3.51 165 12:39 19.06.2022
3025 Clouds 22 1017 58 10000 3.6 169 10:54 19.06.2022
3026 Clouds 18 1018 68 10000 3.64 170 09:40 19.06.2022
3027 Clouds 20 1019 63 10000 3.69 171 08:43 19.06.2022
3028 Clouds 16 1019 73 10000 3.73 171 07:36 19.06.2022
3029 Clouds 15 1020 74 10000 3.28 175 04:41 19.06.2022
3030 Clouds 16 1022 73 10000 3.16 170 01:28 19.06.2022
3031 Clouds 17 1022 72 10000 2.88 177 00:24 19.06.2022
3032 Clouds 16 1022 93 10000 2.88 177 23:35 18.06.2022
3033 Clouds 17 1022 93 10000 3.03 171 22:36 18.06.2022
3034 Clouds 22 1021 85 10000 3.11 171 20:55 18.06.2022
3035 Clear 23 1020 73 10000 3.08 174 20:27 18.06.2022
3036 Clear 24 1020 73 10000 3.08 174 19:31 18.06.2022
3037 Clear 25 1019 60 10000 2.63 164 18:44 18.06.2022
3038 Clear 26 1019 51 10000 2.51 162 17:30 18.06.2022
3039 Clear 27 1019 44 10000 2.26 152 16:37 18.06.2022
3040 Clear 27 1020 35 10000 1.61 125 15:22 18.06.2022
3041 Clear 27 1020 36 10000 1.61 125 14:42 18.06.2022
3042 Clouds 27 1022 39 10000 1.38 115 13:22 18.06.2022
3043 Clouds 24 1022 46 10000 1.43 105 11:38 18.06.2022
3044 Clouds 23 1023 53 10000 1.44 89 10:46 18.06.2022
3045 Clouds 19 1024 63 10000 1.07 68 09:20 18.06.2022
3046 Clouds 19 1024 63 10000 1.07 68 09:20 18.06.2022
3047 Clouds 18 1024 47 10000 1.11 37 08:19 18.06.2022
3048 Clouds 18 1024 47 10000 1.11 37 08:19 18.06.2022
3049 Clouds 10 1025 58 10000 0.72 44 06:43 18.06.2022
3050 Clear 13 1026 77 10000 1.24 342 03:24 18.06.2022
3051 Clouds 13 1027 76 10000 1.01 343 01:24 18.06.2022
3052 Clouds 14 1027 75 10000 1.01 343 00:45 18.06.2022
3053 Clouds 15 1028 71 10000 1.11 337 23:52 17.06.2022
3054 Clouds 15 1028 71 10000 1.11 337 23:52 17.06.2022
3055 Clouds 15 1028 69 10000 1.5 337 23:19 17.06.2022
3056 Clouds 20 1026 66 10000 2.47 347 20:42 17.06.2022
3057 Clouds 23 1025 41 10000 2.65 344 19:30 17.06.2022
3058 Clouds 24 1025 46 10000 2.97 343 18:37 17.06.2022
3059 Clouds 24 1024 41 10000 3.04 345 17:43 17.06.2022
3060 Clouds 24 1024 40 10000 3.11 346 16:43 17.06.2022
3061 Clouds 24 1024 38 10000 3.41 343 15:43 17.06.2022
3062 Clouds 24 1024 33 10000 3.29 342 14:58 17.06.2022
3063 Clouds 24 1024 37 10000 3.27 342 14:20 17.06.2022
3064 Clouds 23 1024 40 10000 3.34 342 13:45 17.06.2022
3065 Clouds 23 1024 44 10000 3.25 344 12:53 17.06.2022
3066 Clouds 22 1024 46 10000 3.12 345 11:57 17.06.2022
3067 Clouds 22 1024 51 10000 3.12 345 11:36 17.06.2022
3068 Clouds 20 1024 61 10000 2.97 349 10:48 17.06.2022
3069 Clouds 20 1024 61 10000 2.97 349 10:48 17.06.2022
3070 Clouds 15 1025 82 10000 2.68 340 08:30 17.06.2022
3071 Clouds 14 1025 87 10000 2.8 335 07:30 17.06.2022
3072 Clear 12 1025 84 10000 2.15 323 05:51 17.06.2022
3073 Clear 13 1025 86 10000 1.48 325 02:47 17.06.2022
3074 Clear 14 1026 87 10000 1.75 328 00:42 17.06.2022
3075 Clear 16 1026 87 10000 2.37 325 22:45 16.06.2022
3076 Clear 17 1025 86 10000 2.94 334 21:58 16.06.2022
3077 Clear 18 1024 84 10000 3.35 339 21:18 16.06.2022
3078 Clear 19 1024 84 10000 3.35 339 20:49 16.06.2022
3079 Clouds 20 1023 74 10000 3.45 347 19:56 16.06.2022
3080 Clouds 21 1022 62 10000 3.73 344 18:34 16.06.2022
3081 Clouds 22 1022 60 10000 3.87 345 17:44 16.06.2022
3082 Clouds 23 1022 58 10000 4.13 342 16:46 16.06.2022
3083 Rain 23 1022 60 10000 3.93 336 15:24 16.06.2022
3084 Clouds 22 1022 64 10000 3.93 336 14:56 16.06.2022
3085 Clouds 20 1022 75 10000 3.56 329 13:46 16.06.2022
3086 Clouds 19 1021 80 10000 3.2 335 12:38 16.06.2022
3087 Clouds 19 1021 65 10000 3.06 334 11:54 16.06.2022
3088 Clouds 20 1021 70 10000 2.53 325 11:18 16.06.2022
3089 Clouds 19 1021 51 10000 2.53 325 10:33 16.06.2022
3090 Clouds 17 1021 74 10000 2.08 326 09:26 16.06.2022
3091 Clouds 16 1021 80 10000 2.08 326 08:46 16.06.2022
3092 Clouds 13 1021 85 10000 1.54 291 07:29 16.06.2022
3093 Clouds 13 1021 83 10000 1.1 303 05:42 16.06.2022
3094 Clouds 12 1022 86 10000 1.09 295 02:54 16.06.2022
3095 Clouds 13 1022 86 10000 0.77 305 01:51 16.06.2022
3096 Rain 14 1022 79 10000 0.78 297 01:21 16.06.2022
3097 Rain 14 1022 79 10000 0.78 297 01:21 16.06.2022
3098 Rain 14 1022 71 10000 1.6 257 23:56 15.06.2022
3099 Rain 14 1022 71 10000 1.6 257 23:56 15.06.2022
3100 Clouds 15 1022 59 10000 1.24 276 22:45 15.06.2022
3101 Rain 16 1021 72 10000 0.82 275 21:28 15.06.2022
3102 Rain 17 1021 72 10000 0.82 275 20:57 15.06.2022
3103 Rain 17 1021 72 10000 0.82 275 20:35 15.06.2022
3104 Rain 16 1019 72 10000 0.64 137 19:49 15.06.2022
3105 Rain 21 1020 68 10000 1.48 338 18:30 15.06.2022
3106 Rain 21 1019 63 10000 1.96 324 17:42 15.06.2022
3107 Clouds 24 1020 50 10000 2.48 312 16:20 15.06.2022
3108 Clouds 25 1019 41 10000 1.82 315 14:33 15.06.2022
3109 Clouds 22 1020 47 10000 1.03 280 13:20 15.06.2022
3110 Clouds 22 1020 47 10000 1.03 280 12:39 15.06.2022
3111 Clouds 21 1020 51 10000 0.52 236 11:22 15.06.2022
3112 Rain 20 1020 56 10000 0.79 222 10:21 15.06.2022
3113 Clear 18 1020 66 10000 1.06 223 08:58 15.06.2022
3114 Rain 14 1020 82 10000 0.84 198 07:32 15.06.2022
3115 Clouds 12 1021 80 10000 1.78 199 05:36 15.06.2022
3116 Clouds 13 1022 80 10000 2.77 196 02:40 15.06.2022
3117 Clouds 13 1022 77 10000 2.85 189 01:36 15.06.2022
3118 Clouds 13 1021 74 10000 2.66 188 00:18 15.06.2022
3119 Clouds 14 1021 72 10000 2.66 188 23:38 14.06.2022
3120 Clouds 15 1021 68 10000 2.27 183 22:45 14.06.2022
3121 Clouds 14 1021 82 10000 1.96 172 21:43 14.06.2022
3122 Clouds 17 1020 81 10000 1.02 195 20:58 14.06.2022
3123 Clouds 18 1020 81 10000 1.02 195 20:38 14.06.2022
3124 Clouds 19 1019 73 10000 0.62 216 19:47 14.06.2022
3125 Clouds 22 1019 57 10000 0.39 247 18:33 14.06.2022
3126 Clouds 24 1018 47 10000 0.47 322 16:50 14.06.2022
3127 Clouds 24 1018 42 10000 0.39 2 16:25 14.06.2022
3128 Clouds 24 1018 42 10000 0.39 2 15:36 14.06.2022
3129 Clear 24 1018 39 10000 0.4 24 14:53 14.06.2022
3130 Clear 23 1019 37 10000 0.41 43 13:57 14.06.2022
3131 Clear 23 1019 48 10000 0.31 78 12:59 14.06.2022
3132 Clear 21 1019 56 10000 0.59 112 11:56 14.06.2022
3133 Clear 19 1020 58 10000 0.34 129 10:51 14.06.2022
3134 Clear 18 1020 59 10000 0.24 142 10:28 14.06.2022
3135 Clear 16 1020 62 10000 0.24 57 09:18 14.06.2022
3136 Clear 13 1020 76 10000 0.2 20 08:24 14.06.2022
3137 Clear 7 1021 85 10000 0.92 332 06:20 14.06.2022
3138 Clear 8 1022 86 10000 1.32 337 03:45 14.06.2022
3139 Clouds 9 1022 85 10000 1.5 328 01:37 14.06.2022
3140 Clouds 11 1023 84 10000 2.04 342 00:21 14.06.2022
3141 Clouds 12 1023 82 10000 2.46 348 22:45 13.06.2022
3142 Clouds 13 1023 81 10000 2.42 345 22:22 13.06.2022
3143 Clouds 14 1022 74 10000 2.46 342 21:26 13.06.2022
3144 Clouds 16 1022 79 10000 3.03 341 19:59 13.06.2022
3145 Clouds 17 1021 62 10000 3.39 341 18:54 13.06.2022
3146 Clouds 18 1021 77 10000 3.59 339 17:55 13.06.2022
3147 Clouds 19 1021 78 10000 3.58 339 17:24 13.06.2022
3148 Clouds 18 1021 78 10000 3.58 339 16:30 13.06.2022
3149 Clouds 18 1021 66 10000 3.66 342 14:49 13.06.2022
3150 Clouds 17 1021 65 10000 3.66 342 14:31 13.06.2022
3151 Clouds 17 1021 75 10000 3.56 340 13:31 13.06.2022
3152 Rain 17 1020 74 10000 3.13 335 12:22 13.06.2022
3153 Clear 17 1020 79 10000 2.85 332 10:37 13.06.2022
3154 Clear 16 1020 85 10000 2.74 331 09:54 13.06.2022
3155 Clouds 14 1021 87 10000 2.67 333 08:52 13.06.2022
3156 Clouds 12 1021 93 10000 1.37 312 06:37 13.06.2022
3157 Clouds 12 1021 93 10000 2.13 294 05:35 13.06.2022
3158 Clouds 15 1021 78 10000 1.45 260 01:55 13.06.2022
3159 Rain 15 1021 73 10000 1.45 260 01:34 13.06.2022
3160 Clouds 14 1022 75 10000 1.24 251 23:48 12.06.2022
3161 Clouds 12 1022 75 10000 0.91 269 22:44 12.06.2022
3162 Clouds 15 1022 75 10000 0.69 270 21:53 12.06.2022
3163 Clouds 17 1022 72 10000 0.72 302 20:53 12.06.2022
3164 Clouds 21 1022 68 10000 1.21 304 19:59 12.06.2022
3165 Clouds 22 1022 68 10000 1.21 304 19:30 12.06.2022
3166 Clouds 23 1020 41 10000 1.9 341 17:40 12.06.2022
3167 Clouds 21 1021 34 10000 2.02 342 15:54 12.06.2022
3168 Clouds 24 1021 36 10000 2 343 14:51 12.06.2022
3169 Clouds 23 1022 31 10000 1.67 346 14:19 12.06.2022
3170 Clouds 23 1022 31 10000 1.67 346 13:46 12.06.2022
3171 Clear 24 1022 30 10000 1.44 347 12:31 12.06.2022
3172 Clouds 21 1023 31 10000 1.27 350 11:22 12.06.2022
3173 Clouds 20 1023 48 10000 1.3 352 10:21 12.06.2022
3174 Clouds 16 1024 61 10000 1.21 343 08:52 12.06.2022
3175 Clouds 15 1024 68 10000 1.21 343 08:34 12.06.2022
3176 Clear 13 1024 46 10000 1.08 327 06:49 12.06.2022
3177 Clear 11 1025 82 10000 1.43 326 04:35 12.06.2022
3178 Clear 11 1025 82 10000 1.15 328 02:32 12.06.2022
3179 Clear 11 1026 79 10000 1.01 329 01:36 12.06.2022
3180 Clear 11 1026 78 10000 1.04 329 00:58 12.06.2022
3181 Clear 12 1026 76 10000 1.34 330 00:19 12.06.2022
3182 Clear 12 1026 73 10000 1.41 328 23:21 11.06.2022
3183 Clear 12 1026 78 10000 1.41 328 22:38 11.06.2022
3184 Clear 16 1026 78 10000 1.63 333 21:36 11.06.2022
3185 Clear 18 1024 51 10000 2.68 344 20:27 11.06.2022
3186 Clear 20 1024 46 10000 2.62 345 19:37 11.06.2022
3187 Clear 19 1023 49 10000 3.04 345 18:50 11.06.2022
3188 Clear 22 1023 49 10000 3.04 345 18:31 11.06.2022
3189 Clear 22 1023 43 10000 3.25 345 17:49 11.06.2022
3190 Clear 22 1022 37 10000 3.28 345 17:26 11.06.2022
3191 Clear 22 1022 31 10000 3.28 345 16:44 11.06.2022
3192 Clear 23 1022 28 10000 3.25 346 16:25 11.06.2022
3193 Clear 22 1022 36 10000 3.06 347 15:18 11.06.2022
3194 Clear 21 1022 36 10000 2.91 348 13:52 11.06.2022
3195 Clear 20 1023 50 10000 2.54 350 12:19 11.06.2022
3196 Clear 17 1023 66 10000 2.36 352 10:40 11.06.2022
3197 Clear 15 1023 69 10000 2.24 351 09:42 11.06.2022
3198 Clear 12 1023 74 10000 2.16 349 08:45 11.06.2022
3199 Clear 7 1024 88 10000 1.65 332 06:34 11.06.2022
3200 Clear 7 1024 88 10000 1.49 332 05:58 11.06.2022
3201 Clear 8 1024 88 10000 1.45 330 03:45 11.06.2022
3202 Clear 8 1024 87 10000 1.16 332 01:52 11.06.2022
3203 Clear 8 1025 86 10000 1.14 340 01:26 11.06.2022
3204 Clear 9 1025 83 10000 1.57 340 23:28 10.06.2022
3205 Clear 10 1024 80 10000 2.02 340 22:27 10.06.2022
3206 Clear 12 1024 87 10000 2.02 340 21:46 10.06.2022
3207 Clear 13 1023 81 10000 2.45 345 20:39 10.06.2022
3208 Clear 14 1022 65 10000 2.78 345 20:20 10.06.2022
3209 Clear 16 1022 58 10000 3.04 347 19:19 10.06.2022
3210 Clear 17 1022 55 10000 3.04 347 18:44 10.06.2022
3211 Clear 18 1021 53 10000 3.23 347 17:54 10.06.2022
3212 Clear 18 1021 54 10000 3.33 346 17:23 10.06.2022
3213 Clear 18 1021 56 10000 3.33 348 16:28 10.06.2022
3214 Clear 18 1021 51 10000 3.33 348 15:40 10.06.2022
3215 Clouds 17 1021 58 10000 3.11 355 14:28 10.06.2022
3216 Clear 16 1021 61 10000 3.21 357 12:58 10.06.2022
3217 Clouds 15 1021 60 10000 3.25 356 11:59 10.06.2022
3218 Clouds 12 1021 74 10000 3.27 358 10:46 10.06.2022
3219 Clouds 12 1022 76 10000 3.08 5 09:57 10.06.2022
3220 Clouds 9 1022 82 10000 3.01 6 08:48 10.06.2022
3221 Clouds 7 1023 91 10000 3.05 0 07:41 10.06.2022
3222 Clouds 6 1024 94 10000 3.07 356 06:46 10.06.2022
3223 Clouds 6 1024 94 10000 3.17 354 06:27 10.06.2022
3224 Clouds 5 1024 93 10000 3.18 355 04:47 10.06.2022
3225 Clouds 6 1023 91 10000 3.29 352 01:59 10.06.2022
3226 Clouds 7 1023 90 10000 3.13 351 01:36 10.06.2022
3227 Clouds 7 1023 74 3225 3.7 345 23:57 09.06.2022
3228 Clouds 7 1022 77 7521 3.8 343 22:24 09.06.2022
3229 Clouds 7 1022 92 7521 3.8 343 21:38 09.06.2022
3230 Clouds 8 1021 72 5207 4.08 343 21:18 09.06.2022
3231 Clouds 8 1021 76 5207 4.08 343 20:36 09.06.2022
3232 Clouds 9 1020 77 2660 4.05 341 19:41 09.06.2022
3233 Rain 8 1019 77 287 4.1 341 18:36 09.06.2022
3234 Clouds 10 1017 78 7296 4.72 340 17:28 09.06.2022
3235 Clouds 11 1016 74 9742 4.6 340 16:28 09.06.2022
3236 Clouds 10 1015 75 9426 4.63 341 14:45 09.06.2022
3237 Clouds 10 1015 78 10000 4.37 340 14:24 09.06.2022
3238 Clouds 12 1015 61 10000 4.44 342 13:30 09.06.2022
3239 Clouds 11 1015 60 10000 4.03 341 12:51 09.06.2022
3240 Clouds 10 1015 68 6365 3.82 337 11:20 09.06.2022
3241 Clouds 8 1015 73 7274 4.01 335 09:55 09.06.2022
3242 Clouds 7 1015 87 7274 4.01 335 09:37 09.06.2022
3243 Clouds 8 1015 83 9176 4.12 335 08:33 09.06.2022
3244 Rain 7 1015 95 5639 3.33 333 07:24 09.06.2022
3245 Clouds 8 1013 95 6706 3.88 332 03:29 09.06.2022
3246 Clouds 8 1013 94 10000 3.12 333 00:32 09.06.2022
3247 Rain 9 1013 95 10000 2.18 316 22:59 08.06.2022
3248 Clouds 9 1013 95 10000 2.18 316 22:30 08.06.2022
3249 Clouds 9 1013 95 5722 2.69 328 21:59 08.06.2022
3250 Clouds 10 1013 94 5722 2.69 328 21:32 08.06.2022
3251 Rain 10 1012 93 10000 2.68 335 20:25 08.06.2022
3252 Clouds 11 1012 94 7231 2.64 330 19:40 08.06.2022
3253 Clouds 11 1011 91 7216 1.95 330 18:48 08.06.2022
3254 Clouds 12 1011 90 4919 1.76 305 17:38 08.06.2022
3255 Rain 15 1010 61 10000 0.32 265 15:53 08.06.2022
3256 Clouds 19 1009 54 10000 0.35 78 14:31 08.06.2022
3257 Clouds 18 1009 66 10000 0.74 155 12:55 08.06.2022
3258 Clouds 16 1010 61 10000 1.51 164 11:36 08.06.2022
3259 Clouds 14 1010 68 10000 1.6 179 10:46 08.06.2022
3260 Clouds 13 1012 74 10000 1.59 173 09:28 08.06.2022
3261 Clouds 12 1012 78 10000 1.59 173 08:52 08.06.2022
3262 Clouds 8 1013 94 10000 0.47 171 06:56 08.06.2022
3263 Clouds 7 1014 94 10000 0.52 352 04:41 08.06.2022
3264 Clouds 8 1017 93 10000 2.16 340 00:58 08.06.2022
3265 Clouds 9 1017 94 10000 2.39 341 23:32 07.06.2022
3266 Clouds 9 1018 93 10000 2.44 340 22:51 07.06.2022
3267 Clouds 10 1018 92 10000 2.44 340 22:33 07.06.2022
3268 Clouds 10 1018 90 10000 2.54 337 21:37 07.06.2022
3269 Rain 10 1017 88 10000 3.01 332 21:18 07.06.2022
3270 Clouds 11 1017 85 10000 3.01 332 20:37 07.06.2022
3271 Clouds 12 1016 80 10000 3.2 334 19:51 07.06.2022
3272 Clouds 14 1015 70 10000 3.48 340 18:25 07.06.2022
3273 Clouds 14 1015 73 10000 3.48 340 17:31 07.06.2022
3274 Rain 14 1015 64 10000 3.26 342 16:44 07.06.2022
3275 Clouds 13 1015 86 10000 3.21 342 15:58 07.06.2022
3276 Clouds 14 1015 72 10000 3.21 342 15:36 07.06.2022
3277 Clouds 14 1015 76 10000 3.32 342 15:18 07.06.2022
3278 Rain 14 1015 79 10000 3.32 342 14:42 07.06.2022
3279 Clouds 13 1015 87 9644 3.15 345 13:34 07.06.2022
3280 Clouds 13 1015 85 10000 3.03 345 12:54 07.06.2022
3281 Clouds 12 1015 91 10000 2.9 345 11:51 07.06.2022
3282 Clouds 12 1016 81 10000 2.81 343 10:48 07.06.2022
3283 Rain 11 1017 91 5561 2.82 337 08:53 07.06.2022
3284 Rain 10 1017 95 5060 2.75 335 07:54 07.06.2022
3285 Rain 11 1016 94 5293 2.72 332 06:41 07.06.2022
3286 Clouds 11 1016 95 7986 2.16 324 04:41 07.06.2022
3287 Clouds 12 1018 94 10000 0.84 344 01:27 07.06.2022
3288 Rain 13 1018 90 10000 0.88 4 23:58 06.06.2022
3289 Clouds 14 1019 88 7014 1.35 358 22:54 06.06.2022
3290 Clouds 14 1019 87 7014 1.35 358 22:30 06.06.2022
3291 Clouds 15 1018 93 7532 1.59 336 20:54 06.06.2022
3292 Clouds 17 1018 83 8828 1.01 299 19:29 06.06.2022
3293 Clouds 17 1018 83 8828 1.01 299 18:49 06.06.2022
3294 Clouds 18 1018 78 10000 0.96 293 18:21 06.06.2022
3295 Clouds 19 1017 71 10000 0.55 295 17:26 06.06.2022
3296 Clouds 16 1017 67 10000 0.34 317 16:18 06.06.2022
3297 Clouds 16 1017 60 10000 0.06 175 15:28 06.06.2022
3298 Clouds 20 1017 68 10000 0.3 352 14:30 06.06.2022
3299 Clouds 20 1017 60 10000 0.3 159 13:25 06.06.2022
3300 Clouds 19 1017 62 10000 0.3 159 12:36 06.06.2022
3301 Clouds 19 1018 62 10000 0.41 125 11:53 06.06.2022
3302 Clouds 17 1018 66 10000 0.36 102 10:40 06.06.2022
3303 Clouds 15 1019 75 10000 0.66 11 09:33 06.06.2022
3304 Clouds 12 1019 88 10000 1.54 354 08:32 06.06.2022
3305 Clouds 9 1020 95 10000 1.29 342 07:28 06.06.2022
3306 Clear 10 1020 94 10000 0.93 356 05:18 06.06.2022
3307 Clear 10 1021 92 10000 1.79 339 02:55 06.06.2022
3308 Clouds 11 1022 95 10000 2.37 339 01:18 06.06.2022
3309 Clouds 11 1022 96 10000 2.37 339 00:38 06.06.2022
3310 Clouds 11 1021 95 10000 2.6 333 23:33 05.06.2022
3311 Clouds 11 1021 95 10000 2.58 333 22:45 05.06.2022
3312 Clouds 11 1021 95 10000 2.58 333 22:45 05.06.2022
3313 Clouds 12 1020 93 10000 2.92 334 20:46 05.06.2022
3314 Clouds 13 1019 93 5981 3.49 334 19:38 05.06.2022
3315 Clouds 14 1016 91 6541 1.93 303 18:29 05.06.2022
3316 Clouds 13 1016 94 6541 1.93 303 17:51 05.06.2022
3317 Clouds 12 1016 79 5733 1.21 294 17:25 05.06.2022
3318 Clouds 12 1016 79 5733 1.21 294 16:49 05.06.2022
3319 Clouds 12 1016 79 5733 1.21 294 16:30 05.06.2022
3320 Rain 15 1016 85 8072 1.65 185 14:24 05.06.2022
3321 Clouds 17 1017 73 8937 2.12 169 12:49 05.06.2022
3322 Clouds 17 1017 72 8012 2.26 166 11:43 05.06.2022
3323 Clouds 16 1017 71 10000 2.25 158 10:33 05.06.2022
3324 Clear 16 1017 72 10000 2.44 159 09:59 05.06.2022
3325 Clouds 14 1018 85 10000 2.58 167 08:28 05.06.2022
3326 Clouds 15 1018 81 10000 2.98 166 07:41 05.06.2022
3327 Clouds 13 1019 86 10000 2.99 155 05:21 05.06.2022
3328 Clouds 13 1020 84 10000 3.04 150 03:43 05.06.2022
3329 Clouds 14 1021 86 10000 2.59 158 01:32 05.06.2022
3330 Clouds 14 1021 87 10000 1.73 152 00:29 05.06.2022
3331 Clouds 16 1020 79 10000 3.02 170 21:58 04.06.2022
3332 Clouds 19 1020 73 10000 2.5 162 20:31 04.06.2022
3333 Rain 20 1019 72 10000 1.33 186 18:19 04.06.2022
3334 Clouds 21 1019 64 10000 1.48 179 16:44 04.06.2022
3335 Clouds 22 1019 61 10000 1.17 179 16:18 04.06.2022
3336 Clouds 22 1019 60 10000 1.16 178 14:53 04.06.2022
3337 Clouds 22 1019 57 10000 1.09 157 12:35 04.06.2022
3338 Clouds 20 1019 69 10000 1.46 164 11:18 04.06.2022
3339 Clouds 19 1019 71 10000 1.42 164 10:43 04.06.2022
3340 Clouds 17 1020 80 10000 1.61 161 09:42 04.06.2022
3341 Clouds 15 1020 88 10000 1.26 156 08:41 04.06.2022
3342 Clouds 14 1020 74 10000 1.54 161 07:41 04.06.2022
3343 Clouds 9 1020 94 10000 1.35 158 05:29 04.06.2022
3344 Clouds 9 1022 94 10000 1.64 166 01:27 04.06.2022
3345 Clouds 10 1022 94 10000 1.63 171 23:59 03.06.2022
3346 Clouds 11 1021 93 10000 2.2 172 22:40 03.06.2022
3347 Clouds 13 1021 92 10000 2.39 167 21:30 03.06.2022
3348 Clouds 14 1021 93 10000 1.83 167 20:37 03.06.2022
3349 Clouds 14 1021 93 10000 1.83 167 20:37 03.06.2022
3350 Clouds 14 1020 93 10000 1.03 168 18:28 03.06.2022
3351 Clouds 14 1020 92 10000 0.95 152 16:49 03.06.2022
3352 Rain 14 1020 94 10000 1.16 186 15:37 03.06.2022
3353 Rain 17 1019 76 7954 3.04 159 13:28 03.06.2022
3354 Clouds 18 1019 80 7708 3.23 165 11:40 03.06.2022
3355 Clouds 17 1019 71 10000 3.32 162 09:50 03.06.2022
3356 Clouds 15 1020 88 10000 3.31 170 09:24 03.06.2022
3357 Clouds 11 1020 85 8708 2.88 170 07:27 03.06.2022
3358 Rain 12 1020 82 8708 2.88 170 06:39 03.06.2022
3359 Clouds 11 1020 82 10000 2.84 169 06:20 03.06.2022
3360 Clouds 12 1020 85 10000 1.94 167 01:23 03.06.2022
3361 Clouds 13 1020 86 10000 1.52 190 23:31 02.06.2022
3362 Clouds 14 1020 83 10000 1.67 180 21:57 02.06.2022
3363 Clouds 16 1019 73 10000 1.38 196 20:25 02.06.2022
3364 Clouds 18 1019 58 10000 1.38 196 19:52 02.06.2022
3365 Clouds 18 1018 81 10000 1.04 145 19:33 02.06.2022
3366 Clouds 19 1018 63 7063 0.46 234 17:58 02.06.2022
3367 Clouds 19 1018 70 10000 0.38 216 16:28 02.06.2022
3368 Clouds 19 1018 66 10000 0.05 224 14:34 02.06.2022
3369 Clouds 18 1019 67 10000 0.4 335 13:30 02.06.2022
3370 Clouds 17 1018 68 7564 1.17 263 12:42 02.06.2022
3371 Clouds 16 1018 81 10000 1.31 197 10:31 02.06.2022
3372 Clouds 13 1018 92 10000 1.52 197 09:28 02.06.2022
3373 Clouds 11 1018 95 10000 1.27 229 08:29 02.06.2022
3374 Clouds 10 1018 96 10000 1.27 229 07:48 02.06.2022
3375 Clouds 9 1019 95 10000 1.97 239 05:33 02.06.2022
3376 Rain 9 1019 96 10000 1.89 221 03:48 02.06.2022
3377 Rain 10 1019 95 10000 1.12 256 00:31 02.06.2022
3378 Clouds 10 1019 94 10000 1.34 190 22:55 01.06.2022
3379 Clouds 10 1018 89 10000 1.39 198 21:45 01.06.2022
3380 Rain 10 1018 87 10000 1.53 182 21:20 01.06.2022
3381 Rain 11 1018 94 10000 1.53 182 20:38 01.06.2022
3382 Rain 11 1018 93 10000 1.57 187 19:48 01.06.2022
3383 Rain 12 1018 88 5497 2.73 260 18:19 01.06.2022
3384 Rain 12 1018 75 10000 1.73 240 16:46 01.06.2022
3385 Rain 14 1017 69 10000 2.43 252 15:39 01.06.2022
3386 Clouds 16 1016 75 10000 1.83 236 14:31 01.06.2022
3387 Clouds 17 1015 49 10000 0.62 221 12:42 01.06.2022
3388 Clear 14 1016 71 10000 0.88 210 10:37 01.06.2022
3389 Clear 12 1016 79 10000 0.32 266 09:26 01.06.2022
3390 Clouds 8 1017 92 10000 0.91 306 07:56 01.06.2022
3391 Clouds 7 1017 92 10000 0.76 293 06:41 01.06.2022
3392 Clouds 8 1018 95 10000 1.5 317 01:44 01.06.2022
3393 Clouds 8 1018 95 10000 0.97 285 23:47 31.05.2022
3394 Rain 9 1018 94 10000 0.73 279 22:38 31.05.2022
3395 Rain 9 1018 94 10000 0.73 279 22:38 31.05.2022
3396 Rain 9 1018 93 8916 0.98 277 21:46 31.05.2022
3397 Rain 9 1017 92 6620 1.85 311 20:57 31.05.2022
3398 Rain 9 1017 92 6620 1.85 311 20:33 31.05.2022
3399 Rain 10 1015 84 4636 1.46 277 18:57 31.05.2022
3400 Rain 10 1014 90 6848 0.4 198 17:51 31.05.2022
3401 Rain 12 1014 67 6848 0.4 198 17:31 31.05.2022
3402 Clouds 14 1013 60 10000 1.11 198 15:42 31.05.2022
3403 Clouds 14 1013 53 10000 1.43 178 14:36 31.05.2022
3404 Clouds 14 1014 55 10000 1.62 198 12:39 31.05.2022
3405 Rain 13 1014 78 8494 1.65 198 12:18 31.05.2022
3406 Clouds 10 1014 84 4999 2 175 09:50 31.05.2022
3407 Clouds 7 1015 84 10000 2.28 169 07:41 31.05.2022
3408 Clouds 7 1015 84 10000 2.28 169 07:41 31.05.2022
3409 Clouds 6 1016 86 10000 2.51 180 05:25 31.05.2022
3410 Clouds 6 1016 90 10000 2.59 177 02:51 31.05.2022
3411 Clouds 6 1015 91 10000 2.04 185 23:29 30.05.2022
3412 Clouds 7 1015 91 10000 2.04 185 23:00 30.05.2022
3413 Clouds 7 1015 87 10000 2.04 185 22:31 30.05.2022
3414 Clouds 8 1015 86 10000 1.6 175 21:35 30.05.2022
3415 Clouds 9 1013 83 10000 1.2 148 20:41 30.05.2022
3416 Clouds 11 1013 93 10000 1.17 124 19:38 30.05.2022
3417 Clouds 9 1013 97 2164 0.97 40 17:44 30.05.2022
3418 Clouds 12 1012 99 46 1.37 17 17:18 30.05.2022
3419 Clouds 8 1012 99 64 1.58 360 15:44 30.05.2022
3420 Clouds 10 1011 98 43 0.19 181 12:58 30.05.2022
3421 Clouds 7 1009 95 54 0.35 156 11:26 30.05.2022
3422 Clouds 8 1009 73 881 0.43 186 09:39 30.05.2022
3423 Clouds 5 1010 86 10000 0.69 196 07:29 30.05.2022
3424 Clouds 4 1010 89 10000 0.77 183 05:52 30.05.2022
3425 Clouds 5 1009 88 10000 1.39 166 03:18 30.05.2022
3426 Clouds 5 1011 86 10000 0.62 120 23:32 29.05.2022
3427 Clouds 5 1011 85 10000 0.82 50 22:40 29.05.2022
3428 Clouds 6 1011 82 10000 1.4 20 21:44 29.05.2022
3429 Clouds 8 1010 74 9234 2.55 349 20:18 29.05.2022
3430 Clouds 8 1009 72 9309 2.99 347 19:28 29.05.2022
3431 Clouds 8 1009 70 9305 3.32 344 17:56 29.05.2022
3432 Rain 9 1008 69 8506 3.52 341 15:59 29.05.2022
3433 Rain 9 1008 66 8506 3.52 341 15:40 29.05.2022
3434 Clouds 10 1008 61 9533 3.47 339 14:44 29.05.2022
3435 Clouds 8 1009 92 860 2.79 340 12:21 29.05.2022
3436 Clouds 6 1009 86 2771 2.59 342 10:56 29.05.2022
3437 Clouds 5 1009 88 3392 2.44 345 09:54 29.05.2022
3438 Clouds 5 1010 90 10000 2.35 339 07:42 29.05.2022
3439 Clouds 6 1012 93 10000 1.6 334 04:51 29.05.2022
3440 Clouds 6 1012 85 10000 1.6 334 04:31 29.05.2022
3441 Clouds 7 1013 89 10000 2 357 00:48 29.05.2022
3442 Clouds 7 1014 78 10000 2.48 352 23:42 28.05.2022
3443 Clouds 8 1014 76 10000 2.57 352 23:18 28.05.2022
3444 Clouds 9 1014 74 10000 2.86 351 21:46 28.05.2022
3445 Clouds 8 1014 89 10000 3.31 348 20:40 28.05.2022
3446 Clouds 11 1013 68 10000 3.9 345 19:19 28.05.2022
3447 Clouds 12 1013 61 10000 3.93 348 18:19 28.05.2022
3448 Clouds 12 1013 76 10000 3.69 352 16:57 28.05.2022
3449 Clouds 12 1014 74 10000 3.5 350 15:45 28.05.2022
3450 Clouds 13 1014 62 10000 3.37 348 15:19 28.05.2022
3451 Clouds 13 1015 62 10000 3.53 341 13:27 28.05.2022
3452 Clouds 13 1015 62 10000 3.53 341 13:27 28.05.2022
3453 Clouds 13 1015 62 10000 3.53 341 12:42 28.05.2022
3454 Clouds 11 1017 90 3113 3.65 342 11:28 28.05.2022
3455 Clouds 11 1017 90 3113 3.65 342 10:32 28.05.2022
3456 Clouds 10 1017 92 3071 3.8 342 09:39 28.05.2022
3457 Clouds 9 1017 89 10000 3.75 340 07:53 28.05.2022
3458 Clouds 9 1018 90 10000 3.65 340 06:32 28.05.2022
3459 Clouds 10 1018 88 10000 3.45 337 04:39 28.05.2022
3460 Clouds 11 1020 83 10000 2.92 340 01:30 28.05.2022
3461 Clouds 12 1021 77 10000 2.88 335 23:53 27.05.2022
3462 Clouds 13 1022 72 10000 3.2 336 22:32 27.05.2022
3463 Clouds 13 1021 89 10000 3.29 338 20:59 27.05.2022
3464 Clouds 14 1021 89 10000 3.29 338 20:40 27.05.2022
3465 Clouds 17 1020 80 10000 3.44 337 19:56 27.05.2022
3466 Clouds 17 1020 59 10000 3.39 338 19:34 27.05.2022
3467 Clouds 18 1019 73 10000 3.6 339 18:41 27.05.2022
3468 Clouds 19 1019 64 10000 3.77 335 16:42 27.05.2022
3469 Clouds 19 1020 60 10000 3.62 337 15:46 27.05.2022
3470 Clouds 20 1020 52 10000 3.2 338 14:45 27.05.2022
3471 Clouds 20 1020 58 10000 2.76 336 13:35 27.05.2022
3472 Clouds 18 1021 75 10000 2.53 332 11:48 27.05.2022
3473 Clouds 17 1022 76 10000 2.27 330 11:26 27.05.2022
3474 Clouds 15 1022 82 10000 2.27 330 10:35 27.05.2022
3475 Clouds 13 1022 87 10000 1.95 330 09:42 27.05.2022
3476 Clouds 11 1023 91 10000 1.7 328 08:48 27.05.2022
3477 Clouds 9 1023 88 10000 1.73 324 06:50 27.05.2022
3478 Clouds 11 1023 91 10000 0.84 221 02:56 27.05.2022
3479 Clouds 12 1024 90 10000 0.23 331 00:54 27.05.2022
3480 Clouds 13 1025 86 10000 0.35 145 22:50 26.05.2022
3481 Clouds 13 1025 81 10000 0.55 79 21:45 26.05.2022
3482 Clouds 14 1024 78 10000 0.96 27 20:59 26.05.2022
3483 Clouds 16 1023 69 10000 1.63 348 19:29 26.05.2022
3484 Clouds 15 1023 78 10000 1.47 346 18:24 26.05.2022
3485 Clouds 15 1022 70 10000 1.19 345 16:58 26.05.2022
3486 Clouds 17 1022 66 10000 1.08 345 15:52 26.05.2022
3487 Clouds 16 1022 65 10000 0.77 349 15:18 26.05.2022
3488 Clouds 18 1022 64 10000 0.83 341 13:45 26.05.2022
3489 Clouds 16 1023 73 10000 0.62 334 11:38 26.05.2022
3490 Clouds 14 1023 75 10000 0.51 0 10:37 26.05.2022
3491 Clouds 11 1023 77 10000 1.11 358 09:37 26.05.2022
3492 Clouds 9 1023 89 10000 1.54 353 08:38 26.05.2022
3493 Clouds 7 1023 92 10000 1.77 345 05:24 26.05.2022
3494 Clouds 9 1023 92 10000 1.58 340 01:24 26.05.2022
3495 Clouds 9 1023 90 10000 1.57 350 23:41 25.05.2022
3496 Clouds 10 1022 89 10000 1.82 352 22:48 25.05.2022
3497 Clouds 11 1021 86 10000 2 354 21:37 25.05.2022
3498 Clouds 11 1020 81 10000 1.86 359 20:39 25.05.2022
3499 Clouds 12 1019 79 10000 2.02 356 19:31 25.05.2022
3500 Clouds 13 1018 75 10000 2.13 359 18:20 25.05.2022
3501 Clouds 13 1017 75 10000 2.16 357 16:41 25.05.2022
3502 Clouds 13 1017 73 10000 2.3 355 15:58 25.05.2022
3503 Clouds 14 1016 77 10000 2.31 358 14:56 25.05.2022
3504 Clouds 12 1016 69 10000 2.3 359 14:33 25.05.2022
3505 Clouds 15 1016 69 10000 1.9 11 13:58 25.05.2022
3506 Clouds 13 1017 74 10000 1.89 14 12:48 25.05.2022
3507 Clouds 10 1017 89 10000 1.97 16 10:58 25.05.2022
3508 Clouds 9 1017 94 10000 1.83 18 10:22 25.05.2022
3509 Clouds 8 1017 96 3779 1.88 5 08:45 25.05.2022
3510 Clouds 7 1016 97 42 2.47 344 07:23 25.05.2022
3511 Clouds 7 1014 96 62 2.68 346 05:23 25.05.2022
3512 Clouds 8 1014 95 471 2.11 354 00:31 25.05.2022
3513 Rain 8 1013 96 1340 2.55 346 23:47 24.05.2022
3514 Rain 8 1013 95 1060 2.73 7 22:52 24.05.2022
3515 Rain 8 1012 95 1079 1.66 4 21:46 24.05.2022
3516 Clouds 9 1011 94 2079 2.73 353 21:21 24.05.2022
3517 Clouds 8 1011 94 2079 2.73 353 20:38 24.05.2022
3518 Rain 9 1011 98 1031 2.58 358 18:57 24.05.2022
3519 Clouds 9 1009 92 1083 1.74 358 17:19 24.05.2022
3520 Clouds 10 1010 91 1696 0.77 339 16:28 24.05.2022
3521 Clouds 12 1009 91 2079 1.03 303 15:20 24.05.2022
3522 Clouds 12 1009 91 2079 1.03 303 14:34 24.05.2022
3523 Clouds 11 1010 97 2198 0.65 343 13:34 24.05.2022
3524 Clouds 11 1009 94 252 0.37 31 11:53 24.05.2022
3525 Clouds 10 1008 95 98 0.41 209 09:49 24.05.2022
3526 Clouds 10 1008 96 132 0.46 245 08:51 24.05.2022
3527 Clouds 10 1008 96 2619 1.16 198 07:30 24.05.2022
3528 Clouds 10 1007 96 1041 1.57 194 05:59 24.05.2022
3529 Clouds 11 1007 96 3686 1.22 161 02:58 24.05.2022
3530 Clouds 11 1007 96 5464 1.33 162 01:44 24.05.2022
3531 Clouds 11 1008 96 421 0.93 148 23:59 23.05.2022
3532 Rain 12 1008 95 2449 1.16 200 22:22 23.05.2022
3533 Rain 12 1008 94 2449 1.16 200 21:42 23.05.2022
3534 Clouds 12 1007 94 7341 1.29 198 20:45 23.05.2022
3535 Rain 12 1007 93 4749 1.35 194 19:47 23.05.2022
3536 Rain 13 1006 92 8569 1.79 191 19:18 23.05.2022
3537 Clouds 13 1006 91 8569 1.79 191 18:40 23.05.2022
3538 Rain 15 1005 87 10000 3.19 176 17:56 23.05.2022
3539 Clouds 16 1006 81 8431 3.51 171 15:55 23.05.2022
3540 Clouds 21 1006 66 10000 3.72 157 13:56 23.05.2022
3541 Clouds 19 1007 59 10000 2.51 158 11:41 23.05.2022
3542 Clouds 20 1008 56 10000 2.75 167 10:45 23.05.2022
3543 Rain 18 1008 70 10000 2.72 167 09:47 23.05.2022
3544 Clouds 15 1009 84 10000 2.51 167 08:46 23.05.2022
3545 Clouds 13 1011 86 10000 1.38 210 06:49 23.05.2022
3546 Clouds 11 1011 86 10000 1.38 210 06:31 23.05.2022
3547 Clouds 12 1012 91 10000 2.5 200 02:55 23.05.2022
3548 Clouds 11 1014 92 10000 2.86 195 01:50 23.05.2022
3549 Clouds 12 1014 92 10000 3.17 188 01:26 23.05.2022
3550 Rain 13 1014 93 10000 2 253 22:49 22.05.2022
3551 Clouds 13 1014 92 10000 2.17 210 22:22 22.05.2022
3552 Clouds 13 1014 91 10000 2.17 210 21:51 22.05.2022
3553 Rain 14 1015 91 10000 1.73 212 20:43 22.05.2022
3554 Rain 15 1015 87 3548 1.3 147 20:20 22.05.2022
3555 Rain 18 1013 78 7726 2.44 289 19:19 22.05.2022
3556 Rain 16 1013 79 7726 2.44 289 18:46 22.05.2022
3557 Clouds 22 1011 43 10000 0.51 271 18:21 22.05.2022
3558 Clouds 20 1012 46 10000 1.28 268 16:51 22.05.2022
3559 Clouds 23 1013 40 10000 1.47 301 15:25 22.05.2022
3560 Clouds 24 1013 41 10000 1.47 301 14:47 22.05.2022
3561 Clouds 22 1014 66 10000 1.43 315 12:55 22.05.2022
3562 Clouds 22 1014 62 10000 1.43 315 12:33 22.05.2022
3563 Clouds 19 1015 72 10000 1.16 306 10:53 22.05.2022
3564 Clouds 17 1016 79 10000 1.39 317 09:31 22.05.2022
3565 Clouds 15 1017 63 10000 1.76 313 07:52 22.05.2022
3566 Clouds 11 1017 89 10000 1.61 297 07:20 22.05.2022
3567 Clouds 10 1018 89 10000 1.74 290 04:30 22.05.2022
3568 Clouds 12 1021 88 10000 1.73 299 01:19 22.05.2022
3569 Clouds 12 1021 87 10000 1.59 296 23:57 21.05.2022
3570 Clouds 13 1021 85 10000 1.59 296 23:32 21.05.2022
3571 Clouds 15 1021 80 10000 1.68 306 21:59 21.05.2022
3572 Clouds 16 1021 82 10000 1.68 306 21:39 21.05.2022
3573 Clouds 16 1021 83 10000 1.87 313 20:48 21.05.2022
3574 Clouds 19 1021 76 10000 2.25 330 19:59 21.05.2022
3575 Clouds 20 1020 68 10000 2.73 329 19:21 21.05.2022
3576 Clouds 17 1020 63 10000 2.91 331 17:35 21.05.2022
3577 Clouds 21 1020 55 10000 2.86 329 15:37 21.05.2022
3578 Clouds 17 1020 52 10000 2.73 330 14:36 21.05.2022
3579 Clouds 22 1021 54 10000 2.66 333 13:36 21.05.2022
3580 Clouds 21 1021 70 10000 2.53 333 12:40 21.05.2022
3581 Clouds 20 1022 75 10000 2.44 334 11:52 21.05.2022
3582 Clouds 17 1023 80 10000 2.54 336 10:22 21.05.2022
3583 Clouds 15 1023 87 10000 2.37 335 09:20 21.05.2022
3584 Clouds 14 1023 87 10000 2.37 335 08:47 21.05.2022
3585 Clouds 13 1024 85 10000 2.44 325 06:22 21.05.2022
3586 Clouds 14 1025 78 10000 1.83 303 02:24 21.05.2022
3587 Clouds 15 1025 77 10000 1.51 234 23:45 20.05.2022
3588 Clouds 16 1025 77 10000 1.87 180 22:41 20.05.2022
3589 Clouds 16 1025 76 10000 1.17 230 22:22 20.05.2022
3590 Clouds 17 1024 82 10000 2.05 194 21:27 20.05.2022
3591 Clouds 19 1024 82 10000 2.05 194 20:51 20.05.2022
3592 Rain 20 1023 73 10000 2.91 169 19:55 20.05.2022
3593 Clouds 21 1024 67 10000 2.3 176 18:58 20.05.2022
3594 Clouds 22 1023 59 10000 1.69 198 18:27 20.05.2022
3595 Clouds 23 1023 53 10000 2.19 178 16:49 20.05.2022
3596 Clouds 23 1023 47 10000 2.89 172 15:55 20.05.2022
3597 Clouds 23 1023 47 10000 2.89 172 15:32 20.05.2022
3598 Clouds 23 1024 45 10000 3.1 168 14:28 20.05.2022
3599 Clouds 22 1024 45 10000 2.79 170 13:31 20.05.2022
3600 Clouds 21 1026 54 10000 2.4 178 10:48 20.05.2022
3601 Clouds 19 1026 52 10000 2.38 178 09:50 20.05.2022
3602 Clouds 16 1027 71 10000 2.36 178 08:38 20.05.2022
3603 Clouds 11 1027 81 10000 1.86 183 06:45 20.05.2022
3604 Clouds 9 1027 81 10000 1.59 194 05:53 20.05.2022
3605 Clouds 11 1028 82 10000 1.8 197 02:53 20.05.2022
3606 Clouds 12 1029 83 10000 0.96 190 23:47 19.05.2022
3607 Clouds 12 1029 82 10000 1.56 202 22:44 19.05.2022
3608 Clouds 13 1028 82 10000 2.18 181 21:52 19.05.2022
3609 Clouds 13 1028 84 10000 2.15 188 21:24 19.05.2022
3610 Clouds 14 1028 84 10000 2.15 188 20:54 19.05.2022
3611 Clouds 14 1027 82 10000 2.2 181 20:20 19.05.2022
3612 Rain 15 1027 63 10000 1.55 215 19:25 19.05.2022
3613 Clouds 15 1027 82 10000 1.92 226 17:47 19.05.2022
3614 Clouds 18 1027 77 10000 2.32 202 16:22 19.05.2022
3615 Rain 16 1026 75 10000 1.9 173 14:50 19.05.2022
3616 Clouds 17 1026 73 10000 1.18 147 14:21 19.05.2022
3617 Clouds 20 1026 72 10000 1.29 177 12:20 19.05.2022
3618 Clouds 17 1026 77 10000 1.88 179 10:35 19.05.2022
3619 Clouds 12 1027 89 8827 2.55 177 08:57 19.05.2022
3620 Clouds 14 1027 85 10000 2.96 177 07:41 19.05.2022
3621 Clouds 13 1026 82 8434 3.19 177 04:38 19.05.2022
3622 Clouds 13 1026 80 10000 3.4 177 01:38 19.05.2022
3623 Clouds 14 1026 77 10000 3.27 177 23:49 18.05.2022
3624 Clouds 13 1026 94 9440 3.3 175 22:45 18.05.2022
3625 Clouds 14 1025 92 9127 3.16 177 21:47 18.05.2022
3626 Clouds 18 1024 89 10000 2.75 177 21:24 18.05.2022
3627 Clouds 18 1023 84 10000 1.68 168 20:23 18.05.2022
3628 Clouds 20 1023 86 10000 2.44 168 19:32 18.05.2022
3629 Clouds 21 1022 67 10000 1.21 166 18:20 18.05.2022
3630 Clouds 21 1022 67 10000 1.21 166 17:41 18.05.2022
3631 Clouds 21 1022 64 10000 0.93 159 17:22 18.05.2022
3632 Clouds 20 1022 60 10000 0.6 169 15:59 18.05.2022
3633 Clouds 20 1022 60 10000 0.6 169 15:38 18.05.2022
3634 Clouds 19 1022 58 10000 0.51 152 14:30 18.05.2022
3635 Clouds 19 1022 58 10000 0.51 152 14:30 18.05.2022
3636 Clouds 19 1023 60 10000 0.92 116 12:59 18.05.2022
3637 Clouds 19 1023 60 10000 0.92 116 12:39 18.05.2022
3638 Clouds 16 1023 63 10000 0.76 87 11:33 18.05.2022
3639 Clouds 15 1024 68 9897 0.81 57 10:49 18.05.2022
3640 Clouds 13 1025 88 10000 0.96 332 08:27 18.05.2022
3641 Clear 11 1024 90 10000 1.62 330 07:28 18.05.2022
3642 Clouds 11 1023 86 10000 1.93 325 04:33 18.05.2022
3643 Clouds 12 1023 83 10000 1.8 329 00:52 18.05.2022
3644 Clouds 12 1023 82 10000 1.64 330 00:18 18.05.2022
3645 Clouds 16 1022 89 10000 2.51 331 21:24 17.05.2022
3646 Clouds 16 1022 89 10000 2.51 331 20:57 17.05.2022
3647 Clouds 17 1021 83 10000 2.58 339 19:45 17.05.2022
3648 Clouds 18 1020 61 10000 2.84 341 19:25 17.05.2022
3649 Clouds 20 1020 56 10000 2.83 339 17:49 17.05.2022
3650 Clouds 19 1020 54 10000 2.63 339 16:58 17.05.2022
3651 Clouds 20 1020 50 10000 2.39 338 16:29 17.05.2022
3652 Clouds 18 1020 53 10000 2.31 341 15:24 17.05.2022
3653 Clouds 18 1020 53 10000 2.31 341 14:30 17.05.2022
3654 Clouds 18 1020 53 10000 2.31 341 14:30 17.05.2022
3655 Clouds 17 1021 54 10000 2.21 342 13:31 17.05.2022
3656 Clouds 16 1022 65 10000 2.21 345 11:21 17.05.2022
3657 Clouds 13 1023 77 10000 2 340 09:23 17.05.2022
3658 Clouds 10 1023 87 10000 1.6 331 07:59 17.05.2022
3659 Clouds 8 1023 92 10000 1.26 333 06:36 17.05.2022
3660 Clouds 9 1024 95 10000 1.58 326 02:27 17.05.2022
3661 Clouds 10 1024 93 10000 2.1 329 00:32 17.05.2022
3662 Rain 11 1024 92 10000 2.3 322 22:42 16.05.2022
3663 Rain 11 1024 91 10000 2.11 322 21:36 16.05.2022
3664 Rain 12 1023 89 10000 1.84 337 20:46 16.05.2022
3665 Rain 12 1022 87 10000 1.92 346 19:22 16.05.2022
3666 Clouds 14 1022 77 10000 1.3 12 17:58 16.05.2022
3667 Rain 13 1022 83 8012 1.75 288 15:49 16.05.2022
3668 Rain 16 1021 72 7521 1.28 16 13:49 16.05.2022
3669 Clouds 18 1021 70 6921 0.99 45 12:50 16.05.2022
3670 Clouds 17 1021 61 8760 0.38 39 10:52 16.05.2022
3671 Clouds 15 1020 70 10000 0.44 194 08:55 16.05.2022
3672 Clouds 11 1020 88 10000 0.97 141 06:33 16.05.2022
3673 Clouds 11 1020 90 10000 1.33 229 02:38 16.05.2022
3674 Rain 10 1021 90 7348 1.37 190 23:19 15.05.2022
3675 Rain 11 1021 88 7326 1.82 193 22:29 15.05.2022
3676 Rain 12 1021 86 7326 1.82 193 21:39 15.05.2022
3677 Rain 14 1020 73 10000 1.79 175 20:53 15.05.2022
3678 Rain 16 1018 83 7166 1.58 187 19:24 15.05.2022
3679 Clouds 20 1018 75 9916 1.57 176 17:48 15.05.2022
3680 Clouds 20 1017 65 10000 1.28 154 15:44 15.05.2022
3681 Clouds 21 1018 51 10000 1.39 166 13:50 15.05.2022
3682 Clouds 18 1019 65 10000 1.66 167 12:23 15.05.2022
3683 Clouds 17 1019 65 10000 1.66 167 11:38 15.05.2022
3684 Clouds 17 1019 65 10000 1.66 167 11:38 15.05.2022
3685 Clouds 17 1019 65 10000 1.66 167 11:38 15.05.2022
3686 Clouds 17 1019 75 10000 1.81 169 10:23 15.05.2022
3687 Clouds 11 1020 85 10000 1.68 178 07:46 15.05.2022
3688 Clouds 10 1020 85 10000 1.79 189 06:57 15.05.2022
3689 Clouds 9 1020 87 10000 1.86 191 04:44 15.05.2022
3690 Clouds 11 1021 83 10000 1.17 176 00:48 15.05.2022
3691 Clouds 10 1021 87 10000 0.73 164 23:38 14.05.2022
3692 Clouds 11 1021 88 10000 0.35 116 22:45 14.05.2022
3693 Clouds 14 1021 87 10000 0.92 4 21:27 14.05.2022
3694 Clouds 16 1021 65 10000 0.92 4 20:32 14.05.2022
3695 Clouds 18 1020 59 10000 1.86 353 19:21 14.05.2022
3696 Clouds 18 1020 59 10000 1.86 353 19:21 14.05.2022
3697 Clouds 17 1020 72 10000 1.86 353 18:59 14.05.2022
3698 Clouds 17 1019 69 10000 2.01 349 17:54 14.05.2022
3699 Clouds 17 1019 67 10000 2.11 344 16:32 14.05.2022
3700 Clouds 17 1020 65 10000 1.89 337 14:58 14.05.2022
3701 Clouds 16 1020 65 10000 1.89 337 14:30 14.05.2022
3702 Clouds 15 1020 62 10000 0.72 332 12:23 14.05.2022
3703 Clouds 14 1020 66 10000 0.58 351 10:53 14.05.2022
3704 Clouds 13 1021 76 10000 0.71 354 10:20 14.05.2022
3705 Clouds 15 1021 76 10000 0.71 354 09:51 14.05.2022
3706 Clouds 13 1021 80 10000 0.97 344 08:46 14.05.2022
3707 Clouds 9 1022 88 10000 0.93 315 05:43 14.05.2022
3708 Clouds 11 1022 93 10000 1.36 333 01:58 14.05.2022
3709 Clouds 12 1023 94 10000 1.1 320 23:32 13.05.2022
3710 Clouds 12 1023 96 10000 1.04 322 22:57 13.05.2022
3711 Clouds 12 1023 97 9771 1.23 331 22:23 13.05.2022
3712 Clouds 12 1023 97 9771 1.23 331 21:38 13.05.2022
3713 Clouds 12 1023 97 8301 1.69 333 20:44 13.05.2022
3714 Clouds 12 1022 97 4658 2.21 341 20:23 13.05.2022
3715 Clouds 14 1022 93 5116 2.29 342 19:21 13.05.2022
3716 Clouds 13 1021 88 8368 2.22 345 17:50 13.05.2022
3717 Clouds 14 1021 84 10000 1.92 342 17:27 13.05.2022
3718 Clouds 15 1021 83 10000 1.83 337 16:18 13.05.2022
3719 Clouds 15 1021 83 7278 1.66 337 14:54 13.05.2022
3720 Clouds 15 1022 85 10000 1.55 325 13:27 13.05.2022
3721 Clouds 15 1022 88 7172 1.84 331 12:25 13.05.2022
3722 Clouds 15 1022 90 4704 1.79 323 10:46 13.05.2022
3723 Clouds 12 1022 92 5166 1.04 320 09:31 13.05.2022
3724 Clouds 12 1023 98 2202 0.47 317 08:23 13.05.2022
3725 Clouds 11 1023 88 2202 0.47 317 07:42 13.05.2022
3726 Clouds 10 1023 96 9696 1.36 310 05:59 13.05.2022
3727 Rain 10 1023 95 7430 1.23 310 02:43 13.05.2022
3728 Clouds 12 1024 94 10000 1.38 227 23:46 12.05.2022
3729 Clouds 13 1025 95 4739 1.14 238 22:44 12.05.2022
3730 Clouds 14 1025 96 3374 1.15 243 21:54 12.05.2022
3731 Clouds 17 1023 98 153 1.11 262 20:25 12.05.2022
3732 Clouds 19 1023 97 231 1.31 288 18:41 12.05.2022
3733 Clouds 20 1022 94 363 1.39 292 16:58 12.05.2022
3734 Clouds 20 1022 93 229 1.08 278 15:50 12.05.2022
3735 Clouds 18 1022 93 320 0.64 247 14:20 12.05.2022
3736 Clouds 17 1023 96 35 0.67 216 13:24 12.05.2022
3737 Clouds 15 1023 97 26 0.59 231 10:43 12.05.2022
3738 Clouds 11 1023 98 52 0.56 255 09:19 12.05.2022
3739 Clouds 10 1023 98 52 0.56 255 08:41 12.05.2022
3740 Clouds 10 1023 81 10000 0.95 252 07:37 12.05.2022
3741 Clouds 6 1024 85 10000 1.06 235 05:32 12.05.2022
3742 Clouds 8 1024 91 10000 1.66 220 02:49 12.05.2022
3743 Clouds 9 1024 94 10000 2.21 198 00:32 12.05.2022
3744 Clouds 11 1024 98 8209 2.51 193 22:33 11.05.2022
3745 Clouds 13 1024 99 1674 2.43 195 21:33 11.05.2022
3746 Clouds 15 1023 99 531 2.43 196 20:53 11.05.2022
3747 Clouds 20 1022 98 36 2.28 193 18:24 11.05.2022
3748 Clouds 20 1021 96 37 2.35 188 16:50 11.05.2022
3749 Clouds 18 1021 96 37 2.28 181 14:51 11.05.2022
3750 Clouds 18 1022 96 47 2.22 181 14:26 11.05.2022
3751 Clouds 18 1022 96 48 2.18 182 13:51 11.05.2022
3752 Clouds 17 1022 96 29 2.09 190 11:51 11.05.2022
3753 Clouds 13 1022 97 23 2.15 188 10:27 11.05.2022
3754 Clouds 9 1023 98 92 2.08 192 08:33 11.05.2022
3755 Clouds 4 1024 84 10000 1.17 232 05:19 11.05.2022
3756 Clouds 9 1024 91 10000 0.84 255 00:42 11.05.2022
3757 Clouds 10 1025 91 10000 0.93 284 22:30 10.05.2022
3758 Clouds 11 1025 90 10000 0.95 280 21:55 10.05.2022
3759 Clouds 14 1025 92 10000 0.9 278 20:54 10.05.2022
3760 Clouds 16 1024 99 55 1.09 281 19:26 10.05.2022
3761 Clouds 17 1023 98 1633 1.11 290 17:49 10.05.2022
3762 Clouds 17 1023 96 47 1.01 290 16:56 10.05.2022
3763 Clouds 16 1023 96 1624 0.35 273 14:48 10.05.2022
3764 Clouds 13 1024 96 38 0.53 282 12:39 10.05.2022
3765 Clouds 12 1024 97 25 0.52 256 11:49 10.05.2022
3766 Clouds 12 1024 97 23 0.69 269 11:18 10.05.2022
3767 Clouds 9 1024 98 23 0.72 263 09:59 10.05.2022
3768 Clear 8 1024 98 89 0.72 241 09:25 10.05.2022
3769 Clear 6 1026 88 10000 0.96 246 06:46 10.05.2022
3770 Clear 5 1028 85 10000 1.29 239 03:29 10.05.2022
3771 Clouds 5 1028 85 10000 1.33 227 00:34 10.05.2022
3772 Clouds 8 1028 89 10000 1.2 234 22:44 09.05.2022
3773 Clouds 9 1028 94 10000 1.07 232 21:48 09.05.2022
3774 Clouds 13 1026 99 103 0.75 232 20:25 09.05.2022
3775 Clouds 14 1025 99 1711 0.63 243 18:43 09.05.2022
3776 Clouds 14 1025 98 465 0.69 247 17:40 09.05.2022
3777 Rain 13 1024 97 181 0.81 215 16:29 09.05.2022
3778 Rain 13 1024 97 181 0.81 215 15:49 09.05.2022
3779 Clouds 13 1025 98 83 0.93 202 14:47 09.05.2022
3780 Clouds 13 1025 98 75 1.12 193 14:22 09.05.2022
3781 Clouds 12 1025 98 75 1.12 193 13:36 09.05.2022
3782 Clouds 12 1025 98 75 1.12 193 13:36 09.05.2022
3783 Clouds 12 1025 98 99 1.67 180 11:57 09.05.2022
3784 Clouds 10 1025 98 135 1.86 183 10:51 09.05.2022
3785 Clouds 10 1025 98 135 1.86 183 10:31 09.05.2022
3786 Clouds 7 1024 98 10000 1.84 182 08:23 09.05.2022
3787 Clouds 7 1024 95 10000 1.84 182 07:44 09.05.2022
3788 Clouds 5 1026 93 7822 1.99 197 02:55 09.05.2022
3789 Clouds 7 1025 94 7213 1.14 184 23:29 08.05.2022
3790 Clouds 7 1025 93 7213 1.14 184 22:51 08.05.2022
3791 Rain 7 1025 94 4824 1.01 182 21:48 08.05.2022
3792 Rain 8 1024 98 4781 0.32 198 20:33 08.05.2022
3793 Rain 8 1022 99 3806 0.19 244 19:37 08.05.2022
3794 Clouds 8 1022 99 2764 0.19 263 18:49 08.05.2022
3795 Rain 10 1021 98 747 0.01 279 17:52 08.05.2022
3796 Rain 9 1021 97 349 0.08 137 16:33 08.05.2022
3797 Clouds 9 1021 97 60 0.21 130 15:25 08.05.2022
3798 Clouds 9 1020 97 40 0.52 119 14:27 08.05.2022
3799 Clouds 7 1020 96 27 0.77 102 11:53 08.05.2022
3800 Clouds 9 1020 91 31 0.76 104 10:27 08.05.2022
3801 Clouds 8 1020 93 31 0.76 104 09:55 08.05.2022
3802 Clouds 8 1020 96 1469 0.82 94 08:37 08.05.2022
3803 Clouds 6 1021 96 10000 0.65 27 06:31 08.05.2022
3804 Clouds 7 1021 95 7974 0.74 28 03:23 08.05.2022
3805 Clouds 7 1021 95 118 1.07 9 01:25 08.05.2022
3806 Clouds 7 1021 94 90 1 11 00:20 08.05.2022
3807 Clouds 7 1021 94 90 1 11 23:41 07.05.2022
3808 Clouds 8 1021 92 89 1.15 3 22:46 07.05.2022
3809 Clouds 8 1021 91 104 1.4 356 21:57 07.05.2022
3810 Clouds 8 1021 99 104 1.4 356 21:31 07.05.2022
3811 Clouds 8 1020 99 1645 1.72 359 20:27 07.05.2022
3812 Clouds 9 1020 99 1699 1.72 353 18:59 07.05.2022
3813 Clouds 9 1019 86 67 2.34 359 16:51 07.05.2022
3814 Clouds 9 1019 86 35 1.88 7 15:18 07.05.2022
3815 Clouds 7 1020 98 31 1.52 23 11:51 07.05.2022
3816 Clouds 8 1020 98 49 1.59 32 09:55 07.05.2022
3817 Clouds 7 1021 96 71 1.64 27 08:34 07.05.2022
3818 Clouds 7 1021 96 4029 1.43 16 07:30 07.05.2022
3819 Clouds 6 1021 96 6627 1.33 11 06:42 07.05.2022
3820 Clouds 7 1021 96 6174 1.04 11 04:19 07.05.2022
3821 Clouds 7 1022 95 10000 1.58 23 00:45 07.05.2022
3822 Clouds 7 1022 94 6443 1.58 21 22:40 06.05.2022
3823 Clouds 7 1023 98 3248 1.72 16 21:54 06.05.2022
3824 Clouds 7 1023 98 3248 1.72 16 21:30 06.05.2022
3825 Clouds 8 1022 99 1676 1.78 11 19:48 06.05.2022
3826 Clouds 9 1021 99 643 1.91 10 19:25 06.05.2022
3827 Clouds 9 1021 99 643 1.91 10 18:34 06.05.2022
3828 Clouds 9 1021 99 88 1.9 10 17:36 06.05.2022
3829 Clouds 8 1021 99 44 1.82 18 15:53 06.05.2022
3830 Clouds 7 1021 99 38 1.67 29 15:28 06.05.2022
3831 Clouds 6 1020 98 30 1.57 32 13:49 06.05.2022
3832 Clouds 6 1020 98 35 1.61 35 12:50 06.05.2022
3833 Clouds 6 1020 98 43 1.81 31 11:58 06.05.2022
3834 Clouds 6 1021 99 46 1.49 42 11:24 06.05.2022
3835 Clouds 7 1021 95 49 1.32 41 09:47 06.05.2022
3836 Clouds 6 1021 95 117 1.13 31 09:18 06.05.2022
3837 Clouds 5 1021 96 287 1.51 23 07:49 06.05.2022
3838 Clouds 5 1021 95 2848 1.5 8 06:26 06.05.2022
3839 Clouds 5 1021 94 61 1.44 357 02:58 06.05.2022
3840 Clouds 5 1022 94 56 1.58 356 01:58 06.05.2022
3841 Clouds 6 1022 99 74 1.31 339 22:58 05.05.2022
3842 Clouds 5 1022 99 109 1.11 342 21:49 05.05.2022
3843 Clouds 6 1022 99 81 1.2 347 20:36 05.05.2022
3844 Clouds 6 1020 100 33 1.17 349 18:54 05.05.2022
3845 Clouds 8 1020 100 30 0.07 217 16:40 05.05.2022
3846 Clouds 8 1020 100 40 0.88 140 14:59 05.05.2022
3847 Rain 6 1019 99 30 1.12 128 13:29 05.05.2022
3848 Rain 6 1019 99 30 1.12 128 12:56 05.05.2022
3849 Rain 8 1019 88 30 1.16 107 11:22 05.05.2022
3850 Rain 7 1019 90 37 0.91 111 09:40 05.05.2022
3851 Clouds 7 1020 99 355 1.1 138 08:34 05.05.2022
3852 Clouds 6 1021 93 10000 1.53 156 06:23 05.05.2022
3853 Clouds 6 1022 91 10000 1.98 175 02:23 05.05.2022
3854 Clouds 6 1021 94 10000 2.23 176 01:37 05.05.2022
3855 Clouds 7 1021 94 10000 1.99 178 23:57 04.05.2022
3856 Clouds 6 1021 96 10000 2.11 178 22:54 04.05.2022
3857 Clouds 6 1021 97 7374 1.93 172 21:59 04.05.2022
3858 Clouds 6 1021 97 7374 1.93 172 21:30 04.05.2022
3859 Rain 7 1020 98 351 1.74 169 20:42 04.05.2022
3860 Clouds 8 1019 99 4497 1.47 162 19:59 04.05.2022
3861 Clouds 8 1019 99 4497 1.47 162 19:35 04.05.2022
3862 Clouds 9 1018 99 2911 1.23 164 18:22 04.05.2022
3863 Clouds 10 1018 99 2911 1.23 164 17:59 04.05.2022
3864 Clouds 10 1018 99 117 1.96 154 15:57 04.05.2022
3865 Rain 11 1018 99 117 1.96 154 15:30 04.05.2022
3866 Clouds 12 1018 99 72 2.1 155 14:38 04.05.2022
3867 Clouds 11 1018 99 36 2.05 155 14:18 04.05.2022
3868 Clouds 11 1019 100 57 1.29 160 12:34 04.05.2022
3869 Clouds 8 1019 99 64 0.85 138 11:25 04.05.2022
3870 Clouds 7 1019 99 79 1.03 138 09:46 04.05.2022
3871 Clouds 7 1019 99 4886 1.04 144 08:56 04.05.2022
3872 Clouds 5 1019 91 10000 1.41 174 07:33 04.05.2022
3873 Clouds 2 1021 87 10000 1.29 203 03:50 04.05.2022
3874 Clouds 3 1019 90 10000 1.14 215 01:41 04.05.2022
3875 Clouds 7 1019 94 10000 1.63 190 22:54 03.05.2022
3876 Clouds 7 1019 96 10000 1.18 184 21:47 03.05.2022
3877 Clouds 6 1018 98 4480 1.37 175 21:21 03.05.2022
3878 Clouds 6 1018 98 4480 1.37 175 21:21 03.05.2022
3879 Clouds 7 1018 98 4480 1.37 175 20:38 03.05.2022
3880 Clouds 10 1016 98 113 1.56 171 18:55 03.05.2022
3881 Clouds 10 1016 98 113 1.56 171 18:37 03.05.2022
3882 Clouds 13 1016 97 82 1.55 166 17:20 03.05.2022
3883 Clouds 11 1016 97 797 1.75 172 15:48 03.05.2022
3884 Clouds 12 1016 93 1220 1.41 192 14:22 03.05.2022
3885 Clouds 8 1016 97 63 1.2 165 12:31 03.05.2022
3886 Rain 8 1017 99 167 0.82 136 11:23 03.05.2022
3887 Rain 7 1017 99 1718 0.46 166 10:25 03.05.2022
3888 Rain 6 1016 84 5077 1.08 184 08:18 03.05.2022
3889 Rain 5 1015 86 5974 1.37 210 06:45 03.05.2022
3890 Clouds 8 1017 93 10000 2.02 177 01:56 03.05.2022
3891 Clouds 7 1017 94 10000 0.89 160 22:47 02.05.2022
3892 Clouds 7 1017 94 10000 0.51 166 22:28 02.05.2022
3893 Clouds 7 1017 95 3704 0.27 195 21:26 02.05.2022
3894 Clouds 11 1014 84 9007 0.61 16 18:57 02.05.2022
3895 Clouds 11 1013 80 7143 0.77 27 18:25 02.05.2022
3896 Clouds 12 1013 80 7143 0.77 27 17:38 02.05.2022
3897 Clouds 13 1013 75 8614 0.87 32 16:37 02.05.2022
3898 Clouds 12 1014 71 10000 0.64 37 15:41 02.05.2022
3899 Clouds 11 1014 69 9923 0.14 49 14:20 02.05.2022
3900 Clouds 11 1014 70 10000 0.2 132 12:52 02.05.2022
3901 Clouds 9 1014 75 10000 0.33 99 11:41 02.05.2022
3902 Clear 4 1015 85 10000 0.45 25 09:32 02.05.2022
3903 Clouds 4 1017 88 10000 0.29 270 07:57 02.05.2022
3904 Clouds -1 1020 86 10000 0.82 230 05:59 02.05.2022
3905 Clouds 3 1022 91 10000 0.28 266 00:44 02.05.2022
3906 Clouds 3 1022 91 10000 0.43 309 00:21 02.05.2022
3907 Clouds 5 1021 91 10000 0.62 345 22:53 01.05.2022
3908 Clouds 6 1021 93 10000 1.01 1 21:41 01.05.2022
3909 Clouds 6 1019 93 10000 1.87 0 20:29 01.05.2022
3910 Clouds 9 1018 95 10000 2.07 356 19:20 01.05.2022
3911 Clouds 9 1018 95 10000 2.07 356 18:52 01.05.2022
3912 Clouds 9 1018 95 7330 2.2 355 17:47 01.05.2022
3913 Clouds 10 1018 93 2574 2.03 355 16:26 01.05.2022
3914 Clouds 9 1018 93 2574 2.03 355 15:45 01.05.2022
3915 Clouds 9 1018 93 4725 1.71 0 14:45 01.05.2022
3916 Clouds 7 1019 93 5793 1.02 18 12:22 01.05.2022
3917 Clear 5 1020 90 10000 1.32 25 09:34 01.05.2022
3918 Clear 4 1020 91 10000 1.31 7 08:49 01.05.2022
3919 Clouds -2 1023 93 10000 1.17 323 05:42 01.05.2022
3920 Clouds 3 1023 92 10000 1.56 344 01:32 01.05.2022
3921 Clouds 2 1024 96 6682 2.06 341 22:18 30.04.2022
3922 Clouds 2 1024 96 6682 2.06 341 21:32 30.04.2022
3923 Clouds 5 1020 96 10000 2.01 350 19:48 30.04.2022
3924 Clouds 6 1019 78 10000 2.18 352 18:52 30.04.2022
3925 Clouds 5 1019 94 4580 2.19 355 17:26 30.04.2022
3926 Rain 5 1020 94 898 1.88 7 15:51 30.04.2022
3927 Clouds 7 1020 80 681 1.57 13 14:58 30.04.2022
3928 Clouds 6 1021 98 228 1.5 15 13:41 30.04.2022
3929 Clouds 5 1022 90 49 1.11 356 11:41 30.04.2022
3930 Clouds 5 1022 91 32 0.82 351 10:56 30.04.2022
3931 Rain 4 1022 91 28 0.7 332 09:54 30.04.2022
3932 Rain 5 1022 92 25 0.71 297 07:36 30.04.2022
3933 Rain 7 1021 92 36 1.11 298 03:53 30.04.2022
3934 Clouds 8 1023 96 10000 0.87 208 23:55 29.04.2022
3935 Clouds 8 1023 95 10000 0.88 193 22:37 29.04.2022
3936 Clouds 8 1024 94 10000 0.46 217 21:55 29.04.2022
3937 Clouds 10 1023 92 10000 0.58 313 21:24 29.04.2022
3938 Clouds 10 1022 89 10000 1.15 346 19:55 29.04.2022
3939 Clouds 12 1021 61 10000 1.54 358 19:26 29.04.2022
3940 Clouds 13 1021 68 10000 1.74 357 17:34 29.04.2022
3941 Clouds 15 1021 62 10000 1.71 355 16:30 29.04.2022
3942 Clouds 14 1022 53 10000 1.02 339 14:34 29.04.2022
3943 Clouds 13 1023 54 10000 0.62 329 13:27 29.04.2022
3944 Clouds 11 1023 64 10000 0.65 284 12:34 29.04.2022
3945 Clear 10 1024 78 10000 0.93 220 10:29 29.04.2022
3946 Clear 5 1026 81 10000 1.5 224 07:52 29.04.2022
3947 Clear 3 1028 71 10000 1.87 222 07:25 29.04.2022
3948 Clear 2 1028 71 10000 2.07 213 06:29 29.04.2022
3949 Clouds 4 1029 81 10000 0.77 231 00:52 29.04.2022
3950 Clouds 5 1029 85 10000 0.48 244 23:52 28.04.2022
3951 Clouds 7 1029 85 10000 0.31 264 22:47 28.04.2022
3952 Clouds 9 1028 86 10000 0.44 318 22:19 28.04.2022
3953 Clouds 9 1028 86 10000 0.44 318 21:41 28.04.2022
3954 Clouds 10 1027 86 10000 0.81 328 20:43 28.04.2022
3955 Clouds 11 1025 87 10000 1.06 342 19:49 28.04.2022
3956 Clouds 12 1025 89 8122 1.48 352 19:24 28.04.2022
3957 Clouds 12 1025 89 8122 1.48 352 18:45 28.04.2022
3958 Clouds 12 1024 86 7292 1.85 357 17:32 28.04.2022
3959 Clouds 12 1024 85 7093 2.01 357 16:51 28.04.2022
3960 Clouds 12 1024 84 3069 2.1 357 16:20 28.04.2022
3961 Clouds 12 1024 84 3069 2.1 357 16:20 28.04.2022
3962 Clouds 11 1024 84 3069 2.1 357 15:43 28.04.2022
3963 Clouds 10 1025 85 2894 2.11 358 14:56 28.04.2022
3964 Clouds 12 1024 87 2850 2 359 13:33 28.04.2022
3965 Clouds 11 1024 92 1961 1.19 10 12:28 28.04.2022
3966 Clouds 7 1023 92 2005 0.98 19 10:59 28.04.2022
3967 Clear 9 1023 96 7840 0.57 2 10:26 28.04.2022
3968 Clear 8 1023 96 7840 0.57 2 09:47 28.04.2022
3969 Clear 3 1024 82 10000 0.59 293 07:40 28.04.2022
3970 Clear 2 1027 82 10000 0.92 258 06:42 28.04.2022
3971 Clear 1 1027 75 10000 1.09 249 05:52 28.04.2022
3972 Clear 1 1027 77 10000 1.26 238 04:42 28.04.2022
3973 Clouds 3 1026 76 10000 1.51 212 00:52 28.04.2022
3974 Clouds 4 1026 85 10000 1.26 209 23:18 27.04.2022
3975 Clouds 7 1025 89 10000 0.48 206 22:18 27.04.2022
3976 Clouds 7 1025 89 10000 0.48 206 21:34 27.04.2022
3977 Clouds 8 1024 91 10000 0.25 1 20:45 27.04.2022
3978 Clouds 9 1022 91 8396 0.89 355 19:54 27.04.2022
3979 Clouds 9 1022 90 8517 0.69 340 19:31 27.04.2022
3980 Clouds 10 1021 92 5082 1.07 339 18:38 27.04.2022
3981 Clouds 10 1021 92 1459 1.25 343 17:41 27.04.2022
3982 Clouds 10 1020 89 1338 1.45 1 15:56 27.04.2022
3983 Clouds 9 1019 90 1302 1.12 31 12:50 27.04.2022
3984 Clear 8 1020 91 10000 1.08 33 11:23 27.04.2022
3985 Clear 7 1020 85 10000 1.06 33 10:26 27.04.2022
3986 Clear 1 1022 88 10000 1 350 07:53 27.04.2022
3987 Clear -2 1024 80 10000 0.96 307 06:36 27.04.2022
3988 Clouds 1 1023 90 10000 1.52 313 02:25 27.04.2022
3989 Clouds 3 1022 89 10000 1.86 322 01:21 27.04.2022
3990 Clouds 3 1022 88 10000 1.91 330 00:27 27.04.2022
3991 Clouds 3 1022 91 10000 1.95 334 23:24 26.04.2022
3992 Clouds 3 1022 91 10000 1.95 334 22:44 26.04.2022
3993 Clouds 4 1022 90 10000 2.14 333 21:57 26.04.2022
3994 Clouds 4 1021 89 10000 2.26 332 20:58 26.04.2022
3995 Clouds 4 1021 89 10000 2.26 332 20:36 26.04.2022
3996 Clouds 5 1018 89 10000 2.05 326 19:35 26.04.2022
3997 Clouds 6 1017 92 10000 2.43 326 18:53 26.04.2022
3998 Clouds 7 1017 97 6691 2.87 330 18:20 26.04.2022
3999 Clouds 7 1017 97 6691 2.87 330 17:34 26.04.2022
4000 Clouds 5 1016 98 37 2.47 331 14:58 26.04.2022
4001 Rain 5 1015 74 85 2.55 333 13:34 26.04.2022
4002 Rain 4 1014 80 178 2.17 326 12:35 26.04.2022
4003 Clouds 4 1013 98 678 1.37 309 10:57 26.04.2022
4004 Clouds 6 1014 96 4746 1.1 301 10:29 26.04.2022
4005 Clouds 4 1015 93 10000 1.17 283 08:29 26.04.2022
4006 Clouds 1 1018 89 10000 1.3 265 04:38 26.04.2022
4007 Clouds 5 1017 90 10000 1.18 265 03:25 26.04.2022
4008 Clouds 3 1018 93 10000 1.03 264 00:39 26.04.2022
4009 Clouds 3 1016 93 10000 0.87 272 23:43 25.04.2022
4010 Clouds 4 1015 93 10000 1.2 319 21:44 25.04.2022
4011 Rain 4 1014 95 9888 1.47 325 20:49 25.04.2022
4012 Clouds 4 1012 99 4216 1.72 329 19:39 25.04.2022
4013 Clouds 4 1011 99 43 1.87 334 18:25 25.04.2022
4014 Rain 4 1011 99 43 1.87 334 17:39 25.04.2022
4015 Clouds 7 1010 82 28 1.85 341 15:51 25.04.2022
4016 Rain 5 1010 99 27 1.82 335 15:18 25.04.2022
4017 Rain 6 1010 99 25 1.3 329 13:59 25.04.2022
4018 Clouds 7 1008 85 25 1.44 331 12:22 25.04.2022
4019 Rain 4 1009 93 574 1.12 299 10:29 25.04.2022
4020 Rain 3 1009 94 3787 0.97 308 09:23 25.04.2022
4021 Snow 2 1009 94 5593 1.46 326 07:34 25.04.2022
4022 Rain 3 1008 95 1850 1.76 326 05:53 25.04.2022
4023 Rain 3 1009 93 3230 1.89 287 01:24 25.04.2022
4024 Rain 3 1008 93 6325 1.35 274 23:54 24.04.2022
4025 Rain 3 1008 91 709 1.7 280 22:53 24.04.2022
4026 Rain 3 1008 90 709 1.7 280 22:32 24.04.2022
4027 Rain 3 1008 90 709 1.7 280 22:32 24.04.2022
4028 Rain 3 1007 89 274 1.21 288 21:54 24.04.2022
4029 Rain 4 1007 87 221 1.24 297 21:20 24.04.2022
4030 Rain 4 1007 81 221 1.24 297 20:38 24.04.2022
4031 Rain 4 1005 99 110 0.95 304 19:50 24.04.2022
4032 Rain 3 1004 100 113 0.95 305 18:28 24.04.2022
4033 Rain 3 1004 100 113 0.95 305 17:40 24.04.2022
4034 Rain 3 1003 100 157 0.65 293 17:19 24.04.2022
4035 Clouds 3 1003 100 157 0.65 293 16:48 24.04.2022
4036 Clouds 3 1003 99 407 0.56 248 16:20 24.04.2022
4037 Clouds 4 1003 99 407 0.56 248 15:31 24.04.2022
4038 Clouds 6 1003 96 1699 1.08 212 14:30 24.04.2022
4039 Clouds 4 1003 95 4166 1.49 190 13:26 24.04.2022
4040 Clouds 4 1003 95 4166 1.49 190 13:26 24.04.2022
4041 Clouds 5 1003 95 4208 1.48 190 12:35 24.04.2022
4042 Clouds 5 1003 94 4968 1.71 180 11:39 24.04.2022
4043 Clouds 5 1003 93 10000 2.16 168 10:30 24.04.2022
4044 Clouds 4 1002 90 10000 2.19 168 09:29 24.04.2022
4045 Snow 1 1004 94 8057 2.88 166 07:31 24.04.2022
4046 Snow 1 1004 95 9848 3.59 160 04:44 24.04.2022
4047 Rain 3 1003 85 5130 4.28 168 01:39 24.04.2022
4048 Rain 4 1001 93 179 4.26 170 00:30 24.04.2022
4049 Rain 4 999 91 375 3.01 152 23:45 23.04.2022
4050 Rain 3 1001 96 1512 3.25 149 23:22 23.04.2022
4051 Rain 4 1002 96 6694 4.69 155 21:53 23.04.2022
4052 Rain 4 1002 96 6694 4.69 155 21:34 23.04.2022
4053 Rain 3 1003 96 4955 4.39 158 20:57 23.04.2022
4054 Rain 3 1002 97 811 4.8 151 19:48 23.04.2022
4055 Rain 4 1002 98 245 4.78 156 19:19 23.04.2022
4056 Rain 4 1002 98 245 4.78 156 18:52 23.04.2022
4057 Rain 4 1002 97 1228 4.52 150 17:51 23.04.2022
4058 Rain 4 1002 97 1228 4.52 150 17:30 23.04.2022
4059 Rain 5 1003 97 2187 4.13 151 16:42 23.04.2022
4060 Rain 4 1003 98 163 4.27 155 15:28 23.04.2022
4061 Rain 5 1003 98 58 4.39 156 12:44 23.04.2022
4062 Rain 6 1003 88 110 4.29 153 10:44 23.04.2022
4063 Rain 7 1003 86 53 3.71 156 09:38 23.04.2022
4064 Rain 6 1002 89 42 3.32 149 06:41 23.04.2022
4065 Clouds 6 1003 88 350 3 150 03:54 23.04.2022
4066 Clouds 7 1003 80 2235 2.51 165 01:20 23.04.2022
4067 Clouds 7 1002 76 4663 2.56 168 23:30 22.04.2022
4068 Clouds 8 1002 72 10000 2.13 166 22:20 22.04.2022
4069 Clouds 8 1002 72 10000 2.13 166 21:43 22.04.2022
4070 Clouds 9 1001 94 10000 1.26 170 20:47 22.04.2022
4071 Clouds 9 1000 93 10000 0.32 155 20:27 22.04.2022
4072 Clouds 10 999 88 10000 0.17 19 19:20 22.04.2022
4073 Clouds 10 999 88 10000 0.17 19 18:42 22.04.2022
4074 Clouds 11 999 81 10000 0.64 347 17:41 22.04.2022
4075 Clouds 10 998 77 9916 0.75 342 16:46 22.04.2022
4076 Clouds 10 998 75 10000 0.79 334 15:42 22.04.2022
4077 Clouds 12 998 75 10000 0.74 328 14:46 22.04.2022
4078 Clouds 11 998 75 10000 1.26 328 13:50 22.04.2022
4079 Clouds 11 998 78 10000 1.27 325 12:58 22.04.2022
4080 Clouds 10 998 81 10000 1.05 309 11:50 22.04.2022
4081 Clouds 9 998 82 10000 0.79 282 11:21 22.04.2022
4082 Clouds 9 998 82 10000 0.79 282 10:50 22.04.2022
4083 Clouds 9 998 66 10000 0.79 282 10:30 22.04.2022
4084 Clouds 7 999 73 10000 0.41 225 09:50 22.04.2022
4085 Clouds 5 999 81 10000 0.6 226 08:50 22.04.2022
4086 Clouds 2 1002 80 10000 1.46 208 06:58 22.04.2022
4087 Clouds 3 1005 76 10000 1.98 188 02:45 22.04.2022
4088 Clouds 3 1006 75 10000 2.5 174 00:51 22.04.2022
4089 Clouds 4 1006 74 10000 3.12 163 23:24 21.04.2022
4090 Clouds 4 1007 72 10000 3.17 163 22:27 21.04.2022
4091 Clouds 7 1006 59 10000 2.87 161 20:36 21.04.2022
4092 Clouds 7 1006 59 10000 2.87 161 20:36 21.04.2022
4093 Clouds 7 1005 86 10000 2.48 157 20:18 21.04.2022
4094 Clouds 8 1005 82 10000 2.28 161 18:35 21.04.2022
4095 Clouds 8 1005 81 10000 2.48 156 17:57 21.04.2022
4096 Clouds 10 1005 82 10000 2.23 157 16:35 21.04.2022
4097 Clouds 8 1006 84 10000 2.7 159 15:21 21.04.2022
4098 Clouds 9 1006 84 10000 2.7 159 14:47 21.04.2022
4099 Clouds 9 1007 89 10000 2.82 163 13:23 21.04.2022
4100 Clouds 10 1007 89 10000 2.82 163 12:53 21.04.2022
4101 Clouds 5 1007 90 10000 2.22 162 10:47 21.04.2022
4102 Clouds 6 1008 76 10000 2.35 168 08:55 21.04.2022
4103 Clouds 2 1009 85 10000 1.88 173 07:24 21.04.2022
4104 Clouds 3 1009 84 10000 1.95 178 05:42 21.04.2022
4105 Clouds 4 1011 84 10000 2.75 179 03:28 21.04.2022
4106 Clouds 4 1011 84 10000 2.75 179 02:47 21.04.2022
4107 Clouds 4 1011 84 10000 2.75 179 02:47 21.04.2022
4108 Clouds 4 1011 81 10000 2.92 181 00:45 21.04.2022
4109 Clouds 5 1011 80 9540 2.61 174 23:50 20.04.2022
4110 Clouds 6 1011 78 9423 2.47 168 23:22 20.04.2022
4111 Clouds 6 1011 77 9423 2.47 168 22:49 20.04.2022
4112 Clouds 7 1011 75 9423 2.47 168 22:30 20.04.2022
4113 Clouds 7 1010 94 9747 1.55 163 21:27 20.04.2022
4114 Clouds 8 1009 93 10000 0.97 154 20:23 20.04.2022
4115 Clouds 9 1009 92 10000 1.15 159 19:52 20.04.2022
4116 Clouds 9 1009 88 10000 0.63 169 19:20 20.04.2022
4117 Clouds 10 1008 86 10000 0.5 146 17:56 20.04.2022
4118 Clouds 10 1008 85 8055 0.61 172 16:48 20.04.2022
4119 Clouds 10 1008 85 8055 0.61 172 16:30 20.04.2022
4120 Clouds 9 1009 81 10000 2.12 177 13:51 20.04.2022
4121 Clouds 9 1009 84 10000 2.45 178 11:47 20.04.2022
4122 Clouds 8 1010 86 10000 2.27 173 11:21 20.04.2022
4123 Clouds 5 1010 87 10000 2.03 173 10:19 20.04.2022
4124 Clouds 7 1010 85 10000 1.82 176 09:25 20.04.2022
4125 Clouds 4 1010 78 10000 1.66 184 08:22 20.04.2022
4126 Clouds 4 1010 78 10000 1.66 184 08:22 20.04.2022
4127 Clouds 3 1010 76 10000 1.66 184 07:32 20.04.2022
4128 Clouds 3 1012 73 10000 0.45 19 03:38 20.04.2022
4129 Clouds 4 1012 90 10000 1.43 340 00:23 20.04.2022
4130 Clouds 5 1012 90 10000 1.43 340 23:41 19.04.2022
4131 Clouds 6 1012 88 10000 2.04 340 22:26 19.04.2022
4132 Clouds 6 1012 88 10000 2.04 340 21:57 19.04.2022
4133 Clouds 7 1012 86 10000 2.48 343 21:24 19.04.2022
4134 Clouds 10 1012 86 10000 2.48 343 20:45 19.04.2022
4135 Clouds 10 1010 83 10000 2.91 345 19:57 19.04.2022
4136 Clouds 11 1008 75 10000 3.13 345 18:49 19.04.2022
4137 Clouds 11 1008 66 10000 3.36 347 17:40 19.04.2022
4138 Clouds 13 1008 64 10000 3.37 347 16:43 19.04.2022
4139 Clouds 12 1008 64 10000 3.32 344 16:23 19.04.2022
4140 Clouds 12 1009 67 10000 3.26 342 14:50 19.04.2022
4141 Clear 10 1009 71 10000 3.29 342 13:54 19.04.2022
4142 Clear 11 1010 75 10000 3.28 342 12:50 19.04.2022
4143 Clear 9 1010 79 10000 3.24 342 12:20 19.04.2022
4144 Clear 8 1011 80 10000 3.21 338 10:46 19.04.2022
4145 Clear 6 1012 63 10000 2.72 331 09:22 19.04.2022
4146 Clear 0 1015 78 10000 1.64 309 05:56 19.04.2022
4147 Clear 1 1015 77 10000 1.36 307 03:37 19.04.2022
4148 Clear 3 1017 73 10000 1.52 314 00:55 19.04.2022
4149 Clear 1 1017 86 10000 1.6 310 23:31 18.04.2022
4150 Clear 4 1018 87 10000 1.79 315 21:30 18.04.2022
4151 Clear 5 1017 86 10000 2.09 324 20:56 18.04.2022
4152 Clear 5 1017 88 10000 2.21 324 20:32 18.04.2022
4153 Clear 7 1015 86 10000 2.8 336 19:51 18.04.2022
4154 Clear 10 1013 81 10000 3.13 338 18:57 18.04.2022
4155 Clear 10 1012 73 10000 3.39 338 17:58 18.04.2022
4156 Clear 10 1012 73 10000 3.39 338 17:34 18.04.2022
4157 Clear 10 1012 71 10000 3.36 340 16:59 18.04.2022
4158 Clear 9 1012 71 10000 3.36 340 16:32 18.04.2022
4159 Clear 11 1013 73 10000 3.07 342 14:59 18.04.2022
4160 Clear 11 1013 77 10000 2.96 343 13:39 18.04.2022
4161 Clear 10 1014 83 10000 2.74 342 12:32 18.04.2022
4162 Clear 7 1014 87 10000 2.48 339 11:35 18.04.2022
4163 Clear 8 1014 87 10000 2.13 337 10:32 18.04.2022
4164 Clear 6 1015 64 10000 1.82 337 09:31 18.04.2022
4165 Clear 1 1017 79 10000 0.9 298 07:54 18.04.2022
4166 Clear 1 1019 81 10000 1.4 217 05:41 18.04.2022
4167 Clouds 2 1021 79 10000 1.79 194 00:47 18.04.2022
4168 Clouds 4 1022 81 10000 0.43 187 22:41 17.04.2022
4169 Clouds 5 1022 84 10000 0.23 322 21:46 17.04.2022
4170 Clouds 4 1022 88 10000 0.66 308 21:24 17.04.2022
4171 Clouds 6 1022 88 10000 0.66 308 20:36 17.04.2022
4172 Clouds 7 1019 88 10000 1.42 352 19:38 17.04.2022
4173 Clouds 8 1018 82 10000 2.72 354 17:48 17.04.2022
4174 Clouds 7 1017 79 10000 2.85 355 15:40 17.04.2022
4175 Clouds 6 1017 77 10000 2.65 358 14:55 17.04.2022
4176 Clear 5 1018 76 10000 2.38 9 14:19 17.04.2022
4177 Clear 7 1018 76 10000 2.38 22 12:58 17.04.2022
4178 Clear 6 1019 75 10000 2.3 31 12:27 17.04.2022
4179 Clear 7 1019 61 10000 2.14 41 10:46 17.04.2022
4180 Clear 6 1019 65 10000 1.71 48 10:28 17.04.2022
4181 Clear 4 1019 73 10000 1.71 48 09:34 17.04.2022
4182 Clear 2 1021 77 10000 1.06 61 08:51 17.04.2022
4183 Clear -1 1022 83 10000 0.97 73 07:30 17.04.2022
4184 Clouds -1 1025 84 10000 0.88 94 04:29 17.04.2022
4185 Clouds 3 1027 67 10000 0.69 103 00:55 17.04.2022
4186 Clouds 3 1027 79 10000 0.52 76 23:52 16.04.2022
4187 Clouds 4 1027 89 10000 0.98 36 22:35 16.04.2022
4188 Clouds 5 1027 92 9447 1.91 22 21:38 16.04.2022
4189 Clouds 5 1027 93 9583 2.39 18 20:32 16.04.2022
4190 Clouds 7 1023 86 10000 3.37 2 18:59 16.04.2022
4191 Clouds 8 1023 83 10000 3.51 357 17:52 16.04.2022
4192 Clouds 9 1022 82 10000 3.58 355 16:40 16.04.2022
4193 Clouds 6 1022 82 10000 3.32 355 15:45 16.04.2022
4194 Clouds 7 1023 85 10000 3.53 353 14:56 16.04.2022
4195 Clouds 6 1022 88 10000 3.71 355 13:58 16.04.2022
4196 Clouds 6 1022 87 10000 3.71 0 13:37 16.04.2022
4197 Clouds 6 1022 92 7900 3.54 351 12:26 16.04.2022
4198 Clouds 6 1022 95 6998 3.15 350 10:50 16.04.2022
4199 Clouds 8 1022 96 8895 2.98 353 09:56 16.04.2022
4200 Clouds 7 1023 96 10000 2.72 355 08:57 16.04.2022
4201 Clouds 6 1023 93 10000 2.84 355 07:52 16.04.2022
4202 Clouds 6 1022 89 10000 2.95 354 06:58 16.04.2022
4203 Clouds 7 1023 87 10000 2.55 355 02:46 16.04.2022
4204 Clouds 7 1024 84 10000 2.07 353 00:30 16.04.2022
4205 Clouds 8 1024 82 10000 2.6 350 23:21 15.04.2022
4206 Clouds 10 1024 96 10000 2.6 350 22:32 15.04.2022
4207 Clouds 11 1024 96 10000 2.38 338 21:50 15.04.2022
4208 Clouds 11 1025 97 3411 2.25 337 21:18 15.04.2022
4209 Clouds 12 1024 96 3495 2.53 338 20:22 15.04.2022
4210 Clouds 12 1024 96 3495 2.53 338 19:40 15.04.2022
4211 Clouds 12 1023 95 5019 2.33 336 18:54 15.04.2022
4212 Clouds 12 1022 91 7074 2.47 339 18:25 15.04.2022
4213 Clouds 12 1022 91 7074 2.47 339 17:34 15.04.2022
4214 Clouds 13 1022 89 9749 2.64 339 16:37 15.04.2022
4215 Clouds 13 1022 89 10000 2.32 337 16:18 15.04.2022
4216 Clouds 13 1022 91 10000 2.21 339 14:51 15.04.2022
4217 Clouds 12 1023 95 3804 2.23 345 13:40 15.04.2022
4218 Clouds 11 1023 96 2936 2.22 351 12:40 15.04.2022
4219 Clouds 10 1023 97 2837 2.28 352 11:56 15.04.2022
4220 Clouds 8 1023 97 2837 2.28 352 11:30 15.04.2022
4221 Clouds 9 1023 98 110 2.17 348 10:40 15.04.2022
4222 Clouds 10 1023 98 587 2.15 342 09:44 15.04.2022
4223 Clouds 9 1023 98 156 1.79 332 09:19 15.04.2022
4224 Clouds 5 1024 84 10000 1.33 327 07:28 15.04.2022
4225 Clouds 6 1024 84 10000 1.35 318 06:28 15.04.2022
4226 Clouds 7 1023 81 10000 1.16 310 02:39 15.04.2022
4227 Clouds 8 1023 81 10000 0.59 306 23:31 14.04.2022
4228 Clouds 9 1023 79 10000 0.42 282 22:49 14.04.2022
4229 Clouds 9 1023 79 10000 0.57 250 22:29 14.04.2022
4230 Clouds 9 1023 79 10000 0.57 250 21:59 14.04.2022
4231 Clouds 13 1022 79 10000 0.49 216 20:37 14.04.2022
4232 Clouds 14 1020 80 10000 0.91 196 19:23 14.04.2022
4233 Clouds 16 1020 73 9976 1.26 188 18:22 14.04.2022
4234 Clouds 15 1020 73 9976 1.26 188 17:38 14.04.2022
4235 Clouds 16 1019 66 9828 1.46 190 16:36 14.04.2022
4236 Clouds 15 1019 63 9762 1.72 189 15:24 14.04.2022
4237 Clouds 12 1019 64 9745 1.54 188 13:46 14.04.2022
4238 Clouds 12 1019 65 9746 1.17 191 12:56 14.04.2022
4239 Clouds 11 1019 65 9746 1.17 191 12:31 14.04.2022
4240 Clouds 11 1020 79 9772 1.36 174 11:29 14.04.2022
4241 Clouds 11 1020 79 9772 1.36 174 10:52 14.04.2022
4242 Clouds 8 1020 81 10000 0.95 186 10:26 14.04.2022
4243 Clouds 9 1020 62 10000 0.74 236 08:54 14.04.2022
4244 Clouds 5 1021 67 10000 1.69 196 06:53 14.04.2022
4245 Clouds 6 1021 74 10000 2.23 190 03:32 14.04.2022
4246 Clouds 5 1022 87 10000 2.68 183 23:26 13.04.2022
4247 Clouds 7 1021 86 10000 2.72 179 22:20 13.04.2022
4248 Clouds 8 1021 86 10000 2.72 179 21:36 13.04.2022
4249 Clouds 12 1019 82 10000 2.89 168 20:23 13.04.2022
4250 Clouds 13 1019 81 10000 2.75 168 19:37 13.04.2022
4251 Clouds 15 1018 84 10000 2.9 162 18:36 13.04.2022
4252 Clouds 15 1017 74 9922 2.96 161 17:24 13.04.2022
4253 Clouds 15 1017 74 9922 2.96 161 16:37 13.04.2022
4254 Clouds 14 1017 74 9821 2.89 163 15:41 13.04.2022
4255 Clouds 13 1017 76 9789 2.79 165 14:51 13.04.2022
4256 Clouds 13 1017 79 9789 2.7 167 14:28 13.04.2022
4257 Clouds 12 1017 82 9765 2.34 170 13:29 13.04.2022
4258 Clouds 11 1018 85 10000 2.11 171 12:27 13.04.2022
4259 Clouds 10 1018 89 10000 2.19 175 10:55 13.04.2022
4260 Clouds 5 1017 91 10000 2.19 169 09:44 13.04.2022
4261 Clouds 8 1017 63 10000 2.01 170 08:43 13.04.2022
4262 Clouds 5 1018 72 10000 1.84 176 06:52 13.04.2022
4263 Clouds 5 1018 71 10000 1.91 181 06:26 13.04.2022
4264 Clouds 6 1018 71 10000 1.91 181 05:52 13.04.2022
4265 Clouds 5 1020 84 10000 2.84 174 00:23 13.04.2022
4266 Clouds 5 1020 84 10000 2.84 174 23:46 12.04.2022
4267 Clouds 7 1020 85 10000 2.94 174 22:19 12.04.2022
4268 Clouds 7 1019 84 10000 3.1 171 21:29 12.04.2022
4269 Clouds 8 1019 84 10000 3.1 171 20:41 12.04.2022
4270 Clouds 11 1017 84 10000 3.25 166 19:50 12.04.2022
4271 Clouds 12 1017 84 10000 3.25 166 19:31 12.04.2022
4272 Clouds 13 1017 88 10000 3.37 164 18:31 12.04.2022
4273 Clouds 13 1016 85 8685 3.52 168 17:28 12.04.2022
4274 Clouds 13 1016 85 7798 3.56 171 16:23 12.04.2022
4275 Clouds 13 1016 85 7798 3.56 171 15:33 12.04.2022
4276 Clouds 12 1017 89 3243 3.38 172 14:29 12.04.2022
4277 Clouds 13 1017 89 3232 3.31 174 13:37 12.04.2022
4278 Clouds 11 1017 92 2998 3.28 174 12:52 12.04.2022
4279 Clouds 9 1017 94 3453 3.16 173 11:47 12.04.2022
4280 Clouds 6 1017 95 7848 3.21 174 10:47 12.04.2022
4281 Clouds 0 1018 80 10000 3.03 176 09:24 12.04.2022
4282 Clouds 2 1020 71 10000 2.79 184 07:56 12.04.2022
4283 Clouds -2 1021 79 10000 2.77 188 06:32 12.04.2022
4284 Clouds -2 1021 79 10000 2.77 188 06:32 12.04.2022
4285 Clouds -1 1021 80 10000 2.85 184 05:34 12.04.2022
4286 Clouds 0 1024 87 10000 3.07 185 00:46 12.04.2022
4287 Clouds 3 1024 88 10000 3.36 183 22:47 11.04.2022
4288 Clouds 3 1023 87 10000 3.58 182 21:41 11.04.2022
4289 Clouds 5 1022 85 10000 3.63 177 20:57 11.04.2022
4290 Clouds 5 1020 85 10000 3.78 172 20:29 11.04.2022
4291 Clouds 5 1020 85 10000 3.73 172 19:55 11.04.2022
4292 Clouds 7 1018 86 10000 3.74 169 19:18 11.04.2022
4293 Clouds 7 1018 86 10000 3.74 169 18:47 11.04.2022
4294 Clouds 7 1018 93 6548 3.7 170 17:57 11.04.2022
4295 Clouds 9 1018 94 3169 3.65 173 16:54 11.04.2022
4296 Clouds 8 1018 93 2955 3.66 171 15:56 11.04.2022
4297 Clouds 9 1018 94 5803 3.49 170 14:24 11.04.2022
4298 Clouds 7 1019 93 8044 3.32 175 12:52 11.04.2022
4299 Clouds 7 1019 93 8044 3.32 175 12:32 11.04.2022
4300 Clouds 5 1019 92 10000 3.25 175 11:33 11.04.2022
4301 Clouds 4 1019 78 10000 3.28 176 10:28 11.04.2022
4302 Clouds 4 1020 70 10000 3.09 180 09:20 11.04.2022
4303 Clouds -4 1025 66 10000 2.6 197 06:24 11.04.2022
4304 Clouds -5 1026 64 10000 2.22 209 01:53 11.04.2022
4305 Clouds -4 1027 72 10000 1.52 217 22:37 10.04.2022
4306 Clouds -1 1027 81 10000 1.21 220 21:55 10.04.2022
4307 Clear -2 1026 84 10000 0.73 239 21:29 10.04.2022
4308 Clear 0 1026 84 10000 0.73 239 20:30 10.04.2022
4309 Clouds 3 1024 84 10000 0.38 327 19:43 10.04.2022
4310 Clouds 4 1020 81 10000 1.35 355 19:18 10.04.2022
4311 Clouds 4 1020 81 10000 1.35 355 18:41 10.04.2022
4312 Clouds 5 1020 73 10000 1.83 341 17:52 10.04.2022
4313 Clouds 5 1020 73 10000 1.83 341 17:32 10.04.2022
4314 Clouds 4 1020 76 10000 2.45 339 15:56 10.04.2022
4315 Clouds 3 1020 76 10000 2.46 337 14:59 10.04.2022
4316 Clouds 4 1021 76 10000 2.4 340 13:54 10.04.2022
4317 Clouds 3 1022 73 10000 2.41 341 12:33 10.04.2022
4318 Clouds 1 1022 71 10000 2.55 339 11:46 10.04.2022
4319 Clouds 1 1022 70 10000 2.77 347 11:28 10.04.2022
4320 Clouds 1 1022 72 10000 2.77 347 10:41 10.04.2022
4321 Clouds -1 1023 87 10000 2.82 347 09:49 10.04.2022
4322 Clouds -3 1024 90 10000 2.11 334 08:55 10.04.2022
4323 Clouds -5 1026 91 10000 1.62 319 08:20 10.04.2022
4324 Clouds -5 1027 94 10000 1.69 318 06:59 10.04.2022
4325 Clouds -5 1026 94 8925 2.19 315 04:42 10.04.2022
4326 Snow -4 1025 93 7427 2.72 305 02:20 10.04.2022
4327 Clouds -4 1025 93 7117 2.42 316 23:54 09.04.2022
4328 Clouds -4 1024 93 6244 2.68 321 23:25 09.04.2022
4329 Clouds -4 1024 93 6244 2.68 321 22:39 09.04.2022
4330 Clouds -3 1023 94 5728 2.88 327 21:31 09.04.2022
4331 Clouds -3 1023 95 5448 2.84 326 20:35 09.04.2022
4332 Clouds -3 1021 94 7523 3.31 333 19:59 09.04.2022
4333 Clouds -3 1020 94 8020 3.34 336 19:41 09.04.2022
4334 Snow -1 1015 62 7276 5.05 343 18:24 09.04.2022
4335 Snow 0 1015 81 7276 5.05 343 17:52 09.04.2022
4336 Snow -2 1014 81 6642 5.46 344 16:59 09.04.2022
4337 Snow -1 1014 81 6642 5.46 344 16:40 09.04.2022
4338 Snow 1 1013 80 7083 5.51 344 15:51 09.04.2022
4339 Snow -2 1013 80 7603 5.58 346 15:26 09.04.2022
4340 Snow 0 1013 82 6205 5.52 348 14:26 09.04.2022
4341 Snow 1 1012 75 10000 5.61 342 13:34 09.04.2022
4342 Snow 0 1012 70 9621 5.33 344 12:57 09.04.2022
4343 Snow 0 1012 73 7512 5.06 344 11:51 09.04.2022
4344 Snow -1 1012 74 8654 5.09 343 10:52 09.04.2022
4345 Snow -1 1012 72 8468 5.16 340 10:18 09.04.2022
4346 Snow -1 1012 74 7877 5.16 336 09:23 09.04.2022
4347 Snow -1 1010 80 5009 5.28 336 08:26 09.04.2022
4348 Snow 1 1005 95 4280 4.58 320 05:21 09.04.2022
4349 Clouds 3 1002 77 10000 3.24 225 00:35 09.04.2022
4350 Clouds 5 1002 85 10000 3.3 210 23:24 08.04.2022
4351 Clouds 6 1003 92 10000 3.31 221 21:53 08.04.2022
4352 Clouds 6 1001 76 7840 2.98 230 20:44 08.04.2022
4353 Clouds 4 1001 99 84 2.78 251 19:57 08.04.2022
4354 Clouds 4 999 100 39 1.9 205 18:59 08.04.2022
4355 Clouds 4 1000 100 34 1.43 237 18:24 08.04.2022
4356 Clouds 5 1001 99 32 2.19 253 17:29 08.04.2022
4357 Clouds 5 1001 99 32 2.19 253 16:58 08.04.2022
4358 Clouds 6 1001 99 32 2.19 253 16:31 08.04.2022
4359 Clouds 7 1000 98 31 2.7 239 15:37 08.04.2022
4360 Clouds 7 1000 98 30 2.61 211 14:52 08.04.2022
4361 Rain 7 1001 98 29 2.26 206 14:21 08.04.2022
4362 Rain 6 1000 97 32 2.31 213 13:36 08.04.2022
4363 Clouds 5 1001 97 25 2.01 206 13:18 08.04.2022
4364 Clouds 7 1002 87 28 1.28 218 11:41 08.04.2022
4365 Clouds 4 1003 88 6288 1.84 215 10:20 08.04.2022
4366 Clouds 4 1004 91 10000 1.73 231 09:20 08.04.2022
4367 Clouds 2 1006 94 10000 1.26 268 07:44 08.04.2022
4368 Clouds 3 1007 95 9711 1.88 303 06:46 08.04.2022
4369 Rain 4 1006 96 4369 2.74 306 03:35 08.04.2022
4370 Rain 3 1006 98 2162 2.41 273 00:31 08.04.2022
4371 Rain 3 1006 98 1564 2.52 255 23:52 07.04.2022
4372 Clouds 3 1005 94 216 2.24 242 22:55 07.04.2022
4373 Rain 3 1005 94 216 2.24 242 22:36 07.04.2022
4374 Rain 3 1005 94 176 2.27 234 22:18 07.04.2022
4375 Rain 3 1005 93 176 2.27 234 21:30 07.04.2022
4376 Rain 3 1005 93 154 2.09 209 20:56 07.04.2022
4377 Rain 4 1004 93 119 1.9 238 20:26 07.04.2022
4378 Rain 4 1004 87 150 1.62 206 17:45 07.04.2022
4379 Rain 4 1004 85 178 2.33 218 17:23 07.04.2022
4380 Rain 5 1004 79 178 2.33 218 16:42 07.04.2022
4381 Rain 5 1004 77 250 2.33 204 15:56 07.04.2022
4382 Rain 6 1004 70 122 2.39 229 14:28 07.04.2022
4383 Rain 5 1003 97 110 2.35 228 13:41 07.04.2022
4384 Rain 3 1003 96 2717 2.04 221 12:28 07.04.2022
4385 Clouds 6 1004 95 8101 1.9 209 10:56 07.04.2022
4386 Clouds 4 1005 90 10000 1.53 234 09:34 07.04.2022
4387 Clouds 2 1007 94 10000 1.34 277 08:27 07.04.2022
4388 Clouds 2 1007 92 6263 2.42 314 06:18 07.04.2022
4389 Clouds 3 1007 92 6826 2.55 318 02:38 07.04.2022
4390 Rain 3 1007 93 706 1.5 296 01:27 07.04.2022
4391 Clouds 3 1007 92 223 1.23 281 23:53 06.04.2022
4392 Clouds 4 1007 91 98 1.05 268 22:45 06.04.2022
4393 Clouds 4 1007 91 50 1.09 270 22:24 06.04.2022
4394 Rain 5 1007 87 60 0.8 265 21:18 06.04.2022
4395 Clouds 5 1006 98 63 0.75 264 20:27 06.04.2022
4396 Rain 5 1006 98 63 0.75 264 19:52 06.04.2022
4397 Clouds 6 1006 98 65 0.75 257 18:50 06.04.2022
4398 Rain 7 1006 98 68 0.93 227 17:51 06.04.2022
4399 Clouds 9 1006 97 68 1.17 209 17:21 06.04.2022
4400 Clouds 10 1006 97 68 1.17 209 16:34 06.04.2022
4401 Clouds 10 1006 97 58 1.49 192 15:46 06.04.2022
4402 Clouds 9 1007 98 57 1.71 171 14:20 06.04.2022
4403 Clouds 8 1008 98 3875 2.18 173 12:58 06.04.2022
4404 Clouds 8 1009 98 98 2.03 171 11:54 06.04.2022
4405 Clouds 5 1009 98 165 1.62 172 10:43 06.04.2022
4406 Clouds 6 1009 98 10000 1.73 177 10:19 06.04.2022
4407 Clouds 5 1010 78 10000 1.73 183 09:27 06.04.2022
4408 Clouds 1 1013 87 10000 1.47 209 08:26 06.04.2022
4409 Clouds 0 1013 90 10000 1.47 209 07:38 06.04.2022
4410 Clouds 0 1015 91 10000 0.83 272 02:57 06.04.2022
4411 Clouds 4 1015 88 10000 1.35 323 23:51 05.04.2022
4412 Clouds 4 1015 86 10000 1.48 324 22:28 05.04.2022
4413 Clouds 4 1015 83 10000 1.59 326 21:18 05.04.2022
4414 Clouds 6 1014 80 10000 1.66 328 20:25 05.04.2022
4415 Clouds 6 1012 93 10000 1.61 334 18:56 05.04.2022
4416 Clouds 8 1012 97 3325 1.69 334 17:31 05.04.2022
4417 Clouds 8 1012 98 1504 1.92 332 16:47 05.04.2022
4418 Clouds 6 1012 98 161 2.12 335 15:53 05.04.2022
4419 Clouds 6 1012 98 161 2.12 335 15:33 05.04.2022
4420 Clouds 7 1012 98 127 2.3 332 14:22 05.04.2022
4421 Clouds 4 1012 85 1091 2.28 333 12:56 05.04.2022
4422 Clouds 2 1013 92 2929 2.14 329 11:50 05.04.2022
4423 Snow 1 1013 91 2929 2.14 329 11:32 05.04.2022
4424 Clouds 1 1014 85 10000 2.61 328 09:49 05.04.2022
4425 Clouds 0 1015 82 10000 2.37 320 08:52 05.04.2022
4426 Snow -1 1019 62 10000 2 303 06:52 05.04.2022
4427 Clouds -3 1022 73 10000 1.68 284 00:41 05.04.2022
4428 Clouds -4 1022 92 10000 1.63 281 22:41 04.04.2022
4429 Clouds -3 1022 93 10000 1.81 291 22:19 04.04.2022
4430 Clouds -3 1021 93 10000 1.84 292 21:21 04.04.2022
4431 Clouds -2 1021 93 10000 1.84 292 20:49 04.04.2022
4432 Clouds 0 1019 91 10000 1.27 280 19:44 04.04.2022
4433 Clouds 3 1015 87 10000 0.92 294 19:25 04.04.2022
4434 Clouds 4 1015 78 10000 0.97 303 17:55 04.04.2022
4435 Clouds 3 1014 75 10000 0.84 284 16:36 04.04.2022
4436 Clouds 3 1014 75 10000 0.84 284 16:36 04.04.2022
4437 Clouds 4 1015 74 10000 0.86 262 15:43 04.04.2022
4438 Clouds 4 1015 73 10000 0.92 242 15:25 04.04.2022
4439 Clouds 3 1015 73 10000 0.92 242 14:45 04.04.2022
4440 Clouds 1 1017 72 10000 1.08 221 13:22 04.04.2022
4441 Clear 1 1018 72 10000 1.38 206 11:55 04.04.2022
4442 Clear 0 1018 73 10000 1.34 208 11:28 04.04.2022
4443 Clouds -5 1020 80 10000 1.39 215 08:36 04.04.2022
4444 Clouds -7 1025 94 10000 1.76 221 04:18 04.04.2022
4445 Clouds -5 1025 95 10000 1.64 201 00:44 04.04.2022
4446 Clouds -5 1024 96 4006 0.84 190 22:40 03.04.2022
4447 Clouds -4 1023 96 1911 0.12 169 21:45 03.04.2022
4448 Clouds -4 1021 96 2312 0.9 359 20:54 03.04.2022
4449 Snow -2 1019 76 1880 1.8 353 19:49 03.04.2022
4450 Snow -1 1017 72 3079 1.7 5 18:32 03.04.2022
4451 Snow -1 1016 70 4786 1.74 15 17:47 03.04.2022
4452 Snow 0 1015 71 7153 1.72 24 16:57 03.04.2022
4453 Snow 0 1015 68 7153 1.72 24 16:39 03.04.2022
4454 Snow 0 1015 74 8632 1.76 37 14:48 03.04.2022
4455 Clouds -1 1016 75 10000 1.81 37 13:53 03.04.2022
4456 Clouds -2 1017 71 10000 1.76 44 12:42 03.04.2022
4457 Clouds -3 1018 79 10000 2.09 41 10:58 03.04.2022
4458 Clouds -5 1019 85 10000 2.02 36 09:38 03.04.2022
4459 Clouds -6 1020 89 10000 1.57 32 08:36 03.04.2022
4460 Clouds -7 1022 95 8094 1.12 349 05:38 03.04.2022
4461 Clouds -6 1020 95 7142 1.95 341 01:54 03.04.2022
4462 Snow -6 1016 94 7028 3.5 340 23:21 02.04.2022
4463 Snow -6 1016 94 7136 3.59 338 22:18 02.04.2022
4464 Snow -5 1016 94 7136 3.59 338 21:47 02.04.2022
4465 Snow -6 1015 94 6947 3.69 338 21:18 02.04.2022
4466 Snow -5 1012 94 7948 3.9 338 19:54 02.04.2022
4467 Snow -3 1008 68 6999 4.35 341 18:23 02.04.2022
4468 Snow -3 1008 66 6999 4.35 341 17:53 02.04.2022
4469 Snow -2 1006 71 6039 4.45 340 16:29 02.04.2022
4470 Snow -2 1006 68 5810 4.36 341 15:22 02.04.2022
4471 Snow -1 1006 67 5810 4.36 341 14:51 02.04.2022
4472 Snow -1 1005 68 6805 4.45 343 13:51 02.04.2022
4473 Snow -2 1005 66 7419 4.39 345 13:19 02.04.2022
4474 Clouds -3 1005 82 7786 4.21 346 11:33 02.04.2022
4475 Snow -5 1005 86 8234 4.08 343 09:31 02.04.2022
4476 Clouds -7 1005 94 6255 3.8 342 06:56 02.04.2022
4477 Clouds -6 1004 95 7111 3.14 346 03:55 02.04.2022
4478 Snow -5 1003 94 5095 3.04 354 00:19 02.04.2022
4479 Snow -5 1003 94 5095 3.04 354 23:40 01.04.2022
4480 Snow -4 1003 81 375 3.16 335 21:52 01.04.2022
4481 Snow -4 1002 83 208 3.21 329 20:52 01.04.2022
4482 Snow -3 1002 80 208 3.21 329 20:30 01.04.2022
4483 Snow -2 1000 70 961 3.42 352 19:37 01.04.2022
4484 Snow -2 999 69 333 3.37 348 18:52 01.04.2022
4485 Snow -2 998 71 441 3.82 353 17:59 01.04.2022
4486 Snow -2 998 70 441 3.82 353 17:35 01.04.2022
4487 Snow 0 997 75 676 3.9 354 15:43 01.04.2022
4488 Snow 1 996 85 541 3.47 355 14:39 01.04.2022
4489 Snow 0 997 90 2388 3.41 353 13:35 01.04.2022
4490 Snow 0 997 90 2686 3.28 349 12:33 01.04.2022
4491 Snow 0 997 90 2686 3.28 349 12:33 01.04.2022
4492 Snow 1 997 92 2165 3.25 347 11:44 01.04.2022
4493 Snow 0 997 93 362 3.12 343 10:19 01.04.2022
4494 Snow 0 996 93 447 3.09 343 09:29 01.04.2022
4495 Snow -1 995 93 489 2.96 343 06:55 01.04.2022
4496 Snow 0 995 92 2500 3.08 343 04:53 01.04.2022
4497 Snow 0 995 93 2500 3.08 343 04:34 01.04.2022
4498 Snow 1 996 90 4765 2.96 340 01:58 01.04.2022
4499 Snow 1 996 90 2849 3.09 340 00:44 01.04.2022
4500 Clouds 2 995 87 4728 2.7 334 21:55 31.03.2022
4501 Clouds 2 995 85 4728 2.7 334 21:33 31.03.2022
4502 Clouds 2 995 95 4960 2.78 334 20:30 31.03.2022
4503 Clouds 3 994 95 7945 2.92 333 19:50 31.03.2022
4504 Clouds 3 993 93 8377 2.89 337 18:51 31.03.2022
4505 Clouds 4 993 93 3570 2.87 339 17:50 31.03.2022
4506 Rain 4 993 77 497 3.03 337 16:40 31.03.2022
4507 Rain 3 993 97 106 2.93 339 15:48 31.03.2022
4508 Clouds 4 993 97 141 2.71 343 15:20 31.03.2022
4509 Clouds 4 993 97 141 2.71 343 14:40 31.03.2022
4510 Clouds 4 993 96 1183 2.52 350 12:30 31.03.2022
4511 Clouds 4 993 96 1183 2.52 350 12:30 31.03.2022
4512 Clouds 3 994 94 8439 2.46 350 11:26 31.03.2022
4513 Clouds 3 995 90 9264 2.36 348 09:50 31.03.2022
4514 Clouds 3 998 89 10000 1.54 344 08:23 31.03.2022
4515 Clouds 2 998 87 7807 1.28 329 05:42 31.03.2022
4516 Clouds 3 1001 95 10000 0.34 225 00:32 31.03.2022
4517 Clouds 3 1001 97 3530 0.99 181 22:45 30.03.2022
4518 Clouds 4 1002 97 2363 1.33 171 21:39 30.03.2022
4519 Clouds 4 1002 97 3851 1.43 167 20:55 30.03.2022
4520 Clouds 4 1001 97 4688 1.34 157 20:20 30.03.2022
4521 Clouds 4 1001 97 4688 1.34 157 19:35 30.03.2022
4522 Clouds 5 1001 97 2007 1.03 154 18:29 30.03.2022
4523 Clouds 5 1001 97 2007 1.03 154 17:48 30.03.2022
4524 Clouds 6 1001 98 469 1.15 161 16:57 30.03.2022
4525 Clouds 5 1001 98 469 1.15 161 16:38 30.03.2022
4526 Clouds 5 1002 100 62 1.5 160 15:24 30.03.2022
4527 Clouds 6 1003 100 48 1.47 162 13:44 30.03.2022
4528 Clouds 5 1003 100 68 1.47 161 12:57 30.03.2022
4529 Clouds 5 1004 71 124 1.69 166 11:34 30.03.2022
4530 Clouds 5 1004 71 124 1.69 166 11:34 30.03.2022
4531 Clouds 3 1005 97 817 2.16 171 10:28 30.03.2022
4532 Clouds 4 1006 72 7324 2.31 175 09:24 30.03.2022
4533 Clouds 3 1008 94 9917 2.5 184 07:33 30.03.2022
4534 Clouds 3 1010 93 10000 2.24 187 05:41 30.03.2022
4535 Clouds 3 1011 90 10000 2.33 187 03:59 30.03.2022
4536 Clouds 4 1013 90 10000 2.73 180 00:42 30.03.2022
4537 Clouds 6 1012 90 10000 2.45 186 22:28 29.03.2022
4538 Clouds 6 1012 90 10000 2.45 186 21:45 29.03.2022
4539 Clouds 8 1012 89 10000 2.39 186 20:53 29.03.2022
4540 Clouds 6 1011 85 10000 2.28 186 20:18 29.03.2022
4541 Clouds 7 1010 83 10000 2.16 178 18:55 29.03.2022
4542 Clouds 8 1010 93 10000 1.78 175 18:19 29.03.2022
4543 Clouds 11 1011 93 8972 1.56 185 17:22 29.03.2022
4544 Clouds 11 1011 93 8972 1.56 185 16:56 29.03.2022
4545 Clouds 11 1012 92 3199 1.46 188 15:57 29.03.2022
4546 Clouds 10 1012 93 3096 1.8 177 14:52 29.03.2022
4547 Clouds 11 1013 93 4599 2.23 177 13:56 29.03.2022
4548 Clouds 9 1014 92 9438 2.32 177 12:51 29.03.2022
4549 Clouds 8 1014 91 10000 2.27 171 11:43 29.03.2022
4550 Clouds 6 1015 86 10000 2.4 174 10:30 29.03.2022
4551 Clouds 5 1016 65 10000 2.38 170 09:41 29.03.2022
4552 Clouds 2 1021 71 10000 1.83 205 06:58 29.03.2022
4553 Clouds 2 1022 70 10000 1.84 205 03:54 29.03.2022
4554 Clouds 2 1025 67 10000 2.01 210 00:33 29.03.2022
4555 Clouds 2 1027 65 10000 1.97 210 23:22 28.03.2022
4556 Clouds 3 1027 65 10000 1.97 210 22:51 28.03.2022
4557 Clouds 3 1027 63 10000 2 212 22:23 28.03.2022
4558 Clouds 5 1026 62 10000 1.75 204 20:54 28.03.2022
4559 Clouds 6 1025 66 10000 1.56 200 20:20 28.03.2022
4560 Clouds 9 1025 66 10000 1.57 202 19:41 28.03.2022
4561 Clouds 11 1022 73 10000 1.25 195 18:56 28.03.2022
4562 Clouds 11 1022 73 10000 1.25 195 18:36 28.03.2022
4563 Clouds 12 1023 89 10000 1.23 199 17:38 28.03.2022
4564 Clouds 13 1024 92 2241 1.47 205 16:19 28.03.2022
4565 Clouds 10 1025 92 1650 1.41 191 14:27 28.03.2022
4566 Clouds 10 1025 92 1651 1.21 195 13:47 28.03.2022
4567 Clear 9 1025 92 6662 1.32 186 11:58 28.03.2022
4568 Clear 7 1026 92 10000 1.4 187 11:23 28.03.2022
4569 Clear 6 1027 50 10000 1.23 198 09:41 28.03.2022
4570 Clear 4 1029 52 10000 1.27 224 09:19 28.03.2022
4571 Clear -3 1033 47 10000 1.39 233 08:22 28.03.2022
4572 Clear -2 1034 45 10000 1.54 231 07:27 28.03.2022
4573 Clear 0 1035 53 10000 1.97 216 03:27 28.03.2022
4574 Clear 1 1036 57 10000 2.18 209 23:24 27.03.2022
4575 Clear 3 1035 59 10000 2.05 207 22:23 27.03.2022
4576 Clear 4 1035 59 10000 2.05 207 21:41 27.03.2022
4577 Clear 8 1034 62 10000 2.02 205 20:54 27.03.2022
4578 Clouds 11 1033 66 10000 1.89 195 19:46 27.03.2022
4579 Clouds 12 1029 72 10000 1.7 181 18:54 27.03.2022
4580 Clouds 12 1029 87 10000 1.49 180 18:26 27.03.2022
4581 Clouds 12 1029 87 10000 1.49 180 17:38 27.03.2022
4582 Clouds 11 1029 92 3094 1.76 186 15:59 27.03.2022
4583 Clouds 11 1029 92 3094 1.76 186 15:59 27.03.2022
4584 Clouds 10 1029 92 1649 1.99 183 14:55 27.03.2022
4585 Clouds 9 1028 92 1668 2.32 178 13:54 27.03.2022
4586 Clouds 9 1028 92 1668 2.32 178 13:54 27.03.2022
4587 Clear 7 1029 91 10000 2.79 174 11:52 27.03.2022
4588 Clear 1 1030 72 10000 2.89 174 10:28 27.03.2022
4589 Clear 4 1032 67 10000 2.46 184 08:36 27.03.2022
4590 Clear -3 1035 57 10000 2.36 193 05:45 27.03.2022
4591 Clear -3 1035 53 10000 2.33 188 00:47 27.03.2022
4592 Clear 1 1036 54 10000 2.3 188 23:30 26.03.2022
4593 Clear 2 1035 54 10000 2.47 190 22:29 26.03.2022
4594 Clear 2 1035 54 10000 2.47 190 21:32 26.03.2022
4595 Clear 4 1034 56 10000 2.6 188 20:20 26.03.2022
4596 Clouds 10 1032 62 10000 2.6 179 18:59 26.03.2022
4597 Clouds 11 1028 68 10000 2.37 167 17:46 26.03.2022
4598 Clouds 13 1027 80 10000 2.12 159 17:28 26.03.2022
4599 Clouds 13 1027 91 7937 2.08 158 16:24 26.03.2022
4600 Clouds 14 1027 91 6661 2.14 161 14:51 26.03.2022
4601 Clouds 13 1028 91 6638 2.31 163 13:52 26.03.2022
4602 Clouds 13 1027 90 6576 2.38 161 12:44 26.03.2022
4603 Clear 7 1028 87 10000 2.67 161 11:28 26.03.2022
4604 Clear 5 1028 68 10000 2.56 163 09:23 26.03.2022
4605 Clear 4 1030 59 10000 2.11 175 08:28 26.03.2022
4606 Clear -4 1032 63 10000 1.85 189 05:54 26.03.2022
4607 Clear -1 1032 64 10000 1.8 189 03:58 26.03.2022
4608 Clear 1 1032 67 10000 1.29 191 23:21 25.03.2022
4609 Clear 4 1032 70 10000 1.07 199 21:28 25.03.2022
4610 Clear 5 1032 70 10000 1.07 199 20:45 25.03.2022
4611 Clouds 9 1029 76 10000 0.37 168 19:28 25.03.2022
4612 Clouds 10 1029 79 10000 0.15 152 18:46 25.03.2022
4613 Clouds 10 1029 79 10000 0.15 152 18:46 25.03.2022
4614 Clouds 11 1026 82 10000 0.68 61 17:35 25.03.2022
4615 Clouds 11 1026 82 10000 0.68 61 17:35 25.03.2022
4616 Clouds 11 1026 88 10000 0.82 48 16:41 25.03.2022
4617 Clouds 11 1026 92 6854 0.57 53 15:52 25.03.2022
4618 Clouds 9 1027 92 1675 0.26 117 13:51 25.03.2022
4619 Clouds 10 1026 92 3007 0.58 122 12:20 25.03.2022
4620 Clear 6 1026 91 10000 0.74 137 09:52 25.03.2022
4621 Clear 7 1026 51 10000 0.43 118 09:23 25.03.2022
4622 Clear 2 1028 62 10000 0.39 260 07:48 25.03.2022
4623 Clear 0 1031 56 10000 0.74 256 07:21 25.03.2022
4624 Clear -5 1032 53 10000 0.83 253 04:47 25.03.2022
4625 Clear 0 1033 54 10000 1.11 233 00:29 25.03.2022
4626 Clear 1 1033 52 10000 1.13 223 22:29 24.03.2022
4627 Clear 2 1033 52 10000 1.13 223 21:33 24.03.2022
4628 Clear 4 1032 58 10000 0.67 224 19:50 24.03.2022
4629 Clouds 10 1030 63 10000 0.18 266 18:49 24.03.2022
4630 Clouds 11 1027 72 10000 0.45 36 17:39 24.03.2022
4631 Clouds 11 1027 87 10000 0.23 43 16:44 24.03.2022
4632 Clouds 10 1028 92 6638 0.57 213 14:59 24.03.2022
4633 Clouds 10 1028 92 6638 0.57 213 14:41 24.03.2022
4634 Clouds 10 1028 92 6638 0.57 213 14:41 24.03.2022
4635 Clouds 9 1028 92 1708 0.89 192 13:41 24.03.2022
4636 Clouds 8 1027 92 3016 1 188 12:39 24.03.2022
4637 Clouds 5 1027 92 3053 1.22 178 11:31 24.03.2022
4638 Clear 7 1028 90 10000 1.47 174 09:36 24.03.2022
4639 Clear 5 1028 46 10000 1.23 179 08:39 24.03.2022
4640 Clear -5 1034 39 10000 1.4 226 06:19 24.03.2022
4641 Clear -2 1036 42 10000 1.84 209 01:28 24.03.2022
4642 Clear -1 1037 48 10000 1.78 205 22:29 23.03.2022
4643 Clear 1 1037 50 10000 1.78 202 21:25 23.03.2022
4644 Clear 2 1037 50 10000 1.78 202 20:47 23.03.2022
4645 Clear 4 1036 52 10000 1.84 196 19:40 23.03.2022
4646 Clouds 10 1030 67 10000 1.91 172 18:22 23.03.2022
4647 Clouds 10 1030 67 10000 1.91 172 17:36 23.03.2022
4648 Clouds 10 1029 91 10000 2.09 168 16:18 23.03.2022
4649 Clouds 10 1029 91 10000 2.09 168 16:18 23.03.2022
4650 Clouds 9 1030 91 6735 2.23 171 14:49 23.03.2022
4651 Clouds 8 1030 91 6661 2.42 169 13:51 23.03.2022
4652 Clear 9 1031 86 10000 2.42 169 11:51 23.03.2022
4653 Clear 6 1032 43 10000 2.5 177 09:21 23.03.2022
4654 Clear -5 1038 44 10000 2.32 198 06:29 23.03.2022
4655 Clear -4 1038 44 10000 2.43 194 03:57 23.03.2022
4656 Clear -3 1039 52 10000 2.64 190 00:29 23.03.2022
4657 Clear 0 1040 63 10000 2.66 187 22:25 22.03.2022
4658 Clear 0 1039 64 10000 2.7 186 21:29 22.03.2022
4659 Clear 1 1039 64 10000 2.7 186 20:39 22.03.2022
4660 Clear 4 1039 64 10000 2.69 186 19:31 22.03.2022
4661 Clear 7 1037 65 10000 2.91 179 18:57 22.03.2022
4662 Clear 9 1033 68 10000 2.76 171 17:46 22.03.2022
4663 Clear 9 1031 69 10000 2.57 166 17:23 22.03.2022
4664 Clear 9 1031 72 10000 2.72 167 15:52 22.03.2022
4665 Clear 9 1031 75 10000 2.8 167 15:22 22.03.2022
4666 Clear 7 1031 75 10000 2.8 167 14:46 22.03.2022
4667 Clear 8 1032 72 10000 2.92 168 14:25 22.03.2022
4668 Clear 6 1032 68 10000 2.76 168 12:46 22.03.2022
4669 Clear 7 1032 65 10000 2.75 168 11:36 22.03.2022
4670 Clear 2 1033 50 10000 2.97 171 10:23 22.03.2022
4671 Clear -2 1038 47 10000 2.66 184 07:48 22.03.2022
4672 Clear -5 1041 42 10000 2.62 194 05:19 22.03.2022
4673 Clear -7 1041 46 10000 2.7 195 03:38 22.03.2022
4674 Clear -3 1042 76 10000 2.56 193 23:41 21.03.2022
4675 Clear 0 1041 82 10000 2.69 188 21:51 21.03.2022
4676 Clear 0 1041 82 10000 2.69 188 21:51 21.03.2022
4677 Clear 2 1040 80 10000 2.75 188 20:45 21.03.2022
4678 Clear 2 1040 78 10000 2.84 186 20:26 21.03.2022
4679 Clear 3 1040 78 10000 2.84 186 19:53 21.03.2022
4680 Clear 4 1038 76 10000 3.01 175 19:23 21.03.2022
4681 Clear 8 1034 75 10000 2.74 164 17:45 21.03.2022
4682 Clear 6 1032 51 10000 2.5 161 17:18 21.03.2022
4683 Clear 6 1032 71 10000 2.5 161 16:37 21.03.2022
4684 Clear 6 1032 70 10000 2.55 162 15:47 21.03.2022
4685 Clear 6 1032 75 10000 2.51 166 14:51 21.03.2022
4686 Clear 4 1033 79 10000 2.54 169 13:43 21.03.2022
4687 Clouds 6 1033 78 10000 2.5 170 12:33 21.03.2022
4688 Clouds 7 1034 80 10000 2.52 168 11:44 21.03.2022
4689 Clouds 4 1035 79 10000 2.47 163 10:34 21.03.2022
4690 Clouds -4 1039 87 10000 2.12 181 08:29 21.03.2022
4691 Clouds -4 1042 88 10000 2.19 192 06:36 21.03.2022
4692 Clouds -3 1041 93 10000 3.44 185 02:40 21.03.2022
4693 Clouds -3 1041 91 10000 3.79 183 23:40 20.03.2022
4694 Clouds -5 1041 91 10000 3.65 183 22:43 20.03.2022
4695 Clouds -1 1041 91 10000 3.5 185 21:50 20.03.2022
4696 Clouds 0 1041 89 10000 3.32 188 21:20 20.03.2022
4697 Clouds 1 1041 89 10000 3.32 188 20:43 20.03.2022
4698 Clouds 2 1040 84 10000 3.18 185 19:57 20.03.2022
4699 Clear 2 1038 80 10000 3.21 177 19:26 20.03.2022
4700 Clear 7 1034 77 10000 3 170 17:52 20.03.2022
4701 Clear 8 1034 77 10000 3 170 17:30 20.03.2022
4702 Clear 8 1032 72 10000 2.74 168 16:57 20.03.2022
4703 Clear 9 1032 70 10000 2.76 171 15:28 20.03.2022
4704 Clear 4 1032 72 10000 2.89 170 14:23 20.03.2022
4705 Clouds 3 1033 74 10000 3.15 171 12:29 20.03.2022
4706 Clouds 2 1034 52 10000 3.46 172 10:55 20.03.2022
4707 Clouds 3 1036 82 10000 3.92 175 08:59 20.03.2022
4708 Clouds -3 1038 89 10000 4.15 174 07:26 20.03.2022
4709 Clouds -3 1036 90 10000 4.18 173 04:23 20.03.2022
4710 Snow -3 1034 94 8154 4.85 168 01:29 20.03.2022
4711 Clouds -2 1035 92 8828 4.69 171 00:39 20.03.2022
4712 Clouds -1 1034 89 10000 4.62 169 23:19 19.03.2022
4713 Clouds 0 1033 92 10000 4.54 168 21:27 19.03.2022
4714 Clouds 1 1033 92 10000 4.54 168 20:39 19.03.2022
4715 Clouds 3 1031 88 10000 3.35 174 18:58 19.03.2022
4716 Clouds 3 1028 85 10000 1.55 172 18:23 19.03.2022
4717 Clouds 6 1028 85 10000 1.55 172 17:35 19.03.2022
4718 Clouds 6 1028 85 10000 1.55 172 17:35 19.03.2022
4719 Clouds 5 1027 87 10000 0.71 209 15:44 19.03.2022
4720 Clouds 5 1027 89 10000 1.02 185 14:44 19.03.2022
4721 Clouds 3 1029 89 10000 1.1 176 13:19 19.03.2022
4722 Clouds 3 1029 88 10000 0.61 181 12:40 19.03.2022
4723 Clouds 3 1030 88 10000 1.01 180 11:54 19.03.2022
4724 Clouds 1 1031 86 10000 1.85 174 10:47 19.03.2022
4725 Clouds 1 1036 95 10000 2.65 177 06:51 19.03.2022
4726 Clouds 1 1034 95 10000 3.53 173 03:24 19.03.2022
4727 Clouds 1 1034 95 8700 3.58 170 02:29 19.03.2022
4728 Clouds 2 1034 96 2051 3.3 165 23:44 18.03.2022
4729 Clouds 2 1033 96 797 3.26 161 22:28 18.03.2022
4730 Clouds 2 1033 96 797 3.26 161 21:37 18.03.2022
4731 Clouds 2 1032 96 2253 2.75 151 19:51 18.03.2022
4732 Clouds 2 1031 96 2600 2.41 145 19:21 18.03.2022
4733 Clouds 2 1031 95 65 2.26 143 17:50 18.03.2022
4734 Clouds 3 1030 95 32 1.91 134 16:48 18.03.2022
4735 Clouds 3 1030 93 36 1.54 117 15:26 18.03.2022
4736 Clouds 4 1030 93 38 1.55 122 14:22 18.03.2022
4737 Clouds 3 1030 95 130 1.46 110 12:27 18.03.2022
4738 Clouds 3 1030 95 246 1.34 99 10:52 18.03.2022
4739 Clouds 3 1030 95 6293 1.14 105 09:29 18.03.2022
4740 Clouds 3 1030 95 6293 1.14 105 08:32 18.03.2022
4741 Clouds 3 1030 94 10000 1.08 103 06:35 18.03.2022
4742 Clouds 3 1029 91 10000 1.16 84 02:57 18.03.2022
4743 Clouds 4 1028 87 10000 0.99 92 00:23 18.03.2022
4744 Clouds 4 1028 85 10000 0.93 88 23:24 17.03.2022
4745 Clouds 4 1028 85 10000 1.07 70 22:24 17.03.2022
4746 Clouds 4 1028 85 10000 1.07 70 21:48 17.03.2022
4747 Clouds 4 1027 84 10000 1.18 54 21:23 17.03.2022
4748 Clouds 4 1027 83 10000 1.18 54 20:44 17.03.2022
4749 Clouds 6 1027 80 10000 1.39 46 19:48 17.03.2022
4750 Clouds 7 1026 74 10000 1.74 37 18:59 17.03.2022
4751 Clouds 7 1026 73 10000 1.45 51 18:39 17.03.2022
4752 Clouds 9 1025 96 10000 2.04 30 16:49 17.03.2022
4753 Clouds 9 1024 96 6389 2.11 23 15:44 17.03.2022
4754 Clouds 9 1024 96 1857 2.08 19 15:24 17.03.2022
4755 Clouds 9 1024 95 1650 1.84 12 14:28 17.03.2022
4756 Clouds 8 1025 96 1670 1.68 359 12:51 17.03.2022
4757 Clouds 8 1024 96 1624 1.47 360 12:22 17.03.2022
4758 Clouds 7 1024 95 1620 1.16 2 11:27 17.03.2022
4759 Clouds 6 1024 95 1878 1.34 347 10:29 17.03.2022
4760 Clouds 6 1024 71 10000 1.04 333 08:34 17.03.2022
4761 Clouds 4 1025 72 10000 0.58 299 07:33 17.03.2022
4762 Clouds -1 1026 68 10000 0.85 264 05:47 17.03.2022
4763 Clouds 4 1025 62 10000 2.43 187 01:23 17.03.2022
4764 Clouds 2 1025 64 10000 2.55 187 23:45 16.03.2022
4765 Clouds 2 1025 60 10000 2.24 188 22:45 16.03.2022
4766 Clouds 3 1025 57 10000 2.02 193 22:21 16.03.2022
4767 Clouds 3 1025 57 10000 2.02 193 21:37 16.03.2022
4768 Clouds 5 1024 59 10000 0.85 194 19:41 16.03.2022
4769 Clouds 5 1024 64 10000 0.47 182 19:20 16.03.2022
4770 Clouds 5 1023 65 10000 0.57 179 18:36 16.03.2022
4771 Clouds 8 1022 74 10000 0.3 170 17:41 16.03.2022
4772 Clouds 10 1022 93 10000 0.26 180 16:56 16.03.2022
4773 Clouds 10 1023 95 3465 0.44 186 15:55 16.03.2022
4774 Clouds 9 1024 95 1628 0.29 190 14:25 16.03.2022
4775 Clouds 8 1024 95 1622 0.08 139 13:27 16.03.2022
4776 Clouds 7 1023 95 1617 0.19 117 11:54 16.03.2022
4777 Clouds 7 1023 95 1634 0.23 75 11:20 16.03.2022
4778 Clouds 9 1023 95 8302 0.17 39 10:22 16.03.2022
4779 Clouds 5 1023 74 10000 0.45 345 08:51 16.03.2022
4780 Clouds 1 1027 83 10000 0.86 268 04:45 16.03.2022
4781 Clouds 2 1026 83 10000 0.42 271 01:35 16.03.2022
4782 Rain 3 1030 81 10000 1.84 189 22:38 15.03.2022
4783 Clouds 4 1030 78 5042 2.67 184 21:52 15.03.2022
4784 Clouds 4 1030 80 308 3.64 179 20:18 15.03.2022
4785 Rain 4 1030 97 131 3.95 177 18:54 15.03.2022
4786 Clouds 6 1029 99 319 4.11 175 16:55 15.03.2022
4787 Rain 6 1029 100 68 4.12 172 16:20 15.03.2022
4788 Rain 6 1029 100 71 4.32 173 14:57 15.03.2022
4789 Clouds 6 1029 100 71 4.32 173 14:34 15.03.2022
4790 Clouds 6 1031 100 247 4.58 167 13:28 15.03.2022
4791 Rain 4 1031 77 79 4.44 167 12:21 15.03.2022
4792 Rain 5 1031 78 5931 4.36 167 11:29 15.03.2022
4793 Rain 4 1032 81 4798 4.03 169 09:39 15.03.2022
4794 Rain 4 1032 84 2600 3.67 169 08:42 15.03.2022
4795 Rain 3 1032 86 4980 3.8 174 07:50 15.03.2022
4796 Rain 3 1033 86 5175 3.74 169 06:54 15.03.2022
4797 Clouds 3 1033 87 8797 3.6 166 02:59 15.03.2022
4798 Clouds 3 1034 94 10000 3.89 167 23:39 14.03.2022
4799 Clouds 1 1035 94 10000 3.95 166 23:21 14.03.2022
4800 Clouds 2 1035 94 10000 4.21 167 22:26 14.03.2022
4801 Clouds 2 1035 94 10000 4.03 163 21:26 14.03.2022
4802 Clouds 4 1035 94 10000 4.03 163 20:35 14.03.2022
4803 Clouds 5 1034 95 10000 3.87 163 19:59 14.03.2022
4804 Clouds 6 1034 93 10000 3.62 160 18:37 14.03.2022
4805 Clouds 7 1031 88 10000 3.65 158 17:44 14.03.2022
4806 Clouds 6 1030 85 10000 3.43 157 16:58 14.03.2022
4807 Clouds 8 1029 86 10000 3.26 158 15:37 14.03.2022
4808 Clouds 7 1029 89 10000 2.85 158 14:38 14.03.2022
4809 Clouds 5 1030 91 10000 2.2 154 12:21 14.03.2022
4810 Clouds 4 1030 56 10000 2.25 161 10:50 14.03.2022
4811 Clouds 3 1030 60 10000 2.65 163 09:41 14.03.2022
4812 Clouds 2 1031 62 10000 2.13 166 09:20 14.03.2022
4813 Clouds 2 1031 65 10000 2.13 166 08:55 14.03.2022
4814 Clouds -2 1035 91 10000 2.02 195 07:21 14.03.2022
4815 Clouds 0 1033 92 10000 2.28 199 05:44 14.03.2022
4816 Snow 2 1031 93 8253 3.56 171 01:52 14.03.2022
4817 Clouds 2 1030 93 10000 3.9 163 01:20 14.03.2022
4818 Clouds 4 1028 93 10000 4.64 167 22:42 13.03.2022
4819 Clouds 5 1027 93 10000 5.23 163 21:28 13.03.2022
4820 Clouds 5 1027 93 10000 5.23 163 20:55 13.03.2022
4821 Clouds 5 1026 93 9979 5.25 162 20:29 13.03.2022
4822 Clouds 5 1026 93 9979 5.25 162 19:48 13.03.2022
4823 Clouds 5 1026 90 10000 5.27 162 19:25 13.03.2022
4824 Clouds 6 1026 90 10000 5.27 162 18:50 13.03.2022
4825 Clouds 1 1026 87 10000 5.07 166 18:30 13.03.2022
4826 Clouds 6 1023 84 10000 5.08 164 17:40 13.03.2022
4827 Clouds 2 1021 79 10000 5.13 162 16:49 13.03.2022
4828 Clouds 2 1020 77 10000 5.26 163 16:27 13.03.2022
4829 Clouds 2 1020 77 10000 5.26 163 15:44 13.03.2022
4830 Clouds 2 1020 80 10000 5.2 162 14:50 13.03.2022
4831 Clouds 2 1020 80 10000 5.2 162 14:50 13.03.2022
4832 Clouds 9 1021 84 10000 5.2 163 13:33 13.03.2022
4833 Clouds 2 1021 87 10000 5.17 163 12:37 13.03.2022
4834 Clouds 2 1022 88 10000 5.16 164 11:51 13.03.2022
4835 Clouds 2 1022 88 10000 5.16 164 11:30 13.03.2022
4836 Clouds 2 1022 88 10000 5.04 163 10:46 13.03.2022
4837 Clouds 1 1023 89 10000 4.96 165 09:53 13.03.2022
4838 Clouds -2 1023 93 8218 4.88 166 09:29 13.03.2022
4839 Clouds 0 1023 64 8218 4.88 166 08:40 13.03.2022
4840 Clouds -2 1024 71 7416 4.72 168 07:37 13.03.2022
4841 Clouds -3 1025 73 7949 4.47 169 05:39 13.03.2022
4842 Clouds -3 1026 76 10000 4.69 170 01:48 13.03.2022
4843 Clouds -2 1027 75 9767 4.95 167 23:30 12.03.2022
4844 Clouds -2 1027 72 9977 5.1 166 21:49 12.03.2022
4845 Clouds 3 1026 92 10000 4.93 166 20:29 12.03.2022
4846 Clouds 3 1026 92 10000 4.93 166 19:47 12.03.2022
4847 Clouds 4 1025 91 10000 4.66 165 18:47 12.03.2022
4848 Clouds 1 1024 89 10000 4.54 164 18:20 12.03.2022
4849 Clouds 1 1023 87 10000 4.38 164 16:32 12.03.2022
4850 Clouds 1 1023 85 10000 4.47 164 15:55 12.03.2022
4851 Clouds 1 1023 85 10000 4.49 161 15:22 12.03.2022
4852 Clouds 1 1023 86 10000 4.61 162 13:54 12.03.2022
4853 Clouds 1 1023 87 10000 4.72 162 12:33 12.03.2022
4854 Clouds 2 1024 64 10000 4.76 163 11:55 12.03.2022
4855 Clouds 1 1024 87 10000 4.76 163 11:34 12.03.2022
4856 Clouds 0 1024 87 10000 4.74 164 10:32 12.03.2022
4857 Clouds 0 1024 87 10000 4.56 164 09:44 12.03.2022
4858 Clouds -1 1026 92 9943 4.23 163 08:24 12.03.2022
4859 Clouds 1 1026 93 10000 4.07 167 06:44 12.03.2022
4860 Clouds 3 1027 91 10000 4.13 170 00:55 12.03.2022
4861 Clouds 3 1028 90 10000 4.43 171 23:43 11.03.2022
4862 Clouds 3 1028 90 10000 4.57 169 22:32 11.03.2022
4863 Clouds 3 1027 91 10000 4.62 168 21:24 11.03.2022
4864 Clouds 3 1027 91 10000 4.62 168 21:24 11.03.2022
4865 Clouds 3 1027 91 10000 4.62 168 20:47 11.03.2022
4866 Clouds 3 1027 92 10000 4.61 170 20:26 11.03.2022
4867 Clouds 4 1027 92 10000 4.61 170 19:35 11.03.2022
4868 Clouds 1 1026 92 10000 4.48 167 18:33 11.03.2022
4869 Clouds 1 1023 85 10000 4.37 168 17:26 11.03.2022
4870 Clouds 2 1022 80 10000 4.56 164 16:25 11.03.2022
4871 Clouds 3 1022 53 10000 4.56 164 15:36 11.03.2022
4872 Clouds 2 1022 81 10000 4.84 163 13:42 11.03.2022
4873 Clouds 2 1022 83 10000 4.64 167 12:41 11.03.2022
4874 Clouds 2 1023 83 10000 4.58 168 12:19 11.03.2022
4875 Clouds 2 1023 84 10000 4.52 170 10:53 11.03.2022
4876 Clouds 1 1024 85 10000 4.5 171 09:35 11.03.2022
4877 Clouds -1 1026 95 2744 4.61 172 08:28 11.03.2022
4878 Clouds -1 1026 61 2744 4.61 172 07:48 11.03.2022
4879 Clouds -4 1027 96 2512 4.28 174 06:42 11.03.2022
4880 Clouds -4 1028 95 6862 4.13 173 04:37 11.03.2022
4881 Clouds -4 1028 91 10000 3.7 175 01:29 11.03.2022
4882 Clouds -5 1029 90 10000 3.54 177 22:32 10.03.2022
4883 Clouds -3 1029 87 10000 3.4 178 21:54 10.03.2022
4884 Clouds -3 1028 83 10000 3.18 178 21:25 10.03.2022
4885 Clouds -4 1028 83 10000 3.18 178 20:36 10.03.2022
4886 Clouds -1 1027 76 10000 3.04 173 19:20 10.03.2022
4887 Clouds 6 1024 77 10000 2.81 166 17:51 10.03.2022
4888 Clouds 6 1021 74 10000 2.33 162 16:52 10.03.2022
4889 Clouds 6 1021 76 10000 2.29 168 15:28 10.03.2022
4890 Clouds 4 1021 77 10000 2.2 170 13:42 10.03.2022
4891 Clear 3 1022 74 10000 2.14 168 12:38 10.03.2022
4892 Clear 4 1022 29 10000 1.76 163 11:28 10.03.2022
4893 Clear -1 1023 49 10000 1.62 164 09:42 10.03.2022
4894 Clear -5 1028 61 10000 0.67 233 07:48 10.03.2022
4895 Clear -7 1030 43 10000 0.97 270 05:30 10.03.2022
4896 Clear -5 1030 49 10000 0.88 249 01:59 10.03.2022
4897 Clear -5 1031 53 10000 0.92 264 23:32 09.03.2022
4898 Clear -5 1031 62 10000 0.98 279 22:22 09.03.2022
4899 Clear -5 1031 62 10000 0.98 279 21:43 09.03.2022
4900 Clear -3 1030 74 10000 1.04 287 20:36 09.03.2022
4901 Clear 1 1028 89 10000 0.85 317 18:41 09.03.2022
4902 Clear 4 1022 83 10000 1.7 357 17:28 09.03.2022
4903 Clear 5 1022 83 10000 1.7 357 16:36 09.03.2022
4904 Clear 4 1021 79 10000 1.73 356 15:32 09.03.2022
4905 Clear 3 1022 76 10000 1.53 354 13:58 09.03.2022
4906 Clouds 3 1022 30 10000 1.61 355 12:59 09.03.2022
4907 Clouds 3 1023 39 10000 1.63 10 12:20 09.03.2022
4908 Clouds 3 1023 34 10000 1.63 10 11:45 09.03.2022
4909 Clouds 3 1023 34 10000 1.66 2 10:49 09.03.2022
4910 Clouds -2 1024 45 10000 1.59 331 09:22 09.03.2022
4911 Clouds -2 1024 48 10000 1.59 331 08:42 09.03.2022
4912 Clouds -9 1029 49 10000 1.38 294 04:47 09.03.2022
4913 Clear -9 1029 35 10000 1.4 281 00:52 09.03.2022
4914 Clear -8 1028 41 10000 1.26 275 23:21 08.03.2022
4915 Clear -8 1028 41 10000 1.26 275 22:45 08.03.2022
4916 Clouds -7 1028 76 10000 1.13 256 21:26 08.03.2022
4917 Clouds -6 1028 76 10000 1.13 256 20:54 08.03.2022
4918 Clear -5 1027 88 10000 1.09 253 19:55 08.03.2022
4919 Clouds -2 1026 91 10000 1.02 242 18:45 08.03.2022
4920 Clouds 0 1022 91 10000 0.55 243 17:50 08.03.2022
4921 Clouds 0 1019 86 10000 0.3 301 16:33 08.03.2022
4922 Clouds -1 1018 76 10000 0.59 240 14:21 08.03.2022
4923 Clouds 0 1018 37 10000 1.27 202 12:44 08.03.2022
4924 Clouds 0 1019 36 10000 1.55 186 11:45 08.03.2022
4925 Clouds -1 1019 49 10000 1.38 184 10:55 08.03.2022
4926 Clouds -3 1019 50 10000 1.5 190 10:19 08.03.2022
4927 Clouds -9 1024 61 10000 1.95 205 07:34 08.03.2022
4928 Clear -10 1025 70 10000 2.29 213 05:44 08.03.2022
4929 Clouds -9 1026 61 10000 1.36 241 23:58 07.03.2022
4930 Clouds -7 1026 91 10000 0.85 270 22:23 07.03.2022
4931 Clouds -7 1026 91 10000 0.85 270 21:35 07.03.2022
4932 Clouds -7 1025 96 7091 1.17 281 20:52 07.03.2022
4933 Clouds -6 1025 96 8299 0.95 334 20:20 07.03.2022
4934 Clouds -6 1025 96 8299 0.95 334 19:34 07.03.2022
4935 Clouds -3 1024 95 10000 1.19 322 18:46 07.03.2022
4936 Clouds -1 1020 91 10000 1.57 358 17:54 07.03.2022
4937 Clouds 1 1017 81 10000 1.7 6 16:56 07.03.2022
4938 Clouds 1 1016 72 10000 2 13 16:20 07.03.2022
4939 Clear 1 1016 39 10000 1.54 24 14:18 07.03.2022
4940 Clear -1 1016 48 10000 0.89 48 12:33 07.03.2022
4941 Clear -4 1017 62 10000 0.92 96 10:39 07.03.2022
4942 Clear -5 1018 70 10000 0.67 114 09:47 07.03.2022
4943 Clouds -8 1025 67 10000 1.23 223 06:20 07.03.2022
4944 Clouds -7 1027 83 10000 0.75 232 00:23 07.03.2022
4945 Clouds -6 1027 83 10000 0.75 232 23:41 06.03.2022
4946 Clouds -5 1027 89 10000 0.63 239 22:57 06.03.2022
4947 Clouds -5 1027 93 10000 0.52 254 22:24 06.03.2022
4948 Clouds -3 1026 95 9870 0.48 277 20:51 06.03.2022
4949 Clouds -3 1025 95 8257 0.61 315 20:26 06.03.2022
4950 Clouds -3 1024 94 8278 0.93 342 19:23 06.03.2022
4951 Clouds -2 1021 92 10000 1.57 357 18:25 06.03.2022
4952 Clouds -1 1018 52 10000 2.28 359 17:21 06.03.2022
4953 Clouds -1 1018 82 10000 2.28 359 16:43 06.03.2022
4954 Clouds 0 1017 54 10000 2.4 1 16:18 06.03.2022
4955 Clouds -2 1017 68 10000 2.2 3 14:57 06.03.2022
4956 Clouds -2 1017 68 10000 2.2 3 14:38 06.03.2022
4957 Clouds -2 1017 65 10000 2.02 6 13:36 06.03.2022
4958 Clouds -1 1017 35 10000 1.22 20 12:35 06.03.2022
4959 Clouds -3 1018 53 10000 0.69 162 11:21 06.03.2022
4960 Clouds -4 1018 51 10000 1.29 159 10:29 06.03.2022
4961 Clouds -7 1020 65 10000 0.71 155 08:40 06.03.2022
4962 Clouds -10 1024 77 10000 0.94 215 08:20 06.03.2022
4963 Clouds -10 1026 74 10000 1.01 241 06:22 06.03.2022
4964 Clouds -9 1026 74 10000 1.68 216 00:55 06.03.2022
4965 Clouds -8 1026 76 10000 1.77 214 00:33 06.03.2022
4966 Clouds -8 1026 76 10000 1.77 214 00:33 06.03.2022
4967 Clouds -7 1026 78 10000 1.64 216 23:41 05.03.2022
4968 Clouds -8 1027 88 10000 1.31 219 23:18 05.03.2022
4969 Clouds -6 1026 93 9076 1.02 233 22:25 05.03.2022
4970 Clouds -6 1025 94 8365 0.82 267 21:24 05.03.2022
4971 Clouds -3 1024 94 9064 0.96 300 19:53 05.03.2022
4972 Clouds -2 1023 94 8656 1.1 315 18:56 05.03.2022
4973 Clouds -2 1023 94 8656 1.1 315 18:34 05.03.2022
4974 Clouds 0 1017 82 10000 2.25 354 16:52 05.03.2022
4975 Clouds 0 1016 70 10000 2.42 352 15:43 05.03.2022
4976 Clear 0 1016 65 10000 2.4 357 14:52 05.03.2022
4977 Clear 0 1016 65 10000 2.4 357 14:34 05.03.2022
4978 Clear 1 1015 38 10000 2.29 357 13:34 05.03.2022
4979 Clear -2 1016 49 10000 1.43 355 11:49 05.03.2022
4980 Clear -2 1017 49 10000 1.02 347 11:20 05.03.2022
4981 Clear -4 1018 53 10000 0.57 323 10:23 05.03.2022
4982 Clear -6 1020 55 10000 0.42 269 09:28 05.03.2022
4983 Clear -10 1025 52 10000 0.93 245 07:58 05.03.2022
4984 Clouds -9 1026 45 10000 1.16 243 05:43 05.03.2022
4985 Clouds -9 1026 49 10000 1.13 240 04:33 05.03.2022
4986 Clouds -7 1026 76 10000 1.07 237 23:38 04.03.2022
4987 Clouds -6 1026 88 10000 0.94 243 22:44 04.03.2022
4988 Clouds -5 1025 94 9435 0.78 268 22:23 04.03.2022
4989 Clouds -4 1024 95 7335 0.78 302 21:24 04.03.2022
4990 Clouds -1 1024 95 10000 1.12 320 20:28 04.03.2022
4991 Clouds -1 1024 95 10000 1.12 320 19:36 04.03.2022
4992 Clouds 0 1022 95 9006 1.53 333 18:46 04.03.2022
4993 Clouds 1 1019 93 10000 2.22 342 18:20 04.03.2022
4994 Clouds 2 1016 84 10000 3.01 343 17:28 04.03.2022
4995 Clouds 3 1015 46 10000 3.26 350 15:31 04.03.2022
4996 Clouds 3 1015 72 10000 3.37 351 14:36 04.03.2022
4997 Clouds 1 1015 73 10000 3.16 347 13:27 04.03.2022
4998 Clouds 1 1015 67 10000 2.92 350 11:56 04.03.2022
4999 Clouds 0 1016 78 10000 2.9 349 10:57 04.03.2022
5000 Clouds -1 1017 79 10000 2.77 343 10:18 04.03.2022
5001 Clouds -3 1018 84 4749 2.16 335 08:48 04.03.2022
5002 Clouds -6 1020 97 3077 1.43 322 07:41 04.03.2022
5003 Clouds -6 1020 93 5055 1.31 316 04:59 04.03.2022
5004 Clouds -5 1021 91 10000 1.72 320 00:41 04.03.2022
5005 Clouds -4 1020 91 10000 2.01 303 22:53 03.03.2022
5006 Clear -4 1021 89 10000 2 307 21:57 03.03.2022
5007 Clear -4 1021 89 10000 2 307 21:34 03.03.2022
5008 Clear -2 1020 82 10000 2.07 311 20:21 03.03.2022
5009 Clouds 2 1019 82 10000 2.05 309 18:57 03.03.2022
5010 Clouds 3 1017 83 10000 2.25 326 18:24 03.03.2022
5011 Clouds 5 1017 52 10000 2.25 326 17:31 03.03.2022
5012 Clouds 5 1013 75 10000 1.4 329 16:26 03.03.2022
5013 Clouds 6 1013 75 10000 1.4 329 15:41 03.03.2022
5014 Clouds 5 1013 78 10000 1.43 344 14:44 03.03.2022
5015 Clouds 5 1013 78 10000 1.28 342 14:25 03.03.2022
5016 Clear 4 1015 47 10000 0.73 164 12:28 03.03.2022
5017 Clear 3 1016 50 10000 0.35 127 10:56 03.03.2022
5018 Clear 1 1016 56 10000 0.35 23 09:56 03.03.2022
5019 Clear -5 1018 64 10000 0.75 335 08:34 03.03.2022
5020 Clouds -7 1023 61 10000 1.07 290 06:38 03.03.2022
5021 Clouds -6 1023 61 10000 1.08 288 04:47 03.03.2022
5022 Clouds -1 1021 65 10000 1.14 303 23:45 02.03.2022
5023 Clouds -2 1023 50 10000 1.2 314 22:53 02.03.2022
5024 Clouds -2 1023 50 10000 1.2 314 22:53 02.03.2022
5025 Snow -2 1023 50 10000 1.2 314 22:31 02.03.2022
5026 Clouds -1 1025 49 10000 1.55 315 20:59 02.03.2022
5027 Clouds -1 1024 55 10000 1.84 320 20:25 02.03.2022
5028 Clouds -1 1024 55 10000 1.84 320 19:37 02.03.2022
5029 Clouds 0 1024 61 10000 2.12 324 18:58 02.03.2022
5030 Clouds 2 1021 69 10000 2.33 328 18:26 02.03.2022
5031 Clouds 2 1021 69 10000 2.33 328 17:41 02.03.2022
5032 Clouds 3 1019 68 10000 2.18 335 16:52 02.03.2022
5033 Clouds 4 1018 61 10000 2.08 335 15:46 02.03.2022
5034 Clouds 4 1018 74 10000 1.71 331 13:52 02.03.2022
5035 Clouds 2 1018 77 10000 1.55 334 12:46 02.03.2022
5036 Clouds 2 1018 76 10000 1.51 331 12:46 02.03.2022
5037 Clouds 3 1019 32 10000 1.51 334 12:24 02.03.2022
5038 Clouds 2 1019 38 10000 1.48 331 11:26 02.03.2022
5039 Clouds 0 1019 41 10000 1.48 331 10:39 02.03.2022
5040 Clouds -2 1020 43 10000 1.29 322 09:36 02.03.2022
5041 Clouds -6 1022 56 10000 1.13 312 08:34 02.03.2022
5042 Clouds -7 1027 59 10000 1.08 275 07:23 02.03.2022
5043 Clouds -7 1029 62 10000 1.13 270 04:51 02.03.2022
5044 Clouds -7 1030 34 10000 1.15 254 00:40 02.03.2022
5045 Clouds -6 1032 31 10000 1.19 271 23:27 01.03.2022
5046 Clouds -6 1032 31 10000 1.19 271 22:38 01.03.2022
5047 Clouds -5 1032 30 10000 1.04 270 21:53 01.03.2022
5048 Clouds -6 1032 31 10000 1.08 286 20:41 01.03.2022
5049 Clouds -5 1032 33 10000 1.45 293 20:20 01.03.2022
5050 Clouds -3 1031 43 10000 1.64 300 18:58 01.03.2022
5051 Clouds -2 1029 63 10000 2.17 313 18:24 01.03.2022
5052 Clouds 0 1029 63 10000 2.17 313 17:54 01.03.2022
5053 Clouds 1 1026 68 10000 2.55 326 16:37 01.03.2022
5054 Clouds 2 1024 60 10000 2.23 324 15:48 01.03.2022
5055 Clouds 1 1024 58 10000 1.83 316 14:54 01.03.2022
5056 Clouds 2 1024 40 10000 1.83 316 14:31 01.03.2022
5057 Clouds 1 1025 39 10000 1.16 298 13:26 01.03.2022
5058 Clouds 1 1025 39 10000 1.16 296 12:37 01.03.2022
5059 Clouds 0 1026 45 10000 0.87 254 11:38 01.03.2022
5060 Clouds -4 1029 59 10000 1.64 207 09:52 01.03.2022
5061 Clouds -9 1032 74 10000 2.52 192 08:30 01.03.2022
5062 Clear -8 1036 74 10000 3.22 197 07:19 01.03.2022
5063 Clear -7 1034 61 10000 1.55 228 03:27 01.03.2022
5064 Clear -7 1033 62 10000 0.92 276 00:48 01.03.2022
5065 Clear -5 1033 62 10000 0.88 296 23:46 28.02.2022
5066 Clear -6 1032 62 10000 1.01 313 22:43 28.02.2022
5067 Clear -6 1033 63 10000 1.28 321 21:48 28.02.2022
5068 Clear -5 1033 66 10000 1.62 325 20:54 28.02.2022
5069 Clear -4 1033 71 10000 1.79 327 19:51 28.02.2022
5070 Clear -1 1032 80 10000 1.87 329 18:56 28.02.2022
5071 Clear 1 1030 84 10000 2.27 344 17:43 28.02.2022
5072 Clear 2 1027 45 10000 3.3 349 17:22 28.02.2022
5073 Clear 2 1026 71 10000 3.24 354 16:25 28.02.2022
5074 Clear 3 1026 36 10000 3.42 352 14:33 28.02.2022
5075 Clear 3 1025 37 10000 3.39 353 13:56 28.02.2022
5076 Clear 2 1025 34 10000 3.16 351 13:24 28.02.2022
5077 Clear 1 1026 46 10000 3.14 350 12:25 28.02.2022
5078 Clear 0 1026 37 10000 3.16 349 11:19 28.02.2022
5079 Clear -2 1027 49 10000 2.73 345 10:23 28.02.2022
5080 Clear -4 1027 49 10000 2.73 345 09:44 28.02.2022
5081 Clear -6 1030 53 10000 2.05 334 09:23 28.02.2022
5082 Clear -9 1034 63 10000 1.62 318 08:21 28.02.2022
5083 Clear -10 1035 52 10000 1.83 313 06:31 28.02.2022
5084 Clear -9 1036 47 10000 1.42 293 04:31 28.02.2022
5085 Clear -9 1037 79 10000 2.26 206 01:24 28.02.2022
5086 Clear -8 1038 78 10000 2.01 201 22:55 27.02.2022
5087 Clear -7 1038 78 10000 2.01 201 22:32 27.02.2022
5088 Clear -6 1037 76 10000 2.09 197 21:42 27.02.2022
5089 Clear -6 1036 74 10000 2.25 199 20:50 27.02.2022
5090 Clear -6 1036 72 10000 2.24 192 20:18 27.02.2022
5091 Clear -5 1036 72 10000 2.24 192 19:50 27.02.2022
5092 Clear -5 1035 70 10000 2.45 182 19:22 27.02.2022
5093 Clear -4 1035 70 10000 2.45 182 18:37 27.02.2022
5094 Clouds -1 1032 78 10000 2.44 172 17:52 27.02.2022
5095 Clouds 0 1028 38 10000 2.16 151 16:30 27.02.2022
5096 Clouds 0 1026 64 10000 2.37 147 15:24 27.02.2022
5097 Clear -1 1026 44 10000 1.56 155 12:43 27.02.2022
5098 Clear -2 1027 59 10000 1.34 150 12:25 27.02.2022
5099 Clear -4 1027 49 10000 1.33 150 10:37 27.02.2022
5100 Clear -4 1027 45 10000 1.13 174 09:58 27.02.2022
5101 Clear -9 1030 65 10000 1 188 09:24 27.02.2022
5102 Clear -9 1030 53 10000 1 188 08:51 27.02.2022
5103 Clear -10 1036 39 10000 1.38 230 06:42 27.02.2022
5104 Clear -9 1035 45 10000 1.64 222 04:19 27.02.2022
5105 Clouds -7 1036 34 10000 1.82 219 00:34 27.02.2022
5106 Clouds -5 1037 47 10000 1.33 206 22:50 26.02.2022
5107 Clouds -4 1038 64 10000 0.62 188 21:34 26.02.2022
5108 Clouds -3 1037 84 10000 0.35 208 20:43 26.02.2022
5109 Clouds -3 1036 93 10000 0.2 339 19:59 26.02.2022
5110 Clouds -2 1036 93 10000 0.2 339 19:34 26.02.2022
5111 Clouds -2 1035 91 10000 0.66 7 18:40 26.02.2022
5112 Clear -1 1033 88 10000 1.27 24 17:40 26.02.2022
5113 Clear -1 1029 62 10000 2.34 23 16:48 26.02.2022
5114 Clear -1 1028 64 10000 2.44 26 15:48 26.02.2022
5115 Clear 0 1028 60 10000 2.51 34 15:20 26.02.2022
5116 Clear 0 1028 60 10000 2.51 34 14:52 26.02.2022
5117 Clear 0 1028 64 10000 2.78 36 14:25 26.02.2022
5118 Clouds -1 1029 64 10000 2.85 42 13:18 26.02.2022
5119 Clouds -2 1030 71 10000 2.94 45 12:20 26.02.2022
5120 Clouds -2 1031 74 10000 2.84 38 11:28 26.02.2022
5121 Clouds -2 1031 80 10000 2.84 38 10:39 26.02.2022
5122 Clouds -5 1035 89 10000 1.81 39 08:48 26.02.2022
5123 Clouds -6 1039 96 8186 1.14 351 06:51 26.02.2022
5124 Snow -4 1033 85 3459 3.49 330 00:50 26.02.2022
5125 Snow -4 1032 91 2223 3.68 330 22:47 25.02.2022
5126 Snow -4 1032 89 2147 3.62 327 21:40 25.02.2022
5127 Snow -4 1032 88 2256 3.5 328 21:21 25.02.2022
5128 Snow -4 1032 94 2256 3.5 328 20:32 25.02.2022
5129 Snow -1 1034 94 4548 2.77 323 18:41 25.02.2022
5130 Clouds -2 1029 88 9345 4.05 336 17:23 25.02.2022
5131 Clouds 0 1028 78 10000 4.61 336 16:21 25.02.2022
5132 Clouds 0 1028 78 10000 4.61 336 15:43 25.02.2022
5133 Clouds 0 1027 76 10000 4.82 335 15:20 25.02.2022
5134 Clouds 0 1027 51 10000 4.82 335 14:42 25.02.2022
5135 Clouds -1 1026 51 10000 4.72 335 13:36 25.02.2022
5136 Clouds 0 1026 80 9513 4.43 336 12:55 25.02.2022
5137 Snow -2 1026 84 8207 4.7 338 11:28 25.02.2022
5138 Snow -3 1025 85 8128 4.57 339 10:29 25.02.2022
5139 Snow -3 1025 86 8128 4.57 339 09:57 25.02.2022
5140 Snow -3 1026 88 7593 4.14 337 09:18 25.02.2022
5141 Snow -4 1027 94 7117 3.89 334 07:41 25.02.2022
5142 Snow -5 1027 93 6891 3.69 334 05:49 25.02.2022
5143 Snow -3 1026 94 7802 3.71 333 04:32 25.02.2022
5144 Snow -1 1024 90 10000 1.93 304 23:47 24.02.2022
5145 Clouds -1 1024 92 10000 1.66 294 21:56 24.02.2022
5146 Clouds -1 1024 92 10000 1.66 294 21:38 24.02.2022
5147 Clouds 0 1025 92 10000 1.54 287 21:19 24.02.2022
5148 Clouds 1 1025 90 10000 1.5 273 19:38 24.02.2022
5149 Clouds 2 1024 90 10000 1.55 240 18:43 24.02.2022
5150 Clouds 2 1021 89 10000 1.81 199 18:19 24.02.2022
5151 Clouds 3 1021 89 10000 1.81 199 17:33 24.02.2022
5152 Clouds 5 1019 86 10000 2.02 176 16:49 24.02.2022
5153 Clouds 5 1019 83 10000 2.08 191 16:23 24.02.2022
5154 Clouds 4 1019 85 10000 2.44 182 14:54 24.02.2022
5155 Clouds 4 1019 85 10000 2.44 182 14:35 24.02.2022
5156 Clouds 4 1020 87 10000 2.88 178 13:39 24.02.2022
5157 Clouds 3 1020 88 10000 3.19 176 12:50 24.02.2022
5158 Clouds 2 1021 86 10000 3.47 175 10:41 24.02.2022
5159 Clouds -4 1024 85 10000 3.67 174 09:18 24.02.2022
5160 Clouds -2 1024 67 10000 3.67 174 08:40 24.02.2022
5161 Clouds -5 1027 82 10000 3.25 181 05:53 24.02.2022
5162 Clouds -4 1030 83 10000 3.01 188 01:56 24.02.2022
5163 Clouds -3 1031 88 10000 3.18 187 23:31 23.02.2022
5164 Clouds -1 1030 91 10000 3.41 182 21:43 23.02.2022
5165 Clouds -1 1030 90 10000 3.29 183 20:31 23.02.2022
5166 Clouds 0 1029 88 10000 3.37 179 19:48 23.02.2022
5167 Clouds 1 1029 87 10000 3.06 181 18:32 23.02.2022
5168 Clouds 3 1027 88 10000 2.76 179 17:44 23.02.2022
5169 Clouds 5 1024 65 10000 1.95 161 15:19 23.02.2022
5170 Clouds 4 1026 95 10000 0.95 113 13:28 23.02.2022
5171 Clouds 4 1027 78 9992 1.1 58 12:24 23.02.2022
5172 Clouds 3 1028 81 7349 1.74 34 10:44 23.02.2022
5173 Clouds -1 1030 87 6997 2.14 352 09:00 23.02.2022
5174 Clouds -2 1032 96 6938 2.17 335 08:23 23.02.2022
5175 Clouds -2 1032 92 7143 2.55 331 07:18 23.02.2022
5176 Clouds -1 1028 91 10000 3.34 325 01:21 23.02.2022
5177 Clouds -1 1029 90 10000 3.17 319 23:39 22.02.2022
5178 Clouds -1 1031 92 9332 3.21 312 22:51 22.02.2022
5179 Clouds -1 1032 87 10000 3.3 308 21:56 22.02.2022
5180 Clouds -1 1032 87 10000 3.3 308 21:37 22.02.2022
5181 Clouds 0 1031 80 10000 3.28 309 21:18 22.02.2022
5182 Snow 0 1031 80 10000 3.28 309 20:31 22.02.2022
5183 Clouds 0 1030 77 10000 3.39 309 19:51 22.02.2022
5184 Clouds 0 1030 77 10000 3.39 309 19:31 22.02.2022
5185 Clouds 1 1029 86 10000 3.05 314 18:23 22.02.2022
5186 Clouds 1 1027 82 10000 3.7 322 17:26 22.02.2022
5187 Clouds 1 1027 82 10000 3.7 322 16:41 22.02.2022
5188 Clouds 2 1025 78 10000 4.51 330 15:59 22.02.2022
5189 Clouds 2 1024 60 10000 4.22 329 14:48 22.02.2022
5190 Clouds 1 1025 71 10000 4.72 331 12:48 22.02.2022
5191 Clouds 0 1026 73 10000 4.27 332 10:53 22.02.2022
5192 Snow -2 1026 86 4209 4.7 319 08:53 22.02.2022
5193 Snow -3 1024 94 1991 4.96 321 07:27 22.02.2022
5194 Snow -3 1024 94 747 4.81 321 06:52 22.02.2022
5195 Snow -3 1023 95 1622 4.56 332 02:47 22.02.2022
5196 Snow -2 1017 91 405 7.69 338 23:18 21.02.2022
5197 Snow -1 1015 86 187 5.44 329 21:56 21.02.2022
5198 Snow -2 1015 93 215 5.46 331 20:37 21.02.2022
5199 Snow -2 1014 92 107 3.96 330 18:47 21.02.2022
5200 Snow -2 1013 91 155 3.66 332 17:41 21.02.2022
5201 Snow -2 1013 91 155 3.66 332 17:41 21.02.2022
5202 Snow -2 1013 86 5132 4.84 335 15:26 21.02.2022
5203 Snow -1 1013 85 6019 4.49 334 14:22 21.02.2022
5204 Snow -1 1013 79 6019 4.49 334 13:30 21.02.2022
5205 Snow -1 1014 79 6202 4.45 332 12:24 21.02.2022
5206 Snow -1 1015 76 8661 4.35 334 11:20 21.02.2022
5207 Snow -2 1014 83 230 5.42 332 10:23 21.02.2022
5208 Snow 0 1012 89 7778 2.52 277 05:35 21.02.2022
5209 Clouds -1 1020 72 10000 2.18 262 00:20 21.02.2022
5210 Clouds -2 1021 71 10000 2.26 237 22:28 20.02.2022
5211 Clouds -2 1021 71 10000 2.26 237 21:43 20.02.2022
5212 Clouds -1 1022 76 10000 1.98 247 21:19 20.02.2022
5213 Clouds -1 1022 76 10000 1.98 247 20:41 20.02.2022
5214 Clouds 0 1022 81 10000 1.91 255 19:42 20.02.2022
5215 Clouds 1 1022 86 10000 1.89 259 18:54 20.02.2022
5216 Clouds 1 1022 85 10000 1.91 267 18:34 20.02.2022
5217 Clouds 3 1021 88 10000 1.68 262 17:53 20.02.2022
5218 Clouds 5 1019 64 10000 2.09 312 16:18 20.02.2022
5219 Clouds 4 1019 65 10000 1.79 301 14:52 20.02.2022
5220 Clouds 4 1020 67 10000 1.69 302 13:53 20.02.2022
5221 Clouds 3 1021 66 10000 2.43 319 12:34 20.02.2022
5222 Clouds 1 1022 79 10000 2.58 315 10:47 20.02.2022
5223 Clouds 0 1022 80 10000 2.25 319 10:20 20.02.2022
5224 Clouds -3 1025 89 10000 2.06 302 08:56 20.02.2022
5225 Clouds -5 1030 85 10000 2.02 294 00:55 20.02.2022
5226 Clouds -4 1029 84 10000 1.97 290 00:30 20.02.2022
5227 Clouds -4 1029 87 10000 2.29 289 23:19 19.02.2022
5228 Clouds -3 1029 89 10000 2.18 292 22:23 19.02.2022
5229 Clouds -4 1029 89 10000 2.18 292 21:39 19.02.2022
5230 Clouds -1 1028 91 10000 1.74 283 19:58 19.02.2022
5231 Clouds -1 1028 91 10000 1.74 283 19:33 19.02.2022
5232 Clouds -1 1026 92 10000 1.57 286 18:38 19.02.2022
5233 Clouds 0 1024 91 10000 1.3 304 17:37 19.02.2022
5234 Clouds 0 1021 88 10000 1.94 335 16:34 19.02.2022
5235 Clouds 2 1020 80 10000 2.95 341 15:19 19.02.2022
5236 Clouds 1 1020 80 10000 2.95 341 14:52 19.02.2022
5237 Clouds 1 1020 81 10000 3.03 339 13:45 19.02.2022
5238 Clouds 0 1020 84 10000 3.18 336 11:39 19.02.2022
5239 Snow 0 1020 87 9999 3.3 334 10:30 19.02.2022
5240 Snow -1 1020 92 7356 3.18 329 07:56 19.02.2022
5241 Snow 0 1018 93 5245 3.53 331 04:32 19.02.2022
5242 Snow 1 1014 97 1877 2.14 317 23:38 18.02.2022
5243 Rain 3 1015 92 9831 1.61 263 21:54 18.02.2022
5244 Rain 3 1015 85 10000 2.14 245 20:57 18.02.2022
5245 Clouds 3 1014 83 10000 2.19 214 19:54 18.02.2022
5246 Clouds 4 1014 83 10000 2.15 204 18:50 18.02.2022
5247 Clouds 4 1013 86 10000 2.4 196 18:22 18.02.2022
5248 Clouds 3 1013 86 10000 2.4 196 17:55 18.02.2022
5249 Clouds 6 1012 98 1748 3.65 181 15:22 18.02.2022
5250 Clouds 4 1012 98 2674 3.56 186 13:55 18.02.2022
5251 Clouds 5 1012 97 10000 3.53 185 12:55 18.02.2022
5252 Clouds 4 1012 97 10000 3.53 185 12:36 18.02.2022
5253 Clouds 6 1013 59 10000 3.14 196 11:29 18.02.2022
5254 Clouds 4 1013 65 10000 2.65 200 10:23 18.02.2022
5255 Clouds 0 1018 83 10000 1.65 257 06:57 18.02.2022
5256 Clouds 0 1019 84 10000 1.75 266 05:41 18.02.2022
5257 Clouds 2 1022 91 10000 2.72 304 23:34 17.02.2022
5258 Clouds 4 1021 67 10000 3.12 312 21:46 17.02.2022
5259 Clouds 4 1020 93 10000 3.19 318 21:20 17.02.2022
5260 Clouds 4 1020 93 10000 3.19 318 20:38 17.02.2022
5261 Clouds 5 1020 95 6508 3.3 323 19:50 17.02.2022
5262 Clouds 5 1019 95 6384 3.06 322 18:44 17.02.2022
5263 Clouds 5 1018 94 6430 2.86 321 17:55 17.02.2022
5264 Clouds 6 1017 95 6500 2.66 314 16:42 17.02.2022
5265 Clouds 7 1016 98 210 2.45 309 15:38 17.02.2022
5266 Clouds 7 1016 99 103 3.11 317 14:26 17.02.2022
5267 Clouds 7 1016 99 52 2.27 307 12:43 17.02.2022
5268 Clouds 6 1015 100 49 3.2 304 11:27 17.02.2022
5269 Clouds 4 1014 89 59 2.86 311 08:53 17.02.2022
5270 Rain 3 1011 90 2737 2.57 290 04:20 17.02.2022
5271 Snow 1 1015 90 2407 2.02 276 23:21 16.02.2022
5272 Snow 1 1015 97 3506 2.02 294 21:44 16.02.2022
5273 Snow 0 1015 91 4329 2.65 302 19:57 16.02.2022
5274 Snow 0 1014 90 5207 2.89 305 18:39 16.02.2022
5275 Clouds 0 1013 88 5112 2.31 301 17:53 16.02.2022
5276 Clouds 1 1012 88 1833 1.52 261 15:39 16.02.2022
5277 Snow 1 1013 87 1929 1.51 256 15:19 16.02.2022
5278 Snow 1 1014 86 1802 1.75 228 13:28 16.02.2022
5279 Snow 0 1014 85 805 2.23 208 12:19 16.02.2022
5280 Snow -1 1015 81 2157 2.66 201 11:26 16.02.2022
5281 Snow -2 1015 75 2157 2.66 201 10:33 16.02.2022
5282 Snow -4 1017 85 10000 1.89 230 08:20 16.02.2022
5283 Clouds -4 1019 85 10000 1.3 255 06:26 16.02.2022
5284 Clouds -7 1028 71 10000 1.67 280 23:45 15.02.2022
5285 Clouds -5 1027 89 10000 1.59 281 22:30 15.02.2022
5286 Clouds -5 1027 93 10000 1.59 295 21:47 15.02.2022
5287 Clouds -4 1025 92 10000 2.51 315 21:27 15.02.2022
5288 Clouds -4 1025 92 10000 2.51 315 20:56 15.02.2022
5289 Clouds -3 1023 89 10000 3.08 324 19:57 15.02.2022
5290 Clouds -2 1021 91 7969 3.26 325 18:56 15.02.2022
5291 Snow -2 1021 93 5848 3.61 327 18:22 15.02.2022
5292 Snow -2 1021 93 5848 3.61 327 17:50 15.02.2022
5293 Snow -1 1019 90 7607 3.9 330 17:19 15.02.2022
5294 Snow 0 1017 69 8630 3.94 335 15:30 15.02.2022
5295 Snow 0 1017 82 8534 4.19 333 13:28 15.02.2022
5296 Clouds 0 1017 77 8678 3.91 330 12:37 15.02.2022
5297 Snow -1 1017 83 9555 4.11 331 11:40 15.02.2022
5298 Snow -1 1015 95 4380 4.21 337 09:31 15.02.2022
5299 Snow -2 1015 91 1744 3.03 336 06:58 15.02.2022
5300 Snow -2 1015 91 2039 2.55 331 05:32 15.02.2022
5301 Snow -1 1015 87 267 1.36 213 23:33 14.02.2022
5302 Snow -1 1015 88 402 1.8 193 21:47 14.02.2022
5303 Snow -1 1015 89 440 1.85 184 20:40 14.02.2022
5304 Snow -1 1015 95 264 2.25 184 19:36 14.02.2022
5305 Snow 0 1016 93 7591 3.16 170 18:44 14.02.2022
5306 Snow 0 1015 93 8817 3.25 165 18:22 14.02.2022
5307 Clouds 1 1014 91 10000 3.31 159 17:26 14.02.2022
5308 Clouds 2 1013 88 10000 3.92 161 16:24 14.02.2022
5309 Clouds 2 1014 84 10000 4.39 157 14:29 14.02.2022
5310 Clouds 1 1014 84 10000 4.39 157 13:31 14.02.2022
5311 Clouds 0 1015 85 10000 4.19 161 12:48 14.02.2022
5312 Clouds 1 1016 51 10000 4.22 160 11:54 14.02.2022
5313 Clouds -1 1017 54 10000 4.17 161 10:56 14.02.2022
5314 Clouds -7 1021 61 8324 3.72 170 08:45 14.02.2022
5315 Clouds -8 1024 92 7893 3.42 176 07:32 14.02.2022
5316 Clouds -7 1025 93 10000 4.34 174 02:27 14.02.2022
5317 Clouds -7 1026 92 10000 4.62 174 22:42 13.02.2022
5318 Clouds -7 1026 92 10000 4.78 173 22:24 13.02.2022
5319 Clouds -7 1026 92 10000 4.78 173 21:32 13.02.2022
5320 Clouds -6 1026 92 10000 4.8 171 20:36 13.02.2022
5321 Clouds -5 1026 93 10000 4.63 172 19:45 13.02.2022
5322 Clouds -5 1027 91 10000 4.3 173 18:49 13.02.2022
5323 Clear -3 1026 86 10000 4.16 172 18:28 13.02.2022
5324 Clear 0 1022 75 10000 3.87 166 16:34 13.02.2022
5325 Clear 2 1022 71 10000 3.68 169 15:24 13.02.2022
5326 Clear 1 1022 71 10000 3.68 169 14:36 13.02.2022
5327 Clear 0 1023 66 10000 3.63 170 12:51 13.02.2022
5328 Clouds 0 1024 35 10000 3.59 170 11:44 13.02.2022
5329 Clouds -2 1025 35 10000 3.47 171 10:34 13.02.2022
5330 Clouds -5 1027 45 10000 3.25 170 09:47 13.02.2022
5331 Clouds -9 1033 53 10000 2.33 191 07:51 13.02.2022
5332 Clouds -7 1033 77 10000 2.39 199 00:36 13.02.2022
5333 Clouds -7 1034 81 10000 2.61 197 23:53 12.02.2022
5334 Clouds -7 1035 85 10000 2.75 196 22:33 12.02.2022
5335 Clouds -6 1035 89 10000 3.05 192 21:31 12.02.2022
5336 Clouds -7 1035 92 10000 3.28 187 20:47 12.02.2022
5337 Clouds -6 1035 93 10000 3.31 186 19:35 12.02.2022
5338 Clouds -5 1035 93 10000 3.17 184 18:53 12.02.2022
5339 Clouds -5 1034 93 10000 3.22 185 18:35 12.02.2022
5340 Clouds -3 1031 86 10000 2.99 174 17:20 12.02.2022
5341 Clouds -3 1031 86 10000 2.99 174 16:43 12.02.2022
5342 Clouds -2 1029 79 10000 2.92 172 15:51 12.02.2022
5343 Clouds -1 1029 74 10000 3.07 176 14:44 12.02.2022
5344 Clouds -2 1029 72 10000 3.34 176 14:24 12.02.2022
5345 Clear -3 1032 36 10000 3.72 175 11:18 12.02.2022
5346 Clear -7 1033 43 10000 3.46 177 09:51 12.02.2022
5347 Clear -9 1036 46 10000 3.04 183 09:27 12.02.2022
5348 Clear -10 1036 53 10000 3.04 183 08:45 12.02.2022
5349 Clear -10 1037 17 10000 2.93 189 05:40 12.02.2022
5350 Clear -10 1037 17 10000 2.65 186 04:33 12.02.2022
5351 Clear -8 1040 33 10000 0.81 211 02:18 12.02.2022
5352 Clouds -7 1042 55 10000 0.49 338 22:55 11.02.2022
5353 Clouds -7 1042 60 10000 0.86 344 22:20 11.02.2022
5354 Clouds -6 1042 70 10000 1.19 338 20:43 11.02.2022
5355 Clouds -5 1041 87 10000 1.48 339 19:48 11.02.2022
5356 Clouds -5 1040 93 6741 1.73 335 19:27 11.02.2022
5357 Clouds -4 1038 95 9825 1.96 340 18:26 11.02.2022
5358 Clouds -2 1034 92 10000 3.18 346 17:26 11.02.2022
5359 Clouds -1 1031 83 10000 3.62 347 16:26 11.02.2022
5360 Clouds 0 1030 56 10000 4.14 345 14:57 11.02.2022
5361 Clouds 0 1030 63 10000 4.14 345 14:36 11.02.2022
5362 Clouds 1 1029 64 8162 4.43 345 14:18 11.02.2022
5363 Clouds 0 1029 63 8162 4.43 345 13:39 11.02.2022
5364 Snow 0 1029 66 7848 4.43 345 12:19 11.02.2022
5365 Snow -1 1027 74 3820 4.1 342 10:24 11.02.2022
5366 Snow -1 1027 76 510 3.73 340 09:19 11.02.2022
5367 Snow -1 1026 92 1962 3.41 336 08:28 11.02.2022
5368 Snow -1 1027 91 3004 3.6 330 07:34 11.02.2022
5369 Clouds -1 1028 83 10000 1.37 260 02:40 11.02.2022
5370 Clouds -1 1029 86 10000 1.39 259 02:20 11.02.2022
5371 Clear -2 1030 87 10000 1.38 277 23:36 10.02.2022
5372 Clear -2 1031 80 10000 1.58 287 21:53 10.02.2022
5373 Clear -2 1031 77 10000 1.62 285 21:24 10.02.2022
5374 Clear -1 1031 77 10000 1.62 285 20:48 10.02.2022
5375 Clouds -1 1030 77 10000 1.54 281 19:26 10.02.2022
5376 Clouds -1 1030 77 10000 1.54 281 18:47 10.02.2022
5377 Clouds 3 1029 75 10000 1.47 289 17:39 10.02.2022
5378 Clouds 3 1026 78 10000 1.64 313 17:19 10.02.2022
5379 Clouds 3 1024 79 10000 1.85 323 16:20 10.02.2022
5380 Clouds 3 1024 79 10000 1.85 323 15:33 10.02.2022
5381 Clouds 4 1024 82 10000 1.7 322 14:49 10.02.2022
5382 Clouds 5 1024 86 10000 1.41 316 14:29 10.02.2022
5383 Clouds 4 1024 86 10000 1.41 316 13:33 10.02.2022
5384 Clouds 5 1024 90 10000 0.99 304 12:51 10.02.2022
5385 Clear 4 1025 42 10000 1.14 317 11:38 10.02.2022
5386 Clear 2 1025 49 10000 0.95 309 11:20 10.02.2022
5387 Clear 1 1026 54 10000 1.04 303 10:18 10.02.2022
5388 Clouds -3 1029 58 10000 1.1 282 09:25 10.02.2022
5389 Clouds -8 1031 34 10000 1.27 281 07:40 10.02.2022
5390 Clouds -7 1030 28 10000 1.08 269 05:52 10.02.2022
5391 Clouds -7 1031 25 10000 1.41 231 01:57 10.02.2022
5392 Clouds -7 1031 24 10000 1.47 232 00:50 10.02.2022
5393 Clouds -7 1031 23 10000 1.46 231 00:50 10.02.2022
5394 Clouds -6 1031 22 10000 1.48 231 00:29 10.02.2022
5395 Clouds -7 1031 20 10000 1.52 227 23:26 09.02.2022
5396 Clouds -5 1031 20 10000 1.52 227 22:37 09.02.2022
5397 Clouds -5 1031 19 10000 1.33 228 21:52 09.02.2022
5398 Clouds -5 1031 19 10000 1.33 228 21:30 09.02.2022
5399 Clouds -2 1031 19 10000 1.18 235 20:51 09.02.2022
5400 Clouds -3 1031 19 10000 1.18 235 20:31 09.02.2022
5401 Clouds -4 1031 19 10000 1.16 241 19:56 09.02.2022
5402 Clouds -4 1031 19 10000 1.16 241 19:32 09.02.2022
5403 Clouds 2 1030 33 10000 1.05 268 17:38 09.02.2022
5404 Clouds 2 1027 52 10000 0.95 285 16:52 09.02.2022
5405 Clouds 2 1027 70 10000 0.94 279 15:51 09.02.2022
5406 Clouds 2 1027 89 9045 0.89 263 14:42 09.02.2022
5407 Clouds 2 1028 94 10000 0.91 233 12:28 09.02.2022
5408 Clouds 5 1028 46 10000 0.89 243 10:55 09.02.2022
5409 Clouds 5 1028 46 10000 0.89 243 10:55 09.02.2022
5410 Clouds 1 1028 47 10000 0.89 243 10:30 09.02.2022
5411 Clouds -8 1028 53 10000 0.96 246 09:40 09.02.2022
5412 Clouds -2 1031 58 10000 1.19 256 09:19 09.02.2022
5413 Clouds -3 1032 60 10000 1.27 262 07:55 09.02.2022
5414 Clear -3 1032 62 10000 1.35 267 05:30 09.02.2022
5415 Clear -4 1032 67 10000 1.25 261 03:50 09.02.2022
5416 Clear -4 1033 73 10000 1.14 269 00:53 09.02.2022
5417 Clear -4 1034 73 10000 1.06 273 23:33 08.02.2022
5418 Clear -4 1034 72 10000 1.13 280 22:47 08.02.2022
5419 Clear -4 1035 71 10000 1.09 282 22:21 08.02.2022
5420 Clear -4 1035 71 10000 1.09 282 21:42 08.02.2022
5421 Clear -4 1035 70 10000 1.23 291 21:21 08.02.2022
5422 Clear -4 1035 70 10000 1.23 291 20:44 08.02.2022
5423 Clear -3 1035 69 10000 1.24 291 19:46 08.02.2022
5424 Clear -2 1035 67 10000 1.39 302 18:38 08.02.2022
5425 Clear -1 1034 54 10000 1.52 310 17:42 08.02.2022
5426 Clear 2 1032 54 10000 1.82 326 16:30 08.02.2022
5427 Clear 3 1030 52 10000 2.04 334 15:30 08.02.2022
5428 Clear 4 1030 45 10000 2.25 337 14:38 08.02.2022
5429 Clear 2 1031 45 10000 2.3 338 13:24 08.02.2022
5430 Clear -1 1031 78 10000 2.55 336 11:38 08.02.2022
5431 Clear -1 1033 56 10000 2.7 331 10:23 08.02.2022
5432 Clear -1 1033 56 10000 2.7 331 10:23 08.02.2022
5433 Clear -3 1033 56 10000 2.7 331 09:45 08.02.2022
5434 Clear -7 1038 75 10000 2.31 318 07:55 08.02.2022
5435 Clear -6 1037 83 10000 2.52 318 05:41 08.02.2022
5436 Clear -7 1038 84 10000 2.5 317 04:39 08.02.2022
5437 Clear -7 1038 83 10000 2.3 313 04:21 08.02.2022
5438 Clear -8 1038 82 10000 2.3 313 03:36 08.02.2022
5439 Clear -8 1038 83 10000 2.45 316 03:18 08.02.2022
5440 Clear -7 1038 84 10000 2.45 316 02:59 08.02.2022
5441 Clear -7 1038 84 10000 2.45 316 02:36 08.02.2022
5442 Clear -8 1038 84 10000 2.57 318 02:18 08.02.2022
5443 Clear -8 1038 84 10000 2.57 318 02:18 08.02.2022
5444 Clear -7 1038 82 10000 2.57 318 01:44 08.02.2022
5445 Clouds -6 1038 32 10000 2.47 320 01:24 08.02.2022
5446 Clouds -6 1038 32 10000 2.47 320 00:54 08.02.2022
5447 Clear -7 1038 33 10000 2.56 320 23:57 07.02.2022
5448 Clear -7 1038 33 10000 2.56 320 23:39 07.02.2022
5449 Clouds -8 1039 36 10000 2.66 323 23:18 07.02.2022
5450 Clouds -7 1039 43 10000 2.59 324 22:20 07.02.2022
5451 Clouds -7 1039 43 10000 2.59 324 21:55 07.02.2022
5452 Clouds -7 1039 55 10000 2.8 323 21:29 07.02.2022
5453 Clouds -7 1039 55 10000 2.8 323 20:59 07.02.2022
5454 Clouds -7 1039 55 10000 2.8 323 20:40 07.02.2022
5455 Clouds -5 1039 72 10000 2.8 319 19:51 07.02.2022
5456 Clouds -5 1039 72 10000 2.8 319 19:32 07.02.2022
5457 Clouds -2 1036 95 7854 3.29 325 17:52 07.02.2022
5458 Clouds -1 1033 92 10000 4.16 331 16:53 07.02.2022
5459 Clouds -1 1030 83 10000 4.75 336 15:49 07.02.2022
5460 Clouds -1 1030 77 10000 4.7 332 14:55 07.02.2022
5461 Snow -2 1029 82 5577 4.91 320 13:28 07.02.2022
5462 Snow -2 1029 69 5577 4.91 320 12:52 07.02.2022
5463 Snow -2 1028 70 4928 5.3 325 11:58 07.02.2022
5464 Snow -2 1028 74 4928 5.3 325 11:35 07.02.2022
5465 Snow -3 1026 84 4571 5.86 331 10:50 07.02.2022
5466 Snow -4 1026 84 4571 5.86 331 10:30 07.02.2022
5467 Snow -4 1024 87 8842 6.3 333 09:53 07.02.2022
5468 Snow -4 1023 90 2696 6.67 332 09:18 07.02.2022
5469 Snow -3 1023 93 2696 6.67 332 08:36 07.02.2022
5470 Snow -2 1017 94 180 6.24 344 06:54 07.02.2022
5471 Snow -2 1017 94 180 6.24 344 06:34 07.02.2022
5472 Snow 1 1011 97 119 3.44 311 02:58 07.02.2022
5473 Snow 0 1013 92 142 2.96 277 00:45 07.02.2022
5474 Snow 0 1013 92 142 2.96 277 00:45 07.02.2022
5475 Snow 0 1014 89 142 2.74 272 23:47 06.02.2022
5476 Snow -1 1015 86 202 2.91 268 22:48 06.02.2022
5477 Snow -1 1017 88 555 3.08 257 21:54 06.02.2022
5478 Snow -1 1017 88 555 3.08 257 21:35 06.02.2022
5479 Snow -1 1018 87 2340 2.97 251 20:54 06.02.2022
5480 Snow -1 1018 86 2340 2.97 251 20:31 06.02.2022
5481 Snow 0 1019 86 1550 2.52 267 19:38 06.02.2022
5482 Snow -1 1018 84 2050 2.76 273 18:40 06.02.2022
5483 Snow -1 1019 87 3475 2.11 277 17:55 06.02.2022
5484 Clouds -1 1018 84 9261 2 271 17:18 06.02.2022
5485 Clouds 0 1018 84 9261 2 271 16:38 06.02.2022
5486 Clouds 0 1017 78 10000 1.71 263 15:48 06.02.2022
5487 Clouds 0 1018 68 10000 1.71 279 15:26 06.02.2022
5488 Clouds 1 1018 66 10000 1.71 279 14:36 06.02.2022
5489 Clouds 1 1018 56 10000 1.72 238 13:25 06.02.2022
5490 Clouds 0 1018 63 10000 1.58 247 12:51 06.02.2022
5491 Clouds -1 1020 46 10000 1.41 247 11:27 06.02.2022
5492 Clouds -3 1022 49 10000 1.62 283 10:30 06.02.2022
5493 Clouds -6 1025 80 10000 1.8 278 08:49 06.02.2022
5494 Clouds -7 1027 80 10000 1.94 273 07:51 06.02.2022
5495 Clouds -8 1028 82 10000 1.78 261 05:30 06.02.2022
5496 Clouds -8 1028 82 10000 1.78 261 05:30 06.02.2022
5497 Clouds -8 1028 82 10000 1.78 261 05:30 06.02.2022
5498 Clouds -8 1028 82 10000 1.78 261 05:30 06.02.2022
5499 Clear -7 1031 83 10000 1.64 263 02:26 06.02.2022
5500 Clear -7 1031 83 10000 1.64 263 01:47 06.02.2022
5501 Clear -7 1031 33 10000 1.65 273 00:26 06.02.2022
5502 Clear -6 1032 45 10000 1.6 276 22:20 05.02.2022
5503 Clear -6 1032 56 10000 1.59 284 20:59 05.02.2022
5504 Clear -5 1032 69 10000 1.55 290 20:24 05.02.2022
5505 Clear -5 1032 69 10000 1.55 290 19:45 05.02.2022
5506 Clouds -5 1031 88 10000 1.91 303 18:52 05.02.2022
5507 Clouds -2 1030 92 10000 1.96 306 17:38 05.02.2022
5508 Clouds -1 1027 91 10000 1.91 320 16:48 05.02.2022
5509 Clouds 1 1024 71 10000 2.44 335 15:33 05.02.2022
5510 Clouds 2 1024 66 10000 2.74 335 14:47 05.02.2022
5511 Clouds 0 1024 77 10000 3 340 12:47 05.02.2022
5512 Clouds -1 1024 86 10000 3.06 341 11:49 05.02.2022
5513 Clouds -2 1024 90 10000 3.09 341 10:46 05.02.2022
5514 Snow -2 1024 93 7925 3.49 346 09:52 05.02.2022
5515 Snow -2 1024 92 7051 3.61 341 09:25 05.02.2022
5516 Snow -2 1024 94 6811 3.74 337 07:38 05.02.2022
5517 Snow -2 1023 94 7104 3.57 332 06:56 05.02.2022
5518 Clouds -1 1023 94 7995 3.23 320 03:55 05.02.2022
5519 Clouds -1 1022 93 10000 2.95 315 01:19 05.02.2022
5520 Clouds -1 1022 92 9724 3.03 318 00:42 05.02.2022
5521 Clouds -1 1021 91 8687 3.3 322 23:38 04.02.2022
5522 Clouds -1 1021 91 6804 3.29 320 23:20 04.02.2022
5523 Clouds -1 1021 85 3805 3.25 315 21:37 04.02.2022
5524 Clouds -1 1021 84 6882 3.27 316 21:18 04.02.2022
5525 Clouds -1 1021 82 6882 3.27 316 20:50 04.02.2022
5526 Clouds -1 1021 95 6959 2.81 309 19:33 04.02.2022
5527 Clouds 1 1017 76 6119 1.68 301 17:27 04.02.2022
5528 Clouds 3 1015 63 8679 1.24 299 15:38 04.02.2022
5529 Clouds 3 1015 66 7897 1.28 291 14:52 04.02.2022
5530 Clear 2 1015 73 10000 0.68 268 12:43 04.02.2022
5531 Clear 1 1016 71 10000 0.72 280 11:47 04.02.2022
5532 Clear 2 1017 66 10000 1.04 298 11:22 04.02.2022
5533 Clear 0 1017 81 10000 1.04 298 10:30 04.02.2022
5534 Clear -5 1022 73 10000 1.31 281 08:34 04.02.2022
5535 Clouds -5 1023 59 10000 1.11 258 05:19 04.02.2022
5536 Clouds -5 1023 59 10000 1.12 251 02:39 04.02.2022
5537 Clouds -3 1023 76 10000 1.34 221 00:26 04.02.2022
5538 Clouds -1 1022 89 10000 1.82 217 22:55 03.02.2022
5539 Clouds -1 1021 89 10000 2.23 197 22:22 03.02.2022
5540 Clouds -1 1021 91 10000 2.23 197 21:41 03.02.2022
5541 Clouds -1 1022 92 10000 2.46 202 20:26 03.02.2022
5542 Clouds 0 1022 91 10000 2.46 202 19:57 03.02.2022
5543 Clouds 0 1021 92 10000 2.5 201 19:23 03.02.2022
5544 Clouds 0 1021 92 10000 2.09 205 18:24 03.02.2022
5545 Clouds 1 1020 91 10000 2.42 195 17:27 03.02.2022
5546 Clouds 3 1019 88 10000 2.49 191 15:44 03.02.2022
5547 Clouds 2 1018 87 10000 2.78 190 14:22 03.02.2022
5548 Clouds 2 1019 81 10000 2.48 196 12:32 03.02.2022
5549 Clouds -2 1023 91 10000 1.18 287 09:29 03.02.2022
5550 Clouds -3 1025 93 10000 1.34 303 08:19 03.02.2022
5551 Clouds -1 1026 95 10000 2.36 331 02:56 03.02.2022
5552 Clouds -1 1027 95 6594 3.19 327 00:29 03.02.2022
5553 Clouds -1 1027 94 6582 3.74 327 22:41 02.02.2022
5554 Snow -1 1026 94 6687 4.1 327 21:52 02.02.2022
5555 Snow -1 1026 94 6406 4.04 325 21:29 02.02.2022
5556 Snow 0 1025 92 2721 4.02 327 20:28 02.02.2022
5557 Snow 0 1025 88 2721 4.02 327 19:49 02.02.2022
5558 Snow 0 1025 88 1371 4.16 328 19:20 02.02.2022
5559 Snow 0 1025 90 1093 4.16 324 18:25 02.02.2022
5560 Snow 0 1024 91 793 4.37 322 17:23 02.02.2022
5561 Snow 0 1024 90 793 4.37 322 16:59 02.02.2022
5562 Snow 0 1023 91 431 4.55 324 15:49 02.02.2022
5563 Snow 0 1020 94 200 4.85 327 12:47 02.02.2022
5564 Snow 0 1020 94 189 4.76 327 11:51 02.02.2022
5565 Snow 0 1020 94 189 4.76 327 11:51 02.02.2022
5566 Snow 0 1020 94 189 4.76 327 11:30 02.02.2022
5567 Snow -1 1019 95 155 4.72 325 09:18 02.02.2022
5568 Snow 0 1019 94 233 5 322 05:29 02.02.2022
5569 Snow -3 1020 92 154 4.8 324 22:36 01.02.2022
5570 Snow -4 1021 93 133 4.13 319 20:58 01.02.2022
5571 Snow -5 1022 92 132 3.8 312 19:39 01.02.2022
5572 Snow -4 1023 91 325 3.57 317 17:37 01.02.2022
5573 Snow -4 1023 90 574 3.73 317 16:31 01.02.2022
5574 Clouds -3 1025 79 10000 4.8 325 13:27 01.02.2022
5575 Clouds -3 1026 84 9372 4.34 325 12:28 01.02.2022
5576 Snow -5 1027 91 3665 4.25 325 08:52 01.02.2022
5577 Snow -5 1021 89 338 4.83 323 02:24 01.02.2022
5578 Snow -5 1021 87 273 4.71 319 23:39 31.01.2022
5579 Snow -5 1021 89 462 4.97 322 22:42 31.01.2022
5580 Snow -5 1020 91 1938 5 327 21:36 31.01.2022
5581 Snow -4 1019 87 2068 5.51 331 20:35 31.01.2022
5582 Snow -4 1019 89 740 6.01 329 19:59 31.01.2022
5583 Snow -4 1018 84 1314 6.51 328 18:47 31.01.2022
5584 Snow -4 1018 85 588 6.52 329 17:57 31.01.2022
5585 Snow -4 1015 92 2178 6.62 329 17:24 31.01.2022
5586 Snow -3 1014 90 320 5.69 325 16:23 31.01.2022
5587 Snow -2 1013 90 3779 5.27 328 14:53 31.01.2022
5588 Snow -1 1013 88 2249 5.9 326 13:35 31.01.2022
5589 Snow -1 1013 84 6749 5.08 321 12:38 31.01.2022
5590 Snow -2 1017 85 10000 3.58 308 11:26 31.01.2022
5591 Snow -2 1017 85 10000 3.58 308 10:48 31.01.2022
5592 Clouds -3 1019 69 10000 3.99 316 09:37 31.01.2022
5593 Clouds -4 1021 87 10000 3.97 314 08:56 31.01.2022
5594 Clouds -4 1021 85 10000 4.35 316 08:20 31.01.2022
5595 Clouds -5 1021 83 10000 4.35 316 07:40 31.01.2022
5596 Clouds -4 1020 85 10000 3.22 305 05:25 31.01.2022
5597 Clear -4 1025 81 10000 1.97 285 00:36 31.01.2022
5598 Clouds -3 1028 31 10000 1.69 293 22:33 30.01.2022
5599 Clouds -2 1030 39 10000 1.66 296 21:46 30.01.2022
5600 Clear -2 1030 40 10000 1.81 310 21:26 30.01.2022
5601 Clear -2 1030 40 10000 1.81 310 20:54 30.01.2022
5602 Clear -2 1030 40 10000 1.81 310 20:31 30.01.2022
5603 Clouds -4 1031 52 10000 1.78 312 19:56 30.01.2022
5604 Clouds -2 1032 66 10000 1.72 318 18:52 30.01.2022
5605 Clouds -1 1032 81 10000 1.87 325 18:22 30.01.2022
5606 Clouds 0 1032 81 10000 1.87 325 17:31 30.01.2022
5607 Clouds 0 1032 81 10000 1.87 325 17:31 30.01.2022
5608 Clouds 0 1030 87 10000 2.78 337 16:43 30.01.2022
5609 Clouds 2 1028 78 10000 3.52 341 16:23 30.01.2022
5610 Clouds 2 1028 78 10000 3.52 341 16:23 30.01.2022
5611 Clouds 2 1028 86 10000 3.52 341 15:55 30.01.2022
5612 Clouds 2 1028 76 10000 3.52 341 15:33 30.01.2022
5613 Clouds 2 1027 81 10000 3.92 341 14:48 30.01.2022
5614 Clouds 2 1028 81 10000 4 337 13:49 30.01.2022
5615 Clouds 2 1028 77 10000 4.18 337 12:46 30.01.2022
5616 Clouds 0 1030 85 8427 4.95 337 11:23 30.01.2022
5617 Clouds -1 1030 86 8707 4.98 337 10:26 30.01.2022
5618 Clouds -1 1031 84 8805 4.76 333 09:23 30.01.2022
5619 Clouds -1 1031 81 5164 4.57 331 08:00 30.01.2022
5620 Clear -3 1033 80 10000 3.29 311 02:55 30.01.2022
5621 Clear -3 1034 76 10000 3.09 307 01:54 30.01.2022
5622 Clear -2 1034 66 10000 3.11 314 23:49 29.01.2022
5623 Clear -2 1035 61 10000 2.82 304 22:57 29.01.2022
5624 Clear -3 1036 54 10000 2.7 300 21:35 29.01.2022
5625 Clouds -5 1037 53 10000 2.72 303 20:59 29.01.2022
5626 Clouds -4 1037 62 10000 2.92 309 20:20 29.01.2022
5627 Clouds -4 1037 62 10000 2.92 309 19:33 29.01.2022
5628 Clouds -4 1038 66 10000 3.3 316 18:44 29.01.2022
5629 Clouds -3 1037 70 10000 3.51 315 17:55 29.01.2022
5630 Clouds -1 1034 51 10000 3.51 319 17:19 29.01.2022
5631 Clouds 2 1031 45 10000 3.23 323 15:35 29.01.2022
5632 Clouds 4 1031 40 10000 3.5 329 13:58 29.01.2022
5633 Clouds 3 1031 41 10000 3.41 328 13:28 29.01.2022
5634 Clouds 1 1031 44 10000 3.41 328 12:59 29.01.2022
5635 Clouds 0 1031 47 10000 3.38 329 11:39 29.01.2022
5636 Clouds 0 1031 47 10000 3.38 329 11:39 29.01.2022
5637 Clouds -1 1032 59 10000 2.98 325 10:34 29.01.2022
5638 Clouds -5 1036 75 10000 2.52 314 08:20 29.01.2022
5639 Clouds -5 1038 80 10000 2.4 322 02:48 29.01.2022
5640 Clouds -6 1040 42 10000 2.42 317 00:32 29.01.2022
5641 Clouds -5 1040 41 10000 2.22 311 23:31 28.01.2022
5642 Clouds -6 1041 42 10000 2.07 312 22:47 28.01.2022
5643 Clouds -5 1041 46 10000 2.49 321 22:19 28.01.2022
5644 Clouds -4 1041 50 10000 2.5 327 20:41 28.01.2022
5645 Clouds -4 1040 58 10000 2.59 326 19:57 28.01.2022
5646 Clouds -4 1041 67 10000 2.56 323 18:52 28.01.2022
5647 Clouds -4 1040 80 10000 2.6 322 17:53 28.01.2022
5648 Clouds -3 1036 81 10000 3.35 331 16:23 28.01.2022
5649 Clouds -2 1035 69 10000 3.73 331 14:54 28.01.2022
5650 Clouds 0 1035 45 10000 3.85 330 12:42 28.01.2022
5651 Clouds -1 1036 77 10000 3.92 328 11:49 28.01.2022
5652 Clouds -2 1035 61 10000 3.86 329 10:26 28.01.2022
5653 Clouds -2 1035 68 10000 3.86 329 09:46 28.01.2022
5654 Snow -5 1035 93 6581 4.27 329 07:41 28.01.2022
5655 Snow -4 1033 93 5738 4 322 05:31 28.01.2022
5656 Clouds -4 1034 65 8535 3.7 309 03:51 28.01.2022
5657 Snow -3 1033 66 10000 3.59 317 02:25 28.01.2022
5658 Snow -2 1033 58 10000 3.59 317 01:37 28.01.2022
5659 Clouds -3 1033 59 10000 3.66 320 00:39 28.01.2022
5660 Clouds -9 1035 41 10000 2.54 289 22:18 27.01.2022
5661 Clouds -10 1035 41 10000 2.54 289 21:34 27.01.2022
5662 Clouds -9 1035 39 10000 2.48 300 20:59 27.01.2022
5663 Clouds -8 1034 38 10000 2.48 298 19:37 27.01.2022
5664 Clouds -6 1033 43 10000 2.46 302 18:18 27.01.2022
5665 Clouds -4 1030 54 10000 2.66 310 16:45 27.01.2022
5666 Clouds 3 1025 46 10000 2.68 323 13:48 27.01.2022
5667 Clouds 4 1026 43 10000 2.32 315 12:48 27.01.2022
5668 Clouds 2 1027 49 10000 1.77 314 11:24 27.01.2022
5669 Clouds -2 1029 61 10000 1.49 300 09:47 27.01.2022
5670 Clouds -4 1032 64 10000 1.49 298 08:40 27.01.2022
5671 Clouds -6 1033 65 10000 1.74 301 07:23 27.01.2022
5672 Clouds -5 1033 66 10000 1.66 302 02:59 27.01.2022
5673 Clouds -5 1035 66 10000 1.57 294 00:23 27.01.2022
5674 Clouds -7 1036 42 10000 1.52 301 22:27 26.01.2022
5675 Clouds -8 1036 42 10000 1.52 301 21:42 26.01.2022
5676 Clouds -8 1036 45 10000 1.51 303 20:42 26.01.2022
5677 Clear -8 1036 47 10000 1.51 292 20:24 26.01.2022
5678 Clear -7 1036 47 10000 1.51 292 19:30 26.01.2022
5679 Clear -7 1036 56 10000 1.46 299 18:46 26.01.2022
5680 Clear -7 1035 63 10000 1.85 315 17:53 26.01.2022
5681 Clear -8 1035 63 10000 1.85 315 17:32 26.01.2022
5682 Clear -6 1033 72 10000 2.4 328 16:46 26.01.2022
5683 Clear 2 1030 53 10000 2.65 331 15:50 26.01.2022
5684 Clear 4 1028 54 10000 2.52 335 14:30 26.01.2022
5685 Clear 2 1029 54 10000 2.26 331 11:59 26.01.2022
5686 Clear 0 1029 69 10000 2.53 332 10:49 26.01.2022
5687 Clear -1 1031 66 10000 2.11 318 09:50 26.01.2022
5688 Clear -3 1034 72 10000 1.78 309 08:32 26.01.2022
5689 Clear -4 1035 71 10000 1.98 312 06:27 26.01.2022
5690 Clear -4 1035 71 10000 1.98 312 06:27 26.01.2022
5691 Clear -4 1035 71 10000 1.98 312 06:27 26.01.2022
5692 Clear -4 1035 71 10000 1.98 312 06:27 26.01.2022
5693 Clear -10 1035 55 10000 1.62 301 00:21 26.01.2022
5694 Clear -9 1035 55 10000 1.62 301 23:34 25.01.2022
5695 Clear -8 1035 55 10000 1.59 299 22:48 25.01.2022
5696 Clear -9 1036 54 10000 1.58 300 22:18 25.01.2022
5697 Clear -10 1036 54 10000 1.56 301 21:23 25.01.2022
5698 Clear -9 1036 54 10000 1.56 301 20:45 25.01.2022
5699 Clear -8 1036 53 10000 1.6 304 19:53 25.01.2022
5700 Clear -8 1035 52 10000 1.62 308 18:50 25.01.2022
5701 Clear -8 1035 57 10000 1.6 314 17:47 25.01.2022
5702 Clear -7 1033 64 10000 1.98 323 17:18 25.01.2022
5703 Clear -7 1033 64 10000 1.98 323 16:34 25.01.2022
5704 Clear -6 1030 71 10000 2.32 333 15:39 25.01.2022
5705 Clear 2 1029 78 10000 2.36 340 14:58 25.01.2022
5706 Clear 4 1029 53 10000 2.36 340 14:38 25.01.2022
5707 Clear 2 1029 61 10000 2.03 336 11:30 25.01.2022
5708 Clear -3 1034 68 10000 1.43 310 09:21 25.01.2022
5709 Clear -3 1035 69 10000 1.42 304 07:31 25.01.2022
5710 Clear -6 1034 47 10000 1.35 303 06:54 25.01.2022
5711 Clear -5 1034 47 10000 1.2 298 05:23 25.01.2022
5712 Clear -3 1035 68 10000 0.79 278 00:20 25.01.2022
5713 Clear -4 1035 51 10000 0.79 278 23:36 24.01.2022
5714 Clear -5 1034 51 10000 0.77 273 23:18 24.01.2022
5715 Clear -5 1034 51 10000 0.77 273 22:42 24.01.2022
5716 Clear -4 1034 50 10000 0.61 274 21:57 24.01.2022
5717 Clear -3 1034 70 10000 0.61 274 21:32 24.01.2022
5718 Clear -5 1034 51 10000 0.58 281 20:34 24.01.2022
5719 Clear -7 1034 51 10000 0.62 281 19:58 24.01.2022
5720 Clear -7 1034 51 10000 0.62 281 19:37 24.01.2022
5721 Clear -7 1033 55 10000 0.47 276 18:37 24.01.2022
5722 Clear 0 1030 64 10000 0.39 10 17:24 24.01.2022
5723 Clear -5 1030 67 10000 0.39 10 16:55 24.01.2022
5724 Clear 1 1027 61 10000 0.68 23 16:29 24.01.2022
5725 Clear 2 1026 52 10000 0.65 28 14:49 24.01.2022
5726 Clear 1 1026 56 10000 0.65 33 13:38 24.01.2022
5727 Clear 1 1026 56 9543 0.66 28 12:32 24.01.2022
5728 Clear -6 1027 79 10000 1.04 4 11:21 24.01.2022
5729 Clear -8 1028 60 10000 1.01 343 09:49 24.01.2022
5730 Clear -4 1030 68 10000 0.63 322 09:20 24.01.2022
5731 Clear -5 1031 67 10000 0.29 281 07:20 24.01.2022
5732 Clear -6 1032 75 10000 0.24 30 01:34 24.01.2022
5733 Clear -6 1032 75 10000 0.1 333 00:46 24.01.2022
5734 Clear -6 1033 75 10000 0.14 344 00:27 24.01.2022
5735 Clear -6 1033 77 10000 0.32 10 22:46 23.01.2022
5736 Clear -6 1033 78 10000 0.47 330 21:50 23.01.2022
5737 Clear -6 1033 77 10000 0.45 336 21:27 23.01.2022
5738 Clear -5 1033 79 10000 0.45 336 20:54 23.01.2022
5739 Clear -5 1034 78 10000 0.55 333 19:55 23.01.2022
5740 Clear -5 1033 61 10000 0.32 0 18:52 23.01.2022
5741 Clear -5 1033 69 10000 0.47 343 17:52 23.01.2022
5742 Clear -3 1031 78 10000 0.75 8 16:48 23.01.2022
5743 Clear 2 1028 60 10000 1.36 38 15:18 23.01.2022
5744 Clear 0 1028 64 10000 1.36 38 14:32 23.01.2022
5745 Clear 0 1028 70 10000 1.54 26 13:27 23.01.2022
5746 Clear -1 1028 72 10000 1.33 39 12:36 23.01.2022
5747 Clear -1 1029 73 10000 1.76 27 12:18 23.01.2022
5748 Clear -5 1029 70 10000 2.05 17 11:24 23.01.2022
5749 Clear -8 1029 70 10000 2.05 17 10:57 23.01.2022
5750 Clear -10 1031 75 10000 1.29 346 10:21 23.01.2022
5751 Clouds -7 1034 87 10000 1.05 341 09:22 23.01.2022
5752 Clouds -8 1034 89 10000 1.42 331 05:59 23.01.2022
5753 Clear -7 1034 88 10000 1.4 321 02:25 23.01.2022
5754 Clear -7 1034 88 10000 1.4 321 01:35 23.01.2022
5755 Clouds -7 1034 89 10000 1.26 331 00:41 23.01.2022
5756 Clouds -7 1035 88 10000 1.37 334 23:57 22.01.2022
5757 Clouds -7 1036 88 10000 1.36 331 22:47 22.01.2022
5758 Clouds -6 1036 89 10000 1.53 331 21:58 22.01.2022
5759 Clouds -6 1036 87 10000 1.87 333 20:26 22.01.2022
5760 Clouds -5 1036 86 10000 1.87 333 19:34 22.01.2022
5761 Clouds -5 1036 86 10000 1.85 334 18:36 22.01.2022
5762 Clouds -4 1035 88 10000 1.99 335 17:42 22.01.2022
5763 Clouds -3 1034 84 10000 2.47 344 16:57 22.01.2022
5764 Clouds -3 1031 83 10000 3.4 351 16:20 22.01.2022
5765 Clouds -3 1031 83 10000 3.4 351 15:42 22.01.2022
5766 Clear -3 1030 82 10000 3.68 352 13:59 22.01.2022
5767 Clear -4 1031 83 10000 3.81 351 12:58 22.01.2022
5768 Clear -4 1030 78 10000 3.92 351 12:30 22.01.2022
5769 Clear -4 1031 82 10000 3.84 349 11:58 22.01.2022
5770 Clear -5 1032 82 10000 3.64 348 10:39 22.01.2022
5771 Clear -6 1033 83 10000 3.34 345 10:19 22.01.2022
5772 Clear -7 1036 85 10000 2.67 335 08:54 22.01.2022
5773 Clear -8 1036 78 10000 2.67 335 08:31 22.01.2022
5774 Clear -10 1036 85 10000 2.43 332 05:20 22.01.2022
5775 Clear -8 1036 83 10000 2.25 342 01:58 22.01.2022
5776 Clouds -7 1036 62 10000 1.88 344 23:49 21.01.2022
5777 Clouds -7 1036 62 10000 1.88 344 23:49 21.01.2022
5778 Clouds -7 1037 65 10000 2 342 22:58 21.01.2022
5779 Clouds -8 1039 78 10000 2.07 344 20:46 21.01.2022
5780 Clouds -7 1039 90 10000 2.6 343 19:20 21.01.2022
5781 Clouds -5 1037 91 8084 2.81 341 17:48 21.01.2022
5782 Clouds -5 1032 70 10000 3.71 350 15:48 21.01.2022
5783 Clouds -4 1031 67 10000 3.76 354 14:37 21.01.2022
5784 Clouds -4 1030 78 10000 3.85 360 12:43 21.01.2022
5785 Clouds -5 1032 85 10000 3.41 2 11:29 21.01.2022
5786 Clouds -7 1034 89 10000 3.21 5 10:27 21.01.2022
5787 Clouds -7 1036 92 7337 2.56 353 08:50 21.01.2022
5788 Clouds -6 1036 95 7396 2.5 353 07:37 21.01.2022
5789 Snow -5 1032 93 6785 4.54 347 01:48 21.01.2022
5790 Clouds -5 1032 94 6725 4.12 345 22:46 20.01.2022
5791 Clouds -5 1032 94 6933 3.94 341 21:48 20.01.2022
5792 Clouds -5 1032 94 6971 4.07 342 21:24 20.01.2022
5793 Clouds -5 1031 94 6864 4.25 341 19:46 20.01.2022
5794 Clouds -5 1030 94 7029 4.35 341 19:18 20.01.2022
5795 Clouds -4 1029 94 6651 4.52 342 17:36 20.01.2022
5796 Clouds -3 1026 90 7425 4.48 342 15:59 20.01.2022
5797 Snow -2 1026 90 7803 4.53 340 15:29 20.01.2022
5798 Snow -3 1025 89 8249 4.5 338 14:18 20.01.2022
5799 Snow -3 1026 90 8356 4.46 335 12:48 20.01.2022
5800 Snow -3 1027 91 7394 4.23 336 12:27 20.01.2022
5801 Clouds -3 1027 89 7468 3.74 335 10:59 20.01.2022
5802 Clouds -4 1028 92 8313 3.33 323 09:44 20.01.2022
5803 Snow -4 1030 93 8405 3.31 324 08:37 20.01.2022
5804 Snow -4 1028 93 6856 3.71 329 06:19 20.01.2022
5805 Snow -5 1027 90 7834 2.9 329 00:30 20.01.2022
5806 Clouds -5 1027 81 5992 2.39 328 22:38 19.01.2022
5807 Clouds -5 1028 82 7287 2.27 323 21:33 19.01.2022
5808 Clouds -5 1028 81 10000 1.81 326 20:55 19.01.2022
5809 Clouds -4 1028 80 10000 1.81 326 20:30 19.01.2022
5810 Clouds -6 1029 94 10000 1.8 317 18:49 19.01.2022
5811 Clouds -5 1030 92 10000 1.54 310 17:50 19.01.2022
5812 Clear -4 1027 89 10000 0.73 258 17:18 19.01.2022
5813 Clear -4 1027 89 10000 0.73 258 17:18 19.01.2022
5814 Clear -4 1027 89 10000 0.73 258 17:18 19.01.2022
5815 Clear -4 1025 85 10000 0.84 197 15:31 19.01.2022
5816 Clear 0 1026 49 10000 1.63 181 13:20 19.01.2022
5817 Clear 2 1027 47 10000 1.55 188 11:58 19.01.2022
5818 Clear 1 1029 57 10000 1.69 192 11:22 19.01.2022
5819 Clear -4 1031 60 10000 1.81 199 09:35 19.01.2022
5820 Clear -4 1031 60 10000 1.81 199 09:35 19.01.2022
5821 Clear -10 1034 66 10000 1.78 205 08:33 19.01.2022
5822 Clear -7 1035 66 10000 1.76 212 05:19 19.01.2022
5823 Clear -6 1037 68 10000 2.48 203 00:18 19.01.2022
5824 Clear -4 1037 67 10000 2.45 198 23:18 18.01.2022
5825 Clear -4 1037 65 10000 2.44 198 21:44 18.01.2022
5826 Clear -4 1037 65 10000 2.23 197 20:22 18.01.2022
5827 Clear -5 1037 65 10000 2.23 197 19:45 18.01.2022
5828 Clear -5 1037 73 10000 2.23 194 19:25 18.01.2022
5829 Clear -4 1037 75 10000 2.22 193 18:18 18.01.2022
5830 Clear -2 1037 71 10000 2.22 193 17:31 18.01.2022
5831 Clear 0 1031 65 10000 2.41 169 16:18 18.01.2022
5832 Clear 0 1030 64 10000 2.22 163 15:25 18.01.2022
5833 Clear -1 1030 80 10000 2.2 156 14:22 18.01.2022
5834 Clear -5 1030 74 10000 2.1 154 11:31 18.01.2022
5835 Clouds -7 1032 68 10000 1.05 119 09:59 18.01.2022
5836 Clouds -7 1036 87 10000 0.49 45 08:29 18.01.2022
5837 Clouds -7 1036 86 10000 0.49 45 07:42 18.01.2022
5838 Clouds -3 1038 72 10000 1.56 351 00:38 18.01.2022
5839 Clouds -5 1039 74 10000 1.91 351 22:39 17.01.2022
5840 Clouds -4 1039 77 10000 1.98 341 21:41 17.01.2022
5841 Clouds -4 1039 85 10000 2.46 338 20:44 17.01.2022
5842 Clouds -5 1039 88 10000 2.96 336 18:46 17.01.2022
5843 Clouds -5 1038 88 10000 3.08 333 18:24 17.01.2022
5844 Clouds -3 1037 92 10000 3.24 332 17:19 17.01.2022
5845 Clouds 0 1034 77 10000 3.56 337 15:54 17.01.2022
5846 Clouds 1 1033 77 10000 4.13 340 14:58 17.01.2022
5847 Clouds 1 1033 71 10000 4.13 340 14:31 17.01.2022
5848 Clouds 0 1033 73 10000 3.87 339 13:18 17.01.2022
5849 Clouds -2 1034 80 10000 3.78 341 11:53 17.01.2022
5850 Clouds -3 1035 79 10000 3.18 336 10:52 17.01.2022
5851 Clouds -5 1036 78 10000 2.93 333 09:35 17.01.2022
5852 Clouds -5 1038 80 10000 3.15 336 08:43 17.01.2022
5853 Clouds -6 1039 87 10000 2.34 318 07:20 17.01.2022
5854 Clouds -7 1039 52 10000 2.18 308 00:59 17.01.2022
5855 Clouds -7 1039 76 10000 2.04 302 23:27 16.01.2022
5856 Clouds -8 1038 78 10000 2.18 310 20:50 16.01.2022
5857 Clouds -8 1038 76 10000 2.33 315 19:56 16.01.2022
5858 Clear -8 1036 78 10000 2.3 310 18:45 16.01.2022
5859 Clear -8 1035 80 10000 2.48 311 17:47 16.01.2022
5860 Clear -7 1033 83 10000 2.92 317 16:52 16.01.2022
5861 Clear -7 1029 83 10000 3.3 325 15:39 16.01.2022
5862 Clear 0 1026 56 10000 3.32 329 14:29 16.01.2022
5863 Clear 0 1026 56 10000 3.32 329 14:29 16.01.2022
5864 Clear 1 1026 57 10000 3.39 331 13:21 16.01.2022
5865 Clear 0 1025 65 10000 2.86 327 11:56 16.01.2022
5866 Clear -1 1026 63 10000 2.57 325 11:27 16.01.2022
5867 Clear -4 1027 67 10000 1.81 310 10:27 16.01.2022
5868 Clear -2 1027 65 10000 1.81 310 09:57 16.01.2022
5869 Clear -3 1029 65 10000 1.54 295 09:23 16.01.2022
5870 Clear -9 1029 52 10000 1.54 295 08:53 16.01.2022
5871 Clear -10 1028 49 10000 1.23 285 05:51 16.01.2022
5872 Clear -5 1028 47 10000 1.48 232 00:18 16.01.2022
5873 Clear -4 1028 47 10000 1.53 228 22:38 15.01.2022
5874 Clear -3 1028 48 10000 1.45 228 21:21 15.01.2022
5875 Clear -3 1028 48 10000 1.45 228 20:43 15.01.2022
5876 Clear -3 1028 48 10000 1.49 229 19:58 15.01.2022
5877 Clear -4 1028 49 10000 1.53 226 19:23 15.01.2022
5878 Clear -7 1027 52 10000 1.64 217 17:49 15.01.2022
5879 Clear -6 1025 58 10000 1.67 213 16:42 15.01.2022
5880 Clear 1 1022 81 10000 1.63 201 14:32 15.01.2022
5881 Clear 3 1023 51 10000 1.82 190 12:33 15.01.2022
5882 Clear 2 1024 73 10000 1.33 188 11:19 15.01.2022
5883 Clear -3 1027 68 10000 1.11 215 09:21 15.01.2022
5884 Clear -3 1031 71 10000 0.23 287 00:52 15.01.2022
5885 Clear -2 1033 68 10000 0.22 341 21:57 14.01.2022
5886 Clear -3 1033 71 10000 0.35 358 20:51 14.01.2022
5887 Clear -3 1033 72 10000 0.53 4 20:23 14.01.2022
5888 Clear -3 1033 73 10000 0.53 4 19:48 14.01.2022
5889 Clear -3 1033 69 10000 0.52 355 18:28 14.01.2022
5890 Clear 1 1032 68 10000 0.7 7 16:51 14.01.2022
5891 Clear 3 1032 66 10000 0.7 7 16:33 14.01.2022
5892 Clear 4 1029 54 10000 1.28 19 14:47 14.01.2022
5893 Clear 3 1030 55 10000 1.12 13 13:47 14.01.2022
5894 Clear 3 1030 55 10000 0.96 358 12:34 14.01.2022
5895 Clear -2 1031 67 10000 0.7 348 11:29 14.01.2022
5896 Clear -11 1033 51 10000 0.7 323 09:51 14.01.2022
5897 Clear -3 1035 69 10000 0.65 292 08:52 14.01.2022
5898 Clear -3 1035 70 10000 0.69 286 07:21 14.01.2022
5899 Clear -4 1038 70 10000 1.38 223 01:43 14.01.2022
5900 Clear -4 1038 71 10000 1.59 198 23:36 13.01.2022
5901 Clear -6 1038 38 10000 1.49 189 21:42 13.01.2022
5902 Clear -6 1038 39 10000 1.58 192 21:23 13.01.2022
5903 Clear -7 1038 40 10000 1.58 187 19:41 13.01.2022
5904 Clouds -5 1038 71 10000 1.42 185 19:22 13.01.2022
5905 Clouds -6 1038 49 10000 1.19 187 17:56 13.01.2022
5906 Clouds -2 1034 65 10000 1.25 152 16:22 13.01.2022
5907 Clouds -1 1034 60 10000 1.25 152 15:37 13.01.2022
5908 Clouds -1 1033 64 10000 1.17 138 14:49 13.01.2022
5909 Clear -3 1033 61 10000 1.38 119 12:46 13.01.2022
5910 Clear -9 1036 58 10000 0.63 47 10:25 13.01.2022
5911 Clear -8 1039 73 10000 0.26 32 09:20 13.01.2022
5912 Clear -8 1039 74 10000 0.34 7 08:27 13.01.2022
5913 Clear -8 1039 73 10000 0.46 13 07:24 13.01.2022
5914 Clear -8 1039 74 10000 0.5 6 06:38 13.01.2022
5915 Clear -8 1039 73 10000 0.73 0 05:19 13.01.2022
5916 Clear -9 1039 73 10000 0.83 348 02:33 13.01.2022
5917 Clear -8 1038 71 10000 0.78 353 00:56 13.01.2022
5918 Clear -8 1038 74 10000 0.96 9 23:49 12.01.2022
5919 Clear -8 1038 73 10000 0.87 359 23:24 12.01.2022
5920 Clear -8 1038 76 10000 0.9 348 21:58 12.01.2022
5921 Clear -8 1039 74 10000 1.43 355 21:23 12.01.2022
5922 Clear -8 1039 73 10000 1.43 355 20:57 12.01.2022
5923 Clear -7 1038 75 10000 1.44 351 19:55 12.01.2022
5924 Clouds -7 1039 75 10000 1.09 354 18:43 12.01.2022
5925 Clouds -7 1038 74 10000 1.04 354 17:50 12.01.2022
5926 Clouds -6 1037 71 10000 1.19 8 16:38 12.01.2022
5927 Clouds -3 1032 65 10000 2.27 13 14:49 12.01.2022
5928 Clouds -4 1031 61 10000 2.14 21 13:32 12.01.2022
5929 Clouds -5 1031 50 10000 2.29 19 12:34 12.01.2022
5930 Clear -10 1036 82 10000 1.43 1 08:45 12.01.2022
5931 Clear -10 1036 81 10000 1.44 354 07:52 12.01.2022
5932 Clear -10 1036 80 10000 1.44 354 07:32 12.01.2022
5933 Clear -9 1036 83 10000 1.6 343 01:26 12.01.2022
5934 Clear -9 1035 83 10000 1.6 344 23:25 11.01.2022
5935 Clear -9 1035 80 10000 1.38 343 22:24 11.01.2022
5936 Clear -8 1035 84 10000 1.19 348 21:25 11.01.2022
5937 Clear -7 1035 43 10000 1.19 348 20:33 11.01.2022
5938 Clouds -6 1035 72 10000 1.61 344 18:48 11.01.2022
5939 Clouds -6 1035 84 10000 1.57 347 17:42 11.01.2022
5940 Clouds -6 1033 88 10000 1.86 357 16:38 11.01.2022
5941 Clear -5 1030 79 10000 2.48 4 15:59 11.01.2022
5942 Clear -3 1027 74 10000 2.98 11 14:43 11.01.2022
5943 Clear -3 1026 72 10000 3.17 3 13:59 11.01.2022
5944 Clear -3 1026 72 10000 3.17 3 13:39 11.01.2022
5945 Clouds -4 1026 76 10000 2.76 8 13:21 11.01.2022
5946 Clouds -4 1027 62 10000 2.27 18 12:23 11.01.2022
5947 Clouds -7 1031 81 10000 1.21 12 10:25 11.01.2022
5948 Clouds -8 1035 94 9585 0.63 6 07:35 11.01.2022
5949 Clouds -6 1032 92 8602 1.88 0 01:47 11.01.2022
5950 Clouds -8 1031 87 8238 2.5 1 00:22 11.01.2022
5951 Clouds -8 1031 85 8238 2.5 1 23:37 10.01.2022
5952 Clouds -8 1031 86 7568 2.64 0 22:19 10.01.2022
5953 Clouds -7 1031 86 7568 2.64 0 21:55 10.01.2022
5954 Clouds -6 1031 94 7568 2.64 0 21:32 10.01.2022
5955 Clouds -6 1030 95 7357 2.73 357 20:58 10.01.2022
5956 Clouds -5 1029 95 7150 2.74 354 20:29 10.01.2022
5957 Clouds -5 1029 95 7150 2.74 354 19:47 10.01.2022
5958 Clouds -5 1029 94 7293 2.74 355 19:22 10.01.2022
5959 Clouds -5 1028 94 7263 2.79 358 18:54 10.01.2022
5960 Clouds -4 1028 94 7263 2.79 358 18:34 10.01.2022
5961 Clouds -4 1026 94 7374 3.08 359 16:43 10.01.2022
5962 Clouds -4 1023 90 8918 3.22 1 15:55 10.01.2022
5963 Clouds -3 1021 87 10000 3.39 2 14:41 10.01.2022
5964 Clouds -3 1019 88 10000 3.59 350 12:43 10.01.2022
5965 Clouds -4 1019 87 9387 3.54 348 11:40 10.01.2022
5966 Clouds -5 1019 89 7533 3.36 342 10:45 10.01.2022
5967 Snow -5 1020 94 6909 2.51 332 08:57 10.01.2022
5968 Snow -5 1015 92 2410 3.46 352 05:51 10.01.2022
5969 Snow -5 1014 94 3308 2.3 331 01:33 10.01.2022
5970 Snow -5 1013 91 4197 2.06 335 00:36 10.01.2022
5971 Snow -5 1013 93 5473 2.22 317 23:54 09.01.2022
5972 Snow -5 1013 94 5138 1.55 296 22:43 09.01.2022
5973 Clouds -5 1013 94 3904 1.35 302 21:47 09.01.2022
5974 Clouds -5 1014 94 6379 1.04 303 21:25 09.01.2022
5975 Clouds -5 1014 94 6379 1.04 303 21:25 09.01.2022
5976 Clouds -5 1014 94 6379 1.04 303 20:58 09.01.2022
5977 Clouds -5 1014 94 6379 1.04 303 20:39 09.01.2022
5978 Clouds -5 1013 95 9267 1.13 335 20:21 09.01.2022
5979 Clouds -5 1013 95 9267 1.13 335 19:38 09.01.2022
5980 Clouds -5 1012 94 9301 0.63 311 19:18 09.01.2022
5981 Clouds -4 1012 94 9301 0.63 311 18:37 09.01.2022
5982 Clouds -4 1012 95 10000 0.95 336 17:48 09.01.2022
5983 Clouds -4 1011 95 6913 1.66 343 17:29 09.01.2022
5984 Clouds -4 1011 95 6913 1.66 343 16:40 09.01.2022
5985 Snow -3 1009 92 7793 2.26 345 15:40 09.01.2022
5986 Snow -3 1008 87 8586 2.61 345 14:50 09.01.2022
5987 Snow -3 1008 86 8654 2.88 338 14:23 09.01.2022
5988 Snow -3 1008 89 8654 2.88 338 13:48 09.01.2022
5989 Snow -2 1008 71 5983 3.39 329 11:56 09.01.2022
5990 Clouds -3 1009 84 10000 3.23 335 11:26 09.01.2022
5991 Snow -3 1009 76 8059 4.07 329 09:55 09.01.2022
5992 Snow -3 1008 85 2888 4.65 324 08:59 09.01.2022
5993 Snow -3 1005 92 261 3.29 325 06:56 09.01.2022
5994 Snow -4 1008 84 508 4.21 169 01:29 09.01.2022
5995 Snow -4 1008 86 613 4.1 172 00:37 09.01.2022
5996 Snow -5 1009 87 2507 4.05 183 23:31 08.01.2022
5997 Snow -5 1010 87 10000 3.75 174 22:48 08.01.2022
5998 Clouds -5 1012 86 7907 1.72 219 21:28 08.01.2022
5999 Clouds -5 1012 87 7907 1.72 219 20:43 08.01.2022
6000 Snow -5 1014 87 7691 1.78 266 20:22 08.01.2022
6001 Clouds -5 1015 91 9072 1.49 273 19:22 08.01.2022
6002 Clouds -4 1015 88 10000 0.89 242 17:38 08.01.2022
6003 Snow -3 1016 88 4779 1.47 312 16:45 08.01.2022
6004 Snow -3 1016 87 5528 2.14 316 15:33 08.01.2022
6005 Clouds -2 1017 82 10000 2.56 300 13:58 08.01.2022
6006 Clouds -3 1019 71 10000 2.51 312 11:41 08.01.2022
6007 Clouds -4 1019 81 10000 2.65 318 10:40 08.01.2022
6008 Snow -4 1020 88 8286 3.5 321 10:21 08.01.2022
6009 Snow -5 1020 89 8286 3.5 321 09:34 08.01.2022
6010 Snow -6 1018 91 2353 2.91 301 06:18 08.01.2022
6011 Clouds -8 1022 84 10000 1.9 244 01:41 08.01.2022
6012 Clouds -7 1024 93 10000 1.62 261 23:36 07.01.2022
6013 Clouds -6 1022 91 7799 2.42 316 21:49 07.01.2022
6014 Snow -6 1022 88 5703 3.14 326 20:34 07.01.2022
6015 Snow -5 1022 79 2311 3.01 319 19:27 07.01.2022
6016 Snow -5 1021 73 4858 2.98 318 18:49 07.01.2022
6017 Snow -6 1022 87 3372 2.56 318 18:21 07.01.2022
6018 Clouds -5 1022 76 10000 3.14 317 17:24 07.01.2022
6019 Clouds -3 1018 58 10000 2.03 317 14:56 07.01.2022
6020 Clouds -3 1018 50 10000 1.79 315 13:52 07.01.2022
6021 Clouds -4 1019 55 10000 1.57 308 12:51 07.01.2022
6022 Clouds -5 1021 67 10000 1.13 270 11:28 07.01.2022
6023 Clouds -9 1027 57 10000 2 221 04:54 07.01.2022
6024 Clouds -9 1028 49 10000 2.27 214 02:53 07.01.2022
6025 Clouds -8 1028 46 10000 2.04 212 01:49 07.01.2022
6026 Clouds -8 1029 47 10000 1.81 217 01:26 07.01.2022
6027 Clouds -7 1029 51 10000 2.02 214 00:31 07.01.2022
6028 Clouds -7 1029 51 10000 2.02 214 00:31 07.01.2022
6029 Clouds -7 1030 58 10000 1.67 224 22:33 06.01.2022
6030 Clouds -7 1029 89 10000 0.83 227 20:51 06.01.2022
6031 Clouds -7 1028 94 10000 0.37 284 20:18 06.01.2022
6032 Clouds -7 1028 94 10000 0.37 284 19:38 06.01.2022
6033 Clouds -5 1026 95 7117 2.32 351 17:51 06.01.2022
6034 Clouds -5 1025 94 8516 2.64 353 17:27 06.01.2022
6035 Clouds -5 1025 94 8516 2.64 353 16:38 06.01.2022
6036 Clouds -4 1021 91 9752 2.72 359 15:44 06.01.2022
6037 Clouds -4 1020 80 10000 2.95 360 15:22 06.01.2022
6038 Clouds -3 1019 75 10000 3.09 1 14:20 06.01.2022
6039 Clouds -4 1019 78 10000 3.09 1 13:39 06.01.2022
6040 Clouds -5 1019 82 10000 3.29 355 12:21 06.01.2022
6041 Clouds -5 1019 82 10000 3.29 355 11:30 06.01.2022
6042 Clouds -6 1020 84 10000 2.99 353 10:50 06.01.2022
6043 Clouds -8 1024 95 7827 2.32 331 06:54 06.01.2022
6044 Clouds -7 1023 93 9204 2.53 334 00:34 06.01.2022
6045 Clouds -7 1023 93 7762 2.64 330 23:33 05.01.2022
6046 Clouds -8 1023 94 7131 3 328 22:48 05.01.2022
6047 Clouds -8 1023 96 7427 3.09 331 22:26 05.01.2022
6048 Clouds -7 1023 96 7427 3.09 331 21:43 05.01.2022
6049 Clouds -7 1022 97 8917 3.52 332 20:44 05.01.2022
6050 Clouds -7 1019 94 9033 4.3 341 19:42 05.01.2022
6051 Clouds -6 1018 96 5867 4.66 337 18:22 05.01.2022
6052 Clouds -4 1017 95 7249 4.47 336 16:57 05.01.2022
6053 Clouds -4 1014 93 7530 4.9 338 16:21 05.01.2022
6054 Snow -4 1012 65 7063 5.22 341 15:20 05.01.2022
6055 Snow -3 1010 72 7725 5.36 341 13:35 05.01.2022
6056 Snow -2 1010 73 7210 5.09 337 12:30 05.01.2022
6057 Snow -2 1006 94 4332 3.86 336 08:46 05.01.2022
6058 Snow -2 1006 93 576 3.13 320 07:19 05.01.2022
6059 Snow 0 1003 99 54 0.93 217 01:49 05.01.2022
6060 Clouds 3 1005 82 832 2.78 170 23:44 04.01.2022
6061 Clouds 3 1006 83 2253 3.31 180 23:26 04.01.2022
6062 Rain 3 1006 80 4851 3.65 175 22:19 04.01.2022
6063 Clouds 2 1006 80 7567 3.92 175 20:46 04.01.2022
6064 Clouds 3 1007 81 4859 3.91 177 18:44 04.01.2022
6065 Clouds 3 1007 96 7546 4.16 176 17:34 04.01.2022
6066 Clouds 5 1007 96 7642 4.17 173 16:39 04.01.2022
6067 Clouds 5 1006 96 10000 4.17 172 16:20 04.01.2022
6068 Clouds 6 1006 97 6430 4.04 173 14:42 04.01.2022
6069 Clouds 5 1007 97 4157 4.13 178 13:57 04.01.2022
6070 Clouds 2 1008 98 7343 4.01 181 12:24 04.01.2022
6071 Clouds 3 1009 92 10000 3.64 178 10:24 04.01.2022
6072 Clouds 3 1009 93 2440 3.14 173 08:59 04.01.2022
6073 Rain 2 1009 93 1083 2.1 202 06:46 04.01.2022
6074 Rain 2 1014 80 10000 2.47 224 00:44 04.01.2022
6075 Clouds 2 1015 81 10000 2.47 221 23:56 03.01.2022
6076 Clouds 2 1018 65 10000 1.81 237 22:28 03.01.2022
6077 Snow 1 1018 65 10000 1.81 237 21:41 03.01.2022
6078 Rain 2 1018 66 10000 1.51 246 20:42 03.01.2022
6079 Clouds 2 1018 69 10000 1.5 273 19:43 03.01.2022
6080 Clouds 2 1019 85 10000 1.93 286 18:31 03.01.2022
6081 Clouds 2 1019 83 10000 1.82 292 17:34 03.01.2022
6082 Clouds 3 1019 82 10000 1.94 299 16:56 03.01.2022
6083 Clouds 5 1019 73 10000 1.73 307 14:33 03.01.2022
6084 Clouds 5 1020 76 10000 2.18 326 13:25 03.01.2022
6085 Clouds 4 1021 77 10000 2.42 329 12:22 03.01.2022
6086 Clouds 3 1022 78 10000 2.82 335 11:22 03.01.2022
6087 Clouds 2 1023 77 10000 2.8 331 09:41 03.01.2022
6088 Clouds 1 1024 85 10000 3.02 321 07:55 03.01.2022
6089 Clouds 1 1025 78 10000 2.95 317 05:21 03.01.2022
6090 Clouds -1 1027 67 10000 2.33 293 23:44 02.01.2022
6091 Clouds -1 1027 65 10000 2.2 285 22:57 02.01.2022
6092 Clouds -1 1027 63 10000 2.14 286 22:22 02.01.2022
6093 Clouds 1 1027 61 10000 2.37 293 21:26 02.01.2022
6094 Clouds 0 1027 61 10000 2.37 293 20:30 02.01.2022
6095 Clouds 0 1027 57 10000 2.18 299 19:32 02.01.2022
6096 Clouds -1 1027 56 10000 2.07 300 18:56 02.01.2022
6097 Clouds 0 1027 57 10000 1.95 300 18:30 02.01.2022
6098 Clouds 1 1026 59 10000 2 300 17:42 02.01.2022
6099 Clouds 1 1025 64 10000 1.78 302 17:21 02.01.2022
6100 Clouds 4 1025 61 10000 1.78 302 16:30 02.01.2022
6101 Clouds 2 1023 72 10000 1.43 306 15:39 02.01.2022
6102 Clouds 3 1023 92 10000 2.36 325 13:57 02.01.2022
6103 Clouds 5 1023 57 10000 2.2 319 12:32 02.01.2022
6104 Clouds 5 1024 56 10000 1.36 294 11:55 02.01.2022
6105 Clouds 5 1024 59 10000 1.1 260 10:55 02.01.2022
6106 Clouds 5 1025 56 10000 1.32 240 10:18 02.01.2022
6107 Clouds 1 1027 43 10000 1.73 224 07:44 02.01.2022
6108 Clouds -1 1028 40 10000 1.57 234 02:57 02.01.2022
6109 Clouds 1 1029 61 10000 1.37 238 23:50 01.01.2022
6110 Clouds 1 1029 61 10000 1.29 243 23:27 01.01.2022
6111 Clouds 2 1029 61 10000 1.18 248 22:26 01.01.2022
6112 Clouds 2 1029 60 10000 1.18 248 21:54 01.01.2022
6113 Clouds 2 1029 61 10000 1.18 248 21:36 01.01.2022
6114 Clouds 2 1029 62 10000 1.09 273 20:27 01.01.2022
6115 Clouds 1 1029 61 10000 1.09 273 19:36 01.01.2022
6116 Clouds 1 1029 37 10000 1.06 275 18:52 01.01.2022
6117 Clouds 3 1029 64 10000 1.04 280 17:41 01.01.2022
6118 Clouds 4 1028 62 10000 0.9 292 16:35 01.01.2022
6119 Clouds 6 1027 58 10000 1.05 312 15:42 01.01.2022
6120 Clouds 7 1027 52 10000 1.07 318 14:39 01.01.2022
6121 Clouds 7 1027 53 10000 1.22 317 13:42 01.01.2022
6122 Clouds 5 1028 61 10000 1.33 313 12:25 01.01.2022
6123 Clouds 5 1028 64 10000 1.37 314 11:26 01.01.2022
6124 Clouds 4 1028 65 10000 1.37 314 10:58 01.01.2022
6125 Clouds 3 1029 67 10000 1.43 299 09:48 01.01.2022
6126 Clouds 0 1031 68 10000 1.48 291 08:39 01.01.2022
6127 Clouds -1 1031 68 10000 1.44 290 08:18 01.01.2022
6128 Clouds 0 1031 68 10000 1.44 290 07:38 01.01.2022
6129 Clear 0 1031 66 10000 1.52 294 06:44 01.01.2022
6130 Clear 0 1031 66 10000 1.26 288 05:24 01.01.2022
6131 Clear 0 1031 65 10000 1.26 288 04:35 01.01.2022
6132 Clear 1 1032 67 10000 1.52 282 00:23 01.01.2022
6133 Clear 0 1032 65 10000 1.68 284 22:30 31.12.2021
6134 Clear 0 1032 44 10000 1.88 296 21:47 31.12.2021
6135 Clear 0 1031 40 10000 2.12 303 19:48 31.12.2021
6136 Clear 2 1030 63 10000 1.71 280 19:28 31.12.2021
6137 Clear -2 1030 39 10000 1.97 297 18:18 31.12.2021
6138 Clear 3 1028 64 10000 1.75 295 17:28 31.12.2021
6139 Clear 4 1028 63 10000 1.75 295 16:52 31.12.2021
6140 Clear 6 1026 62 10000 2.42 314 16:18 31.12.2021
6141 Clear 6 1026 59 10000 2.42 314 15:50 31.12.2021
6142 Clear 7 1025 56 10000 1.72 305 15:26 31.12.2021
6143 Clear 8 1025 56 10000 1.72 305 14:39 31.12.2021
6144 Clear 7 1025 55 10000 1.41 287 13:55 31.12.2021
6145 Clouds 8 1026 61 10000 1.33 288 12:51 31.12.2021
6146 Clouds 7 1026 76 10000 1.56 296 12:21 31.12.2021
6147 Clouds 6 1026 62 10000 1.56 296 11:42 31.12.2021
6148 Clouds 5 1026 65 10000 1.24 280 10:55 31.12.2021
6149 Clouds 4 1026 64 10000 1.32 268 10:28 31.12.2021
6150 Clouds 1 1026 65 10000 1.32 268 09:34 31.12.2021
6151 Clouds 1 1027 69 10000 1.35 258 08:54 31.12.2021
6152 Clouds 0 1027 71 10000 1.36 261 07:59 31.12.2021
6153 Clear 0 1027 76 10000 1.38 268 04:55 31.12.2021
6154 Clouds 0 1027 89 10000 1.18 258 23:18 30.12.2021
6155 Clouds 1 1027 91 10000 1.18 258 22:32 30.12.2021
6156 Clouds 1 1028 91 10000 1.1 258 21:39 30.12.2021
6157 Clouds 1 1028 92 10000 1.11 267 21:19 30.12.2021
6158 Clouds 1 1028 93 10000 1.11 267 20:40 30.12.2021
6159 Clouds 2 1028 94 10000 1.12 274 19:56 30.12.2021
6160 Clouds 2 1028 95 10000 1.12 274 19:31 30.12.2021
6161 Clouds 4 1027 95 7487 1.23 309 18:28 30.12.2021
6162 Clouds 3 1026 94 7192 1.49 320 16:53 30.12.2021
6163 Clouds 4 1025 91 1346 1.6 320 15:54 30.12.2021
6164 Clouds 6 1024 92 869 1.48 318 15:21 30.12.2021
6165 Clouds 5 1024 93 869 1.48 318 14:36 30.12.2021
6166 Clouds 6 1023 93 219 1.52 313 13:25 30.12.2021
6167 Clouds 5 1024 93 1477 1.82 320 11:58 30.12.2021
6168 Clouds 4 1024 95 4008 2.38 323 10:40 30.12.2021
6169 Clouds 3 1024 95 4105 2.6 322 09:49 30.12.2021
6170 Clouds 4 1022 95 1757 3.7 327 06:59 30.12.2021
6171 Clouds 3 1020 100 782 4.29 328 05:27 30.12.2021
6172 Rain 3 1019 91 52 4.38 323 03:41 30.12.2021
6173 Clouds 3 1019 89 144 4.19 323 02:32 30.12.2021
6174 Clouds 2 1016 100 31 3.09 322 23:39 29.12.2021
6175 Rain 3 1016 96 33 3.63 321 22:55 29.12.2021
6176 Clouds 3 1015 97 34 4 309 22:18 29.12.2021
6177 Snow -1 1014 100 40 4.27 314 20:59 29.12.2021
6178 Snow -1 1014 100 40 4.27 314 20:30 29.12.2021
6179 Snow -1 1014 100 40 4.27 314 20:30 29.12.2021
6180 Snow -1 1014 100 55 3.08 318 19:38 29.12.2021
6181 Snow -1 1013 100 56 3.36 309 18:43 29.12.2021
6182 Snow -1 1013 100 66 3.37 317 17:51 29.12.2021
6183 Snow 0 1013 95 71 3.37 322 17:27 29.12.2021
6184 Snow 0 1013 95 79 2.73 316 16:22 29.12.2021
6185 Snow 0 1013 95 124 2.39 316 15:26 29.12.2021
6186 Snow 0 1014 94 170 2.07 317 13:42 29.12.2021
6187 Snow 0 1015 93 183 1.55 311 12:35 29.12.2021
6188 Snow 0 1017 93 284 1.3 291 11:25 29.12.2021
6189 Snow 1 1017 89 407 1.51 291 09:38 29.12.2021
6190 Snow 0 1016 95 1806 2.28 284 07:47 29.12.2021
6191 Clouds 0 1015 95 10000 2.31 294 06:37 29.12.2021
6192 Clouds 0 1015 95 10000 2.28 299 05:57 29.12.2021
6193 Clouds 0 1015 94 10000 2.28 299 05:30 29.12.2021
6194 Clouds 1 1013 92 10000 3 304 01:45 29.12.2021
6195 Snow 0 1011 94 9202 3.09 305 00:00 29.12.2021
6196 Snow 0 1011 94 9202 3.09 305 23:31 28.12.2021
6197 Snow 0 1008 95 858 1.95 321 22:29 28.12.2021
6198 Snow 0 1008 95 858 1.95 321 21:57 28.12.2021
6199 Snow 0 1008 94 858 1.95 321 21:36 28.12.2021
6200 Snow 0 1008 92 2165 2.27 307 20:35 28.12.2021
6201 Snow 1 1007 91 1186 1.48 259 18:59 28.12.2021
6202 Snow 1 1006 93 729 1.47 287 18:29 28.12.2021
6203 Snow 1 1006 93 729 1.47 287 17:57 28.12.2021
6204 Snow 2 1005 93 161 1.44 292 16:29 28.12.2021
6205 Rain 2 1005 94 161 1.44 292 15:45 28.12.2021
6206 Rain 2 1005 93 119 1.86 288 15:20 28.12.2021
6207 Snow 2 1005 93 119 1.86 288 14:46 28.12.2021
6208 Snow 2 1005 92 937 1.5 285 14:20 28.12.2021
6209 Snow 1 1005 91 937 1.5 285 13:42 28.12.2021
6210 Snow 1 1006 92 2347 2.06 244 13:24 28.12.2021
6211 Snow 1 1007 91 5917 1.35 253 12:39 28.12.2021
6212 Snow 0 1008 97 271 2.31 184 11:27 28.12.2021
6213 Snow -1 1008 90 10000 1.75 184 07:40 28.12.2021
6214 Snow -3 1009 95 579 2.69 204 06:41 28.12.2021
6215 Clouds -4 1012 90 10000 1.39 219 23:43 27.12.2021
6216 Clouds -2 1011 91 10000 1.48 228 22:58 27.12.2021
6217 Clouds -1 1010 90 10000 1.21 215 21:33 27.12.2021
6218 Snow -1 1009 90 8341 0.56 267 20:46 27.12.2021
6219 Snow 0 1009 90 2943 1.34 276 19:58 27.12.2021
6220 Snow 0 1009 89 2943 1.34 276 19:39 27.12.2021
6221 Snow -2 1008 94 4271 1.64 226 18:23 27.12.2021
6222 Snow -2 1008 94 4271 1.64 226 17:46 27.12.2021
6223 Snow -2 1008 93 10000 2.24 197 16:38 27.12.2021
6224 Snow -1 1006 91 10000 2.51 173 15:51 27.12.2021
6225 Clouds -1 1006 91 10000 2.72 171 14:32 27.12.2021
6226 Clouds -1 1006 91 10000 3.2 165 13:39 27.12.2021
6227 Clouds 0 1007 71 5557 3.99 169 11:53 27.12.2021
6228 Clouds -2 1009 74 9204 3.38 167 10:29 27.12.2021
6229 Clouds -3 1009 78 9204 3.38 167 09:39 27.12.2021
6230 Clouds -5 1011 89 10000 2.19 181 07:35 27.12.2021
6231 Clouds -5 1012 86 10000 1.85 199 06:56 27.12.2021
6232 Clouds -2 1011 83 10000 1.88 208 02:18 27.12.2021
6233 Clouds -2 1012 81 10000 1.58 227 23:58 26.12.2021
6234 Clouds -2 1012 82 10000 1.58 227 23:35 26.12.2021
6235 Clouds -2 1012 80 10000 1.64 217 21:59 26.12.2021
6236 Clouds -2 1010 83 10000 1.12 222 20:54 26.12.2021
6237 Clouds -1 1010 82 10000 1.22 222 19:47 26.12.2021
6238 Clouds 0 1009 83 10000 0.5 201 18:24 26.12.2021
6239 Clouds 1 1008 76 8974 0.56 315 16:20 26.12.2021
6240 Clouds 3 1006 70 10000 0.17 346 14:27 26.12.2021
6241 Clouds 2 1006 68 10000 0.17 346 13:40 26.12.2021
6242 Clouds 2 1006 68 10000 0.25 73 13:19 26.12.2021
6243 Clouds 1 1006 77 10000 0.62 2 12:32 26.12.2021
6244 Clouds 0 1007 77 10000 1.17 322 10:32 26.12.2021
6245 Snow -2 1010 83 10000 1.41 302 09:19 26.12.2021
6246 Snow -2 1010 83 10000 1.41 302 08:43 26.12.2021
6247 Snow -3 1011 79 10000 1.47 292 07:34 26.12.2021
6248 Clouds -2 1010 79 10000 0.98 242 01:24 26.12.2021
6249 Clouds -2 1009 81 10000 0.86 255 23:53 25.12.2021
6250 Clouds -2 1009 81 10000 0.85 256 23:27 25.12.2021
6251 Clouds -2 1009 81 10000 0.81 253 22:26 25.12.2021
6252 Clouds -2 1010 80 10000 0.84 261 20:57 25.12.2021
6253 Clouds -1 1009 79 10000 0.94 271 19:26 25.12.2021
6254 Clouds -1 1009 80 10000 0.94 271 18:55 25.12.2021
6255 Clouds -1 1009 79 10000 0.92 273 17:33 25.12.2021
6256 Clouds -1 1008 88 10000 1.06 298 16:36 25.12.2021
6257 Clouds 2 1005 64 10000 0.75 336 14:46 25.12.2021
6258 Clouds 1 1005 89 10000 0.66 351 13:30 25.12.2021
6259 Clouds 1 1006 65 10000 0.55 216 11:46 25.12.2021
6260 Clouds -1 1009 73 10000 0.82 238 09:51 25.12.2021
6261 Clouds -2 1010 75 10000 0.88 253 08:38 25.12.2021
6262 Clouds -2 1011 81 10000 0.94 239 02:59 25.12.2021
6263 Clouds -2 1012 81 10000 1.25 234 01:23 25.12.2021
6264 Clouds -2 1012 81 10000 1.12 251 23:40 24.12.2021
6265 Clouds -1 1011 78 10000 0.94 276 19:45 24.12.2021
6266 Clouds -1 1013 79 8208 1.64 280 19:23 24.12.2021
6267 Clouds 0 1011 76 9078 1.34 277 16:53 24.12.2021
6268 Clouds 0 1010 74 9523 0.83 267 16:21 24.12.2021
6269 Clouds 0 1010 73 9523 0.83 267 15:48 24.12.2021
6270 Clouds 2 1010 65 10000 0.74 270 14:47 24.12.2021
6271 Clouds 2 1010 67 10000 1.01 264 14:24 24.12.2021
6272 Clouds 1 1010 73 10000 1.01 264 13:39 24.12.2021
6273 Clouds 0 1010 73 10000 0.58 257 12:48 24.12.2021
6274 Rain 2 1011 70 10000 0.42 306 12:19 24.12.2021
6275 Clouds 1 1012 74 10000 0.54 300 11:29 24.12.2021
6276 Clouds 1 1012 71 10000 0.54 300 10:59 24.12.2021
6277 Clouds 0 1014 76 10000 1.24 289 10:28 24.12.2021
6278 Clouds -2 1016 78 10000 1.06 250 08:26 24.12.2021
6279 Clouds -2 1016 76 10000 1.06 250 07:50 24.12.2021
6280 Clear -5 1019 66 10000 1.35 254 03:21 24.12.2021
6281 Clouds -4 1021 44 10000 1.32 276 00:19 24.12.2021
6282 Clouds -4 1021 40 10000 1.4 275 23:23 23.12.2021
6283 Clouds -4 1021 40 10000 1.4 275 23:23 23.12.2021
6284 Clouds -4 1021 40 10000 1.4 275 22:40 23.12.2021
6285 Clouds -4 1021 37 10000 1.51 275 22:20 23.12.2021
6286 Clouds -6 1021 37 10000 1.51 275 21:34 23.12.2021
6287 Clouds -6 1021 33 10000 1.55 273 20:21 23.12.2021
6288 Clouds -5 1021 33 10000 1.61 276 19:27 23.12.2021
6289 Clouds -5 1021 33 10000 1.68 284 17:57 23.12.2021
6290 Clouds -5 1021 39 10000 1.68 285 16:58 23.12.2021
6291 Clouds -1 1018 57 10000 1.52 288 16:26 23.12.2021
6292 Clouds -2 1018 53 10000 1.52 288 15:32 23.12.2021
6293 Clouds 1 1016 51 10000 1.19 284 14:55 23.12.2021
6294 Clouds 2 1016 51 10000 1.19 284 14:37 23.12.2021
6295 Clouds 2 1017 42 10000 1.08 274 13:23 23.12.2021
6296 Clouds -2 1019 51 10000 1.19 276 10:54 23.12.2021
6297 Clouds -2 1019 51 10000 1.19 276 10:54 23.12.2021
6298 Clouds -3 1021 56 10000 1.3 262 09:52 23.12.2021
6299 Clouds -3 1021 55 10000 1.3 262 09:31 23.12.2021
6300 Clouds -5 1024 56 10000 1.41 253 08:25 23.12.2021
6301 Clouds -7 1024 34 10000 1.13 259 04:39 23.12.2021
6302 Clouds -10 1027 32 10000 1.99 213 23:43 22.12.2021
6303 Clear -10 1027 30 10000 2.15 212 22:49 22.12.2021
6304 Clear -10 1028 30 10000 1.98 213 21:57 22.12.2021
6305 Clear -9 1028 30 10000 1.98 213 21:30 22.12.2021
6306 Clear -9 1028 30 10000 1.93 215 20:52 22.12.2021
6307 Clear -9 1028 30 10000 1.93 215 20:33 22.12.2021
6308 Clear -9 1028 31 10000 1.8 216 19:37 22.12.2021
6309 Clouds -8 1028 43 10000 1.53 220 18:19 22.12.2021
6310 Clouds -8 1028 43 10000 1.53 220 17:37 22.12.2021
6311 Clouds -7 1025 63 10000 1.64 201 15:49 22.12.2021
6312 Clear -1 1021 44 10000 1.46 180 13:57 22.12.2021
6313 Clear -3 1021 57 10000 1.42 176 12:47 22.12.2021
6314 Clear -8 1021 49 10000 1.12 179 11:37 22.12.2021
6315 Clear -7 1024 58 10000 0.78 237 09:43 22.12.2021
6316 Clear -8 1027 62 10000 0.91 257 07:55 22.12.2021
6317 Clear -8 1027 27 10000 1.08 274 05:51 22.12.2021
6318 Clear -8 1027 27 10000 1.08 274 05:31 22.12.2021
6319 Clear -8 1027 28 10000 1.07 276 04:55 22.12.2021
6320 Clear -8 1027 28 10000 1.07 276 04:31 22.12.2021
6321 Clear -8 1027 29 10000 1.1 279 03:34 22.12.2021
6322 Clear -8 1027 31 10000 1.12 275 02:25 22.12.2021
6323 Clear -8 1028 36 10000 1.28 274 23:47 21.12.2021
6324 Clear -8 1028 37 10000 1.3 265 22:29 21.12.2021
6325 Clear -8 1028 37 10000 1.3 265 21:53 21.12.2021
6326 Clear -8 1027 38 10000 1.32 260 21:26 21.12.2021
6327 Clear -8 1027 41 10000 1.28 250 20:24 21.12.2021
6328 Clear -7 1027 41 10000 1.28 250 19:52 21.12.2021
6329 Clear -7 1027 41 10000 1.28 250 19:31 21.12.2021
6330 Clouds -7 1026 58 10000 1.38 240 18:23 21.12.2021
6331 Clouds -7 1026 58 10000 1.38 240 17:52 21.12.2021
6332 Clouds -7 1025 72 10000 1.55 225 16:47 21.12.2021
6333 Clouds -5 1022 82 10000 1.63 208 15:33 21.12.2021
6334 Clouds -2 1020 48 10000 1.6 197 13:51 21.12.2021
6335 Clouds -3 1020 51 10000 1.6 197 13:32 21.12.2021
6336 Clear -7 1020 66 10000 1.61 200 12:20 21.12.2021
6337 Clear -8 1021 61 10000 1.83 196 10:38 21.12.2021
6338 Clear -6 1023 55 10000 1.74 204 09:41 21.12.2021
6339 Clear -7 1025 35 10000 1.75 213 08:39 21.12.2021
6340 Clear -8 1026 27 10000 1.66 213 07:35 21.12.2021
6341 Clear -8 1025 27 10000 1.55 216 06:56 21.12.2021
6342 Clear -7 1025 25 10000 1.68 217 03:22 21.12.2021
6343 Clear -7 1025 25 10000 1.53 214 01:19 21.12.2021
6344 Clouds -7 1026 26 10000 1.38 221 23:54 20.12.2021
6345 Clouds -6 1026 70 10000 1.16 226 22:35 20.12.2021
6346 Clouds -6 1026 72 10000 0.98 235 21:48 20.12.2021
6347 Clouds -6 1025 71 10000 0.95 245 21:24 20.12.2021
6348 Clouds -7 1025 74 10000 0.95 245 20:50 20.12.2021
6349 Clouds -6 1025 78 10000 0.87 261 19:55 20.12.2021
6350 Clouds -6 1025 78 10000 0.87 261 19:55 20.12.2021
6351 Clouds -7 1025 77 10000 0.87 261 19:34 20.12.2021
6352 Clouds -6 1025 80 10000 0.79 288 18:55 20.12.2021
6353 Clouds -6 1024 77 10000 0.84 290 18:28 20.12.2021
6354 Clouds -5 1024 69 10000 0.84 290 17:49 20.12.2021
6355 Clouds -6 1023 50 10000 1.02 302 16:44 20.12.2021
6356 Clouds -2 1021 62 10000 1.32 330 15:52 20.12.2021
6357 Clouds -2 1019 58 10000 1.8 346 14:58 20.12.2021
6358 Clouds 2 1017 63 10000 2.07 344 13:31 20.12.2021
6359 Clouds 0 1018 68 10000 2.24 332 11:36 20.12.2021
6360 Clouds -8 1022 54 10000 1.99 317 09:56 20.12.2021
6361 Clouds -6 1022 73 10000 1.99 317 09:32 20.12.2021
6362 Clouds -7 1024 44 10000 2.03 313 08:43 20.12.2021
6363 Clouds -6 1024 68 10000 2.09 311 07:57 20.12.2021
6364 Clouds -6 1024 68 10000 2.09 311 07:31 20.12.2021
6365 Clear -5 1024 68 10000 2.05 314 05:25 20.12.2021
6366 Clear -3 1027 63 10000 1.54 345 00:19 20.12.2021
6367 Clear -3 1027 62 10000 1.39 350 22:55 19.12.2021
6368 Clear -3 1027 66 10000 1.28 357 21:55 19.12.2021
6369 Clear -3 1027 67 10000 1.28 357 21:31 19.12.2021
6370 Clear -5 1028 37 10000 1.31 6 20:34 19.12.2021
6371 Clear -3 1028 64 10000 1.28 12 19:52 19.12.2021
6372 Clear -4 1028 41 10000 1.28 12 19:32 19.12.2021
6373 Clear -8 1028 47 10000 1.1 2 18:30 19.12.2021
6374 Clear -7 1028 51 10000 0.96 1 17:53 19.12.2021
6375 Clear -8 1028 57 10000 1.11 13 17:21 19.12.2021
6376 Clear 0 1026 61 10000 1.5 14 16:27 19.12.2021
6377 Clear 0 1026 62 10000 1.5 14 15:43 19.12.2021
6378 Clear 1 1024 58 10000 1.89 18 15:21 19.12.2021
6379 Clear 2 1024 56 10000 1.89 18 14:42 19.12.2021
6380 Clear 3 1024 51 10000 1.88 19 13:24 19.12.2021
6381 Clear 1 1024 82 10000 1.88 19 12:46 19.12.2021
6382 Clear 4 1025 81 10000 1.82 17 12:23 19.12.2021
6383 Clear 1 1026 72 10000 1.69 8 11:21 19.12.2021
6384 Clear -3 1028 67 10000 1.16 349 10:26 19.12.2021
6385 Clear -4 1028 69 10000 1.16 349 09:48 19.12.2021
6386 Clear -5 1030 70 10000 1.03 341 08:43 19.12.2021
6387 Clear -4 1032 72 10000 1.48 321 04:45 19.12.2021
6388 Clear -4 1033 71 10000 1.76 312 01:33 19.12.2021
6389 Clear -4 1034 72 10000 1.57 310 00:52 19.12.2021
6390 Clear -3 1034 68 10000 1.35 299 22:37 18.12.2021
6391 Clear -3 1034 66 10000 1.26 295 21:58 18.12.2021
6392 Clear -3 1034 66 10000 1.26 295 21:36 18.12.2021
6393 Clear -5 1034 40 10000 1.1 290 20:44 18.12.2021
6394 Clear -3 1034 69 10000 0.97 278 20:19 18.12.2021
6395 Clear -3 1033 70 10000 0.94 245 19:25 18.12.2021
6396 Clear -6 1033 46 10000 0.88 215 18:22 18.12.2021
6397 Clear -5 1033 46 10000 0.88 215 17:48 18.12.2021
6398 Clear 0 1030 65 10000 0.85 171 16:26 18.12.2021
6399 Clear 2 1029 58 10000 1.15 153 15:27 18.12.2021
6400 Clear 2 1029 54 10000 1.15 153 14:48 18.12.2021
6401 Clear 2 1030 57 10000 1.9 152 13:21 18.12.2021
6402 Clear -6 1031 61 10000 1.75 154 11:22 18.12.2021
6403 Clear -4 1033 70 10000 1.49 156 09:40 18.12.2021
6404 Clear -5 1035 73 10000 0.88 145 08:47 18.12.2021
6405 Clear -5 1035 71 10000 0.57 125 08:23 18.12.2021
6406 Clear -4 1034 74 10000 0.81 6 03:58 18.12.2021
6407 Clear -4 1035 79 10000 1.36 333 00:29 18.12.2021
6408 Clear -4 1035 74 10000 1.36 333 23:44 17.12.2021
6409 Clear -4 1036 80 10000 1.66 326 21:57 17.12.2021
6410 Clear -5 1037 87 10000 1.61 330 21:19 17.12.2021
6411 Clear -5 1037 87 10000 1.61 330 20:40 17.12.2021
6412 Clear -3 1036 71 10000 1.59 326 19:24 17.12.2021
6413 Clear -3 1036 33 10000 1.49 325 18:38 17.12.2021
6414 Clear -1 1035 68 10000 1.62 326 17:31 17.12.2021
6415 Clear -4 1035 37 10000 1.64 317 16:46 17.12.2021
6416 Clear -1 1033 67 10000 1.81 336 16:22 17.12.2021
6417 Clear 2 1031 59 10000 1.76 337 15:25 17.12.2021
6418 Clear 2 1031 56 10000 1.76 337 14:40 17.12.2021
6419 Clear 1 1030 57 10000 1.61 331 13:21 17.12.2021
6420 Clear -4 1030 75 10000 1.34 336 11:46 17.12.2021
6421 Clear -6 1031 61 10000 1.08 311 10:37 17.12.2021
6422 Clear -6 1032 49 10000 0.89 282 09:33 17.12.2021
6423 Clear -3 1034 70 10000 1.45 244 08:30 17.12.2021
6424 Clear -3 1035 67 10000 1.67 190 06:22 17.12.2021
6425 Clear -4 1035 72 10000 1.89 175 02:53 17.12.2021
6426 Clear -4 1035 74 10000 1.35 164 23:40 16.12.2021
6427 Clear -5 1036 81 10000 0.53 127 22:24 16.12.2021
6428 Clear -5 1036 81 10000 0.53 127 22:24 16.12.2021
6429 Clear -5 1036 82 10000 0.53 127 21:50 16.12.2021
6430 Clear -4 1035 84 10000 0.56 39 21:25 16.12.2021
6431 Clear -5 1035 86 10000 0.56 39 20:30 16.12.2021
6432 Clear -5 1035 87 10000 0.78 355 19:44 16.12.2021
6433 Clear -5 1035 90 10000 0.81 346 18:39 16.12.2021
6434 Clear -5 1035 90 10000 1.18 339 17:56 16.12.2021
6435 Clear -5 1035 90 10000 1.18 339 17:31 16.12.2021
6436 Clear -3 1031 82 10000 2.44 337 16:22 16.12.2021
6437 Clear -5 1029 69 10000 2.54 334 14:50 16.12.2021
6438 Clear -5 1029 81 10000 2.27 326 13:29 16.12.2021
6439 Clear 5 1030 72 10000 1.95 330 11:20 16.12.2021
6440 Clear -6 1030 72 10000 1.95 330 10:59 16.12.2021
6441 Clear -7 1031 63 10000 1.79 327 10:20 16.12.2021
6442 Clear -3 1032 78 10000 1.56 323 07:48 16.12.2021
6443 Clouds -3 1032 78 10000 1.53 323 06:21 16.12.2021
6444 Clouds -3 1032 77 10000 1.08 323 00:54 16.12.2021
6445 Clouds -4 1032 53 10000 1 323 23:33 15.12.2021
6446 Clouds -4 1032 53 10000 0.89 322 22:43 15.12.2021
6447 Clouds -4 1032 53 10000 0.86 313 21:55 15.12.2021
6448 Clouds -4 1032 54 10000 0.7 294 21:26 15.12.2021
6449 Clouds -3 1032 56 10000 0.48 288 20:18 15.12.2021
6450 Clouds -3 1032 56 10000 0.48 288 19:50 15.12.2021
6451 Clouds -5 1031 58 10000 0.36 288 18:37 15.12.2021
6452 Clouds -3 1031 62 10000 0.41 306 17:53 15.12.2021
6453 Clouds -3 1031 62 10000 0.41 306 17:34 15.12.2021
6454 Clouds 0 1029 71 10000 0.88 8 16:28 15.12.2021
6455 Clouds -5 1029 75 10000 0.88 8 15:46 15.12.2021
6456 Clouds 4 1027 68 10000 1.05 9 15:27 15.12.2021
6457 Clouds 3 1027 62 10000 0.95 3 14:18 15.12.2021
6458 Clouds 3 1027 70 10000 1.15 348 12:37 15.12.2021
6459 Clouds 1 1030 75 10000 1.11 337 10:27 15.12.2021
6460 Clouds -2 1032 78 10000 1.21 325 08:55 15.12.2021
6461 Clouds -3 1031 77 10000 1.52 327 07:25 15.12.2021
6462 Clouds -3 1032 75 10000 1.06 300 01:20 15.12.2021
6463 Clouds -4 1032 43 10000 1.04 303 23:42 14.12.2021
6464 Clouds -7 1033 44 10000 1.29 300 22:49 14.12.2021
6465 Clouds -4 1033 45 10000 1.13 293 22:24 14.12.2021
6466 Clouds -2 1032 76 10000 1.5 297 20:29 14.12.2021
6467 Clouds -3 1032 47 10000 1.5 297 19:43 14.12.2021
6468 Clouds -4 1032 49 10000 1.62 297 19:19 14.12.2021
6469 Clouds -2 1031 71 10000 1.67 308 18:25 14.12.2021
6470 Clouds -1 1031 69 10000 1.67 308 17:30 14.12.2021
6471 Clouds -5 1030 51 10000 1.82 312 16:39 14.12.2021
6472 Clouds 3 1028 65 10000 2.22 322 15:36 14.12.2021
6473 Clouds 2 1025 65 10000 1.9 326 13:31 14.12.2021
6474 Clouds 2 1026 71 10000 1.34 326 11:59 14.12.2021
6475 Clouds 1 1027 63 10000 1.14 334 11:24 14.12.2021
6476 Clouds 1 1028 52 10000 1.2 334 10:23 14.12.2021
6477 Clouds 0 1028 52 10000 1.2 334 09:43 14.12.2021
6478 Clouds -4 1031 78 10000 1 307 08:27 14.12.2021
6479 Clouds -4 1031 80 10000 1 307 07:43 14.12.2021
6480 Clear -3 1030 88 10000 1.36 312 02:37 14.12.2021
6481 Clouds -3 1030 91 10000 1.07 296 22:56 13.12.2021
6482 Clouds -2 1030 91 10000 0.94 295 21:53 13.12.2021
6483 Clouds -2 1030 89 10000 0.94 295 21:32 13.12.2021
6484 Clouds -2 1030 91 10000 0.87 302 20:42 13.12.2021
6485 Clouds -2 1030 91 10000 0.9 311 19:52 13.12.2021
6486 Clouds -1 1029 91 10000 1.1 318 18:24 13.12.2021
6487 Clouds 0 1028 90 10000 1.06 334 17:26 13.12.2021
6488 Clouds 1 1026 86 10000 1.27 347 15:54 13.12.2021
6489 Clouds 2 1025 82 8925 1.27 353 15:25 13.12.2021
6490 Clouds 2 1025 80 5620 1.24 350 13:39 13.12.2021
6491 Clouds 3 1025 84 3151 1.23 352 12:49 13.12.2021
6492 Clouds -1 1025 100 10000 1.19 354 11:56 13.12.2021
6493 Clouds -1 1025 100 10000 1.19 354 11:35 13.12.2021
6494 Clouds 2 1026 98 10000 1.25 4 10:47 13.12.2021
6495 Clouds -1 1026 90 10000 1.24 4 09:32 13.12.2021
6496 Clouds -2 1029 92 10000 1.12 352 07:48 13.12.2021
6497 Clouds -7 1028 91 10000 1.22 358 05:36 13.12.2021
6498 Clouds -3 1029 86 10000 1.17 348 03:28 13.12.2021
6499 Clouds -5 1029 85 10000 1.2 353 23:22 12.12.2021
6500 Clouds -5 1030 85 10000 1.29 344 21:40 12.12.2021
6501 Clouds -4 1031 88 10000 1.6 339 19:57 12.12.2021
6502 Clouds -4 1031 88 10000 1.9 336 18:36 12.12.2021
6503 Clouds -4 1031 88 10000 1.9 336 18:36 12.12.2021
6504 Clouds -3 1031 89 10000 2.24 331 17:38 12.12.2021
6505 Clouds -3 1028 86 10000 2.95 334 16:28 12.12.2021
6506 Clouds -2 1028 83 10000 2.95 334 15:46 12.12.2021
6507 Clouds -3 1026 81 10000 3.38 335 15:25 12.12.2021
6508 Clouds -3 1026 83 10000 3.38 335 14:34 12.12.2021
6509 Clouds -5 1025 59 10000 3.31 338 13:26 12.12.2021
6510 Clouds -6 1025 60 10000 3.56 336 12:30 12.12.2021
6511 Clouds -6 1025 56 10000 3.57 333 11:44 12.12.2021
6512 Clouds -6 1027 54 10000 3.47 332 11:20 12.12.2021
6513 Clouds -7 1029 56 10000 2.88 326 10:22 12.12.2021
6514 Clouds -6 1032 85 10000 2.81 322 08:58 12.12.2021
6515 Clouds -7 1033 54 10000 2.79 322 07:57 12.12.2021
6516 Clouds -6 1033 63 10000 2.46 320 05:57 12.12.2021
6517 Clouds -6 1033 76 10000 2.42 322 04:56 12.12.2021
6518 Clouds -6 1030 88 10000 3.19 331 03:27 12.12.2021
6519 Clouds -4 1028 91 7679 3.81 335 23:39 11.12.2021
6520 Clouds -5 1027 95 7012 3.55 336 22:22 11.12.2021
6521 Clouds -5 1027 95 7012 3.55 336 21:51 11.12.2021
6522 Clouds -5 1026 95 6965 3.83 336 20:29 11.12.2021
6523 Snow -5 1025 94 6840 4.26 338 19:21 11.12.2021
6524 Snow -5 1025 94 6840 4.26 338 18:52 11.12.2021
6525 Snow -5 1024 94 6682 4.38 337 18:19 11.12.2021
6526 Snow -5 1022 94 6360 4.46 336 17:20 11.12.2021
6527 Snow -3 1020 74 6767 4.43 337 15:52 11.12.2021
6528 Snow -3 1019 77 5298 4.39 336 15:18 11.12.2021
6529 Snow -3 1017 90 4917 4.35 336 12:50 11.12.2021
6530 Snow -3 1017 90 4917 4.35 336 12:50 11.12.2021
6531 Snow -3 1017 89 4907 4.07 331 11:25 11.12.2021
6532 Snow -4 1017 92 4981 3.85 327 09:45 11.12.2021
6533 Snow -4 1018 93 5095 3.71 320 07:49 11.12.2021
6534 Clouds -4 1013 95 7446 3.14 314 02:20 11.12.2021
6535 Snow -4 1009 91 5675 3.9 324 23:58 10.12.2021
6536 Snow -4 1008 93 7749 3.75 324 23:20 10.12.2021
6537 Clouds -4 1006 92 6120 3.89 326 21:56 10.12.2021
6538 Snow -4 1004 92 4414 3.6 329 20:57 10.12.2021
6539 Snow -4 1001 92 2201 3.21 333 19:21 10.12.2021
6540 Snow -5 1000 92 179 2.6 322 17:59 10.12.2021
6541 Snow -5 1000 91 223 1.75 305 16:56 10.12.2021
6542 Snow -4 1000 89 171 1.47 233 16:19 10.12.2021
6543 Snow -4 1000 88 171 1.47 233 15:39 10.12.2021
6544 Snow -4 1000 87 188 1.99 194 15:20 10.12.2021
6545 Snow -4 1000 81 276 2.5 180 13:51 10.12.2021
6546 Snow -4 1001 72 609 2.94 178 13:26 10.12.2021
6547 Snow -5 1001 89 785 2.95 174 12:34 10.12.2021
6548 Snow -6 1003 88 1173 3.75 172 11:28 10.12.2021
6549 Snow -6 1003 88 1173 3.75 172 11:28 10.12.2021
6550 Clouds -5 1003 82 10000 4.3 174 09:54 10.12.2021
6551 Clouds -6 1004 84 10000 4.47 173 08:52 10.12.2021
6552 Clouds -8 1006 85 10000 3.77 173 06:22 10.12.2021
6553 Clouds -9 1010 85 10000 2.79 189 02:48 10.12.2021
6554 Clouds -8 1016 73 10000 1.37 225 23:54 09.12.2021
6555 Clouds -8 1017 84 10000 1.07 243 23:20 09.12.2021
6556 Clouds -8 1018 90 10000 1.04 265 22:24 09.12.2021
6557 Clouds -6 1018 90 10000 1.04 265 21:50 09.12.2021
6558 Clouds -6 1018 93 10000 1.13 285 20:44 09.12.2021
6559 Clouds -6 1018 94 10000 1.37 302 20:21 09.12.2021
6560 Clouds -6 1017 95 10000 1.77 311 19:21 09.12.2021
6561 Clouds -6 1017 95 10000 1.77 311 18:46 09.12.2021
6562 Clouds -6 1016 96 9038 2.25 318 17:51 09.12.2021
6563 Clouds -5 1014 95 7697 2.7 328 17:26 09.12.2021
6564 Clouds -5 1014 95 7697 2.7 328 16:54 09.12.2021
6565 Clouds -4 1012 94 7228 3.43 332 15:34 09.12.2021
6566 Clouds -4 1010 72 8944 3.78 335 14:46 09.12.2021
6567 Snow -3 1009 77 7133 4.48 337 13:20 09.12.2021
6568 Snow -3 1009 71 7133 4.48 337 12:37 09.12.2021
6569 Snow -3 1009 80 7725 4.54 332 11:21 09.12.2021
6570 Snow -4 1008 82 3487 4.27 333 09:21 09.12.2021
6571 Snow -4 1007 91 1854 4.08 341 06:44 09.12.2021
6572 Snow -4 1006 92 3335 4.03 336 03:40 09.12.2021
6573 Snow -4 1005 93 3666 3.36 335 23:43 08.12.2021
6574 Snow -4 1004 93 3456 3.35 336 23:21 08.12.2021
6575 Snow -4 1004 93 3456 3.35 336 22:47 08.12.2021
6576 Snow -5 1004 94 3428 3.13 337 21:40 08.12.2021
6577 Snow -5 1003 94 3383 3.09 334 20:59 08.12.2021
6578 Snow -4 1003 91 654 2.75 334 19:58 08.12.2021
6579 Snow -4 1003 91 654 2.75 334 19:58 08.12.2021
6580 Snow -4 1003 95 654 2.75 334 19:33 08.12.2021
6581 Snow -4 1001 96 120 2.71 332 18:40 08.12.2021
6582 Snow -3 1000 92 172 2.76 329 17:34 08.12.2021
6583 Snow -3 1000 91 122 0.71 299 15:49 08.12.2021
6584 Snow -3 999 91 133 0.97 283 15:28 08.12.2021
6585 Snow -3 999 89 133 0.97 283 14:30 08.12.2021
6586 Snow -4 1004 93 221 1 231 11:19 08.12.2021
6587 Snow -3 1004 92 221 1 231 10:31 08.12.2021
6588 Snow -3 1004 92 221 1 231 10:31 08.12.2021
6589 Snow -3 1006 91 155 2.87 180 08:55 08.12.2021
6590 Snow -4 1007 89 805 2.4 150 07:25 08.12.2021
6591 Clouds -5 1011 91 10000 3.01 168 04:24 08.12.2021
6592 Snow -5 1013 85 10000 4.62 175 23:33 07.12.2021
6593 Clouds -7 1013 86 10000 4.09 174 21:43 07.12.2021
6594 Clouds -7 1016 86 10000 3.82 177 21:23 07.12.2021
6595 Clouds -7 1016 87 10000 3.33 183 20:20 07.12.2021
6596 Clouds -6 1015 86 10000 2.8 186 18:43 07.12.2021
6597 Clouds -5 1015 58 10000 2.28 185 17:52 07.12.2021
6598 Clouds -5 1017 85 10000 1.88 201 17:19 07.12.2021
6599 Clouds -5 1017 82 10000 1.88 201 16:31 07.12.2021
6600 Clouds -3 1016 79 10000 1.42 211 15:33 07.12.2021
6601 Clear -1 1014 80 10000 0.2 268 14:18 07.12.2021
6602 Clouds -2 1016 82 10000 0.98 339 12:49 07.12.2021
6603 Clouds -3 1018 89 10000 2.39 325 11:27 07.12.2021
6604 Clouds -5 1018 91 10000 2.39 325 10:33 07.12.2021
6605 Snow -5 1017 92 411 3.99 321 08:26 07.12.2021
6606 Snow -6 1016 91 268 3.37 326 06:19 07.12.2021
6607 Snow -6 1016 91 268 3.37 326 05:33 07.12.2021
6608 Clouds -7 1017 85 10000 1.13 261 23:47 06.12.2021
6609 Clouds -7 1017 85 10000 1.13 261 23:47 06.12.2021
6610 Clouds -6 1017 84 10000 1.32 281 22:57 06.12.2021
6611 Clouds -6 1017 62 10000 1.32 281 22:35 06.12.2021
6612 Clouds -7 1020 61 10000 1.94 286 21:51 06.12.2021
6613 Clouds -7 1021 69 10000 1.32 275 20:33 06.12.2021
6614 Clouds -7 1023 83 10000 1.33 265 19:55 06.12.2021
6615 Clouds -7 1023 93 10000 1.23 267 19:20 06.12.2021
6616 Clouds -6 1023 96 10000 1.6 289 18:28 06.12.2021
6617 Clouds -6 1023 96 10000 1.6 289 17:40 06.12.2021
6618 Clouds -6 1023 96 10000 1.6 289 17:40 06.12.2021
6619 Clouds -7 1022 95 10000 1.87 309 16:48 06.12.2021
6620 Clouds -5 1019 93 10000 2.43 329 15:39 06.12.2021
6621 Clouds -3 1016 82 10000 3.2 333 13:46 06.12.2021
6622 Clouds -3 1016 85 10000 3.03 337 12:39 06.12.2021
6623 Clouds -3 1016 87 10000 2.99 338 11:36 06.12.2021
6624 Clouds -6 1018 95 6736 2.33 327 08:46 06.12.2021
6625 Snow -6 1017 94 4451 2.98 333 06:42 06.12.2021
6626 Clouds -7 1016 95 10000 1.37 309 23:38 05.12.2021
6627 Clouds -6 1015 95 10000 0.91 306 21:51 05.12.2021
6628 Clouds -6 1014 95 10000 0.86 322 21:19 05.12.2021
6629 Clouds -6 1013 95 9478 1.33 321 20:19 05.12.2021
6630 Clouds -5 1013 95 9478 1.33 321 19:33 05.12.2021
6631 Clouds -5 1012 95 7649 1.77 326 18:47 05.12.2021
6632 Clouds -5 1011 95 9304 1.61 323 18:19 05.12.2021
6633 Clouds -5 1011 95 9304 1.61 323 17:48 05.12.2021
6634 Clouds -5 1011 93 10000 1.54 327 16:47 05.12.2021
6635 Clouds -4 1008 90 10000 1.55 347 16:26 05.12.2021
6636 Clouds -4 1008 90 10000 1.55 347 15:48 05.12.2021
6637 Clouds -2 1006 79 10000 1.67 359 14:41 05.12.2021
6638 Clouds -2 1005 78 10000 1.9 353 14:23 05.12.2021
6639 Clouds -1 1005 80 10000 2.12 354 13:22 05.12.2021
6640 Clouds -2 1005 83 10000 2.53 347 12:40 05.12.2021
6641 Clouds -3 1006 84 10000 2.5 350 12:18 05.12.2021
6642 Clouds -3 1007 83 10000 2.45 356 11:29 05.12.2021
6643 Clouds -4 1008 89 8249 2.42 348 09:59 05.12.2021
6644 Clouds -6 1009 94 5829 2.22 337 08:24 05.12.2021
6645 Clouds -4 1008 94 6507 2.61 338 03:27 05.12.2021
6646 Snow -2 1008 94 2630 3.65 327 23:45 04.12.2021
6647 Snow -2 1007 92 3215 4.21 323 21:55 04.12.2021
6648 Snow -2 1005 93 5854 2.02 301 20:57 04.12.2021
6649 Snow -1 1004 93 5144 0.64 266 20:20 04.12.2021
6650 Snow 0 1004 94 5144 0.64 266 19:32 04.12.2021
6651 Snow 0 1003 94 90 1.58 330 18:21 04.12.